<?xml version="1.0" encoding="UTF-8"?>
<gpx version="1.1" creator="Garmin Connect"
  xsi:schemaLocation="http://www.topografix.com/GPX/1/1 http://www.topografix.com/GPX/1/1/gpx.xsd http://www.garmin.com/xmlschemas/GpxExtensions/v3 http://www.garmin.com/xmlschemas/GpxExtensionsv3.xsd http://www.garmin.com/xmlschemas/TrackPointExtension/v1 http://www.garmin.com/xmlschemas/TrackPointExtensionv1.xsd"
  xmlns="http://www.topografix.com/GPX/1/1"
  xmlns:gpxtpx="http://www.garmin.com/xmlschemas/TrackPointExtension/v1"
  xmlns:gpxx="http://www.garmin.com/xmlschemas/GpxExtensions/v3" xmlns:xsi="http://www.w3.org/2001/XMLSchema-instance">
  <metadata>
    <link href="connect.garmin.com">
      <text>Garmin Connect</text>
    </link>
    <time>2012-12-07T06:45:47.000Z</time>
  </metadata>
  <trk>
    <name>Arad Dead Sea via Bokek Igorsko version</name>
    <trkseg>
      <trkpt lon="35.2344130910933" lat="31.260581044480205">
        <ele>611.0</ele>
        <time>2012-12-07T06:45:47.000Z</time>
      </trkpt>
      <trkpt lon="35.234451899304986" lat="31.26054374501109">
        <ele>610.5999755859375</ele>
        <time>2012-12-07T06:46:01.000Z</time>
      </trkpt>
      <trkpt lon="35.23445106111467" lat="31.260544499382377">
        <ele>610.5999755859375</ele>
        <time>2012-12-07T06:46:02.000Z</time>
      </trkpt>
      <trkpt lon="35.23445609025657" lat="31.260544415563345">
        <ele>610.5999755859375</ele>
        <time>2012-12-07T06:46:05.000Z</time>
      </trkpt>
      <trkpt lon="35.234459610655904" lat="31.260547349229455">
        <ele>610.5999755859375</ele>
        <time>2012-12-07T06:46:08.000Z</time>
      </trkpt>
      <trkpt lon="35.234459610655904" lat="31.260552629828453">
        <ele>610.5999755859375</ele>
        <time>2012-12-07T06:46:11.000Z</time>
      </trkpt>
      <trkpt lon="35.23445885628462" lat="31.26055732369423">
        <ele>610.5999755859375</ele>
        <time>2012-12-07T06:46:14.000Z</time>
      </trkpt>
      <trkpt lon="35.23445013910532" lat="31.260564448311925">
        <ele>610.5999755859375</ele>
        <time>2012-12-07T06:46:18.000Z</time>
      </trkpt>
      <trkpt lon="35.23444376885891" lat="31.260573333129287">
        <ele>610.7999877929688</ele>
        <time>2012-12-07T06:46:22.000Z</time>
      </trkpt>
      <trkpt lon="35.23443999700248" lat="31.26058037392795">
        <ele>610.7999877929688</ele>
        <time>2012-12-07T06:46:26.000Z</time>
      </trkpt>
      <trkpt lon="35.23443647660315" lat="31.260568723082542">
        <ele>610.7999877929688</ele>
        <time>2012-12-07T06:46:31.000Z</time>
      </trkpt>
      <trkpt lon="35.23442289792001" lat="31.260563945397735">
        <ele>610.7999877929688</ele>
        <time>2012-12-07T06:46:36.000Z</time>
      </trkpt>
      <trkpt lon="35.23441317491233" lat="31.26056076027453">
        <ele>610.7999877929688</ele>
        <time>2012-12-07T06:46:44.000Z</time>
      </trkpt>
      <trkpt lon="35.23440571501851" lat="31.260552378371358">
        <ele>610.7999877929688</ele>
        <time>2012-12-07T06:46:50.000Z</time>
      </trkpt>
      <trkpt lon="35.234391214326024" lat="31.260547013953328">
        <ele>611.0</ele>
        <time>2012-12-07T06:46:58.000Z</time>
      </trkpt>
      <trkpt lon="35.234389286488295" lat="31.260546846315265">
        <ele>611.0</ele>
        <time>2012-12-07T06:46:59.000Z</time>
      </trkpt>
      <trkpt lon="35.23439674638212" lat="31.260533099994063">
        <ele>610.7999877929688</ele>
        <time>2012-12-07T06:47:09.000Z</time>
      </trkpt>
      <trkpt lon="35.234399093315005" lat="31.260532680898905">
        <ele>610.7999877929688</ele>
        <time>2012-12-07T06:47:24.000Z</time>
      </trkpt>
      <trkpt lon="35.23443731479347" lat="31.26056126318872">
        <ele>610.7999877929688</ele>
        <time>2012-12-07T06:47:39.000Z</time>
      </trkpt>
      <trkpt lon="35.234431866556406" lat="31.260546343401074">
        <ele>610.5999755859375</ele>
        <time>2012-12-07T06:47:49.000Z</time>
      </trkpt>
      <trkpt lon="35.23442901670933" lat="31.260559922084212">
        <ele>610.7999877929688</ele>
        <time>2012-12-07T06:48:22.000Z</time>
      </trkpt>
      <trkpt lon="35.234450390562415" lat="31.260571824386716">
        <ele>610.7999877929688</ele>
        <time>2012-12-07T06:49:08.000Z</time>
      </trkpt>
      <trkpt lon="35.23444485850632" lat="31.260585905984044">
        <ele>610.7999877929688</ele>
        <time>2012-12-07T06:49:40.000Z</time>
      </trkpt>
      <trkpt lon="35.23445122875273" lat="31.260569225996733">
        <ele>610.7999877929688</ele>
        <time>2012-12-07T06:50:07.000Z</time>
      </trkpt>
      <trkpt lon="35.23442901670933" lat="31.26057006418705">
        <ele>610.7999877929688</ele>
        <time>2012-12-07T06:50:27.000Z</time>
      </trkpt>
      <trkpt lon="35.23441703058779" lat="31.26057886518538">
        <ele>611.0</ele>
        <time>2012-12-07T06:50:36.000Z</time>
      </trkpt>
      <trkpt lon="35.234414767473936" lat="31.260567465797067">
        <ele>611.0</ele>
        <time>2012-12-07T07:27:18.000Z</time>
      </trkpt>
      <trkpt lon="35.23441543802619" lat="31.26056612469256">
        <ele>610.7999877929688</ele>
        <time>2012-12-07T07:27:19.000Z</time>
      </trkpt>
      <trkpt lon="35.23440160788596" lat="31.260564448311925">
        <ele>611.0</ele>
        <time>2012-12-07T07:27:48.000Z</time>
      </trkpt>
      <trkpt lon="35.23440336808562" lat="31.260585319250822">
        <ele>611.0</ele>
        <time>2012-12-07T07:28:30.000Z</time>
      </trkpt>
      <trkpt lon="35.23443639278412" lat="31.26055439002812">
        <ele>610.7999877929688</ele>
        <time>2012-12-07T07:28:59.000Z</time>
      </trkpt>
      <trkpt lon="35.23442097008228" lat="31.26056671142578">
        <ele>610.7999877929688</ele>
        <time>2012-12-07T07:29:28.000Z</time>
      </trkpt>
      <trkpt lon="35.23442407138646" lat="31.260575260967016">
        <ele>611.0</ele>
        <time>2012-12-07T07:29:56.000Z</time>
      </trkpt>
      <trkpt lon="35.234424909576774" lat="31.260563526302576">
        <ele>610.7999877929688</ele>
        <time>2012-12-07T07:30:24.000Z</time>
      </trkpt>
      <trkpt lon="35.2344302739948" lat="31.260566040873528">
        <ele>610.7999877929688</ele>
        <time>2012-12-07T07:31:01.000Z</time>
      </trkpt>
      <trkpt lon="35.23444871418178" lat="31.26056905835867">
        <ele>610.7999877929688</ele>
        <time>2012-12-07T07:31:35.000Z</time>
      </trkpt>
      <trkpt lon="35.23442273028195" lat="31.260554054751992">
        <ele>610.7999877929688</ele>
        <time>2012-12-07T07:32:00.000Z</time>
      </trkpt>
      <trkpt lon="35.234481655061245" lat="31.260528657585382">
        <ele>610.4000244140625</ele>
        <time>2012-12-07T07:32:05.000Z</time>
      </trkpt>
      <trkpt lon="35.23490795865655" lat="31.260523293167353">
        <ele>608.0</ele>
        <time>2012-12-07T07:32:16.000Z</time>
      </trkpt>
      <trkpt lon="35.23501516319811" lat="31.26058724708855">
        <ele>607.5999755859375</ele>
        <time>2012-12-07T07:32:19.000Z</time>
      </trkpt>
      <trkpt lon="35.23501834832132" lat="31.26073183491826">
        <ele>608.2000122070312</ele>
        <time>2012-12-07T07:32:26.000Z</time>
      </trkpt>
      <trkpt lon="35.2350383810699" lat="31.26073912717402">
        <ele>608.2000122070312</ele>
        <time>2012-12-07T07:32:40.000Z</time>
      </trkpt>
      <trkpt lon="35.23501851595938" lat="31.26071322709322">
        <ele>608.2000122070312</ele>
        <time>2012-12-07T07:33:19.000Z</time>
      </trkpt>
      <trkpt lon="35.23501734249294" lat="31.260707024484873">
        <ele>608.2000122070312</ele>
        <time>2012-12-07T07:33:20.000Z</time>
      </trkpt>
      <trkpt lon="35.235022539272904" lat="31.260617673397064">
        <ele>607.5999755859375</ele>
        <time>2012-12-07T07:33:26.000Z</time>
      </trkpt>
      <trkpt lon="35.23476529866457" lat="31.26055791042745">
        <ele>608.7999877929688</ele>
        <time>2012-12-07T07:33:38.000Z</time>
        <extensions>
          <gpxtpx:TrackPointExtension>
            <gpxtpx:cad>32</gpxtpx:cad>
          </gpxtpx:TrackPointExtension>
        </extensions>
      </trkpt>
      <trkpt lon="35.23451074026525" lat="31.26057350076735">
        <ele>610.4000244140625</ele>
        <time>2012-12-07T07:33:50.000Z</time>
        <extensions>
          <gpxtpx:TrackPointExtension>
            <gpxtpx:cad>0</gpxtpx:cad>
          </gpxtpx:TrackPointExtension>
        </extensions>
      </trkpt>
      <trkpt lon="35.23444477468729" lat="31.260573249310255">
        <ele>610.7999877929688</ele>
        <time>2012-12-07T07:34:01.000Z</time>
      </trkpt>
      <trkpt lon="35.23443991318345" lat="31.26057928428054">
        <ele>610.7999877929688</ele>
        <time>2012-12-07T07:34:27.000Z</time>
      </trkpt>
      <trkpt lon="35.2344236522913" lat="31.260576266795397">
        <ele>611.0</ele>
        <time>2012-12-07T07:34:56.000Z</time>
      </trkpt>
      <trkpt lon="35.23444485850632" lat="31.260530333966017">
        <ele>610.5999755859375</ele>
        <time>2012-12-07T07:35:26.000Z</time>
      </trkpt>
      <trkpt lon="35.23445122875273" lat="31.26055791042745">
        <ele>610.5999755859375</ele>
        <time>2012-12-07T07:36:10.000Z</time>
      </trkpt>
      <trkpt lon="35.23446271196008" lat="31.260571321472526">
        <ele>610.5999755859375</ele>
        <time>2012-12-07T07:36:46.000Z</time>
      </trkpt>
      <trkpt lon="35.23444829508662" lat="31.260557658970356">
        <ele>610.5999755859375</ele>
        <time>2012-12-07T07:37:17.000Z</time>
      </trkpt>
      <trkpt lon="35.234450390562415" lat="31.26056662760675">
        <ele>610.7999877929688</ele>
        <time>2012-12-07T07:37:45.000Z</time>
      </trkpt>
      <trkpt lon="35.23445173166692" lat="31.260572243481874">
        <ele>610.7999877929688</ele>
        <time>2012-12-07T07:38:11.000Z</time>
      </trkpt>
      <trkpt lon="35.23445365950465" lat="31.260567717254162">
        <ele>610.5999755859375</ele>
        <time>2012-12-07T07:38:34.000Z</time>
      </trkpt>
      <trkpt lon="35.234460616484284" lat="31.260570399463177">
        <ele>610.5999755859375</ele>
        <time>2012-12-07T07:39:06.000Z</time>
      </trkpt>
      <trkpt lon="35.234469501301646" lat="31.260590767487884">
        <ele>610.7999877929688</ele>
        <time>2012-12-07T07:39:38.000Z</time>
      </trkpt>
      <trkpt lon="35.23445885628462" lat="31.260564783588052">
        <ele>610.5999755859375</ele>
        <time>2012-12-07T07:40:14.000Z</time>
      </trkpt>
      <trkpt lon="35.23445005528629" lat="31.26057400368154">
        <ele>610.7999877929688</ele>
        <time>2012-12-07T07:40:51.000Z</time>
      </trkpt>
      <trkpt lon="35.23445223458111" lat="31.26058137975633">
        <ele>610.7999877929688</ele>
        <time>2012-12-07T07:41:30.000Z</time>
      </trkpt>
      <trkpt lon="35.2344529889524" lat="31.260563442483544">
        <ele>610.5999755859375</ele>
        <time>2012-12-07T07:42:02.000Z</time>
      </trkpt>
      <trkpt lon="35.23445793427527" lat="31.260562604293227">
        <ele>610.5999755859375</ele>
        <time>2012-12-07T07:42:33.000Z</time>
      </trkpt>
      <trkpt lon="35.23444661870599" lat="31.26054860651493">
        <ele>610.5999755859375</ele>
        <time>2012-12-07T07:42:53.000Z</time>
      </trkpt>
      <trkpt lon="35.23445047438145" lat="31.260543074458838">
        <ele>610.5999755859375</ele>
        <time>2012-12-07T07:43:11.000Z</time>
      </trkpt>
      <trkpt lon="35.23445583879948" lat="31.26055254600942">
        <ele>610.5999755859375</ele>
        <time>2012-12-07T07:43:32.000Z</time>
      </trkpt>
      <trkpt lon="35.23446413688362" lat="31.26055254600942">
        <ele>610.5999755859375</ele>
        <time>2012-12-07T07:43:53.000Z</time>
      </trkpt>
      <trkpt lon="35.23447126150131" lat="31.260559167712927">
        <ele>610.5999755859375</ele>
        <time>2012-12-07T07:44:12.000Z</time>
      </trkpt>
      <trkpt lon="35.23446187376976" lat="31.26055589877069">
        <ele>610.5999755859375</ele>
        <time>2012-12-07T07:44:36.000Z</time>
      </trkpt>
      <trkpt lon="35.23446095176041" lat="31.260582469403744">
        <ele>610.7999877929688</ele>
        <time>2012-12-07T07:45:09.000Z</time>
      </trkpt>
      <trkpt lon="35.23444670252502" lat="31.260590264573693">
        <ele>610.7999877929688</ele>
        <time>2012-12-07T07:45:29.000Z</time>
      </trkpt>
      <trkpt lon="35.234442595392466" lat="31.26058674417436">
        <ele>610.7999877929688</ele>
        <time>2012-12-07T07:46:03.000Z</time>
      </trkpt>
      <trkpt lon="35.234475284814835" lat="31.260568806901574">
        <ele>610.5999755859375</ele>
        <time>2012-12-07T07:46:34.000Z</time>
      </trkpt>
      <trkpt lon="35.23448131978512" lat="31.260568723082542">
        <ele>610.5999755859375</ele>
        <time>2012-12-07T07:46:58.000Z</time>
      </trkpt>
      <trkpt lon="35.23447738029063" lat="31.260591689497232">
        <ele>610.5999755859375</ele>
        <time>2012-12-07T07:47:25.000Z</time>
      </trkpt>
      <trkpt lon="35.23445223458111" lat="31.260565957054496">
        <ele>610.5999755859375</ele>
        <time>2012-12-07T07:47:58.000Z</time>
      </trkpt>
      <trkpt lon="35.23444703780115" lat="31.260571405291557">
        <ele>610.7999877929688</ele>
        <time>2012-12-07T07:48:26.000Z</time>
      </trkpt>
      <trkpt lon="35.23444334976375" lat="31.26055740751326">
        <ele>610.5999755859375</ele>
        <time>2012-12-07T07:48:52.000Z</time>
      </trkpt>
      <trkpt lon="35.234459694474936" lat="31.260584145784378">
        <ele>610.7999877929688</ele>
        <time>2012-12-07T07:49:21.000Z</time>
      </trkpt>
      <trkpt lon="35.23445885628462" lat="31.26053737476468">
        <ele>610.4000244140625</ele>
        <time>2012-12-07T07:49:50.000Z</time>
      </trkpt>
      <trkpt lon="35.23446807637811" lat="31.260567298159003">
        <ele>610.5999755859375</ele>
        <time>2012-12-07T07:50:16.000Z</time>
      </trkpt>
      <trkpt lon="35.23446732200682" lat="31.260583642870188">
        <ele>610.7999877929688</ele>
        <time>2012-12-07T07:50:50.000Z</time>
      </trkpt>
      <trkpt lon="35.23445609025657" lat="31.26055891625583">
        <ele>610.5999755859375</ele>
        <time>2012-12-07T07:51:33.000Z</time>
      </trkpt>
      <trkpt lon="35.234430860728025" lat="31.260562436655164">
        <ele>610.7999877929688</ele>
        <time>2012-12-07T07:52:05.000Z</time>
      </trkpt>
      <trkpt lon="35.23444728925824" lat="31.260595628991723">
        <ele>610.7999877929688</ele>
        <time>2012-12-07T07:52:39.000Z</time>
      </trkpt>
      <trkpt lon="35.234448881819844" lat="31.260567801073194">
        <ele>610.7999877929688</ele>
        <time>2012-12-07T07:53:01.000Z</time>
      </trkpt>
      <trkpt lon="35.23443647660315" lat="31.260541481897235">
        <ele>610.5999755859375</ele>
        <time>2012-12-07T07:53:26.000Z</time>
      </trkpt>
      <trkpt lon="35.23444167338312" lat="31.26053092069924">
        <ele>610.5999755859375</ele>
        <time>2012-12-07T07:53:52.000Z</time>
      </trkpt>
      <trkpt lon="35.23444687016308" lat="31.26054952852428">
        <ele>610.5999755859375</ele>
        <time>2012-12-07T07:54:11.000Z</time>
      </trkpt>
      <trkpt lon="35.23443304002285" lat="31.26055296510458">
        <ele>610.7999877929688</ele>
        <time>2012-12-07T07:54:27.000Z</time>
      </trkpt>
      <trkpt lon="35.23435726761818" lat="31.26054374501109">
        <ele>611.0</ele>
        <time>2012-12-07T07:54:36.000Z</time>
        <extensions>
          <gpxtpx:TrackPointExtension>
            <gpxtpx:cad>0</gpxtpx:cad>
          </gpxtpx:TrackPointExtension>
        </extensions>
      </trkpt>
      <trkpt lon="35.23435978218913" lat="31.26053586602211">
        <ele>611.0</ele>
        <time>2012-12-07T07:54:37.000Z</time>
        <extensions>
          <gpxtpx:TrackPointExtension>
            <gpxtpx:cad>0</gpxtpx:cad>
          </gpxtpx:TrackPointExtension>
        </extensions>
      </trkpt>
      <trkpt lon="35.23431535810232" lat="31.260491274297237">
        <ele>611.0</ele>
        <time>2012-12-07T07:54:41.000Z</time>
        <extensions>
          <gpxtpx:TrackPointExtension>
            <gpxtpx:cad>0</gpxtpx:cad>
          </gpxtpx:TrackPointExtension>
        </extensions>
      </trkpt>
      <trkpt lon="35.23429038003087" lat="31.260488172993064">
        <ele>611.2000122070312</ele>
        <time>2012-12-07T07:54:42.000Z</time>
        <extensions>
          <gpxtpx:TrackPointExtension>
            <gpxtpx:cad>0</gpxtpx:cad>
          </gpxtpx:TrackPointExtension>
        </extensions>
      </trkpt>
      <trkpt lon="35.23426238447428" lat="31.260485826060176">
        <ele>611.2000122070312</ele>
        <time>2012-12-07T07:54:43.000Z</time>
        <extensions>
          <gpxtpx:TrackPointExtension>
            <gpxtpx:cad>0</gpxtpx:cad>
          </gpxtpx:TrackPointExtension>
        </extensions>
      </trkpt>
      <trkpt lon="35.233765756711364" lat="31.260452046990395">
        <ele>610.7999877929688</ele>
        <time>2012-12-07T07:55:02.000Z</time>
        <extensions>
          <gpxtpx:TrackPointExtension>
            <gpxtpx:cad>0</gpxtpx:cad>
          </gpxtpx:TrackPointExtension>
        </extensions>
      </trkpt>
      <trkpt lon="35.233396450057626" lat="31.26033755019307">
        <ele>609.7999877929688</ele>
        <time>2012-12-07T07:55:18.000Z</time>
        <extensions>
          <gpxtpx:TrackPointExtension>
            <gpxtpx:cad>0</gpxtpx:cad>
          </gpxtpx:TrackPointExtension>
        </extensions>
      </trkpt>
      <trkpt lon="35.233337273821235" lat="31.260332856327295">
        <ele>609.7999877929688</ele>
        <time>2012-12-07T07:55:21.000Z</time>
        <extensions>
          <gpxtpx:TrackPointExtension>
            <gpxtpx:cad>0</gpxtpx:cad>
          </gpxtpx:TrackPointExtension>
        </extensions>
      </trkpt>
      <trkpt lon="35.233215065672994" lat="31.26033402979374">
        <ele>609.7999877929688</ele>
        <time>2012-12-07T07:55:31.000Z</time>
        <extensions>
          <gpxtpx:TrackPointExtension>
            <gpxtpx:cad>0</gpxtpx:cad>
          </gpxtpx:TrackPointExtension>
        </extensions>
      </trkpt>
      <trkpt lon="35.23320274427533" lat="31.260329755023122">
        <ele>609.7999877929688</ele>
        <time>2012-12-07T07:55:32.000Z</time>
        <extensions>
          <gpxtpx:TrackPointExtension>
            <gpxtpx:cad>0</gpxtpx:cad>
          </gpxtpx:TrackPointExtension>
        </extensions>
      </trkpt>
      <trkpt lon="35.23318857885897" lat="31.260326066985726">
        <ele>609.7999877929688</ele>
        <time>2012-12-07T07:55:33.000Z</time>
        <extensions>
          <gpxtpx:TrackPointExtension>
            <gpxtpx:cad>0</gpxtpx:cad>
          </gpxtpx:TrackPointExtension>
        </extensions>
      </trkpt>
      <trkpt lon="35.23317466489971" lat="31.2603238876909">
        <ele>609.7999877929688</ele>
        <time>2012-12-07T07:55:34.000Z</time>
        <extensions>
          <gpxtpx:TrackPointExtension>
            <gpxtpx:cad>0</gpxtpx:cad>
          </gpxtpx:TrackPointExtension>
        </extensions>
      </trkpt>
      <trkpt lon="35.23316049948335" lat="31.260322043672204">
        <ele>609.7999877929688</ele>
        <time>2012-12-07T07:55:35.000Z</time>
        <extensions>
          <gpxtpx:TrackPointExtension>
            <gpxtpx:cad>0</gpxtpx:cad>
          </gpxtpx:TrackPointExtension>
        </extensions>
      </trkpt>
      <trkpt lon="35.23302152752876" lat="31.260328833013773">
        <ele>609.7999877929688</ele>
        <time>2012-12-07T07:55:48.000Z</time>
        <extensions>
          <gpxtpx:TrackPointExtension>
            <gpxtpx:cad>0</gpxtpx:cad>
          </gpxtpx:TrackPointExtension>
        </extensions>
      </trkpt>
      <trkpt lon="35.23301549255848" lat="31.26032522879541">
        <ele>609.7999877929688</ele>
        <time>2012-12-07T07:55:49.000Z</time>
        <extensions>
          <gpxtpx:TrackPointExtension>
            <gpxtpx:cad>0</gpxtpx:cad>
          </gpxtpx:TrackPointExtension>
        </extensions>
      </trkpt>
      <trkpt lon="35.2330041769892" lat="31.260325564071536">
        <ele>609.7999877929688</ele>
        <time>2012-12-07T07:55:50.000Z</time>
        <extensions>
          <gpxtpx:TrackPointExtension>
            <gpxtpx:cad>0</gpxtpx:cad>
          </gpxtpx:TrackPointExtension>
        </extensions>
      </trkpt>
      <trkpt lon="35.232918597757816" lat="31.260335622355342">
        <ele>609.7999877929688</ele>
        <time>2012-12-07T07:55:57.000Z</time>
        <extensions>
          <gpxtpx:TrackPointExtension>
            <gpxtpx:cad>0</gpxtpx:cad>
          </gpxtpx:TrackPointExtension>
        </extensions>
      </trkpt>
      <trkpt lon="35.2329227887094" lat="31.26032581552863">
        <ele>609.7999877929688</ele>
        <time>2012-12-07T07:55:58.000Z</time>
        <extensions>
          <gpxtpx:TrackPointExtension>
            <gpxtpx:cad>0</gpxtpx:cad>
          </gpxtpx:TrackPointExtension>
        </extensions>
      </trkpt>
      <trkpt lon="35.23300635628402" lat="31.260327994823456">
        <ele>609.7999877929688</ele>
        <time>2012-12-07T07:56:02.000Z</time>
        <extensions>
          <gpxtpx:TrackPointExtension>
            <gpxtpx:cad>0</gpxtpx:cad>
          </gpxtpx:TrackPointExtension>
        </extensions>
      </trkpt>
      <trkpt lon="35.23341505788267" lat="31.26034584827721">
        <ele>609.7999877929688</ele>
        <time>2012-12-07T07:56:21.000Z</time>
        <extensions>
          <gpxtpx:TrackPointExtension>
            <gpxtpx:cad>0</gpxtpx:cad>
          </gpxtpx:TrackPointExtension>
        </extensions>
      </trkpt>
      <trkpt lon="35.23367674089968" lat="31.260390859097242">
        <ele>610.4000244140625</ele>
        <time>2012-12-07T07:56:35.000Z</time>
        <extensions>
          <gpxtpx:TrackPointExtension>
            <gpxtpx:cad>0</gpxtpx:cad>
          </gpxtpx:TrackPointExtension>
        </extensions>
      </trkpt>
      <trkpt lon="35.23416054435074" lat="31.260402258485556">
        <ele>611.4000244140625</ele>
        <time>2012-12-07T07:56:50.000Z</time>
        <extensions>
          <gpxtpx:TrackPointExtension>
            <gpxtpx:cad>0</gpxtpx:cad>
          </gpxtpx:TrackPointExtension>
        </extensions>
      </trkpt>
      <trkpt lon="35.23427520878613" lat="31.260434444993734">
        <ele>611.0</ele>
        <time>2012-12-07T07:56:58.000Z</time>
        <extensions>
          <gpxtpx:TrackPointExtension>
            <gpxtpx:cad>0</gpxtpx:cad>
          </gpxtpx:TrackPointExtension>
        </extensions>
      </trkpt>
      <trkpt lon="35.234255930408835" lat="31.260484904050827">
        <ele>611.4000244140625</ele>
        <time>2012-12-07T07:57:07.000Z</time>
        <extensions>
          <gpxtpx:TrackPointExtension>
            <gpxtpx:cad>0</gpxtpx:cad>
          </gpxtpx:TrackPointExtension>
        </extensions>
      </trkpt>
      <trkpt lon="35.23425190709531" lat="31.260474510490894">
        <ele>611.2000122070312</ele>
        <time>2012-12-07T07:57:08.000Z</time>
        <extensions>
          <gpxtpx:TrackPointExtension>
            <gpxtpx:cad>0</gpxtpx:cad>
          </gpxtpx:TrackPointExtension>
        </extensions>
      </trkpt>
      <trkpt lon="35.23427126929164" lat="31.26048507168889">
        <ele>611.2000122070312</ele>
        <time>2012-12-07T07:57:13.000Z</time>
        <extensions>
          <gpxtpx:TrackPointExtension>
            <gpxtpx:cad>0</gpxtpx:cad>
          </gpxtpx:TrackPointExtension>
        </extensions>
      </trkpt>
      <trkpt lon="35.234222654253244" lat="31.26048021018505">
        <ele>611.4000244140625</ele>
        <time>2012-12-07T07:57:15.000Z</time>
        <extensions>
          <gpxtpx:TrackPointExtension>
            <gpxtpx:cad>0</gpxtpx:cad>
          </gpxtpx:TrackPointExtension>
        </extensions>
      </trkpt>
      <trkpt lon="35.233585964888334" lat="31.2603931222111">
        <ele>610.2000122070312</ele>
        <time>2012-12-07T07:57:32.000Z</time>
        <extensions>
          <gpxtpx:TrackPointExtension>
            <gpxtpx:cad>0</gpxtpx:cad>
          </gpxtpx:TrackPointExtension>
        </extensions>
      </trkpt>
      <trkpt lon="35.23302052170038" lat="31.260330928489566">
        <ele>609.7999877929688</ele>
        <time>2012-12-07T07:57:47.000Z</time>
        <extensions>
          <gpxtpx:TrackPointExtension>
            <gpxtpx:cad>0</gpxtpx:cad>
          </gpxtpx:TrackPointExtension>
        </extensions>
      </trkpt>
      <trkpt lon="35.232222732156515" lat="31.26032874919474">
        <ele>608.2000122070312</ele>
        <time>2012-12-07T07:58:06.000Z</time>
        <extensions>
          <gpxtpx:TrackPointExtension>
            <gpxtpx:cad>0</gpxtpx:cad>
          </gpxtpx:TrackPointExtension>
        </extensions>
      </trkpt>
      <trkpt lon="35.23171386681497" lat="31.260362192988396">
        <ele>605.2000122070312</ele>
        <time>2012-12-07T07:58:20.000Z</time>
        <extensions>
          <gpxtpx:TrackPointExtension>
            <gpxtpx:cad>0</gpxtpx:cad>
          </gpxtpx:TrackPointExtension>
        </extensions>
      </trkpt>
      <trkpt lon="35.23104004561901" lat="31.260456489399076">
        <ele>599.4000244140625</ele>
        <time>2012-12-07T07:58:32.000Z</time>
        <extensions>
          <gpxtpx:TrackPointExtension>
            <gpxtpx:cad>0</gpxtpx:cad>
          </gpxtpx:TrackPointExtension>
        </extensions>
      </trkpt>
      <trkpt lon="35.230568647384644" lat="31.26054760068655">
        <ele>596.7999877929688</ele>
        <time>2012-12-07T07:58:40.000Z</time>
        <extensions>
          <gpxtpx:TrackPointExtension>
            <gpxtpx:cad>0</gpxtpx:cad>
          </gpxtpx:TrackPointExtension>
        </extensions>
      </trkpt>
      <trkpt lon="35.23051684722304" lat="31.260547935962677">
        <ele>596.7999877929688</ele>
        <time>2012-12-07T07:58:41.000Z</time>
        <extensions>
          <gpxtpx:TrackPointExtension>
            <gpxtpx:cad>0</gpxtpx:cad>
          </gpxtpx:TrackPointExtension>
        </extensions>
      </trkpt>
      <trkpt lon="35.23046697489917" lat="31.260541900992393">
        <ele>596.5999755859375</ele>
        <time>2012-12-07T07:58:42.000Z</time>
        <extensions>
          <gpxtpx:TrackPointExtension>
            <gpxtpx:cad>0</gpxtpx:cad>
          </gpxtpx:TrackPointExtension>
        </extensions>
      </trkpt>
      <trkpt lon="35.23042204789817" lat="31.260527903214097">
        <ele>596.5999755859375</ele>
        <time>2012-12-07T07:58:43.000Z</time>
        <extensions>
          <gpxtpx:TrackPointExtension>
            <gpxtpx:cad>0</gpxtpx:cad>
          </gpxtpx:TrackPointExtension>
        </extensions>
      </trkpt>
      <trkpt lon="35.23039924912155" lat="31.260508708655834">
        <ele>596.5999755859375</ele>
        <time>2012-12-07T07:58:44.000Z</time>
        <extensions>
          <gpxtpx:TrackPointExtension>
            <gpxtpx:cad>0</gpxtpx:cad>
          </gpxtpx:TrackPointExtension>
        </extensions>
      </trkpt>
      <trkpt lon="35.23039732128382" lat="31.26048850826919">
        <ele>596.5999755859375</ele>
        <time>2012-12-07T07:58:45.000Z</time>
        <extensions>
          <gpxtpx:TrackPointExtension>
            <gpxtpx:cad>0</gpxtpx:cad>
          </gpxtpx:TrackPointExtension>
        </extensions>
      </trkpt>
      <trkpt lon="35.23040100932121" lat="31.260464787483215">
        <ele>596.7999877929688</ele>
        <time>2012-12-07T07:58:46.000Z</time>
        <extensions>
          <gpxtpx:TrackPointExtension>
            <gpxtpx:cad>0</gpxtpx:cad>
          </gpxtpx:TrackPointExtension>
        </extensions>
      </trkpt>
      <trkpt lon="35.23039061576128" lat="31.26011718995869">
        <ele>597.5999755859375</ele>
        <time>2012-12-07T07:58:58.000Z</time>
        <extensions>
          <gpxtpx:TrackPointExtension>
            <gpxtpx:cad>0</gpxtpx:cad>
          </gpxtpx:TrackPointExtension>
        </extensions>
      </trkpt>
      <trkpt lon="35.23026555776596" lat="31.259479243308306">
        <ele>594.7999877929688</ele>
        <time>2012-12-07T07:59:13.000Z</time>
        <extensions>
          <gpxtpx:TrackPointExtension>
            <gpxtpx:cad>0</gpxtpx:cad>
          </gpxtpx:TrackPointExtension>
        </extensions>
      </trkpt>
      <trkpt lon="35.230260863900185" lat="31.2594311311841">
        <ele>594.4000244140625</ele>
        <time>2012-12-07T07:59:14.000Z</time>
        <extensions>
          <gpxtpx:TrackPointExtension>
            <gpxtpx:cad>0</gpxtpx:cad>
          </gpxtpx:TrackPointExtension>
        </extensions>
      </trkpt>
      <trkpt lon="35.23025424219668" lat="31.25914723612368">
        <ele>593.2000122070312</ele>
        <time>2012-12-07T07:59:20.000Z</time>
        <extensions>
          <gpxtpx:TrackPointExtension>
            <gpxtpx:cad>0</gpxtpx:cad>
          </gpxtpx:TrackPointExtension>
        </extensions>
      </trkpt>
      <trkpt lon="35.23024359717965" lat="31.259102560579777">
        <ele>593.2000122070312</ele>
        <time>2012-12-07T07:59:21.000Z</time>
        <extensions>
          <gpxtpx:TrackPointExtension>
            <gpxtpx:cad>0</gpxtpx:cad>
          </gpxtpx:TrackPointExtension>
        </extensions>
      </trkpt>
      <trkpt lon="35.23020931519568" lat="31.258971970528364">
        <ele>593.4000244140625</ele>
        <time>2012-12-07T07:59:24.000Z</time>
        <extensions>
          <gpxtpx:TrackPointExtension>
            <gpxtpx:cad>0</gpxtpx:cad>
          </gpxtpx:TrackPointExtension>
        </extensions>
      </trkpt>
      <trkpt lon="35.23016438819468" lat="31.25880709849298">
        <ele>593.7999877929688</ele>
        <time>2012-12-07T07:59:28.000Z</time>
        <extensions>
          <gpxtpx:TrackPointExtension>
            <gpxtpx:cad>0</gpxtpx:cad>
          </gpxtpx:TrackPointExtension>
        </extensions>
      </trkpt>
      <trkpt lon="35.23002206347883" lat="31.258202847093344">
        <ele>596.0</ele>
        <time>2012-12-07T07:59:45.000Z</time>
      </trkpt>
      <trkpt lon="35.22983347065747" lat="31.257631117478013">
        <ele>596.0</ele>
        <time>2012-12-07T08:00:02.000Z</time>
      </trkpt>
      <trkpt lon="35.22954571992159" lat="31.257041031494737">
        <ele>596.7999877929688</ele>
        <time>2012-12-07T08:00:20.000Z</time>
      </trkpt>
      <trkpt lon="35.2294001262635" lat="31.25641079619527">
        <ele>598.2000122070312</ele>
        <time>2012-12-07T08:00:40.000Z</time>
      </trkpt>
      <trkpt lon="35.22940691560507" lat="31.255976194515824">
        <ele>599.5999755859375</ele>
        <time>2012-12-07T08:00:56.000Z</time>
      </trkpt>
      <trkpt lon="35.22953708656132" lat="31.255430364981294">
        <ele>599.4000244140625</ele>
        <time>2012-12-07T08:01:17.000Z</time>
      </trkpt>
      <trkpt lon="35.2297920640558" lat="31.254934491589665">
        <ele>600.5999755859375</ele>
        <time>2012-12-07T08:01:37.000Z</time>
      </trkpt>
      <trkpt lon="35.23003698326647" lat="31.254629641771317">
        <ele>601.2000122070312</ele>
        <time>2012-12-07T08:01:52.000Z</time>
      </trkpt>
      <trkpt lon="35.23028274066746" lat="31.254412718117237">
        <ele>598.7999877929688</ele>
        <time>2012-12-07T08:02:08.000Z</time>
      </trkpt>
      <trkpt lon="35.23031668737531" lat="31.254405174404383">
        <ele>598.5999755859375</ele>
        <time>2012-12-07T08:02:10.000Z</time>
      </trkpt>
      <trkpt lon="35.23032808676362" lat="31.254398468881845">
        <ele>598.5999755859375</ele>
        <time>2012-12-07T08:02:11.000Z</time>
      </trkpt>
      <trkpt lon="35.23036756552756" lat="31.254380783066154">
        <ele>598.4000244140625</ele>
        <time>2012-12-07T08:02:23.000Z</time>
      </trkpt>
      <trkpt lon="35.23037318140268" lat="31.254386650398374">
        <ele>598.4000244140625</ele>
        <time>2012-12-07T08:02:54.000Z</time>
      </trkpt>
      <trkpt lon="35.23037385195494" lat="31.25438455492258">
        <ele>598.4000244140625</ele>
        <time>2012-12-07T08:03:22.000Z</time>
      </trkpt>
      <trkpt lon="35.23037318140268" lat="31.25438790768385">
        <ele>598.4000244140625</ele>
        <time>2012-12-07T08:03:46.000Z</time>
      </trkpt>
      <trkpt lon="35.2304916176945" lat="31.254318421706557">
        <ele>597.4000244140625</ele>
        <time>2012-12-07T08:04:09.000Z</time>
      </trkpt>
      <trkpt lon="35.23058842867613" lat="31.25428531318903">
        <ele>596.7999877929688</ele>
        <time>2012-12-07T08:04:11.000Z</time>
      </trkpt>
      <trkpt lon="35.23068884387612" lat="31.254239547997713">
        <ele>596.0</ele>
        <time>2012-12-07T08:04:13.000Z</time>
      </trkpt>
      <trkpt lon="35.23073553107679" lat="31.25421398319304">
        <ele>595.5999755859375</ele>
        <time>2012-12-07T08:04:14.000Z</time>
      </trkpt>
      <trkpt lon="35.23095002397895" lat="31.254153633490205">
        <ele>594.2000122070312</ele>
        <time>2012-12-07T08:04:19.000Z</time>
      </trkpt>
      <trkpt lon="35.23113677278161" lat="31.254073586314917">
        <ele>591.7999877929688</ele>
        <time>2012-12-07T08:04:23.000Z</time>
      </trkpt>
      <trkpt lon="35.23129259236157" lat="31.253878455609083">
        <ele>587.4000244140625</ele>
        <time>2012-12-07T08:04:27.000Z</time>
      </trkpt>
      <trkpt lon="35.23136702366173" lat="31.253791619092226">
        <ele>585.7999877929688</ele>
        <time>2012-12-07T08:04:29.000Z</time>
      </trkpt>
      <trkpt lon="35.23150289431214" lat="31.253645354881883">
        <ele>583.5999755859375</ele>
        <time>2012-12-07T08:04:34.000Z</time>
      </trkpt>
      <trkpt lon="35.23155645467341" lat="31.25348593108356">
        <ele>581.2000122070312</ele>
        <time>2012-12-07T08:04:38.000Z</time>
      </trkpt>
      <trkpt lon="35.23153365589678" lat="31.25327194109559">
        <ele>578.0</ele>
        <time>2012-12-07T08:04:45.000Z</time>
      </trkpt>
      <trkpt lon="35.23154681548476" lat="31.253118636086583">
        <ele>577.5999755859375</ele>
        <time>2012-12-07T08:04:52.000Z</time>
      </trkpt>
      <trkpt lon="35.23153851740062" lat="31.25302660278976">
        <ele>577.0</ele>
        <time>2012-12-07T08:04:56.000Z</time>
      </trkpt>
      <trkpt lon="35.23160322569311" lat="31.25268747098744">
        <ele>576.7999877929688</ele>
        <time>2012-12-07T08:05:10.000Z</time>
      </trkpt>
      <trkpt lon="35.23164899088442" lat="31.25250382348895">
        <ele>577.4000244140625</ele>
        <time>2012-12-07T08:05:23.000Z</time>
      </trkpt>
      <trkpt lon="35.23165125399828" lat="31.25250323675573">
        <ele>577.5999755859375</ele>
        <time>2012-12-07T08:05:35.000Z</time>
      </trkpt>
      <trkpt lon="35.231696432456374" lat="31.252415226772428">
        <ele>576.4000244140625</ele>
        <time>2012-12-07T08:05:40.000Z</time>
        <extensions>
          <gpxtpx:TrackPointExtension>
            <gpxtpx:cad>0</gpxtpx:cad>
          </gpxtpx:TrackPointExtension>
        </extensions>
      </trkpt>
      <trkpt lon="35.231867004185915" lat="31.252282289788127">
        <ele>574.7999877929688</ele>
        <time>2012-12-07T08:05:45.000Z</time>
        <extensions>
          <gpxtpx:TrackPointExtension>
            <gpxtpx:cad>0</gpxtpx:cad>
          </gpxtpx:TrackPointExtension>
        </extensions>
      </trkpt>
      <trkpt lon="35.23190933279693" lat="31.25225060619414">
        <ele>574.4000244140625</ele>
        <time>2012-12-07T08:05:46.000Z</time>
        <extensions>
          <gpxtpx:TrackPointExtension>
            <gpxtpx:cad>0</gpxtpx:cad>
          </gpxtpx:TrackPointExtension>
        </extensions>
      </trkpt>
      <trkpt lon="35.232078144326806" lat="31.252028988674283">
        <ele>573.2000122070312</ele>
        <time>2012-12-07T08:05:51.000Z</time>
        <extensions>
          <gpxtpx:TrackPointExtension>
            <gpxtpx:cad>0</gpxtpx:cad>
          </gpxtpx:TrackPointExtension>
        </extensions>
      </trkpt>
      <trkpt lon="35.23223706521094" lat="31.251685498282313">
        <ele>572.7999877929688</ele>
        <time>2012-12-07T08:06:02.000Z</time>
        <extensions>
          <gpxtpx:TrackPointExtension>
            <gpxtpx:cad>0</gpxtpx:cad>
          </gpxtpx:TrackPointExtension>
        </extensions>
      </trkpt>
      <trkpt lon="35.23229129612446" lat="31.25141954049468">
        <ele>571.4000244140625</ele>
        <time>2012-12-07T08:06:10.000Z</time>
        <extensions>
          <gpxtpx:TrackPointExtension>
            <gpxtpx:cad>0</gpxtpx:cad>
          </gpxtpx:TrackPointExtension>
        </extensions>
      </trkpt>
      <trkpt lon="35.23232515901327" lat="31.251065991818905">
        <ele>569.0</ele>
        <time>2012-12-07T08:06:22.000Z</time>
        <extensions>
          <gpxtpx:TrackPointExtension>
            <gpxtpx:cad>0</gpxtpx:cad>
          </gpxtpx:TrackPointExtension>
        </extensions>
      </trkpt>
      <trkpt lon="35.232269084081054" lat="31.250937413424253">
        <ele>566.4000244140625</ele>
        <time>2012-12-07T08:06:32.000Z</time>
        <extensions>
          <gpxtpx:TrackPointExtension>
            <gpxtpx:cad>0</gpxtpx:cad>
          </gpxtpx:TrackPointExtension>
        </extensions>
      </trkpt>
      <trkpt lon="35.2322581037879" lat="31.250922325998545">
        <ele>566.0</ele>
        <time>2012-12-07T08:06:35.000Z</time>
        <extensions>
          <gpxtpx:TrackPointExtension>
            <gpxtpx:cad>21</gpxtpx:cad>
          </gpxtpx:TrackPointExtension>
        </extensions>
      </trkpt>
      <trkpt lon="35.232225162908435" lat="31.250891564413905">
        <ele>564.7999877929688</ele>
        <time>2012-12-07T08:06:39.000Z</time>
        <extensions>
          <gpxtpx:TrackPointExtension>
            <gpxtpx:cad>0</gpxtpx:cad>
          </gpxtpx:TrackPointExtension>
        </extensions>
      </trkpt>
      <trkpt lon="35.23219867609441" lat="31.250857198610902">
        <ele>563.7999877929688</ele>
        <time>2012-12-07T08:06:52.000Z</time>
        <extensions>
          <gpxtpx:TrackPointExtension>
            <gpxtpx:cad>3</gpxtpx:cad>
          </gpxtpx:TrackPointExtension>
        </extensions>
      </trkpt>
      <trkpt lon="35.23218836635351" lat="31.25083465129137">
        <ele>563.4000244140625</ele>
        <time>2012-12-07T08:06:59.000Z</time>
        <extensions>
          <gpxtpx:TrackPointExtension>
            <gpxtpx:cad>9</gpxtpx:cad>
          </gpxtpx:TrackPointExtension>
        </extensions>
      </trkpt>
      <trkpt lon="35.232157688587904" lat="31.250767344608903">
        <ele>561.4000244140625</ele>
        <time>2012-12-07T08:07:10.000Z</time>
        <extensions>
          <gpxtpx:TrackPointExtension>
            <gpxtpx:cad>0</gpxtpx:cad>
          </gpxtpx:TrackPointExtension>
        </extensions>
      </trkpt>
      <trkpt lon="35.23212290368974" lat="31.250610603019595">
        <ele>557.7999877929688</ele>
        <time>2012-12-07T08:07:23.000Z</time>
        <extensions>
          <gpxtpx:TrackPointExtension>
            <gpxtpx:cad>0</gpxtpx:cad>
          </gpxtpx:TrackPointExtension>
        </extensions>
      </trkpt>
      <trkpt lon="35.23211586289108" lat="31.25060155056417">
        <ele>557.5999755859375</ele>
        <time>2012-12-07T08:07:24.000Z</time>
        <extensions>
          <gpxtpx:TrackPointExtension>
            <gpxtpx:cad>0</gpxtpx:cad>
          </gpxtpx:TrackPointExtension>
        </extensions>
      </trkpt>
      <trkpt lon="35.2321095764637" lat="31.25057171098888">
        <ele>556.7999877929688</ele>
        <time>2012-12-07T08:07:26.000Z</time>
        <extensions>
          <gpxtpx:TrackPointExtension>
            <gpxtpx:cad>3</gpxtpx:cad>
          </gpxtpx:TrackPointExtension>
        </extensions>
      </trkpt>
      <trkpt lon="35.23211510851979" lat="31.250533489510417">
        <ele>556.4000244140625</ele>
        <time>2012-12-07T08:07:36.000Z</time>
      </trkpt>
      <trkpt lon="35.23217311128974" lat="31.250439025461674">
        <ele>556.5999755859375</ele>
        <time>2012-12-07T08:07:49.000Z</time>
      </trkpt>
      <trkpt lon="35.23234854452312" lat="31.250273063778877">
        <ele>558.7999877929688</ele>
        <time>2012-12-07T08:08:00.000Z</time>
      </trkpt>
      <trkpt lon="35.232465136796236" lat="31.25008061528206">
        <ele>559.2000122070312</ele>
        <time>2012-12-07T08:08:10.000Z</time>
        <extensions>
          <gpxtpx:TrackPointExtension>
            <gpxtpx:cad>165</gpxtpx:cad>
          </gpxtpx:TrackPointExtension>
        </extensions>
      </trkpt>
      <trkpt lon="35.23264082148671" lat="31.249833684414625">
        <ele>556.0</ele>
        <time>2012-12-07T08:08:22.000Z</time>
        <extensions>
          <gpxtpx:TrackPointExtension>
            <gpxtpx:cad>0</gpxtpx:cad>
          </gpxtpx:TrackPointExtension>
        </extensions>
      </trkpt>
      <trkpt lon="35.232643000781536" lat="31.249814489856362">
        <ele>555.7999877929688</ele>
        <time>2012-12-07T08:08:34.000Z</time>
      </trkpt>
      <trkpt lon="35.23264962248504" lat="31.249808119609952">
        <ele>555.5999755859375</ele>
        <time>2012-12-07T08:09:06.000Z</time>
      </trkpt>
      <trkpt lon="35.232740649953485" lat="31.249658670276403">
        <ele>552.7999877929688</ele>
        <time>2012-12-07T08:09:13.000Z</time>
      </trkpt>
      <trkpt lon="35.23276009596884" lat="31.249644085764885">
        <ele>552.4000244140625</ele>
        <time>2012-12-07T08:09:14.000Z</time>
      </trkpt>
      <trkpt lon="35.232841316610575" lat="31.249607792124152">
        <ele>551.0</ele>
        <time>2012-12-07T08:09:18.000Z</time>
      </trkpt>
      <trkpt lon="35.23289496079087" lat="31.2495569139719">
        <ele>549.5999755859375</ele>
        <time>2012-12-07T08:09:22.000Z</time>
      </trkpt>
      <trkpt lon="35.23298565298319" lat="31.249394305050373">
        <ele>546.2000122070312</ele>
        <time>2012-12-07T08:09:29.000Z</time>
      </trkpt>
      <trkpt lon="35.23304298520088" lat="31.249300176277757">
        <ele>544.0</ele>
        <time>2012-12-07T08:09:33.000Z</time>
      </trkpt>
      <trkpt lon="35.233101826161146" lat="31.249295817688107">
        <ele>543.0</ele>
        <time>2012-12-07T08:09:36.000Z</time>
      </trkpt>
      <trkpt lon="35.23327365517616" lat="31.249364549294114">
        <ele>541.2000122070312</ele>
        <time>2012-12-07T08:09:41.000Z</time>
      </trkpt>
      <trkpt lon="35.23335135541856" lat="31.249358346685767">
        <ele>539.5999755859375</ele>
        <time>2012-12-07T08:09:44.000Z</time>
      </trkpt>
      <trkpt lon="35.23345964960754" lat="31.249346863478422">
        <ele>536.5999755859375</ele>
        <time>2012-12-07T08:09:48.000Z</time>
      </trkpt>
      <trkpt lon="35.23346308618784" lat="31.249297074973583">
        <ele>535.7999877929688</ele>
        <time>2012-12-07T08:09:56.000Z</time>
      </trkpt>
      <trkpt lon="35.233460906893015" lat="31.249294225126505">
        <ele>535.7999877929688</ele>
        <time>2012-12-07T08:09:57.000Z</time>
      </trkpt>
      <trkpt lon="35.23323677480221" lat="31.249128095805645">
        <ele>538.0</ele>
        <time>2012-12-07T08:10:07.000Z</time>
      </trkpt>
      <trkpt lon="35.23321548476815" lat="31.249095993116498">
        <ele>537.7999877929688</ele>
        <time>2012-12-07T08:10:08.000Z</time>
      </trkpt>
      <trkpt lon="35.23315572179854" lat="31.24894763343036">
        <ele>536.0</ele>
        <time>2012-12-07T08:10:12.000Z</time>
      </trkpt>
      <trkpt lon="35.233153626322746" lat="31.248786700889468">
        <ele>533.2000122070312</ele>
        <time>2012-12-07T08:10:16.000Z</time>
      </trkpt>
      <trkpt lon="35.233216574415565" lat="31.248560221865773">
        <ele>528.0</ele>
        <time>2012-12-07T08:10:21.000Z</time>
      </trkpt>
      <trkpt lon="35.233342135325074" lat="31.248275823891163">
        <ele>520.7999877929688</ele>
        <time>2012-12-07T08:10:27.000Z</time>
      </trkpt>
      <trkpt lon="35.23341036401689" lat="31.248135678470135">
        <ele>517.0</ele>
        <time>2012-12-07T08:10:30.000Z</time>
      </trkpt>
      <trkpt lon="35.233534164726734" lat="31.248000394552946">
        <ele>513.0</ele>
        <time>2012-12-07T08:10:34.000Z</time>
      </trkpt>
      <trkpt lon="35.23365159519017" lat="31.247909367084503">
        <ele>510.0</ele>
        <time>2012-12-07T08:10:37.000Z</time>
      </trkpt>
      <trkpt lon="35.23376424796879" lat="31.247796965762973">
        <ele>507.6000061035156</ele>
        <time>2012-12-07T08:10:40.000Z</time>
      </trkpt>
      <trkpt lon="35.233985278755426" lat="31.247643996030092">
        <ele>504.3999938964844</ele>
        <time>2012-12-07T08:10:44.000Z</time>
      </trkpt>
      <trkpt lon="35.23433237336576" lat="31.24743092805147">
        <ele>500.20001220703125</ele>
        <time>2012-12-07T08:10:51.000Z</time>
      </trkpt>
      <trkpt lon="35.23434025235474" lat="31.247404776513577">
        <ele>499.79998779296875</ele>
        <time>2012-12-07T08:11:08.000Z</time>
      </trkpt>
      <trkpt lon="35.23434159345925" lat="31.247402764856815">
        <ele>499.79998779296875</ele>
        <time>2012-12-07T08:11:42.000Z</time>
      </trkpt>
      <trkpt lon="35.234345281496644" lat="31.247403770685196">
        <ele>499.6000061035156</ele>
        <time>2012-12-07T08:12:13.000Z</time>
      </trkpt>
      <trkpt lon="35.23435492068529" lat="31.247390611097217">
        <ele>499.3999938964844</ele>
        <time>2012-12-07T08:12:38.000Z</time>
      </trkpt>
      <trkpt lon="35.23435349576175" lat="31.24738834798336">
        <ele>499.3999938964844</ele>
        <time>2012-12-07T08:12:56.000Z</time>
      </trkpt>
      <trkpt lon="35.234437733888626" lat="31.247292207553983">
        <ele>497.3999938964844</ele>
        <time>2012-12-07T08:13:01.000Z</time>
      </trkpt>
      <trkpt lon="35.23449280299246" lat="31.24721886590123">
        <ele>496.20001220703125</ele>
        <time>2012-12-07T08:13:03.000Z</time>
      </trkpt>
      <trkpt lon="35.234563713893294" lat="31.247145272791386">
        <ele>495.0</ele>
        <time>2012-12-07T08:13:05.000Z</time>
      </trkpt>
      <trkpt lon="35.234639486297965" lat="31.247086264193058">
        <ele>493.79998779296875</ele>
        <time>2012-12-07T08:13:07.000Z</time>
      </trkpt>
      <trkpt lon="35.23470964282751" lat="31.247020298615098">
        <ele>493.0</ele>
        <time>2012-12-07T08:13:09.000Z</time>
      </trkpt>
      <trkpt lon="35.2347949706018" lat="31.246926672756672">
        <ele>491.79998779296875</ele>
        <time>2012-12-07T08:13:12.000Z</time>
      </trkpt>
      <trkpt lon="35.23497149348259" lat="31.246743109077215">
        <ele>490.20001220703125</ele>
        <time>2012-12-07T08:13:20.000Z</time>
      </trkpt>
      <trkpt lon="35.235023126006126" lat="31.24668225646019">
        <ele>489.3999938964844</ele>
        <time>2012-12-07T08:13:22.000Z</time>
      </trkpt>
      <trkpt lon="35.23522119037807" lat="31.246510175988078">
        <ele>482.79998779296875</ele>
        <time>2012-12-07T08:13:28.000Z</time>
      </trkpt>
      <trkpt lon="35.23537575267255" lat="31.24636659398675">
        <ele>478.20001220703125</ele>
        <time>2012-12-07T08:13:34.000Z</time>
      </trkpt>
      <trkpt lon="35.23547273129225" lat="31.24631035141647">
        <ele>476.0</ele>
        <time>2012-12-07T08:13:39.000Z</time>
      </trkpt>
      <trkpt lon="35.23554221726954" lat="31.24620876275003">
        <ele>473.79998779296875</ele>
        <time>2012-12-07T08:13:43.000Z</time>
      </trkpt>
      <trkpt lon="35.23563508875668" lat="31.24613407999277">
        <ele>472.0</ele>
        <time>2012-12-07T08:13:46.000Z</time>
      </trkpt>
      <trkpt lon="35.23577439598739" lat="31.24607641249895">
        <ele>469.79998779296875</ele>
        <time>2012-12-07T08:13:49.000Z</time>
      </trkpt>
      <trkpt lon="35.235857628285885" lat="31.246039364486933">
        <ele>468.6000061035156</ele>
        <time>2012-12-07T08:13:51.000Z</time>
      </trkpt>
      <trkpt lon="35.23591814562678" lat="31.245986809954047">
        <ele>467.3999938964844</ele>
        <time>2012-12-07T08:13:53.000Z</time>
      </trkpt>
      <trkpt lon="35.23608561605215" lat="31.245783045887947">
        <ele>464.0</ele>
        <time>2012-12-07T08:14:04.000Z</time>
      </trkpt>
      <trkpt lon="35.23610908538103" lat="31.245770137757063">
        <ele>463.6000061035156</ele>
        <time>2012-12-07T08:14:06.000Z</time>
      </trkpt>
      <trkpt lon="35.236137667670846" lat="31.24576762318611">
        <ele>463.20001220703125</ele>
        <time>2012-12-07T08:14:08.000Z</time>
      </trkpt>
      <trkpt lon="35.23620673455298" lat="31.24570056796074">
        <ele>461.3999938964844</ele>
        <time>2012-12-07T08:14:13.000Z</time>
      </trkpt>
      <trkpt lon="35.23632986471057" lat="31.245613479986787">
        <ele>459.20001220703125</ele>
        <time>2012-12-07T08:14:19.000Z</time>
      </trkpt>
      <trkpt lon="35.23637470789254" lat="31.245559751987457">
        <ele>458.20001220703125</ele>
        <time>2012-12-07T08:14:21.000Z</time>
      </trkpt>
      <trkpt lon="35.23648518137634" lat="31.245280634611845">
        <ele>454.79998779296875</ele>
        <time>2012-12-07T08:14:30.000Z</time>
      </trkpt>
      <trkpt lon="35.236590625718236" lat="31.24499699100852">
        <ele>452.6000061035156</ele>
        <time>2012-12-07T08:14:38.000Z</time>
      </trkpt>
      <trkpt lon="35.23667679168284" lat="31.2447545863688">
        <ele>449.0</ele>
        <time>2012-12-07T08:14:46.000Z</time>
      </trkpt>
      <trkpt lon="35.23669011890888" lat="31.24472483061254">
        <ele>448.3999938964844</ele>
        <time>2012-12-07T08:14:47.000Z</time>
      </trkpt>
      <trkpt lon="35.23682716302574" lat="31.244534393772483">
        <ele>444.3999938964844</ele>
        <time>2012-12-07T08:14:52.000Z</time>
      </trkpt>
      <trkpt lon="35.23702220991254" lat="31.244242871180177">
        <ele>440.6000061035156</ele>
        <time>2012-12-07T08:14:59.000Z</time>
      </trkpt>
      <trkpt lon="35.23708683438599" lat="31.244148490950465">
        <ele>439.6000061035156</ele>
        <time>2012-12-07T08:15:01.000Z</time>
      </trkpt>
      <trkpt lon="35.23713402450085" lat="31.244070287793875">
        <ele>438.79998779296875</ele>
        <time>2012-12-07T08:15:03.000Z</time>
      </trkpt>
      <trkpt lon="35.237189177423716" lat="31.243989150971174">
        <ele>438.0</ele>
        <time>2012-12-07T08:15:05.000Z</time>
      </trkpt>
      <trkpt lon="35.2373989764601" lat="31.24383802525699">
        <ele>437.79998779296875</ele>
        <time>2012-12-07T08:15:10.000Z</time>
      </trkpt>
      <trkpt lon="35.2374523691833" lat="31.243820674717426">
        <ele>438.0</ele>
        <time>2012-12-07T08:15:11.000Z</time>
      </trkpt>
      <trkpt lon="35.237669963389635" lat="31.243734508752823">
        <ele>435.0</ele>
        <time>2012-12-07T08:15:16.000Z</time>
      </trkpt>
      <trkpt lon="35.23778739385307" lat="31.24352764338255">
        <ele>432.6000061035156</ele>
        <time>2012-12-07T08:15:28.000Z</time>
      </trkpt>
      <trkpt lon="35.2377858851105" lat="31.243527978658676">
        <ele>432.6000061035156</ele>
        <time>2012-12-07T08:15:59.000Z</time>
      </trkpt>
      <trkpt lon="35.23778596892953" lat="31.243526386097074">
        <ele>432.6000061035156</ele>
        <time>2012-12-07T08:16:15.000Z</time>
      </trkpt>
      <trkpt lon="35.237796949222684" lat="31.243527391925454">
        <ele>432.3999938964844</ele>
        <time>2012-12-07T08:16:37.000Z</time>
      </trkpt>
      <trkpt lon="35.237793596461415" lat="31.243508784100413">
        <ele>432.3999938964844</ele>
        <time>2012-12-07T08:17:04.000Z</time>
      </trkpt>
      <trkpt lon="35.237790662795305" lat="31.243503419682384">
        <ele>432.3999938964844</ele>
        <time>2012-12-07T08:17:06.000Z</time>
      </trkpt>
      <trkpt lon="35.23778052069247" lat="31.243263529613614">
        <ele>431.0</ele>
        <time>2012-12-07T08:17:18.000Z</time>
      </trkpt>
      <trkpt lon="35.237860986962914" lat="31.243035877123475">
        <ele>426.20001220703125</ele>
        <time>2012-12-07T08:17:26.000Z</time>
      </trkpt>
      <trkpt lon="35.23818427696824" lat="31.24282842501998">
        <ele>422.6000061035156</ele>
        <time>2012-12-07T08:17:36.000Z</time>
      </trkpt>
      <trkpt lon="35.23845886811614" lat="31.242584763094783">
        <ele>420.3999938964844</ele>
        <time>2012-12-07T08:17:48.000Z</time>
      </trkpt>
      <trkpt lon="35.238719964399934" lat="31.24250588938594">
        <ele>419.0</ele>
        <time>2012-12-07T08:18:00.000Z</time>
      </trkpt>
      <trkpt lon="35.239082062616944" lat="31.242375131696463">
        <ele>414.79998779296875</ele>
        <time>2012-12-07T08:18:11.000Z</time>
      </trkpt>
      <trkpt lon="35.23930954746902" lat="31.242234650999308">
        <ele>410.20001220703125</ele>
        <time>2012-12-07T08:18:21.000Z</time>
      </trkpt>
      <trkpt lon="35.239464696496725" lat="31.24218938872218">
        <ele>407.6000061035156</ele>
        <time>2012-12-07T08:18:26.000Z</time>
      </trkpt>
      <trkpt lon="35.239548766985536" lat="31.242147143930197">
        <ele>405.79998779296875</ele>
        <time>2012-12-07T08:18:29.000Z</time>
      </trkpt>
      <trkpt lon="35.23965144529939" lat="31.242168098688126">
        <ele>404.79998779296875</ele>
        <time>2012-12-07T08:18:39.000Z</time>
      </trkpt>
      <trkpt lon="35.23966577835381" lat="31.24217220582068">
        <ele>404.79998779296875</ele>
        <time>2012-12-07T08:18:43.000Z</time>
      </trkpt>
      <trkpt lon="35.23988756351173" lat="31.242137169465423">
        <ele>401.6000061035156</ele>
        <time>2012-12-07T08:18:51.000Z</time>
      </trkpt>
      <trkpt lon="35.240059308707714" lat="31.242096181958914">
        <ele>399.0</ele>
        <time>2012-12-07T08:18:56.000Z</time>
      </trkpt>
      <trkpt lon="35.240153102204204" lat="31.24205988831818">
        <ele>397.3999938964844</ele>
        <time>2012-12-07T08:18:59.000Z</time>
      </trkpt>
      <trkpt lon="35.2403465565294" lat="31.24198352918029">
        <ele>394.3999938964844</ele>
        <time>2012-12-07T08:19:04.000Z</time>
      </trkpt>
      <trkpt lon="35.24038075469434" lat="31.24196802265942">
        <ele>393.79998779296875</ele>
        <time>2012-12-07T08:19:05.000Z</time>
      </trkpt>
      <trkpt lon="35.24058585986495" lat="31.24187213368714">
        <ele>391.3999938964844</ele>
        <time>2012-12-07T08:19:12.000Z</time>
      </trkpt>
      <trkpt lon="35.24065777659416" lat="31.241821087896824">
        <ele>390.79998779296875</ele>
        <time>2012-12-07T08:19:15.000Z</time>
      </trkpt>
      <trkpt lon="35.2408285997808" lat="31.241769203916192">
        <ele>389.20001220703125</ele>
        <time>2012-12-07T08:19:23.000Z</time>
      </trkpt>
      <trkpt lon="35.24089372716844" lat="31.241650097072124">
        <ele>388.3999938964844</ele>
        <time>2012-12-07T08:19:30.000Z</time>
      </trkpt>
      <trkpt lon="35.24105885066092" lat="31.241570049896836">
        <ele>384.0</ele>
        <time>2012-12-07T08:19:38.000Z</time>
      </trkpt>
      <trkpt lon="35.24113294668496" lat="31.24152520671487">
        <ele>381.79998779296875</ele>
        <time>2012-12-07T08:19:41.000Z</time>
      </trkpt>
      <trkpt lon="35.241300417110324" lat="31.24148279428482">
        <ele>378.3999938964844</ele>
        <time>2012-12-07T08:19:46.000Z</time>
      </trkpt>
      <trkpt lon="35.24147861637175" lat="31.24146083369851">
        <ele>375.3999938964844</ele>
        <time>2012-12-07T08:19:54.000Z</time>
      </trkpt>
      <trkpt lon="35.24152656085789" lat="31.241455050185323">
        <ele>374.6000061035156</ele>
        <time>2012-12-07T08:19:56.000Z</time>
      </trkpt>
      <trkpt lon="35.24167106486857" lat="31.241456558927894">
        <ele>372.6000061035156</ele>
        <time>2012-12-07T08:20:01.000Z</time>
      </trkpt>
      <trkpt lon="35.241825794801116" lat="31.241480614989996">
        <ele>370.3999938964844</ele>
        <time>2012-12-07T08:20:06.000Z</time>
      </trkpt>
      <trkpt lon="35.24202050641179" lat="31.241489835083485">
        <ele>367.20001220703125</ele>
        <time>2012-12-07T08:20:12.000Z</time>
      </trkpt>
      <trkpt lon="35.242184372618794" lat="31.24152864329517">
        <ele>364.79998779296875</ele>
        <time>2012-12-07T08:20:17.000Z</time>
      </trkpt>
      <trkpt lon="35.242365673184395" lat="31.24154280871153">
        <ele>361.79998779296875</ele>
        <time>2012-12-07T08:20:22.000Z</time>
      </trkpt>
      <trkpt lon="35.24243834428489" lat="31.241547418758273">
        <ele>360.6000061035156</ele>
        <time>2012-12-07T08:20:24.000Z</time>
      </trkpt>
      <trkpt lon="35.242521995678544" lat="31.241556890308857">
        <ele>359.3999938964844</ele>
        <time>2012-12-07T08:20:27.000Z</time>
      </trkpt>
      <trkpt lon="35.24266549386084" lat="31.241543143987656">
        <ele>357.6000061035156</ele>
        <time>2012-12-07T08:20:36.000Z</time>
      </trkpt>
      <trkpt lon="35.24283338338137" lat="31.241562170907855">
        <ele>355.79998779296875</ele>
        <time>2012-12-07T08:20:42.000Z</time>
      </trkpt>
      <trkpt lon="35.242855763062835" lat="31.241564014926553">
        <ele>355.6000061035156</ele>
        <time>2012-12-07T08:20:43.000Z</time>
      </trkpt>
      <trkpt lon="35.24300169199705" lat="31.24158530496061">
        <ele>353.79998779296875</ele>
        <time>2012-12-07T08:20:49.000Z</time>
      </trkpt>
      <trkpt lon="35.243070842698216" lat="31.241587651893497">
        <ele>353.0</ele>
        <time>2012-12-07T08:20:58.000Z</time>
      </trkpt>
      <trkpt lon="35.24306598119438" lat="31.24159175902605">
        <ele>353.20001220703125</ele>
        <time>2012-12-07T08:21:16.000Z</time>
      </trkpt>
      <trkpt lon="35.243052653968334" lat="31.241585724055767">
        <ele>353.20001220703125</ele>
        <time>2012-12-07T08:21:48.000Z</time>
      </trkpt>
      <trkpt lon="35.243064472451806" lat="31.241582203656435">
        <ele>353.0</ele>
        <time>2012-12-07T08:21:58.000Z</time>
      </trkpt>
      <trkpt lon="35.243187602609396" lat="31.241554208099842">
        <ele>351.3999938964844</ele>
        <time>2012-12-07T08:22:03.000Z</time>
      </trkpt>
      <trkpt lon="35.24325666949153" lat="31.241544149816036">
        <ele>350.6000061035156</ele>
        <time>2012-12-07T08:22:05.000Z</time>
      </trkpt>
      <trkpt lon="35.24340863339603" lat="31.241517663002014">
        <ele>349.20001220703125</ele>
        <time>2012-12-07T08:22:10.000Z</time>
      </trkpt>
      <trkpt lon="35.243533523753285" lat="31.241485392674804">
        <ele>348.3999938964844</ele>
        <time>2012-12-07T08:22:14.000Z</time>
      </trkpt>
      <trkpt lon="35.24365430697799" lat="31.241409871727228">
        <ele>347.6000061035156</ele>
        <time>2012-12-07T08:22:23.000Z</time>
      </trkpt>
      <trkpt lon="35.24366503581405" lat="31.241417666897178">
        <ele>347.6000061035156</ele>
        <time>2012-12-07T08:22:47.000Z</time>
      </trkpt>
      <trkpt lon="35.24364718236029" lat="31.24140702188015">
        <ele>347.6000061035156</ele>
        <time>2012-12-07T08:23:02.000Z</time>
      </trkpt>
      <trkpt lon="35.243642488494515" lat="31.24138313345611">
        <ele>347.79998779296875</ele>
        <time>2012-12-07T08:23:33.000Z</time>
      </trkpt>
      <trkpt lon="35.24363544769585" lat="31.241382965818048">
        <ele>347.79998779296875</ele>
        <time>2012-12-07T08:24:08.000Z</time>
      </trkpt>
      <trkpt lon="35.243646930903196" lat="31.241404842585325">
        <ele>347.6000061035156</ele>
        <time>2012-12-07T08:24:34.000Z</time>
      </trkpt>
      <trkpt lon="35.24364743381739" lat="31.241391515359282">
        <ele>347.6000061035156</ele>
        <time>2012-12-07T08:25:04.000Z</time>
      </trkpt>
      <trkpt lon="35.24369755759835" lat="31.241406267508864">
        <ele>347.3999938964844</ele>
        <time>2012-12-07T08:25:18.000Z</time>
      </trkpt>
      <trkpt lon="35.24369839578867" lat="31.241355137899518">
        <ele>347.3999938964844</ele>
        <time>2012-12-07T08:25:31.000Z</time>
      </trkpt>
      <trkpt lon="35.24362555705011" lat="31.241321191191673">
        <ele>348.0</ele>
        <time>2012-12-07T08:25:45.000Z</time>
      </trkpt>
      <trkpt lon="35.243628323078156" lat="31.241270983591676">
        <ele>348.0</ele>
        <time>2012-12-07T08:25:57.000Z</time>
      </trkpt>
      <trkpt lon="35.243678111582994" lat="31.24124583788216">
        <ele>347.79998779296875</ele>
        <time>2012-12-07T08:26:09.000Z</time>
      </trkpt>
      <trkpt lon="35.243749525398016" lat="31.24120962806046">
        <ele>347.3999938964844</ele>
        <time>2012-12-07T08:26:22.000Z</time>
      </trkpt>
      <trkpt lon="35.24377810768783" lat="31.241163108497858">
        <ele>347.3999938964844</ele>
        <time>2012-12-07T08:26:34.000Z</time>
      </trkpt>
      <trkpt lon="35.24381632916629" lat="31.24114165082574">
        <ele>347.3999938964844</ele>
        <time>2012-12-07T08:26:45.000Z</time>
      </trkpt>
      <trkpt lon="35.24382789619267" lat="31.24113435856998">
        <ele>347.3999938964844</ele>
        <time>2012-12-07T08:27:01.000Z</time>
      </trkpt>
      <trkpt lon="35.243838876485825" lat="31.24112069606781">
        <ele>347.3999938964844</ele>
        <time>2012-12-07T08:27:38.000Z</time>
      </trkpt>
      <trkpt lon="35.24383099749684" lat="31.24111382290721">
        <ele>347.3999938964844</ele>
        <time>2012-12-07T08:28:04.000Z</time>
      </trkpt>
      <trkpt lon="35.243842313066125" lat="31.24111331999302">
        <ele>347.3999938964844</ele>
        <time>2012-12-07T08:28:33.000Z</time>
      </trkpt>
      <trkpt lon="35.24386058561504" lat="31.241101501509547">
        <ele>347.3999938964844</ele>
        <time>2012-12-07T08:29:01.000Z</time>
      </trkpt>
      <trkpt lon="35.24387399666011" lat="31.24108993448317">
        <ele>347.3999938964844</ele>
        <time>2012-12-07T08:29:03.000Z</time>
      </trkpt>
      <trkpt lon="35.24414733052254" lat="31.241130083799362">
        <ele>346.20001220703125</ele>
        <time>2012-12-07T08:29:18.000Z</time>
      </trkpt>
      <trkpt lon="35.24431899189949" lat="31.24113779515028">
        <ele>346.3999938964844</ele>
        <time>2012-12-07T08:29:31.000Z</time>
      </trkpt>
      <trkpt lon="35.244309771806" lat="31.241141567006707">
        <ele>346.3999938964844</ele>
        <time>2012-12-07T08:29:36.000Z</time>
      </trkpt>
      <trkpt lon="35.24460389278829" lat="31.24113444238901">
        <ele>347.0</ele>
        <time>2012-12-07T08:29:48.000Z</time>
      </trkpt>
      <trkpt lon="35.244717467576265" lat="31.241147182881832">
        <ele>347.0</ele>
        <time>2012-12-07T08:29:50.000Z</time>
      </trkpt>
      <trkpt lon="35.24506598711014" lat="31.241225134581327">
        <ele>347.0</ele>
        <time>2012-12-07T08:30:00.000Z</time>
        <extensions>
          <gpxtpx:TrackPointExtension>
            <gpxtpx:cad>0</gpxtpx:cad>
          </gpxtpx:TrackPointExtension>
        </extensions>
      </trkpt>
      <trkpt lon="35.24554643779993" lat="31.24134306795895">
        <ele>347.79998779296875</ele>
        <time>2012-12-07T08:30:12.000Z</time>
        <extensions>
          <gpxtpx:TrackPointExtension>
            <gpxtpx:cad>0</gpxtpx:cad>
          </gpxtpx:TrackPointExtension>
        </extensions>
      </trkpt>
      <trkpt lon="35.245919432491064" lat="31.24158639460802">
        <ele>346.6000061035156</ele>
        <time>2012-12-07T08:30:23.000Z</time>
        <extensions>
          <gpxtpx:TrackPointExtension>
            <gpxtpx:cad>0</gpxtpx:cad>
          </gpxtpx:TrackPointExtension>
        </extensions>
      </trkpt>
      <trkpt lon="35.24600048549473" lat="31.24173299409449">
        <ele>345.20001220703125</ele>
        <time>2012-12-07T08:30:28.000Z</time>
        <extensions>
          <gpxtpx:TrackPointExtension>
            <gpxtpx:cad>0</gpxtpx:cad>
          </gpxtpx:TrackPointExtension>
        </extensions>
      </trkpt>
      <trkpt lon="35.24607894010842" lat="31.24176853336394">
        <ele>345.3999938964844</ele>
        <time>2012-12-07T08:30:32.000Z</time>
        <extensions>
          <gpxtpx:TrackPointExtension>
            <gpxtpx:cad>0</gpxtpx:cad>
          </gpxtpx:TrackPointExtension>
        </extensions>
      </trkpt>
      <trkpt lon="35.2461594901979" lat="31.241798121482134">
        <ele>345.3999938964844</ele>
        <time>2012-12-07T08:30:36.000Z</time>
        <extensions>
          <gpxtpx:TrackPointExtension>
            <gpxtpx:cad>0</gpxtpx:cad>
          </gpxtpx:TrackPointExtension>
        </extensions>
      </trkpt>
      <trkpt lon="35.24619293399155" lat="31.241882191970944">
        <ele>344.6000061035156</ele>
        <time>2012-12-07T08:30:45.000Z</time>
        <extensions>
          <gpxtpx:TrackPointExtension>
            <gpxtpx:cad>0</gpxtpx:cad>
          </gpxtpx:TrackPointExtension>
        </extensions>
      </trkpt>
      <trkpt lon="35.246294690296054" lat="31.241925861686468">
        <ele>344.3999938964844</ele>
        <time>2012-12-07T08:30:53.000Z</time>
        <extensions>
          <gpxtpx:TrackPointExtension>
            <gpxtpx:cad>0</gpxtpx:cad>
          </gpxtpx:TrackPointExtension>
        </extensions>
      </trkpt>
      <trkpt lon="35.24652661755681" lat="31.241847407072783">
        <ele>346.3999938964844</ele>
        <time>2012-12-07T08:31:05.000Z</time>
        <extensions>
          <gpxtpx:TrackPointExtension>
            <gpxtpx:cad>0</gpxtpx:cad>
          </gpxtpx:TrackPointExtension>
        </extensions>
      </trkpt>
      <trkpt lon="35.24664522148669" lat="31.241759061813354">
        <ele>348.3999938964844</ele>
        <time>2012-12-07T08:31:14.000Z</time>
        <extensions>
          <gpxtpx:TrackPointExtension>
            <gpxtpx:cad>0</gpxtpx:cad>
          </gpxtpx:TrackPointExtension>
        </extensions>
      </trkpt>
      <trkpt lon="35.246776482090354" lat="31.24184045009315">
        <ele>347.3999938964844</ele>
        <time>2012-12-07T08:31:25.000Z</time>
        <extensions>
          <gpxtpx:TrackPointExtension>
            <gpxtpx:cad>0</gpxtpx:cad>
          </gpxtpx:TrackPointExtension>
        </extensions>
      </trkpt>
      <trkpt lon="35.24691738188267" lat="31.24187909066677">
        <ele>347.0</ele>
        <time>2012-12-07T08:31:30.000Z</time>
        <extensions>
          <gpxtpx:TrackPointExtension>
            <gpxtpx:cad>0</gpxtpx:cad>
          </gpxtpx:TrackPointExtension>
        </extensions>
      </trkpt>
      <trkpt lon="35.24707596749067" lat="31.24196450226009">
        <ele>345.79998779296875</ele>
        <time>2012-12-07T08:31:34.000Z</time>
        <extensions>
          <gpxtpx:TrackPointExtension>
            <gpxtpx:cad>0</gpxtpx:cad>
          </gpxtpx:TrackPointExtension>
        </extensions>
      </trkpt>
      <trkpt lon="35.24717948399484" lat="31.242150496691465">
        <ele>342.6000061035156</ele>
        <time>2012-12-07T08:31:44.000Z</time>
        <extensions>
          <gpxtpx:TrackPointExtension>
            <gpxtpx:cad>0</gpxtpx:cad>
          </gpxtpx:TrackPointExtension>
        </extensions>
      </trkpt>
      <trkpt lon="35.24730806238949" lat="31.24226155690849">
        <ele>340.6000061035156</ele>
        <time>2012-12-07T08:31:55.000Z</time>
      </trkpt>
      <trkpt lon="35.24738911539316" lat="31.242343867197633">
        <ele>339.0</ele>
        <time>2012-12-07T08:32:05.000Z</time>
      </trkpt>
      <trkpt lon="35.24742473848164" lat="31.242380999028683">
        <ele>338.20001220703125</ele>
        <time>2012-12-07T08:32:08.000Z</time>
      </trkpt>
      <trkpt lon="35.24744368158281" lat="31.242395415902138">
        <ele>338.0</ele>
        <time>2012-12-07T08:32:09.000Z</time>
      </trkpt>
      <trkpt lon="35.2474613673985" lat="31.24241268262267">
        <ele>337.6000061035156</ele>
        <time>2012-12-07T08:32:10.000Z</time>
      </trkpt>
      <trkpt lon="35.247520711272955" lat="31.242450485005975">
        <ele>337.0</ele>
        <time>2012-12-07T08:32:13.000Z</time>
      </trkpt>
      <trkpt lon="35.24753839708865" lat="31.24245651997626">
        <ele>336.79998779296875</ele>
        <time>2012-12-07T08:32:14.000Z</time>
      </trkpt>
      <trkpt lon="35.24755868129432" lat="31.242464566603303">
        <ele>336.79998779296875</ele>
        <time>2012-12-07T08:32:15.000Z</time>
      </trkpt>
      <trkpt lon="35.247582318261266" lat="31.2424732837826">
        <ele>336.6000061035156</ele>
        <time>2012-12-07T08:32:16.000Z</time>
      </trkpt>
      <trkpt lon="35.24760796688497" lat="31.242480743676424">
        <ele>336.6000061035156</ele>
        <time>2012-12-07T08:32:17.000Z</time>
      </trkpt>
      <trkpt lon="35.24763227440417" lat="31.24248686246574">
        <ele>336.3999938964844</ele>
        <time>2012-12-07T08:32:18.000Z</time>
      </trkpt>
      <trkpt lon="35.24778281338513" lat="31.24251376837492">
        <ele>336.6000061035156</ele>
        <time>2012-12-07T08:32:28.000Z</time>
      </trkpt>
      <trkpt lon="35.24799671955407" lat="31.242561880499125">
        <ele>336.6000061035156</ele>
        <time>2012-12-07T08:32:42.000Z</time>
      </trkpt>
      <trkpt lon="35.248203333467245" lat="31.24247370287776">
        <ele>338.20001220703125</ele>
        <time>2012-12-07T08:32:54.000Z</time>
      </trkpt>
      <trkpt lon="35.24822638370097" lat="31.242468170821667">
        <ele>338.3999938964844</ele>
        <time>2012-12-07T08:32:55.000Z</time>
      </trkpt>
      <trkpt lon="35.248297210782766" lat="31.242490634322166">
        <ele>338.0</ele>
        <time>2012-12-07T08:32:57.000Z</time>
      </trkpt>
      <trkpt lon="35.24831355549395" lat="31.242544362321496">
        <ele>337.3999938964844</ele>
        <time>2012-12-07T08:33:00.000Z</time>
      </trkpt>
      <trkpt lon="35.248487647622824" lat="31.242662547156215">
        <ele>337.6000061035156</ele>
        <time>2012-12-07T08:33:13.000Z</time>
      </trkpt>
      <trkpt lon="35.24854816496372" lat="31.242656260728836">
        <ele>338.3999938964844</ele>
        <time>2012-12-07T08:33:17.000Z</time>
      </trkpt>
      <trkpt lon="35.24862133897841" lat="31.242622481659055">
        <ele>339.6000061035156</ele>
        <time>2012-12-07T08:33:21.000Z</time>
      </trkpt>
      <trkpt lon="35.248745223507285" lat="31.242635305970907">
        <ele>340.79998779296875</ele>
        <time>2012-12-07T08:33:25.000Z</time>
      </trkpt>
      <trkpt lon="35.249083852395415" lat="31.24271652661264">
        <ele>342.6000061035156</ele>
        <time>2012-12-07T08:33:42.000Z</time>
      </trkpt>
      <trkpt lon="35.249395072460175" lat="31.242802776396275">
        <ele>342.6000061035156</ele>
        <time>2012-12-07T08:33:58.000Z</time>
      </trkpt>
      <trkpt lon="35.24946514517069" lat="31.242822222411633">
        <ele>342.6000061035156</ele>
        <time>2012-12-07T08:34:11.000Z</time>
      </trkpt>
      <trkpt lon="35.24945349432528" lat="31.24281476251781">
        <ele>342.6000061035156</ele>
        <time>2012-12-07T08:34:41.000Z</time>
      </trkpt>
      <trkpt lon="35.249453745782375" lat="31.24281384050846">
        <ele>342.6000061035156</ele>
        <time>2012-12-07T08:35:15.000Z</time>
      </trkpt>
      <trkpt lon="35.249458104372025" lat="31.24280545860529">
        <ele>342.79998779296875</ele>
        <time>2012-12-07T08:35:37.000Z</time>
      </trkpt>
      <trkpt lon="35.24951811879873" lat="31.242822725325823">
        <ele>342.79998779296875</ele>
        <time>2012-12-07T08:35:55.000Z</time>
      </trkpt>
      <trkpt lon="35.24967142380774" lat="31.24280847609043">
        <ele>344.0</ele>
        <time>2012-12-07T08:36:02.000Z</time>
      </trkpt>
      <trkpt lon="35.249879797920585" lat="31.242734882980585">
        <ele>346.79998779296875</ele>
        <time>2012-12-07T08:36:10.000Z</time>
      </trkpt>
      <trkpt lon="35.25003997609019" lat="31.242796909064054">
        <ele>346.3999938964844</ele>
        <time>2012-12-07T08:36:14.000Z</time>
      </trkpt>
      <trkpt lon="35.25006327778101" lat="31.242825826629996">
        <ele>346.0</ele>
        <time>2012-12-07T08:36:16.000Z</time>
      </trkpt>
      <trkpt lon="35.25023200549185" lat="31.242917273193598">
        <ele>345.3999938964844</ele>
        <time>2012-12-07T08:36:24.000Z</time>
      </trkpt>
      <trkpt lon="35.250266287475824" lat="31.242944095283747">
        <ele>345.20001220703125</ele>
        <time>2012-12-07T08:36:26.000Z</time>
      </trkpt>
      <trkpt lon="35.25057817809284" lat="31.242980137467384">
        <ele>346.79998779296875</ele>
        <time>2012-12-07T08:36:40.000Z</time>
      </trkpt>
      <trkpt lon="35.25094639509916" lat="31.243002684786916">
        <ele>348.3999938964844</ele>
        <time>2012-12-07T08:36:55.000Z</time>
      </trkpt>
      <trkpt lon="35.25103532709181" lat="31.242995308712125">
        <ele>348.3999938964844</ele>
        <time>2012-12-07T08:36:59.000Z</time>
      </trkpt>
      <trkpt lon="35.25120531208813" lat="31.243039732798934">
        <ele>347.79998779296875</ele>
        <time>2012-12-07T08:37:10.000Z</time>
      </trkpt>
      <trkpt lon="35.251284604892135" lat="31.243065632879734">
        <ele>347.3999938964844</ele>
        <time>2012-12-07T08:37:26.000Z</time>
      </trkpt>
      <trkpt lon="35.251288544386625" lat="31.243069740012288">
        <ele>347.3999938964844</ele>
        <time>2012-12-07T08:37:27.000Z</time>
      </trkpt>
      <trkpt lon="35.25146825239062" lat="31.243144003674388">
        <ele>346.6000061035156</ele>
        <time>2012-12-07T08:37:42.000Z</time>
      </trkpt>
      <trkpt lon="35.2517475374043" lat="31.243103183805943">
        <ele>346.3999938964844</ele>
        <time>2012-12-07T08:37:56.000Z</time>
      </trkpt>
      <trkpt lon="35.25191911496222" lat="31.24301852658391">
        <ele>346.0</ele>
        <time>2012-12-07T08:38:06.000Z</time>
      </trkpt>
      <trkpt lon="35.252211978659034" lat="31.24291593208909">
        <ele>344.79998779296875</ele>
        <time>2012-12-07T08:38:19.000Z</time>
      </trkpt>
      <trkpt lon="35.25248623453081" lat="31.242724237963557">
        <ele>344.3999938964844</ele>
        <time>2012-12-07T08:38:34.000Z</time>
      </trkpt>
      <trkpt lon="35.25280105881393" lat="31.242634635418653">
        <ele>343.0</ele>
        <time>2012-12-07T08:38:44.000Z</time>
      </trkpt>
      <trkpt lon="35.25312074460089" lat="31.242588367313147">
        <ele>341.3999938964844</ele>
        <time>2012-12-07T08:38:54.000Z</time>
      </trkpt>
      <trkpt lon="35.25335552170873" lat="31.242581829428673">
        <ele>340.0</ele>
        <time>2012-12-07T08:39:01.000Z</time>
      </trkpt>
      <trkpt lon="35.25371175259352" lat="31.24247521162033">
        <ele>337.6000061035156</ele>
        <time>2012-12-07T08:39:13.000Z</time>
      </trkpt>
      <trkpt lon="35.25376531295478" lat="31.242438247427344">
        <ele>336.79998779296875</ele>
        <time>2012-12-07T08:39:15.000Z</time>
      </trkpt>
      <trkpt lon="35.25395734235644" lat="31.24228360131383">
        <ele>334.0</ele>
        <time>2012-12-07T08:39:24.000Z</time>
      </trkpt>
      <trkpt lon="35.25403621606529" lat="31.24229189939797">
        <ele>333.3999938964844</ele>
        <time>2012-12-07T08:39:29.000Z</time>
      </trkpt>
      <trkpt lon="35.254185581579804" lat="31.242335736751556">
        <ele>332.6000061035156</ele>
        <time>2012-12-07T08:39:35.000Z</time>
      </trkpt>
      <trkpt lon="35.25433586910367" lat="31.24240580946207">
        <ele>333.0</ele>
        <time>2012-12-07T08:39:40.000Z</time>
      </trkpt>
      <trkpt lon="35.25435397401452" lat="31.24241167679429">
        <ele>333.0</ele>
        <time>2012-12-07T08:39:41.000Z</time>
      </trkpt>
      <trkpt lon="35.25436671450734" lat="31.24240815639496">
        <ele>332.79998779296875</ele>
        <time>2012-12-07T08:39:42.000Z</time>
        <extensions>
          <gpxtpx:TrackPointExtension>
            <gpxtpx:cad>51</gpxtpx:cad>
          </gpxtpx:TrackPointExtension>
        </extensions>
      </trkpt>
      <trkpt lon="35.254377610981464" lat="31.242396337911487">
        <ele>332.79998779296875</ele>
        <time>2012-12-07T08:39:43.000Z</time>
        <extensions>
          <gpxtpx:TrackPointExtension>
            <gpxtpx:cad>51</gpxtpx:cad>
          </gpxtpx:TrackPointExtension>
        </extensions>
      </trkpt>
      <trkpt lon="35.254381047561765" lat="31.242380244657397">
        <ele>332.6000061035156</ele>
        <time>2012-12-07T08:39:44.000Z</time>
        <extensions>
          <gpxtpx:TrackPointExtension>
            <gpxtpx:cad>0</gpxtpx:cad>
          </gpxtpx:TrackPointExtension>
        </extensions>
      </trkpt>
      <trkpt lon="35.254378616809845" lat="31.242364570498466">
        <ele>332.6000061035156</ele>
        <time>2012-12-07T08:39:45.000Z</time>
        <extensions>
          <gpxtpx:TrackPointExtension>
            <gpxtpx:cad>0</gpxtpx:cad>
          </gpxtpx:TrackPointExtension>
        </extensions>
      </trkpt>
      <trkpt lon="35.25437509641051" lat="31.24235057272017">
        <ele>332.6000061035156</ele>
        <time>2012-12-07T08:39:46.000Z</time>
        <extensions>
          <gpxtpx:TrackPointExtension>
            <gpxtpx:cad>0</gpxtpx:cad>
          </gpxtpx:TrackPointExtension>
        </extensions>
      </trkpt>
      <trkpt lon="35.254372330382466" lat="31.242338502779603">
        <ele>332.3999938964844</ele>
        <time>2012-12-07T08:39:47.000Z</time>
        <extensions>
          <gpxtpx:TrackPointExtension>
            <gpxtpx:cad>0</gpxtpx:cad>
          </gpxtpx:TrackPointExtension>
        </extensions>
      </trkpt>
      <trkpt lon="35.2543515432626" lat="31.24230422079563">
        <ele>332.20001220703125</ele>
        <time>2012-12-07T08:40:01.000Z</time>
      </trkpt>
      <trkpt lon="35.25435355491936" lat="31.242301119491458">
        <ele>332.20001220703125</ele>
        <time>2012-12-07T08:40:30.000Z</time>
      </trkpt>
      <trkpt lon="35.254351291805506" lat="31.242286702618003">
        <ele>332.20001220703125</ele>
        <time>2012-12-07T08:40:31.000Z</time>
      </trkpt>
      <trkpt lon="35.254337126389146" lat="31.24209593050182">
        <ele>331.0</ele>
        <time>2012-12-07T08:40:38.000Z</time>
      </trkpt>
      <trkpt lon="35.25435389019549" lat="31.24202761799097">
        <ele>330.6000061035156</ele>
        <time>2012-12-07T08:40:41.000Z</time>
      </trkpt>
      <trkpt lon="35.25429664179683" lat="31.241866433992982">
        <ele>329.6000061035156</ele>
        <time>2012-12-07T08:40:46.000Z</time>
      </trkpt>
      <trkpt lon="35.25429764762521" lat="31.241793259978294">
        <ele>329.0</ele>
        <time>2012-12-07T08:40:48.000Z</time>
      </trkpt>
      <trkpt lon="35.25433050468564" lat="31.241668621078134">
        <ele>328.3999938964844</ele>
        <time>2012-12-07T08:40:51.000Z</time>
      </trkpt>
      <trkpt lon="35.25433888658881" lat="31.241373997181654">
        <ele>327.6000061035156</ele>
        <time>2012-12-07T08:40:56.000Z</time>
      </trkpt>
      <trkpt lon="35.25436361320317" lat="31.24130350537598">
        <ele>327.3999938964844</ele>
        <time>2012-12-07T08:40:57.000Z</time>
      </trkpt>
      <trkpt lon="35.25447500869632" lat="31.24108892865479">
        <ele>326.3999938964844</ele>
        <time>2012-12-07T08:41:00.000Z</time>
      </trkpt>
      <trkpt lon="35.254515409469604" lat="31.24104056507349">
        <ele>326.0</ele>
        <time>2012-12-07T08:41:01.000Z</time>
      </trkpt>
      <trkpt lon="35.25471054017544" lat="31.240815678611398">
        <ele>324.3999938964844</ele>
        <time>2012-12-07T08:41:10.000Z</time>
      </trkpt>
      <trkpt lon="35.25473359040916" lat="31.240779301151633">
        <ele>324.3999938964844</ele>
        <time>2012-12-07T08:41:12.000Z</time>
      </trkpt>
      <trkpt lon="35.2548972889781" lat="31.240441845729947">
        <ele>324.20001220703125</ele>
        <time>2012-12-07T08:41:29.000Z</time>
      </trkpt>
      <trkpt lon="35.25486786849797" lat="31.240166248753667">
        <ele>325.20001220703125</ele>
        <time>2012-12-07T08:41:43.000Z</time>
      </trkpt>
      <trkpt lon="35.254873149096966" lat="31.24003792181611">
        <ele>325.3999938964844</ele>
        <time>2012-12-07T08:41:46.000Z</time>
      </trkpt>
      <trkpt lon="35.254882369190454" lat="31.239882856607437">
        <ele>325.20001220703125</ele>
        <time>2012-12-07T08:41:49.000Z</time>
      </trkpt>
      <trkpt lon="35.254895612597466" lat="31.23983273282647">
        <ele>324.79998779296875</ele>
        <time>2012-12-07T08:41:50.000Z</time>
      </trkpt>
      <trkpt lon="35.25491145439446" lat="31.239790320396423">
        <ele>324.6000061035156</ele>
        <time>2012-12-07T08:41:51.000Z</time>
      </trkpt>
      <trkpt lon="35.25494481436908" lat="31.23955462127924">
        <ele>323.79998779296875</ele>
        <time>2012-12-07T08:42:01.000Z</time>
      </trkpt>
      <trkpt lon="35.25497750379145" lat="31.239293105900288">
        <ele>323.20001220703125</ele>
        <time>2012-12-07T08:42:12.000Z</time>
      </trkpt>
      <trkpt lon="35.25495160371065" lat="31.239271145313978">
        <ele>323.20001220703125</ele>
        <time>2012-12-07T08:42:13.000Z</time>
      </trkpt>
      <trkpt lon="35.254923943430185" lat="31.239250022917986">
        <ele>323.20001220703125</ele>
        <time>2012-12-07T08:42:14.000Z</time>
      </trkpt>
      <trkpt lon="35.254895612597466" lat="31.239230493083596">
        <ele>323.3999938964844</ele>
        <time>2012-12-07T08:42:15.000Z</time>
      </trkpt>
      <trkpt lon="35.25486644357443" lat="31.23921154998243">
        <ele>323.3999938964844</ele>
        <time>2012-12-07T08:42:16.000Z</time>
      </trkpt>
      <trkpt lon="35.25474448688328" lat="31.239034943282604">
        <ele>322.6000061035156</ele>
        <time>2012-12-07T08:42:23.000Z</time>
      </trkpt>
      <trkpt lon="35.254752449691296" lat="31.238996721804142">
        <ele>322.3999938964844</ele>
        <time>2012-12-07T08:42:24.000Z</time>
      </trkpt>
      <trkpt lon="35.254784133285284" lat="31.238822797313333">
        <ele>321.0</ele>
        <time>2012-12-07T08:42:34.000Z</time>
        <extensions>
          <gpxtpx:TrackPointExtension>
            <gpxtpx:cad>0</gpxtpx:cad>
          </gpxtpx:TrackPointExtension>
        </extensions>
      </trkpt>
      <trkpt lon="35.254784720018506" lat="31.238813074305654">
        <ele>321.0</ele>
        <time>2012-12-07T08:42:49.000Z</time>
      </trkpt>
      <trkpt lon="35.254778098315" lat="31.238817097619176">
        <ele>321.0</ele>
        <time>2012-12-07T08:43:17.000Z</time>
      </trkpt>
      <trkpt lon="35.25478824041784" lat="31.23877912759781">
        <ele>320.79998779296875</ele>
        <time>2012-12-07T08:43:43.000Z</time>
      </trkpt>
      <trkpt lon="35.25480894371867" lat="31.238643927499652">
        <ele>319.79998779296875</ele>
        <time>2012-12-07T08:43:48.000Z</time>
      </trkpt>
      <trkpt lon="35.25482512079179" lat="31.23854703269899">
        <ele>319.0</ele>
        <time>2012-12-07T08:43:50.000Z</time>
      </trkpt>
      <trkpt lon="35.254823779687285" lat="31.238449048250914">
        <ele>318.3999938964844</ele>
        <time>2012-12-07T08:43:52.000Z</time>
      </trkpt>
      <trkpt lon="35.25481732562184" lat="31.238406049087644">
        <ele>318.0</ele>
        <time>2012-12-07T08:43:53.000Z</time>
      </trkpt>
      <trkpt lon="35.254806177690625" lat="31.23836724087596">
        <ele>317.79998779296875</ele>
        <time>2012-12-07T08:43:54.000Z</time>
      </trkpt>
      <trkpt lon="35.254791509360075" lat="31.238333377987146">
        <ele>317.6000061035156</ele>
        <time>2012-12-07T08:43:55.000Z</time>
      </trkpt>
      <trkpt lon="35.254774410277605" lat="31.238303622230887">
        <ele>317.6000061035156</ele>
        <time>2012-12-07T08:43:56.000Z</time>
      </trkpt>
      <trkpt lon="35.25475462898612" lat="31.23827596195042">
        <ele>317.6000061035156</ele>
        <time>2012-12-07T08:43:57.000Z</time>
      </trkpt>
      <trkpt lon="35.25459688156843" lat="31.238038670271635">
        <ele>318.0</ele>
        <time>2012-12-07T08:44:08.000Z</time>
      </trkpt>
      <trkpt lon="35.25445807725191" lat="31.237648408859968">
        <ele>318.20001220703125</ele>
        <time>2012-12-07T08:44:24.000Z</time>
      </trkpt>
      <trkpt lon="35.25421567261219" lat="31.237334590405226">
        <ele>319.6000061035156</ele>
        <time>2012-12-07T08:44:39.000Z</time>
      </trkpt>
      <trkpt lon="35.254038060083985" lat="31.237035607919097">
        <ele>320.79998779296875</ele>
        <time>2012-12-07T08:44:51.000Z</time>
      </trkpt>
      <trkpt lon="35.25393605232239" lat="31.236596815288067">
        <ele>321.3999938964844</ele>
        <time>2012-12-07T08:45:08.000Z</time>
      </trkpt>
      <trkpt lon="35.25379582308233" lat="31.236186772584915">
        <ele>321.20001220703125</ele>
        <time>2012-12-07T08:45:25.000Z</time>
      </trkpt>
      <trkpt lon="35.253432635217905" lat="31.23594847507775">
        <ele>322.0</ele>
        <time>2012-12-07T08:45:39.000Z</time>
      </trkpt>
      <trkpt lon="35.253270948305726" lat="31.23560649342835">
        <ele>322.3999938964844</ele>
        <time>2012-12-07T08:45:55.000Z</time>
      </trkpt>
      <trkpt lon="35.25325024500489" lat="31.23553222976625">
        <ele>322.3999938964844</ele>
        <time>2012-12-07T08:45:59.000Z</time>
      </trkpt>
      <trkpt lon="35.253257704898715" lat="31.235512532293797">
        <ele>322.3999938964844</ele>
        <time>2012-12-07T08:46:00.000Z</time>
      </trkpt>
      <trkpt lon="35.25331939570606" lat="31.23544380068779">
        <ele>321.6000061035156</ele>
        <time>2012-12-07T08:46:03.000Z</time>
      </trkpt>
      <trkpt lon="35.253359880298376" lat="31.23542913235724">
        <ele>321.3999938964844</ele>
        <time>2012-12-07T08:46:04.000Z</time>
      </trkpt>
      <trkpt lon="35.253408662974834" lat="31.235427036881447">
        <ele>321.20001220703125</ele>
        <time>2012-12-07T08:46:05.000Z</time>
      </trkpt>
      <trkpt lon="35.25346071459353" lat="31.23543248511851">
        <ele>321.0</ele>
        <time>2012-12-07T08:46:06.000Z</time>
      </trkpt>
      <trkpt lon="35.253512179479" lat="31.235437262803316">
        <ele>320.79998779296875</ele>
        <time>2012-12-07T08:46:07.000Z</time>
      </trkpt>
      <trkpt lon="35.25397217832506" lat="31.23542670160532">
        <ele>319.20001220703125</ele>
        <time>2012-12-07T08:46:19.000Z</time>
      </trkpt>
      <trkpt lon="35.25429052300751" lat="31.235460061579943">
        <ele>318.0</ele>
        <time>2012-12-07T08:46:33.000Z</time>
        <extensions>
          <gpxtpx:TrackPointExtension>
            <gpxtpx:cad>0</gpxtpx:cad>
          </gpxtpx:TrackPointExtension>
        </extensions>
      </trkpt>
      <trkpt lon="35.25485688820481" lat="31.23540675267577">
        <ele>316.3999938964844</ele>
        <time>2012-12-07T08:46:46.000Z</time>
        <extensions>
          <gpxtpx:TrackPointExtension>
            <gpxtpx:cad>0</gpxtpx:cad>
          </gpxtpx:TrackPointExtension>
        </extensions>
      </trkpt>
      <trkpt lon="35.254981610924006" lat="31.235397029668093">
        <ele>316.0</ele>
        <time>2012-12-07T08:46:48.000Z</time>
        <extensions>
          <gpxtpx:TrackPointExtension>
            <gpxtpx:cad>0</gpxtpx:cad>
          </gpxtpx:TrackPointExtension>
        </extensions>
      </trkpt>
      <trkpt lon="35.25541126728058" lat="31.235407758504152">
        <ele>314.20001220703125</ele>
        <time>2012-12-07T08:46:54.000Z</time>
        <extensions>
          <gpxtpx:TrackPointExtension>
            <gpxtpx:cad>0</gpxtpx:cad>
          </gpxtpx:TrackPointExtension>
        </extensions>
      </trkpt>
      <trkpt lon="35.2554879616946" lat="31.235397616401315">
        <ele>313.79998779296875</ele>
        <time>2012-12-07T08:46:55.000Z</time>
        <extensions>
          <gpxtpx:TrackPointExtension>
            <gpxtpx:cad>0</gpxtpx:cad>
          </gpxtpx:TrackPointExtension>
        </extensions>
      </trkpt>
      <trkpt lon="35.25556314736605" lat="31.23538085259497">
        <ele>313.3999938964844</ele>
        <time>2012-12-07T08:46:56.000Z</time>
        <extensions>
          <gpxtpx:TrackPointExtension>
            <gpxtpx:cad>0</gpxtpx:cad>
          </gpxtpx:TrackPointExtension>
        </extensions>
      </trkpt>
      <trkpt lon="35.255963299423456" lat="31.23524548485875">
        <ele>311.79998779296875</ele>
        <time>2012-12-07T08:47:02.000Z</time>
        <extensions>
          <gpxtpx:TrackPointExtension>
            <gpxtpx:cad>0</gpxtpx:cad>
          </gpxtpx:TrackPointExtension>
        </extensions>
      </trkpt>
      <trkpt lon="35.25684448890388" lat="31.234862934798002">
        <ele>308.6000061035156</ele>
        <time>2012-12-07T08:47:18.000Z</time>
        <extensions>
          <gpxtpx:TrackPointExtension>
            <gpxtpx:cad>0</gpxtpx:cad>
          </gpxtpx:TrackPointExtension>
        </extensions>
      </trkpt>
      <trkpt lon="35.25709502398968" lat="31.234599072486162">
        <ele>307.3999938964844</ele>
        <time>2012-12-07T08:47:27.000Z</time>
        <extensions>
          <gpxtpx:TrackPointExtension>
            <gpxtpx:cad>0</gpxtpx:cad>
          </gpxtpx:TrackPointExtension>
        </extensions>
      </trkpt>
      <trkpt lon="35.257122768089175" lat="31.234566466882825">
        <ele>307.20001220703125</ele>
        <time>2012-12-07T08:47:28.000Z</time>
        <extensions>
          <gpxtpx:TrackPointExtension>
            <gpxtpx:cad>0</gpxtpx:cad>
          </gpxtpx:TrackPointExtension>
        </extensions>
      </trkpt>
      <trkpt lon="35.25732326321304" lat="31.23439027927816">
        <ele>305.79998779296875</ele>
        <time>2012-12-07T08:47:33.000Z</time>
        <extensions>
          <gpxtpx:TrackPointExtension>
            <gpxtpx:cad>0</gpxtpx:cad>
          </gpxtpx:TrackPointExtension>
        </extensions>
      </trkpt>
      <trkpt lon="35.25761604309082" lat="31.23407067731023">
        <ele>304.0</ele>
        <time>2012-12-07T08:47:41.000Z</time>
        <extensions>
          <gpxtpx:TrackPointExtension>
            <gpxtpx:cad>0</gpxtpx:cad>
          </gpxtpx:TrackPointExtension>
        </extensions>
      </trkpt>
      <trkpt lon="35.25764244608581" lat="31.234036227688193">
        <ele>304.0</ele>
        <time>2012-12-07T08:47:42.000Z</time>
        <extensions>
          <gpxtpx:TrackPointExtension>
            <gpxtpx:cad>0</gpxtpx:cad>
          </gpxtpx:TrackPointExtension>
        </extensions>
      </trkpt>
      <trkpt lon="35.25766876526177" lat="31.233999766409397">
        <ele>304.0</ele>
        <time>2012-12-07T08:47:43.000Z</time>
        <extensions>
          <gpxtpx:TrackPointExtension>
            <gpxtpx:cad>0</gpxtpx:cad>
          </gpxtpx:TrackPointExtension>
        </extensions>
      </trkpt>
      <trkpt lon="35.25768888182938" lat="31.233960539102554">
        <ele>304.0</ele>
        <time>2012-12-07T08:47:44.000Z</time>
        <extensions>
          <gpxtpx:TrackPointExtension>
            <gpxtpx:cad>0</gpxtpx:cad>
          </gpxtpx:TrackPointExtension>
        </extensions>
      </trkpt>
      <trkpt lon="35.257703717797995" lat="31.233919970691204">
        <ele>304.20001220703125</ele>
        <time>2012-12-07T08:47:45.000Z</time>
        <extensions>
          <gpxtpx:TrackPointExtension>
            <gpxtpx:cad>0</gpxtpx:cad>
          </gpxtpx:TrackPointExtension>
        </extensions>
      </trkpt>
      <trkpt lon="35.257713021710515" lat="31.23387822881341">
        <ele>304.20001220703125</ele>
        <time>2012-12-07T08:47:46.000Z</time>
        <extensions>
          <gpxtpx:TrackPointExtension>
            <gpxtpx:cad>0</gpxtpx:cad>
          </gpxtpx:TrackPointExtension>
        </extensions>
      </trkpt>
      <trkpt lon="35.25771369226277" lat="31.233835816383362">
        <ele>304.3999938964844</ele>
        <time>2012-12-07T08:47:47.000Z</time>
        <extensions>
          <gpxtpx:TrackPointExtension>
            <gpxtpx:cad>0</gpxtpx:cad>
          </gpxtpx:TrackPointExtension>
        </extensions>
      </trkpt>
      <trkpt lon="35.25771469809115" lat="31.233790051192045">
        <ele>304.3999938964844</ele>
        <time>2012-12-07T08:47:48.000Z</time>
        <extensions>
          <gpxtpx:TrackPointExtension>
            <gpxtpx:cad>0</gpxtpx:cad>
          </gpxtpx:TrackPointExtension>
        </extensions>
      </trkpt>
      <trkpt lon="35.2577137760818" lat="31.233742022886872">
        <ele>304.6000061035156</ele>
        <time>2012-12-07T08:47:49.000Z</time>
        <extensions>
          <gpxtpx:TrackPointExtension>
            <gpxtpx:cad>0</gpxtpx:cad>
          </gpxtpx:TrackPointExtension>
        </extensions>
      </trkpt>
      <trkpt lon="35.25754672475159" lat="31.23319510370493">
        <ele>305.3999938964844</ele>
        <time>2012-12-07T08:48:04.000Z</time>
        <extensions>
          <gpxtpx:TrackPointExtension>
            <gpxtpx:cad>0</gpxtpx:cad>
          </gpxtpx:TrackPointExtension>
        </extensions>
      </trkpt>
      <trkpt lon="35.25740649551153" lat="31.23304028995335">
        <ele>305.79998779296875</ele>
        <time>2012-12-07T08:48:15.000Z</time>
        <extensions>
          <gpxtpx:TrackPointExtension>
            <gpxtpx:cad>0</gpxtpx:cad>
          </gpxtpx:TrackPointExtension>
        </extensions>
      </trkpt>
      <trkpt lon="35.257430635392666" lat="31.233007851988077">
        <ele>305.79998779296875</ele>
        <time>2012-12-07T08:48:27.000Z</time>
      </trkpt>
      <trkpt lon="35.257485285401344" lat="31.232987148687243">
        <ele>305.79998779296875</ele>
        <time>2012-12-07T08:48:35.000Z</time>
      </trkpt>
      <trkpt lon="35.25753842666745" lat="31.23297432437539">
        <ele>306.0</ele>
        <time>2012-12-07T08:48:38.000Z</time>
      </trkpt>
      <trkpt lon="35.25767513550818" lat="31.232986813411117">
        <ele>306.3999938964844</ele>
        <time>2012-12-07T08:48:46.000Z</time>
      </trkpt>
      <trkpt lon="35.25765225291252" lat="31.23286577872932">
        <ele>306.6000061035156</ele>
        <time>2012-12-07T08:48:58.000Z</time>
      </trkpt>
      <trkpt lon="35.257596680894494" lat="31.232676934450865">
        <ele>307.0</ele>
        <time>2012-12-07T08:49:11.000Z</time>
      </trkpt>
      <trkpt lon="35.25750917382538" lat="31.232360852882266">
        <ele>307.79998779296875</ele>
        <time>2012-12-07T08:49:26.000Z</time>
      </trkpt>
      <trkpt lon="35.25739450939" lat="31.23192314989865">
        <ele>310.0</ele>
        <time>2012-12-07T08:49:45.000Z</time>
      </trkpt>
      <trkpt lon="35.25735754519701" lat="31.23154789209366">
        <ele>311.3999938964844</ele>
        <time>2012-12-07T08:50:03.000Z</time>
      </trkpt>
      <trkpt lon="35.25737598538399" lat="31.23116341419518">
        <ele>311.20001220703125</ele>
        <time>2012-12-07T08:50:22.000Z</time>
      </trkpt>
      <trkpt lon="35.257359724491835" lat="31.23073434457183">
        <ele>311.0</ele>
        <time>2012-12-07T08:50:41.000Z</time>
      </trkpt>
      <trkpt lon="35.2573406137526" lat="31.230332432314754">
        <ele>310.6000061035156</ele>
        <time>2012-12-07T08:50:57.000Z</time>
      </trkpt>
      <trkpt lon="35.257194600999355" lat="31.2299173604697">
        <ele>310.3999938964844</ele>
        <time>2012-12-07T08:51:14.000Z</time>
      </trkpt>
      <trkpt lon="35.25696476921439" lat="31.229531625285745">
        <ele>309.79998779296875</ele>
        <time>2012-12-07T08:51:30.000Z</time>
      </trkpt>
      <trkpt lon="35.2568228635937" lat="31.229453589767218">
        <ele>309.3999938964844</ele>
        <time>2012-12-07T08:51:41.000Z</time>
      </trkpt>
      <trkpt lon="35.25681967847049" lat="31.229455014690757">
        <ele>309.3999938964844</ele>
        <time>2012-12-07T08:52:08.000Z</time>
      </trkpt>
      <trkpt lon="35.256822276860476" lat="31.229447135701776">
        <ele>309.3999938964844</ele>
        <time>2012-12-07T08:52:32.000Z</time>
      </trkpt>
      <trkpt lon="35.25682110339403" lat="31.22944445349276">
        <ele>309.3999938964844</ele>
        <time>2012-12-07T08:53:10.000Z</time>
      </trkpt>
      <trkpt lon="35.25683376006782" lat="31.229448141530156">
        <ele>309.3999938964844</ele>
        <time>2012-12-07T08:53:51.000Z</time>
      </trkpt>
      <trkpt lon="35.256832083687186" lat="31.229450153186917">
        <ele>309.3999938964844</ele>
        <time>2012-12-07T08:54:28.000Z</time>
      </trkpt>
      <trkpt lon="35.25682236067951" lat="31.22944981791079">
        <ele>309.3999938964844</ele>
        <time>2012-12-07T08:55:03.000Z</time>
      </trkpt>
      <trkpt lon="35.25683183223009" lat="31.229455014690757">
        <ele>309.3999938964844</ele>
        <time>2012-12-07T08:55:23.000Z</time>
      </trkpt>
      <trkpt lon="35.2568125538528" lat="31.229420145973563">
        <ele>309.20001220703125</ele>
        <time>2012-12-07T08:55:49.000Z</time>
      </trkpt>
      <trkpt lon="35.25660392828286" lat="31.22923482209444">
        <ele>308.3999938964844</ele>
        <time>2012-12-07T08:56:01.000Z</time>
      </trkpt>
      <trkpt lon="35.25639253668487" lat="31.228889068588614">
        <ele>307.20001220703125</ele>
        <time>2012-12-07T08:56:15.000Z</time>
      </trkpt>
      <trkpt lon="35.256060445681214" lat="31.2283596675843">
        <ele>305.20001220703125</ele>
        <time>2012-12-07T08:56:31.000Z</time>
      </trkpt>
      <trkpt lon="35.25592968799174" lat="31.22780998237431">
        <ele>304.3999938964844</ele>
        <time>2012-12-07T08:56:46.000Z</time>
      </trkpt>
      <trkpt lon="35.25592784397304" lat="31.227728677913547">
        <ele>304.20001220703125</ele>
        <time>2012-12-07T08:56:48.000Z</time>
      </trkpt>
      <trkpt lon="35.255876798182726" lat="31.227493230253458">
        <ele>303.79998779296875</ele>
        <time>2012-12-07T08:56:53.000Z</time>
      </trkpt>
      <trkpt lon="35.25586816482246" lat="31.22720313258469">
        <ele>303.20001220703125</ele>
        <time>2012-12-07T08:57:00.000Z</time>
      </trkpt>
      <trkpt lon="35.25595961138606" lat="31.22690456919372">
        <ele>302.6000061035156</ele>
        <time>2012-12-07T08:57:07.000Z</time>
      </trkpt>
      <trkpt lon="35.25599137879908" lat="31.22679845429957">
        <ele>302.6000061035156</ele>
        <time>2012-12-07T08:57:09.000Z</time>
      </trkpt>
      <trkpt lon="35.2560886926949" lat="31.226577255874872">
        <ele>302.79998779296875</ele>
        <time>2012-12-07T08:57:13.000Z</time>
      </trkpt>
      <trkpt lon="35.256128339096904" lat="31.226426549255848">
        <ele>303.0</ele>
        <time>2012-12-07T08:57:16.000Z</time>
      </trkpt>
      <trkpt lon="35.25629522278905" lat="31.226123375818133">
        <ele>302.6000061035156</ele>
        <time>2012-12-07T08:57:25.000Z</time>
      </trkpt>
      <trkpt lon="35.25650091469288" lat="31.225940315052867">
        <ele>300.79998779296875</ele>
        <time>2012-12-07T08:57:30.000Z</time>
      </trkpt>
      <trkpt lon="35.25677165016532" lat="31.225581904873252">
        <ele>298.79998779296875</ele>
        <time>2012-12-07T08:57:39.000Z</time>
      </trkpt>
      <trkpt lon="35.25675555691123" lat="31.2250198982656">
        <ele>299.20001220703125</ele>
        <time>2012-12-07T08:57:55.000Z</time>
      </trkpt>
      <trkpt lon="35.25652572512627" lat="31.224396200850606">
        <ele>301.20001220703125</ele>
        <time>2012-12-07T08:58:16.000Z</time>
      </trkpt>
      <trkpt lon="35.25634802877903" lat="31.22404122725129">
        <ele>303.20001220703125</ele>
        <time>2012-12-07T08:58:29.000Z</time>
      </trkpt>
      <trkpt lon="35.256378035992384" lat="31.22390192002058">
        <ele>302.79998779296875</ele>
        <time>2012-12-07T08:58:35.000Z</time>
      </trkpt>
      <trkpt lon="35.25629379786551" lat="31.223445357754827">
        <ele>303.79998779296875</ele>
        <time>2012-12-07T08:58:52.000Z</time>
      </trkpt>
      <trkpt lon="35.25627435185015" lat="31.223240168765187">
        <ele>304.0</ele>
        <time>2012-12-07T08:59:02.000Z</time>
      </trkpt>
      <trkpt lon="35.25621064938605" lat="31.223026681691408">
        <ele>304.3999938964844</ele>
        <time>2012-12-07T08:59:15.000Z</time>
      </trkpt>
      <trkpt lon="35.2560749463737" lat="31.222745720297098">
        <ele>304.79998779296875</ele>
        <time>2012-12-07T08:59:26.000Z</time>
      </trkpt>
      <trkpt lon="35.25604208931327" lat="31.222701631486416">
        <ele>304.79998779296875</ele>
        <time>2012-12-07T08:59:27.000Z</time>
      </trkpt>
      <trkpt lon="35.25599313899875" lat="31.2226143758744">
        <ele>304.79998779296875</ele>
        <time>2012-12-07T08:59:29.000Z</time>
      </trkpt>
      <trkpt lon="35.25602599605918" lat="31.22229821048677">
        <ele>304.3999938964844</ele>
        <time>2012-12-07T08:59:39.000Z</time>
      </trkpt>
      <trkpt lon="35.25595173239708" lat="31.22215546667576">
        <ele>304.6000061035156</ele>
        <time>2012-12-07T08:59:45.000Z</time>
      </trkpt>
      <trkpt lon="35.255877720192075" lat="31.221934016793966">
        <ele>304.3999938964844</ele>
        <time>2012-12-07T08:59:52.000Z</time>
      </trkpt>
      <trkpt lon="35.25588819757104" lat="31.221603099256754">
        <ele>304.20001220703125</ele>
        <time>2012-12-07T09:00:06.000Z</time>
      </trkpt>
      <trkpt lon="35.2559023629874" lat="31.221371591091156">
        <ele>303.79998779296875</ele>
        <time>2012-12-07T09:00:21.000Z</time>
      </trkpt>
      <trkpt lon="35.2559161093086" lat="31.221335884183645">
        <ele>303.79998779296875</ele>
        <time>2012-12-07T09:00:34.000Z</time>
      </trkpt>
      <trkpt lon="35.255923653021455" lat="31.221341248601675">
        <ele>303.79998779296875</ele>
        <time>2012-12-07T09:01:07.000Z</time>
      </trkpt>
      <trkpt lon="35.255912421271205" lat="31.22134250588715">
        <ele>303.79998779296875</ele>
        <time>2012-12-07T09:01:14.000Z</time>
      </trkpt>
      <trkpt lon="35.25607234798372" lat="31.221250304952264">
        <ele>304.0</ele>
        <time>2012-12-07T09:01:21.000Z</time>
      </trkpt>
      <trkpt lon="35.25649471208453" lat="31.221078727394342">
        <ele>303.79998779296875</ele>
        <time>2012-12-07T09:01:29.000Z</time>
      </trkpt>
      <trkpt lon="35.25664173066616" lat="31.22101209126413">
        <ele>303.3999938964844</ele>
        <time>2012-12-07T09:01:31.000Z</time>
      </trkpt>
      <trkpt lon="35.25700131431222" lat="31.220818385481834">
        <ele>303.20001220703125</ele>
        <time>2012-12-07T09:01:36.000Z</time>
      </trkpt>
      <trkpt lon="35.2573165576905" lat="31.220725094899535">
        <ele>304.3999938964844</ele>
        <time>2012-12-07T09:01:41.000Z</time>
      </trkpt>
      <trkpt lon="35.25742141529918" lat="31.220674300566316">
        <ele>304.6000061035156</ele>
        <time>2012-12-07T09:01:43.000Z</time>
      </trkpt>
      <trkpt lon="35.25762400589883" lat="31.22058117762208">
        <ele>304.0</ele>
        <time>2012-12-07T09:01:48.000Z</time>
      </trkpt>
      <trkpt lon="35.257775047793984" lat="31.22054848819971">
        <ele>303.20001220703125</ele>
        <time>2012-12-07T09:01:51.000Z</time>
      </trkpt>
      <trkpt lon="35.25803882628679" lat="31.220493000000715">
        <ele>301.79998779296875</ele>
        <time>2012-12-07T09:01:56.000Z</time>
      </trkpt>
      <trkpt lon="35.25830268859863" lat="31.220415299758315">
        <ele>300.6000061035156</ele>
        <time>2012-12-07T09:02:03.000Z</time>
      </trkpt>
      <trkpt lon="35.25858021341264" lat="31.220499202609062">
        <ele>299.6000061035156</ele>
        <time>2012-12-07T09:02:13.000Z</time>
      </trkpt>
      <trkpt lon="35.258688842877746" lat="31.220516888424754">
        <ele>299.20001220703125</ele>
        <time>2012-12-07T09:02:16.000Z</time>
      </trkpt>
      <trkpt lon="35.25884432718158" lat="31.220505740493536">
        <ele>298.79998779296875</ele>
        <time>2012-12-07T09:02:21.000Z</time>
      </trkpt>
      <trkpt lon="35.25892051868141" lat="31.220416640862823">
        <ele>299.0</ele>
        <time>2012-12-07T09:02:27.000Z</time>
      </trkpt>
      <trkpt lon="35.25912059471011" lat="31.220351178199053">
        <ele>298.79998779296875</ele>
        <time>2012-12-07T09:02:39.000Z</time>
      </trkpt>
      <trkpt lon="35.25929946452379" lat="31.220248583704233">
        <ele>299.79998779296875</ele>
        <time>2012-12-07T09:02:48.000Z</time>
      </trkpt>
      <trkpt lon="35.25929200462997" lat="31.22022989206016">
        <ele>299.79998779296875</ele>
        <time>2012-12-07T09:02:57.000Z</time>
      </trkpt>
      <trkpt lon="35.25928697548807" lat="31.220228550955653">
        <ele>299.79998779296875</ele>
        <time>2012-12-07T09:03:27.000Z</time>
      </trkpt>
      <trkpt lon="35.25928756222129" lat="31.220233077183366">
        <ele>299.79998779296875</ele>
        <time>2012-12-07T09:03:49.000Z</time>
      </trkpt>
      <trkpt lon="35.25928613729775" lat="31.22024598531425">
        <ele>299.79998779296875</ele>
        <time>2012-12-07T09:04:06.000Z</time>
      </trkpt>
      <trkpt lon="35.259269373491406" lat="31.220269706100225">
        <ele>299.6000061035156</ele>
        <time>2012-12-07T09:04:15.000Z</time>
      </trkpt>
      <trkpt lon="35.25934145785868" lat="31.220385963097215">
        <ele>299.0</ele>
        <time>2012-12-07T09:04:24.000Z</time>
      </trkpt>
      <trkpt lon="35.25950490497053" lat="31.220246739685535">
        <ele>300.3999938964844</ele>
        <time>2012-12-07T09:04:35.000Z</time>
      </trkpt>
      <trkpt lon="35.25961747393012" lat="31.220148922875524">
        <ele>301.3999938964844</ele>
        <time>2012-12-07T09:04:48.000Z</time>
      </trkpt>
      <trkpt lon="35.259625939652324" lat="31.220030402764678">
        <ele>302.3999938964844</ele>
        <time>2012-12-07T09:05:04.000Z</time>
      </trkpt>
      <trkpt lon="35.2597220800817" lat="31.219969298690557">
        <ele>303.3999938964844</ele>
        <time>2012-12-07T09:05:21.000Z</time>
      </trkpt>
      <trkpt lon="35.25978519581258" lat="31.219942392781377">
        <ele>304.0</ele>
        <time>2012-12-07T09:05:35.000Z</time>
      </trkpt>
      <trkpt lon="35.25984068401158" lat="31.21989268809557">
        <ele>304.79998779296875</ele>
        <time>2012-12-07T09:05:51.000Z</time>
      </trkpt>
      <trkpt lon="35.25985635817051" lat="31.219887491315603">
        <ele>305.0</ele>
        <time>2012-12-07T09:05:53.000Z</time>
      </trkpt>
      <trkpt lon="35.26012818329036" lat="31.219932166859508">
        <ele>306.0</ele>
        <time>2012-12-07T09:06:06.000Z</time>
        <extensions>
          <gpxtpx:TrackPointExtension>
            <gpxtpx:cad>0</gpxtpx:cad>
          </gpxtpx:TrackPointExtension>
        </extensions>
      </trkpt>
      <trkpt lon="35.26041677221656" lat="31.21999427676201">
        <ele>308.0</ele>
        <time>2012-12-07T09:06:17.000Z</time>
        <extensions>
          <gpxtpx:TrackPointExtension>
            <gpxtpx:cad>0</gpxtpx:cad>
          </gpxtpx:TrackPointExtension>
        </extensions>
      </trkpt>
      <trkpt lon="35.26043630205095" lat="31.219825549051166">
        <ele>310.0</ele>
        <time>2012-12-07T09:06:30.000Z</time>
        <extensions>
          <gpxtpx:TrackPointExtension>
            <gpxtpx:cad>0</gpxtpx:cad>
          </gpxtpx:TrackPointExtension>
        </extensions>
      </trkpt>
      <trkpt lon="35.2604078873992" lat="31.21969093568623">
        <ele>311.20001220703125</ele>
        <time>2012-12-07T09:06:38.000Z</time>
        <extensions>
          <gpxtpx:TrackPointExtension>
            <gpxtpx:cad>0</gpxtpx:cad>
          </gpxtpx:TrackPointExtension>
        </extensions>
      </trkpt>
      <trkpt lon="35.2604768704623" lat="31.21955808252096">
        <ele>313.0</ele>
        <time>2012-12-07T09:06:48.000Z</time>
        <extensions>
          <gpxtpx:TrackPointExtension>
            <gpxtpx:cad>68</gpxtpx:cad>
          </gpxtpx:TrackPointExtension>
        </extensions>
      </trkpt>
      <trkpt lon="35.26054484769702" lat="31.219443501904607">
        <ele>314.79998779296875</ele>
        <time>2012-12-07T09:07:01.000Z</time>
        <extensions>
          <gpxtpx:TrackPointExtension>
            <gpxtpx:cad>0</gpxtpx:cad>
          </gpxtpx:TrackPointExtension>
        </extensions>
      </trkpt>
      <trkpt lon="35.260529424995184" lat="31.21940745972097">
        <ele>315.0</ele>
        <time>2012-12-07T09:07:11.000Z</time>
      </trkpt>
      <trkpt lon="35.26061433367431" lat="31.219322299584746">
        <ele>316.3999938964844</ele>
        <time>2012-12-07T09:07:18.000Z</time>
      </trkpt>
      <trkpt lon="35.26076772250235" lat="31.219186261296272">
        <ele>318.3999938964844</ele>
        <time>2012-12-07T09:07:29.000Z</time>
      </trkpt>
      <trkpt lon="35.260861935094" lat="31.219073021784425">
        <ele>319.79998779296875</ele>
        <time>2012-12-07T09:07:38.000Z</time>
      </trkpt>
      <trkpt lon="35.26106720790267" lat="31.218913178890944">
        <ele>323.20001220703125</ele>
        <time>2012-12-07T09:07:57.000Z</time>
      </trkpt>
      <trkpt lon="35.26108883321285" lat="31.218881495296955">
        <ele>323.6000061035156</ele>
        <time>2012-12-07T09:08:06.000Z</time>
      </trkpt>
      <trkpt lon="35.26109050959349" lat="31.218880992382765">
        <ele>323.6000061035156</ele>
        <time>2012-12-07T09:08:41.000Z</time>
      </trkpt>
      <trkpt lon="35.261076260358095" lat="31.218874538317323">
        <ele>323.3999938964844</ele>
        <time>2012-12-07T09:09:11.000Z</time>
      </trkpt>
      <trkpt lon="35.26108874939382" lat="31.21886163018644">
        <ele>323.6000061035156</ele>
        <time>2012-12-07T09:09:24.000Z</time>
      </trkpt>
      <trkpt lon="35.26109637692571" lat="31.218815026804805">
        <ele>323.79998779296875</ele>
        <time>2012-12-07T09:09:38.000Z</time>
      </trkpt>
      <trkpt lon="35.26109168305993" lat="31.218815864995122">
        <ele>323.79998779296875</ele>
        <time>2012-12-07T09:09:40.000Z</time>
        <extensions>
          <gpxtpx:TrackPointExtension>
            <gpxtpx:cad>1</gpxtpx:cad>
          </gpxtpx:TrackPointExtension>
        </extensions>
      </trkpt>
      <trkpt lon="35.261065531522036" lat="31.218713773414493">
        <ele>323.79998779296875</ele>
        <time>2012-12-07T09:09:47.000Z</time>
        <extensions>
          <gpxtpx:TrackPointExtension>
            <gpxtpx:cad>0</gpxtpx:cad>
          </gpxtpx:TrackPointExtension>
        </extensions>
      </trkpt>
      <trkpt lon="35.2610173355788" lat="31.21852744370699">
        <ele>324.0</ele>
        <time>2012-12-07T09:10:00.000Z</time>
        <extensions>
          <gpxtpx:TrackPointExtension>
            <gpxtpx:cad>0</gpxtpx:cad>
          </gpxtpx:TrackPointExtension>
        </extensions>
      </trkpt>
      <trkpt lon="35.26095271110535" lat="31.218447647988796">
        <ele>323.6000061035156</ele>
        <time>2012-12-07T09:10:07.000Z</time>
        <extensions>
          <gpxtpx:TrackPointExtension>
            <gpxtpx:cad>0</gpxtpx:cad>
          </gpxtpx:TrackPointExtension>
        </extensions>
      </trkpt>
      <trkpt lon="35.260960506275296" lat="31.21836139820516">
        <ele>324.0</ele>
        <time>2012-12-07T09:10:19.000Z</time>
        <extensions>
          <gpxtpx:TrackPointExtension>
            <gpxtpx:cad>0</gpxtpx:cad>
          </gpxtpx:TrackPointExtension>
        </extensions>
      </trkpt>
      <trkpt lon="35.26096494868398" lat="31.218337593600154">
        <ele>324.20001220703125</ele>
        <time>2012-12-07T09:10:35.000Z</time>
      </trkpt>
      <trkpt lon="35.26097450405359" lat="31.21830658055842">
        <ele>324.3999938964844</ele>
        <time>2012-12-07T09:10:42.000Z</time>
      </trkpt>
      <trkpt lon="35.26094852015376" lat="31.21818294748664">
        <ele>324.6000061035156</ele>
        <time>2012-12-07T09:10:57.000Z</time>
      </trkpt>
      <trkpt lon="35.260939886793494" lat="31.218100301921368">
        <ele>324.79998779296875</ele>
        <time>2012-12-07T09:11:14.000Z</time>
      </trkpt>
      <trkpt lon="35.260912561789155" lat="31.21794850565493">
        <ele>325.0</ele>
        <time>2012-12-07T09:11:29.000Z</time>
        <extensions>
          <gpxtpx:TrackPointExtension>
            <gpxtpx:cad>0</gpxtpx:cad>
          </gpxtpx:TrackPointExtension>
        </extensions>
      </trkpt>
      <trkpt lon="35.260899318382144" lat="31.217902321368456">
        <ele>325.0</ele>
        <time>2012-12-07T09:11:32.000Z</time>
        <extensions>
          <gpxtpx:TrackPointExtension>
            <gpxtpx:cad>0</gpxtpx:cad>
          </gpxtpx:TrackPointExtension>
        </extensions>
      </trkpt>
      <trkpt lon="35.26090853847563" lat="31.217836271971464">
        <ele>325.3999938964844</ele>
        <time>2012-12-07T09:11:37.000Z</time>
        <extensions>
          <gpxtpx:TrackPointExtension>
            <gpxtpx:cad>0</gpxtpx:cad>
          </gpxtpx:TrackPointExtension>
        </extensions>
      </trkpt>
      <trkpt lon="35.260840309783816" lat="31.217573834583163">
        <ele>325.79998779296875</ele>
        <time>2012-12-07T09:11:49.000Z</time>
        <extensions>
          <gpxtpx:TrackPointExtension>
            <gpxtpx:cad>0</gpxtpx:cad>
          </gpxtpx:TrackPointExtension>
        </extensions>
      </trkpt>
      <trkpt lon="35.26081566698849" lat="31.217543995007873">
        <ele>325.79998779296875</ele>
        <time>2012-12-07T09:12:00.000Z</time>
      </trkpt>
      <trkpt lon="35.260824551805854" lat="31.217528404667974">
        <ele>325.79998779296875</ele>
        <time>2012-12-07T09:12:23.000Z</time>
      </trkpt>
      <trkpt lon="35.260810386389494" lat="31.217537373304367">
        <ele>326.0</ele>
        <time>2012-12-07T09:12:43.000Z</time>
      </trkpt>
      <trkpt lon="35.26078272610903" lat="31.2174906861037">
        <ele>326.3999938964844</ele>
        <time>2012-12-07T09:12:47.000Z</time>
      </trkpt>
      <trkpt lon="35.26074517518282" lat="31.217257669195533">
        <ele>328.3999938964844</ele>
        <time>2012-12-07T09:13:02.000Z</time>
      </trkpt>
      <trkpt lon="35.26081348769367" lat="31.21699464507401">
        <ele>330.20001220703125</ele>
        <time>2012-12-07T09:13:18.000Z</time>
      </trkpt>
      <trkpt lon="35.26086679659784" lat="31.21685978025198">
        <ele>331.3999938964844</ele>
        <time>2012-12-07T09:13:27.000Z</time>
      </trkpt>
      <trkpt lon="35.26102471165359" lat="31.216737991198897">
        <ele>333.20001220703125</ele>
        <time>2012-12-07T09:13:39.000Z</time>
        <extensions>
          <gpxtpx:TrackPointExtension>
            <gpxtpx:cad>0</gpxtpx:cad>
          </gpxtpx:TrackPointExtension>
        </extensions>
      </trkpt>
      <trkpt lon="35.26124549098313" lat="31.216689040884376">
        <ele>334.79998779296875</ele>
        <time>2012-12-07T09:13:54.000Z</time>
        <extensions>
          <gpxtpx:TrackPointExtension>
            <gpxtpx:cad>0</gpxtpx:cad>
          </gpxtpx:TrackPointExtension>
        </extensions>
      </trkpt>
      <trkpt lon="35.26144900359213" lat="31.216718209907413">
        <ele>335.6000061035156</ele>
        <time>2012-12-07T09:14:08.000Z</time>
        <extensions>
          <gpxtpx:TrackPointExtension>
            <gpxtpx:cad>0</gpxtpx:cad>
          </gpxtpx:TrackPointExtension>
        </extensions>
      </trkpt>
      <trkpt lon="35.26157816872001" lat="31.21666573919356">
        <ele>336.3999938964844</ele>
        <time>2012-12-07T09:14:23.000Z</time>
      </trkpt>
      <trkpt lon="35.26157003827393" lat="31.2166653200984">
        <ele>336.3999938964844</ele>
        <time>2012-12-07T09:14:56.000Z</time>
      </trkpt>
      <trkpt lon="35.26156014762819" lat="31.216653836891055">
        <ele>336.6000061035156</ele>
        <time>2012-12-07T09:15:33.000Z</time>
      </trkpt>
      <trkpt lon="35.2615974470973" lat="31.21665601618588">
        <ele>336.79998779296875</ele>
        <time>2012-12-07T09:15:58.000Z</time>
      </trkpt>
      <trkpt lon="35.261877151206136" lat="31.21648066677153">
        <ele>339.6000061035156</ele>
        <time>2012-12-07T09:16:08.000Z</time>
      </trkpt>
      <trkpt lon="35.262201530858874" lat="31.216333145275712">
        <ele>341.20001220703125</ele>
        <time>2012-12-07T09:16:19.000Z</time>
      </trkpt>
      <trkpt lon="35.2622417639941" lat="31.216290900483727">
        <ele>341.79998779296875</ele>
        <time>2012-12-07T09:16:21.000Z</time>
      </trkpt>
      <trkpt lon="35.26244351640344" lat="31.216327864676714">
        <ele>340.0</ele>
        <time>2012-12-07T09:16:32.000Z</time>
      </trkpt>
      <trkpt lon="35.26278734207153" lat="31.2162924092263">
        <ele>339.0</ele>
        <time>2012-12-07T09:16:46.000Z</time>
      </trkpt>
      <trkpt lon="35.263037541881204" lat="31.21628964319825">
        <ele>337.79998779296875</ele>
        <time>2012-12-07T09:17:00.000Z</time>
      </trkpt>
      <trkpt lon="35.263040056452155" lat="31.21628863736987">
        <ele>337.79998779296875</ele>
        <time>2012-12-07T09:17:16.000Z</time>
      </trkpt>
      <trkpt lon="35.263023460283875" lat="31.216272711753845">
        <ele>338.20001220703125</ele>
        <time>2012-12-07T09:17:44.000Z</time>
      </trkpt>
      <trkpt lon="35.26302077807486" lat="31.21626902371645">
        <ele>338.20001220703125</ele>
        <time>2012-12-07T09:18:12.000Z</time>
      </trkpt>
      <trkpt lon="35.26300904341042" lat="31.216268436983228">
        <ele>338.3999938964844</ele>
        <time>2012-12-07T09:18:40.000Z</time>
      </trkpt>
      <trkpt lon="35.26302890852094" lat="31.2162749748677">
        <ele>338.0</ele>
        <time>2012-12-07T09:19:03.000Z</time>
      </trkpt>
      <trkpt lon="35.263024466112256" lat="31.21629006229341">
        <ele>337.79998779296875</ele>
        <time>2012-12-07T09:19:29.000Z</time>
      </trkpt>
      <trkpt lon="35.26301231235266" lat="31.216290900483727">
        <ele>337.79998779296875</ele>
        <time>2012-12-07T09:19:54.000Z</time>
      </trkpt>
      <trkpt lon="35.26300761848688" lat="31.216294756159186">
        <ele>337.79998779296875</ele>
        <time>2012-12-07T09:20:29.000Z</time>
      </trkpt>
      <trkpt lon="35.26301776058972" lat="31.216291403397918">
        <ele>337.79998779296875</ele>
        <time>2012-12-07T09:21:01.000Z</time>
      </trkpt>
      <trkpt lon="35.263038044795394" lat="31.21627975255251">
        <ele>338.0</ele>
        <time>2012-12-07T09:21:31.000Z</time>
      </trkpt>
      <trkpt lon="35.263039050623775" lat="31.216265922412276">
        <ele>338.20001220703125</ele>
        <time>2012-12-07T09:21:58.000Z</time>
      </trkpt>
      <trkpt lon="35.26302379556" lat="31.216288721188903">
        <ele>337.79998779296875</ele>
        <time>2012-12-07T09:22:32.000Z</time>
      </trkpt>
      <trkpt lon="35.26304332539439" lat="31.21628997847438">
        <ele>337.79998779296875</ele>
        <time>2012-12-07T09:22:55.000Z</time>
      </trkpt>
      <trkpt lon="35.263024382293224" lat="31.216290816664696">
        <ele>337.79998779296875</ele>
        <time>2012-12-07T09:23:16.000Z</time>
      </trkpt>
      <trkpt lon="35.2630256395787" lat="31.216297270730138">
        <ele>337.79998779296875</ele>
        <time>2012-12-07T09:23:38.000Z</time>
      </trkpt>
      <trkpt lon="35.26300904341042" lat="31.216300455853343">
        <ele>337.79998779296875</ele>
        <time>2012-12-07T09:24:08.000Z</time>
      </trkpt>
      <trkpt lon="35.26301340200007" lat="31.216285536065698">
        <ele>338.0</ele>
        <time>2012-12-07T09:24:36.000Z</time>
      </trkpt>
      <trkpt lon="35.26302714832127" lat="31.216279165819287">
        <ele>338.0</ele>
        <time>2012-12-07T09:25:06.000Z</time>
      </trkpt>
      <trkpt lon="35.26300451718271" lat="31.216288721188903">
        <ele>338.0</ele>
        <time>2012-12-07T09:25:29.000Z</time>
      </trkpt>
      <trkpt lon="35.26303150691092" lat="31.216299450024962">
        <ele>337.6000061035156</ele>
        <time>2012-12-07T09:25:57.000Z</time>
      </trkpt>
      <trkpt lon="35.26311557739973" lat="31.216241028159857">
        <ele>338.20001220703125</ele>
        <time>2012-12-07T09:26:06.000Z</time>
      </trkpt>
      <trkpt lon="35.26336468756199" lat="31.216105073690414">
        <ele>339.0</ele>
        <time>2012-12-07T09:26:19.000Z</time>
      </trkpt>
      <trkpt lon="35.26338463649154" lat="31.21609752997756">
        <ele>339.0</ele>
        <time>2012-12-07T09:26:22.000Z</time>
      </trkpt>
      <trkpt lon="35.26373315602541" lat="31.216108677908778">
        <ele>335.20001220703125</ele>
        <time>2012-12-07T09:26:33.000Z</time>
      </trkpt>
      <trkpt lon="35.264048064127564" lat="31.216035839170218">
        <ele>333.0</ele>
        <time>2012-12-07T09:26:42.000Z</time>
      </trkpt>
      <trkpt lon="35.264134649187326" lat="31.215963251888752">
        <ele>333.20001220703125</ele>
        <time>2012-12-07T09:26:47.000Z</time>
      </trkpt>
      <trkpt lon="35.264351489022374" lat="31.216006251052022">
        <ele>330.20001220703125</ele>
        <time>2012-12-07T09:26:54.000Z</time>
      </trkpt>
      <trkpt lon="35.264560114592314" lat="31.21599200181663">
        <ele>328.0</ele>
        <time>2012-12-07T09:27:01.000Z</time>
      </trkpt>
      <trkpt lon="35.26470461860299" lat="31.216013627126813">
        <ele>326.0</ele>
        <time>2012-12-07T09:27:10.000Z</time>
      </trkpt>
      <trkpt lon="35.26494023390114" lat="31.21598412282765">
        <ele>323.79998779296875</ele>
        <time>2012-12-07T09:27:19.000Z</time>
      </trkpt>
      <trkpt lon="35.26510577648878" lat="31.215951265767217">
        <ele>322.0</ele>
        <time>2012-12-07T09:27:25.000Z</time>
      </trkpt>
      <trkpt lon="35.26525237597525" lat="31.215845234692097">
        <ele>320.79998779296875</ele>
        <time>2012-12-07T09:27:33.000Z</time>
      </trkpt>
      <trkpt lon="35.265478352084756" lat="31.215757057070732">
        <ele>317.79998779296875</ele>
        <time>2012-12-07T09:27:40.000Z</time>
      </trkpt>
      <trkpt lon="35.26554976589978" lat="31.21569972485304">
        <ele>317.0</ele>
        <time>2012-12-07T09:27:44.000Z</time>
      </trkpt>
      <trkpt lon="35.26577037759125" lat="31.215504007413983">
        <ele>315.0</ele>
        <time>2012-12-07T09:27:55.000Z</time>
      </trkpt>
      <trkpt lon="35.265907840803266" lat="31.215372495353222">
        <ele>314.0</ele>
        <time>2012-12-07T09:28:00.000Z</time>
      </trkpt>
      <trkpt lon="35.26603298261762" lat="31.215229080989957">
        <ele>313.0</ele>
        <time>2012-12-07T09:28:04.000Z</time>
      </trkpt>
      <trkpt lon="35.266048572957516" lat="31.215202258899808">
        <ele>312.79998779296875</ele>
        <time>2012-12-07T09:28:05.000Z</time>
      </trkpt>
      <trkpt lon="35.266108671203256" lat="31.215058593079448">
        <ele>312.6000061035156</ele>
        <time>2012-12-07T09:28:10.000Z</time>
      </trkpt>
      <trkpt lon="35.26628033258021" lat="31.214958680793643">
        <ele>310.0</ele>
        <time>2012-12-07T09:28:18.000Z</time>
      </trkpt>
      <trkpt lon="35.26641335338354" lat="31.21492087841034">
        <ele>307.79998779296875</ele>
        <time>2012-12-07T09:28:23.000Z</time>
      </trkpt>
      <trkpt lon="35.26667579077184" lat="31.214639833196998">
        <ele>304.20001220703125</ele>
        <time>2012-12-07T09:28:34.000Z</time>
      </trkpt>
      <trkpt lon="35.26689036749303" lat="31.214380245655775">
        <ele>303.6000061035156</ele>
        <time>2012-12-07T09:28:44.000Z</time>
      </trkpt>
      <trkpt lon="35.26709237135947" lat="31.214175978675485">
        <ele>302.3999938964844</ele>
        <time>2012-12-07T09:28:53.000Z</time>
      </trkpt>
      <trkpt lon="35.26717350818217" lat="31.21410733088851">
        <ele>301.3999938964844</ele>
        <time>2012-12-07T09:28:58.000Z</time>
      </trkpt>
      <trkpt lon="35.26720879599452" lat="31.2139852065593">
        <ele>300.79998779296875</ele>
        <time>2012-12-07T09:29:05.000Z</time>
      </trkpt>
      <trkpt lon="35.26722681708634" lat="31.2139730527997">
        <ele>300.6000061035156</ele>
        <time>2012-12-07T09:29:06.000Z</time>
      </trkpt>
      <trkpt lon="35.26719555258751" lat="31.213833829388022">
        <ele>300.3999938964844</ele>
        <time>2012-12-07T09:29:17.000Z</time>
      </trkpt>
      <trkpt lon="35.267082899808884" lat="31.213522106409073">
        <ele>299.6000061035156</ele>
        <time>2012-12-07T09:29:34.000Z</time>
      </trkpt>
      <trkpt lon="35.26708792895079" lat="31.213404089212418">
        <ele>299.20001220703125</ele>
        <time>2012-12-07T09:29:46.000Z</time>
      </trkpt>
      <trkpt lon="35.26710486039519" lat="31.213418673723936">
        <ele>299.20001220703125</ele>
        <time>2012-12-07T09:30:15.000Z</time>
      </trkpt>
      <trkpt lon="35.2670924551785" lat="31.213420601561666">
        <ele>299.20001220703125</ele>
        <time>2012-12-07T09:31:07.000Z</time>
      </trkpt>
      <trkpt lon="35.26708239689469" lat="31.213419009000063">
        <ele>299.20001220703125</ele>
        <time>2012-12-07T09:31:47.000Z</time>
      </trkpt>
      <trkpt lon="35.26709874160588" lat="31.213429821655154">
        <ele>299.20001220703125</ele>
        <time>2012-12-07T09:32:23.000Z</time>
      </trkpt>
      <trkpt lon="35.26708516292274" lat="31.213396126404405">
        <ele>299.20001220703125</ele>
        <time>2012-12-07T09:32:43.000Z</time>
      </trkpt>
      <trkpt lon="35.26708675548434" lat="31.213296046480536">
        <ele>298.79998779296875</ele>
        <time>2012-12-07T09:32:48.000Z</time>
      </trkpt>
      <trkpt lon="35.267152804881334" lat="31.21312857605517">
        <ele>298.20001220703125</ele>
        <time>2012-12-07T09:32:54.000Z</time>
      </trkpt>
      <trkpt lon="35.26716789230704" lat="31.212926907464862">
        <ele>297.6000061035156</ele>
        <time>2012-12-07T09:32:59.000Z</time>
      </trkpt>
      <trkpt lon="35.26719739660621" lat="31.21252214536071">
        <ele>296.3999938964844</ele>
        <time>2012-12-07T09:33:09.000Z</time>
      </trkpt>
      <trkpt lon="35.26719689369202" lat="31.212428184226155">
        <ele>295.79998779296875</ele>
        <time>2012-12-07T09:33:11.000Z</time>
      </trkpt>
      <trkpt lon="35.267204102128744" lat="31.212332965806127">
        <ele>295.20001220703125</ele>
        <time>2012-12-07T09:33:13.000Z</time>
      </trkpt>
      <trkpt lon="35.26729906909168" lat="31.212059715762734">
        <ele>293.20001220703125</ele>
        <time>2012-12-07T09:33:19.000Z</time>
      </trkpt>
      <trkpt lon="35.26735103689134" lat="31.211743634194136">
        <ele>290.6000061035156</ele>
        <time>2012-12-07T09:33:25.000Z</time>
      </trkpt>
      <trkpt lon="35.267537785694" lat="31.211222195997834">
        <ele>289.79998779296875</ele>
        <time>2012-12-07T09:33:39.000Z</time>
      </trkpt>
      <trkpt lon="35.26768564246595" lat="31.21109051629901">
        <ele>289.3999938964844</ele>
        <time>2012-12-07T09:33:46.000Z</time>
      </trkpt>
      <trkpt lon="35.26788655668497" lat="31.21109537780285">
        <ele>288.6000061035156</ele>
        <time>2012-12-07T09:33:53.000Z</time>
      </trkpt>
      <trkpt lon="35.26832568459213" lat="31.211313055828214">
        <ele>287.0</ele>
        <time>2012-12-07T09:34:07.000Z</time>
      </trkpt>
      <trkpt lon="35.268777972087264" lat="31.21142864227295">
        <ele>284.20001220703125</ele>
        <time>2012-12-07T09:34:19.000Z</time>
      </trkpt>
      <trkpt lon="35.269153732806444" lat="31.21132705360651">
        <ele>281.0</ele>
        <time>2012-12-07T09:34:31.000Z</time>
      </trkpt>
      <trkpt lon="35.269192876294255" lat="31.211202330887318">
        <ele>280.20001220703125</ele>
        <time>2012-12-07T09:34:34.000Z</time>
      </trkpt>
      <trkpt lon="35.26920150965452" lat="31.211109459400177">
        <ele>279.6000061035156</ele>
        <time>2012-12-07T09:34:36.000Z</time>
      </trkpt>
      <trkpt lon="35.269207460805774" lat="31.210883483290672">
        <ele>278.3999938964844</ele>
        <time>2012-12-07T09:34:45.000Z</time>
      </trkpt>
      <trkpt lon="35.269200252369046" lat="31.210828833281994">
        <ele>278.0</ele>
        <time>2012-12-07T09:34:54.000Z</time>
      </trkpt>
      <trkpt lon="35.26921701617539" lat="31.21078122407198">
        <ele>278.20001220703125</ele>
        <time>2012-12-07T09:35:06.000Z</time>
      </trkpt>
      <trkpt lon="35.26922992430627" lat="31.210725819692016">
        <ele>278.20001220703125</ele>
        <time>2012-12-07T09:35:13.000Z</time>
      </trkpt>
      <trkpt lon="35.26929857209325" lat="31.21058978140354">
        <ele>278.20001220703125</ele>
        <time>2012-12-07T09:35:21.000Z</time>
      </trkpt>
      <trkpt lon="35.26933629065752" lat="31.21055449359119">
        <ele>278.3999938964844</ele>
        <time>2012-12-07T09:35:24.000Z</time>
      </trkpt>
      <trkpt lon="35.26955044828355" lat="31.210232712328434">
        <ele>277.3999938964844</ele>
        <time>2012-12-07T09:35:34.000Z</time>
      </trkpt>
      <trkpt lon="35.2695791143924" lat="31.210198597982526">
        <ele>277.20001220703125</ele>
        <time>2012-12-07T09:35:35.000Z</time>
      </trkpt>
      <trkpt lon="35.269715236499906" lat="31.210035234689713">
        <ele>275.79998779296875</ele>
        <time>2012-12-07T09:35:40.000Z</time>
      </trkpt>
      <trkpt lon="35.27023281902075" lat="31.20965352281928">
        <ele>272.0</ele>
        <time>2012-12-07T09:35:56.000Z</time>
      </trkpt>
      <trkpt lon="35.270509673282504" lat="31.209479849785566">
        <ele>271.6000061035156</ele>
        <time>2012-12-07T09:36:04.000Z</time>
      </trkpt>
      <trkpt lon="35.27100093662739" lat="31.209484795108438">
        <ele>272.0</ele>
        <time>2012-12-07T09:36:16.000Z</time>
      </trkpt>
      <trkpt lon="35.271272426471114" lat="31.209635250270367">
        <ele>271.6000061035156</ele>
        <time>2012-12-07T09:36:26.000Z</time>
      </trkpt>
      <trkpt lon="35.271876929327846" lat="31.209792075678706">
        <ele>270.0</ele>
        <time>2012-12-07T09:36:38.000Z</time>
      </trkpt>
      <trkpt lon="35.272066444158554" lat="31.209825184196234">
        <ele>269.20001220703125</ele>
        <time>2012-12-07T09:36:41.000Z</time>
      </trkpt>
      <trkpt lon="35.27240004390478" lat="31.209607673808932">
        <ele>266.20001220703125</ele>
        <time>2012-12-07T09:36:49.000Z</time>
      </trkpt>
      <trkpt lon="35.272397780790925" lat="31.20949476957321">
        <ele>265.3999938964844</ele>
        <time>2012-12-07T09:36:51.000Z</time>
      </trkpt>
      <trkpt lon="35.2723472379148" lat="31.20928756892681">
        <ele>264.3999938964844</ele>
        <time>2012-12-07T09:36:55.000Z</time>
      </trkpt>
      <trkpt lon="35.27231153100729" lat="31.20902714319527">
        <ele>264.20001220703125</ele>
        <time>2012-12-07T09:37:03.000Z</time>
      </trkpt>
      <trkpt lon="35.27234807610512" lat="31.208945084363222">
        <ele>264.20001220703125</ele>
        <time>2012-12-07T09:37:07.000Z</time>
      </trkpt>
      <trkpt lon="35.27229149825871" lat="31.20880519039929">
        <ele>265.0</ele>
        <time>2012-12-07T09:37:14.000Z</time>
      </trkpt>
      <trkpt lon="35.272331312298775" lat="31.208704272285104">
        <ele>265.0</ele>
        <time>2012-12-07T09:37:19.000Z</time>
      </trkpt>
      <trkpt lon="35.272375233471394" lat="31.20865624397993">
        <ele>264.79998779296875</ele>
        <time>2012-12-07T09:37:32.000Z</time>
      </trkpt>
      <trkpt lon="35.27238151989877" lat="31.208655908703804">
        <ele>264.6000061035156</ele>
        <time>2012-12-07T09:38:01.000Z</time>
      </trkpt>
      <trkpt lon="35.272384034469724" lat="31.208655573427677">
        <ele>264.6000061035156</ele>
        <time>2012-12-07T09:38:34.000Z</time>
      </trkpt>
      <trkpt lon="35.27237766422331" lat="31.208655405789614">
        <ele>264.79998779296875</ele>
        <time>2012-12-07T09:38:54.000Z</time>
      </trkpt>
      <trkpt lon="35.272382693365216" lat="31.208650544285774">
        <ele>264.6000061035156</ele>
        <time>2012-12-07T09:38:56.000Z</time>
      </trkpt>
      <trkpt lon="35.27257480658591" lat="31.20853210799396">
        <ele>263.79998779296875</ele>
        <time>2012-12-07T09:39:04.000Z</time>
      </trkpt>
      <trkpt lon="35.27260179631412" lat="31.208521211519837">
        <ele>263.6000061035156</ele>
        <time>2012-12-07T09:39:05.000Z</time>
      </trkpt>
      <trkpt lon="35.272898096591234" lat="31.208426831290126">
        <ele>261.3999938964844</ele>
        <time>2012-12-07T09:39:17.000Z</time>
      </trkpt>
      <trkpt lon="35.27296431362629" lat="31.208408810198307">
        <ele>260.79998779296875</ele>
        <time>2012-12-07T09:39:20.000Z</time>
      </trkpt>
      <trkpt lon="35.273188864812255" lat="31.20837176218629">
        <ele>258.6000061035156</ele>
        <time>2012-12-07T09:39:30.000Z</time>
      </trkpt>
      <trkpt lon="35.273411739617586" lat="31.20809373445809">
        <ele>257.6000061035156</ele>
        <time>2012-12-07T09:39:43.000Z</time>
        <extensions>
          <gpxtpx:TrackPointExtension>
            <gpxtpx:cad>0</gpxtpx:cad>
          </gpxtpx:TrackPointExtension>
        </extensions>
      </trkpt>
      <trkpt lon="35.273481979966164" lat="31.20800237171352">
        <ele>257.6000061035156</ele>
        <time>2012-12-07T09:39:54.000Z</time>
      </trkpt>
      <trkpt lon="35.27350368909538" lat="31.207964569330215">
        <ele>257.6000061035156</ele>
        <time>2012-12-07T09:40:13.000Z</time>
      </trkpt>
      <trkpt lon="35.273559764027596" lat="31.20792919769883">
        <ele>257.6000061035156</ele>
        <time>2012-12-07T09:40:32.000Z</time>
      </trkpt>
      <trkpt lon="35.27365338988602" lat="31.207884270697832">
        <ele>257.3999938964844</ele>
        <time>2012-12-07T09:40:47.000Z</time>
      </trkpt>
      <trkpt lon="35.27372119948268" lat="31.207851162180305">
        <ele>257.20001220703125</ele>
        <time>2012-12-07T09:40:58.000Z</time>
      </trkpt>
      <trkpt lon="35.27372471988201" lat="31.207849821075797">
        <ele>257.20001220703125</ele>
        <time>2012-12-07T09:40:59.000Z</time>
      </trkpt>
      <trkpt lon="35.27385740540922" lat="31.207772372290492">
        <ele>256.79998779296875</ele>
        <time>2012-12-07T09:41:10.000Z</time>
      </trkpt>
      <trkpt lon="35.274075670167804" lat="31.20750063098967">
        <ele>254.39999389648438</ele>
        <time>2012-12-07T09:41:21.000Z</time>
      </trkpt>
      <trkpt lon="35.27415010146797" lat="31.20744690299034">
        <ele>253.8000030517578</ele>
        <time>2012-12-07T09:41:23.000Z</time>
      </trkpt>
      <trkpt lon="35.27448881417513" lat="31.207239869982004">
        <ele>253.1999969482422</ele>
        <time>2012-12-07T09:41:34.000Z</time>
      </trkpt>
      <trkpt lon="35.27485032565892" lat="31.20706334710121">
        <ele>251.0</ele>
        <time>2012-12-07T09:41:44.000Z</time>
      </trkpt>
      <trkpt lon="35.27504160068929" lat="31.206914819777012">
        <ele>248.39999389648438</ele>
        <time>2012-12-07T09:41:49.000Z</time>
      </trkpt>
      <trkpt lon="35.275146374478936" lat="31.206808369606733">
        <ele>247.0</ele>
        <time>2012-12-07T09:41:52.000Z</time>
      </trkpt>
      <trkpt lon="35.275290459394455" lat="31.20664986781776">
        <ele>245.0</ele>
        <time>2012-12-07T09:41:57.000Z</time>
      </trkpt>
      <trkpt lon="35.275572845712304" lat="31.20653612539172">
        <ele>245.0</ele>
        <time>2012-12-07T09:42:09.000Z</time>
      </trkpt>
      <trkpt lon="35.2757232170552" lat="31.20643830858171">
        <ele>245.0</ele>
        <time>2012-12-07T09:42:13.000Z</time>
      </trkpt>
      <trkpt lon="35.27592647820711" lat="31.2063093110919">
        <ele>244.8000030517578</ele>
        <time>2012-12-07T09:42:18.000Z</time>
      </trkpt>
      <trkpt lon="35.276196878403425" lat="31.206256756559014">
        <ele>244.1999969482422</ele>
        <time>2012-12-07T09:42:23.000Z</time>
      </trkpt>
      <trkpt lon="35.27680708095431" lat="31.206075875088573">
        <ele>244.39999389648438</ele>
        <time>2012-12-07T09:42:35.000Z</time>
      </trkpt>
      <trkpt lon="35.27692476287484" lat="31.20607336051762">
        <ele>244.8000030517578</ele>
        <time>2012-12-07T09:42:37.000Z</time>
      </trkpt>
      <trkpt lon="35.277326088398695" lat="31.20611535385251">
        <ele>245.60000610351562</ele>
        <time>2012-12-07T09:42:46.000Z</time>
      </trkpt>
      <trkpt lon="35.27767519466579" lat="31.20623999275267">
        <ele>244.0</ele>
        <time>2012-12-07T09:42:59.000Z</time>
      </trkpt>
      <trkpt lon="35.27787610888481" lat="31.206424981355667">
        <ele>240.8000030517578</ele>
        <time>2012-12-07T09:43:09.000Z</time>
        <extensions>
          <gpxtpx:TrackPointExtension>
            <gpxtpx:cad>0</gpxtpx:cad>
          </gpxtpx:TrackPointExtension>
        </extensions>
      </trkpt>
      <trkpt lon="35.27812974527478" lat="31.20661759749055">
        <ele>237.39999389648438</ele>
        <time>2012-12-07T09:43:21.000Z</time>
        <extensions>
          <gpxtpx:TrackPointExtension>
            <gpxtpx:cad>0</gpxtpx:cad>
          </gpxtpx:TrackPointExtension>
        </extensions>
      </trkpt>
      <trkpt lon="35.27833325788379" lat="31.20666059665382">
        <ele>236.0</ele>
        <time>2012-12-07T09:43:33.000Z</time>
        <extensions>
          <gpxtpx:TrackPointExtension>
            <gpxtpx:cad>0</gpxtpx:cad>
          </gpxtpx:TrackPointExtension>
        </extensions>
      </trkpt>
      <trkpt lon="35.27843501418829" lat="31.20663184672594">
        <ele>236.1999969482422</ele>
        <time>2012-12-07T09:43:38.000Z</time>
        <extensions>
          <gpxtpx:TrackPointExtension>
            <gpxtpx:cad>0</gpxtpx:cad>
          </gpxtpx:TrackPointExtension>
        </extensions>
      </trkpt>
      <trkpt lon="35.27843023650348" lat="31.206548865884542">
        <ele>237.39999389648438</ele>
        <time>2012-12-07T09:43:46.000Z</time>
        <extensions>
          <gpxtpx:TrackPointExtension>
            <gpxtpx:cad>0</gpxtpx:cad>
          </gpxtpx:TrackPointExtension>
        </extensions>
      </trkpt>
      <trkpt lon="35.27849259786308" lat="31.206505866721272">
        <ele>237.60000610351562</ele>
        <time>2012-12-07T09:43:50.000Z</time>
        <extensions>
          <gpxtpx:TrackPointExtension>
            <gpxtpx:cad>0</gpxtpx:cad>
          </gpxtpx:TrackPointExtension>
        </extensions>
      </trkpt>
      <trkpt lon="35.278784204274416" lat="31.206326996907592">
        <ele>238.0</ele>
        <time>2012-12-07T09:44:03.000Z</time>
        <extensions>
          <gpxtpx:TrackPointExtension>
            <gpxtpx:cad>0</gpxtpx:cad>
          </gpxtpx:TrackPointExtension>
        </extensions>
      </trkpt>
      <trkpt lon="35.278881434351206" lat="31.206185510382056">
        <ele>238.39999389648438</ele>
        <time>2012-12-07T09:44:15.000Z</time>
      </trkpt>
      <trkpt lon="35.27887674048543" lat="31.206189449876547">
        <ele>238.39999389648438</ele>
        <time>2012-12-07T09:44:42.000Z</time>
      </trkpt>
      <trkpt lon="35.27887154370546" lat="31.206195233389735">
        <ele>238.39999389648438</ele>
        <time>2012-12-07T09:45:11.000Z</time>
      </trkpt>
      <trkpt lon="35.27887707576156" lat="31.20618660002947">
        <ele>238.39999389648438</ele>
        <time>2012-12-07T09:45:43.000Z</time>
      </trkpt>
      <trkpt lon="35.278888810426" lat="31.206141337752342">
        <ele>238.60000610351562</ele>
        <time>2012-12-07T09:46:09.000Z</time>
      </trkpt>
      <trkpt lon="35.27897363528609" lat="31.205810252577066">
        <ele>239.39999389648438</ele>
        <time>2012-12-07T09:46:23.000Z</time>
      </trkpt>
      <trkpt lon="35.278973216190934" lat="31.20573364198208">
        <ele>239.39999389648438</ele>
        <time>2012-12-07T09:46:26.000Z</time>
      </trkpt>
      <trkpt lon="35.27905208989978" lat="31.20564823038876">
        <ele>238.39999389648438</ele>
        <time>2012-12-07T09:46:30.000Z</time>
      </trkpt>
      <trkpt lon="35.27918796055019" lat="31.20534036308527">
        <ele>236.39999389648438</ele>
        <time>2012-12-07T09:46:40.000Z</time>
      </trkpt>
      <trkpt lon="35.279236156493425" lat="31.20525335893035">
        <ele>236.1999969482422</ele>
        <time>2012-12-07T09:46:42.000Z</time>
      </trkpt>
      <trkpt lon="35.27927010320127" lat="31.205166019499302">
        <ele>236.0</ele>
        <time>2012-12-07T09:46:44.000Z</time>
      </trkpt>
      <trkpt lon="35.27938149869442" lat="31.204801658168435">
        <ele>235.8000030517578</ele>
        <time>2012-12-07T09:46:56.000Z</time>
      </trkpt>
      <trkpt lon="35.279395496472716" lat="31.20477693155408">
        <ele>235.8000030517578</ele>
        <time>2012-12-07T09:46:58.000Z</time>
      </trkpt>
      <trkpt lon="35.27936339378357" lat="31.204685484990478">
        <ele>236.0</ele>
        <time>2012-12-07T09:47:10.000Z</time>
      </trkpt>
      <trkpt lon="35.27935375459492" lat="31.20466746389866">
        <ele>236.1999969482422</ele>
        <time>2012-12-07T09:47:26.000Z</time>
      </trkpt>
      <trkpt lon="35.279308911412954" lat="31.204619016498327">
        <ele>236.39999389648438</ele>
        <time>2012-12-07T09:47:34.000Z</time>
      </trkpt>
      <trkpt lon="35.279306061565876" lat="31.20460107922554">
        <ele>236.60000610351562</ele>
        <time>2012-12-07T09:47:37.000Z</time>
      </trkpt>
      <trkpt lon="35.27933933772147" lat="31.204588590189815">
        <ele>236.39999389648438</ele>
        <time>2012-12-07T09:47:40.000Z</time>
      </trkpt>
      <trkpt lon="35.279433550313115" lat="31.204545591026545">
        <ele>235.8000030517578</ele>
        <time>2012-12-07T09:47:57.000Z</time>
      </trkpt>
      <trkpt lon="35.27943899855018" lat="31.204542322084308">
        <ele>235.8000030517578</ele>
        <time>2012-12-07T09:47:58.000Z</time>
      </trkpt>
      <trkpt lon="35.27946062386036" lat="31.204490270465612">
        <ele>235.8000030517578</ele>
        <time>2012-12-07T09:48:02.000Z</time>
        <extensions>
          <gpxtpx:TrackPointExtension>
            <gpxtpx:cad>0</gpxtpx:cad>
          </gpxtpx:TrackPointExtension>
        </extensions>
      </trkpt>
      <trkpt lon="35.2794810757041" lat="31.204415168613195">
        <ele>235.60000610351562</ele>
        <time>2012-12-07T09:48:07.000Z</time>
        <extensions>
          <gpxtpx:TrackPointExtension>
            <gpxtpx:cad>0</gpxtpx:cad>
          </gpxtpx:TrackPointExtension>
        </extensions>
      </trkpt>
      <trkpt lon="35.27950529940426" lat="31.204409888014197">
        <ele>235.39999389648438</ele>
        <time>2012-12-07T09:48:20.000Z</time>
      </trkpt>
      <trkpt lon="35.27953899465501" lat="31.204419443383813">
        <ele>235.1999969482422</ele>
        <time>2012-12-07T09:48:34.000Z</time>
      </trkpt>
      <trkpt lon="35.27954779565334" lat="31.204414665699005">
        <ele>235.1999969482422</ele>
        <time>2012-12-07T09:48:36.000Z</time>
      </trkpt>
      <trkpt lon="35.27966153807938" lat="31.204232275485992">
        <ele>234.1999969482422</ele>
        <time>2012-12-07T09:48:47.000Z</time>
      </trkpt>
      <trkpt lon="35.279744770377874" lat="31.20400143787265">
        <ele>233.39999389648438</ele>
        <time>2012-12-07T09:48:57.000Z</time>
      </trkpt>
      <trkpt lon="35.27990000322461" lat="31.203668089583516">
        <ele>232.1999969482422</ele>
        <time>2012-12-07T09:49:09.000Z</time>
      </trkpt>
      <trkpt lon="35.27989061549306" lat="31.203577229753137">
        <ele>232.39999389648438</ele>
        <time>2012-12-07T09:49:16.000Z</time>
      </trkpt>
      <trkpt lon="35.28019454330206" lat="31.20361117646098">
        <ele>231.39999389648438</ele>
        <time>2012-12-07T09:49:31.000Z</time>
      </trkpt>
      <trkpt lon="35.280284229665995" lat="31.20363363996148">
        <ele>231.39999389648438</ele>
        <time>2012-12-07T09:49:40.000Z</time>
        <extensions>
          <gpxtpx:TrackPointExtension>
            <gpxtpx:cad>0</gpxtpx:cad>
          </gpxtpx:TrackPointExtension>
        </extensions>
      </trkpt>
      <trkpt lon="35.28027702122927" lat="31.203610002994537">
        <ele>231.1999969482422</ele>
        <time>2012-12-07T09:49:54.000Z</time>
      </trkpt>
      <trkpt lon="35.28034558519721" lat="31.20354655198753">
        <ele>230.8000030517578</ele>
        <time>2012-12-07T09:50:06.000Z</time>
      </trkpt>
      <trkpt lon="35.28048422187567" lat="31.203422751277685">
        <ele>229.60000610351562</ele>
        <time>2012-12-07T09:50:15.000Z</time>
      </trkpt>
      <trkpt lon="35.28035438619554" lat="31.203236505389214">
        <ele>230.1999969482422</ele>
        <time>2012-12-07T09:50:27.000Z</time>
      </trkpt>
      <trkpt lon="35.280442060902715" lat="31.203137850388885">
        <ele>230.1999969482422</ele>
        <time>2012-12-07T09:50:36.000Z</time>
      </trkpt>
      <trkpt lon="35.280552534386516" lat="31.20314489118755">
        <ele>229.39999389648438</ele>
        <time>2012-12-07T09:50:40.000Z</time>
      </trkpt>
      <trkpt lon="35.28076618909836" lat="31.203125109896064">
        <ele>227.8000030517578</ele>
        <time>2012-12-07T09:50:46.000Z</time>
      </trkpt>
      <trkpt lon="35.28089778497815" lat="31.20306928642094">
        <ele>227.39999389648438</ele>
        <time>2012-12-07T09:50:49.000Z</time>
      </trkpt>
      <trkpt lon="35.28111018240452" lat="31.202942384406924">
        <ele>227.0</ele>
        <time>2012-12-07T09:50:59.000Z</time>
        <extensions>
          <gpxtpx:TrackPointExtension>
            <gpxtpx:cad>3</gpxtpx:cad>
          </gpxtpx:TrackPointExtension>
        </extensions>
      </trkpt>
      <trkpt lon="35.281110014766455" lat="31.202944815158844">
        <ele>227.0</ele>
        <time>2012-12-07T09:51:19.000Z</time>
      </trkpt>
      <trkpt lon="35.281179836019874" lat="31.202953783795238">
        <ele>226.8000030517578</ele>
        <time>2012-12-07T09:51:30.000Z</time>
        <extensions>
          <gpxtpx:TrackPointExtension>
            <gpxtpx:cad>0</gpxtpx:cad>
          </gpxtpx:TrackPointExtension>
        </extensions>
      </trkpt>
      <trkpt lon="35.28124890290201" lat="31.20297976769507">
        <ele>226.60000610351562</ele>
        <time>2012-12-07T09:51:34.000Z</time>
        <extensions>
          <gpxtpx:TrackPointExtension>
            <gpxtpx:cad>0</gpxtpx:cad>
          </gpxtpx:TrackPointExtension>
        </extensions>
      </trkpt>
      <trkpt lon="35.28132811188698" lat="31.20293140411377">
        <ele>226.39999389648438</ele>
        <time>2012-12-07T09:51:41.000Z</time>
        <extensions>
          <gpxtpx:TrackPointExtension>
            <gpxtpx:cad>0</gpxtpx:cad>
          </gpxtpx:TrackPointExtension>
        </extensions>
      </trkpt>
      <trkpt lon="35.2816550899297" lat="31.20278916321695">
        <ele>225.0</ele>
        <time>2012-12-07T09:51:54.000Z</time>
        <extensions>
          <gpxtpx:TrackPointExtension>
            <gpxtpx:cad>0</gpxtpx:cad>
          </gpxtpx:TrackPointExtension>
        </extensions>
      </trkpt>
      <trkpt lon="35.28216227889061" lat="31.202525217086077">
        <ele>222.1999969482422</ele>
        <time>2012-12-07T09:52:09.000Z</time>
        <extensions>
          <gpxtpx:TrackPointExtension>
            <gpxtpx:cad>0</gpxtpx:cad>
          </gpxtpx:TrackPointExtension>
        </extensions>
      </trkpt>
      <trkpt lon="35.28262680396438" lat="31.202462185174227">
        <ele>221.1999969482422</ele>
        <time>2012-12-07T09:52:23.000Z</time>
        <extensions>
          <gpxtpx:TrackPointExtension>
            <gpxtpx:cad>0</gpxtpx:cad>
          </gpxtpx:TrackPointExtension>
        </extensions>
      </trkpt>
      <trkpt lon="35.28286216780543" lat="31.202525971457362">
        <ele>220.60000610351562</ele>
        <time>2012-12-07T09:52:33.000Z</time>
        <extensions>
          <gpxtpx:TrackPointExtension>
            <gpxtpx:cad>0</gpxtpx:cad>
          </gpxtpx:TrackPointExtension>
        </extensions>
      </trkpt>
      <trkpt lon="35.282946322113276" lat="31.202542819082737">
        <ele>220.8000030517578</ele>
        <time>2012-12-07T09:52:44.000Z</time>
      </trkpt>
      <trkpt lon="35.28295093216002" lat="31.202497892081738">
        <ele>220.39999389648438</ele>
        <time>2012-12-07T09:52:52.000Z</time>
      </trkpt>
      <trkpt lon="35.28299242258072" lat="31.20242756791413">
        <ele>221.0</ele>
        <time>2012-12-07T09:53:06.000Z</time>
      </trkpt>
      <trkpt lon="35.282984459772706" lat="31.202361434698105">
        <ele>221.8000030517578</ele>
        <time>2012-12-07T09:53:17.000Z</time>
      </trkpt>
      <trkpt lon="35.2830798458308" lat="31.202309550717473">
        <ele>222.1999969482422</ele>
        <time>2012-12-07T09:53:24.000Z</time>
      </trkpt>
      <trkpt lon="35.2831609826535" lat="31.20226537808776">
        <ele>222.39999389648438</ele>
        <time>2012-12-07T09:53:28.000Z</time>
      </trkpt>
      <trkpt lon="35.28325502760708" lat="31.202191533520818">
        <ele>223.0</ele>
        <time>2012-12-07T09:53:33.000Z</time>
      </trkpt>
      <trkpt lon="35.2832989487797" lat="31.202173680067062">
        <ele>223.1999969482422</ele>
        <time>2012-12-07T09:53:37.000Z</time>
      </trkpt>
      <trkpt lon="35.28328578919172" lat="31.202116012573242">
        <ele>223.60000610351562</ele>
        <time>2012-12-07T09:53:41.000Z</time>
      </trkpt>
      <trkpt lon="35.283267265185714" lat="31.202049627900124">
        <ele>224.39999389648438</ele>
        <time>2012-12-07T09:53:43.000Z</time>
      </trkpt>
      <trkpt lon="35.28330456465483" lat="31.201994391158223">
        <ele>224.8000030517578</ele>
        <time>2012-12-07T09:53:46.000Z</time>
      </trkpt>
      <trkpt lon="35.28345141559839" lat="31.201945608481765">
        <ele>224.39999389648438</ele>
        <time>2012-12-07T09:53:53.000Z</time>
      </trkpt>
      <trkpt lon="35.283554596826434" lat="31.20194141753018">
        <ele>223.8000030517578</ele>
        <time>2012-12-07T09:53:59.000Z</time>
      </trkpt>
      <trkpt lon="35.28358703479171" lat="31.201848462224007">
        <ele>223.8000030517578</ele>
        <time>2012-12-07T09:54:05.000Z</time>
      </trkpt>
      <trkpt lon="35.28388224542141" lat="31.201626425608993">
        <ele>221.1999969482422</ele>
        <time>2012-12-07T09:54:17.000Z</time>
      </trkpt>
      <trkpt lon="35.284210396930575" lat="31.201407741755247">
        <ele>221.0</ele>
        <time>2012-12-07T09:54:30.000Z</time>
      </trkpt>
      <trkpt lon="35.28424099087715" lat="31.201373543590307">
        <ele>221.39999389648438</ele>
        <time>2012-12-07T09:54:40.000Z</time>
      </trkpt>
      <trkpt lon="35.2842453494668" lat="31.20136784389615">
        <ele>221.60000610351562</ele>
        <time>2012-12-07T09:54:42.000Z</time>
      </trkpt>
      <trkpt lon="35.28435733169317" lat="31.201363066211343">
        <ele>221.60000610351562</ele>
        <time>2012-12-07T09:54:50.000Z</time>
      </trkpt>
      <trkpt lon="35.28444265946746" lat="31.20141771622002">
        <ele>220.8000030517578</ele>
        <time>2012-12-07T09:54:54.000Z</time>
      </trkpt>
      <trkpt lon="35.28477885760367" lat="31.201384691521525">
        <ele>221.39999389648438</ele>
        <time>2012-12-07T09:55:04.000Z</time>
      </trkpt>
      <trkpt lon="35.28484038077295" lat="31.201429031789303">
        <ele>220.39999389648438</ele>
        <time>2012-12-07T09:55:10.000Z</time>
      </trkpt>
      <trkpt lon="35.285086557269096" lat="31.20150907896459">
        <ele>218.8000030517578</ele>
        <time>2012-12-07T09:55:19.000Z</time>
      </trkpt>
      <trkpt lon="35.285213543102145" lat="31.201602621003985">
        <ele>217.1999969482422</ele>
        <time>2012-12-07T09:55:24.000Z</time>
      </trkpt>
      <trkpt lon="35.285346899181604" lat="31.201743436977267">
        <ele>216.8000030517578</ele>
        <time>2012-12-07T09:55:29.000Z</time>
      </trkpt>
      <trkpt lon="35.285686952993274" lat="31.201833290979266">
        <ele>218.60000610351562</ele>
        <time>2012-12-07T09:55:43.000Z</time>
      </trkpt>
      <trkpt lon="35.286052068695426" lat="31.201761877164245">
        <ele>218.0</ele>
        <time>2012-12-07T09:55:58.000Z</time>
      </trkpt>
      <trkpt lon="35.28624803759158" lat="31.20170638896525">
        <ele>217.0</ele>
        <time>2012-12-07T09:56:07.000Z</time>
      </trkpt>
      <trkpt lon="35.2863538172096" lat="31.201691636815667">
        <ele>216.8000030517578</ele>
        <time>2012-12-07T09:56:12.000Z</time>
      </trkpt>
      <trkpt lon="35.286495136097074" lat="31.20173916220665">
        <ele>216.39999389648438</ele>
        <time>2012-12-07T09:56:20.000Z</time>
      </trkpt>
      <trkpt lon="35.28650142252445" lat="31.201817030087113">
        <ele>216.60000610351562</ele>
        <time>2012-12-07T09:56:25.000Z</time>
      </trkpt>
      <trkpt lon="35.286554396152496" lat="31.20187067426741">
        <ele>216.60000610351562</ele>
        <time>2012-12-07T09:56:30.000Z</time>
      </trkpt>
      <trkpt lon="35.28688631951809" lat="31.201870338991284">
        <ele>215.60000610351562</ele>
        <time>2012-12-07T09:56:45.000Z</time>
      </trkpt>
      <trkpt lon="35.28717029839754" lat="31.2018764577806">
        <ele>215.0</ele>
        <time>2012-12-07T09:56:57.000Z</time>
      </trkpt>
      <trkpt lon="35.28755150735378" lat="31.202026242390275">
        <ele>213.60000610351562</ele>
        <time>2012-12-07T09:57:10.000Z</time>
      </trkpt>
      <trkpt lon="35.287689389660954" lat="31.202073767781258">
        <ele>213.1999969482422</ele>
        <time>2012-12-07T09:57:19.000Z</time>
      </trkpt>
      <trkpt lon="35.28768201358616" lat="31.20206907391548">
        <ele>213.1999969482422</ele>
        <time>2012-12-07T09:57:56.000Z</time>
      </trkpt>
      <trkpt lon="35.287789050489664" lat="31.202095476910472">
        <ele>213.0</ele>
        <time>2012-12-07T09:58:25.000Z</time>
      </trkpt>
      <trkpt lon="35.2879426907748" lat="31.20210411027074">
        <ele>212.8000030517578</ele>
        <time>2012-12-07T09:58:29.000Z</time>
      </trkpt>
      <trkpt lon="35.28807613067329" lat="31.20207829400897">
        <ele>212.8000030517578</ele>
        <time>2012-12-07T09:58:32.000Z</time>
      </trkpt>
      <trkpt lon="35.28816305100918" lat="31.202058428898454">
        <ele>212.60000610351562</ele>
        <time>2012-12-07T09:58:34.000Z</time>
      </trkpt>
      <trkpt lon="35.28827310539782" lat="31.2020456045866">
        <ele>212.39999389648438</ele>
        <time>2012-12-07T09:58:36.000Z</time>
      </trkpt>
      <trkpt lon="35.28850167989731" lat="31.20195709168911">
        <ele>212.39999389648438</ele>
        <time>2012-12-07T09:58:42.000Z</time>
      </trkpt>
      <trkpt lon="35.28885321691632" lat="31.201761541888118">
        <ele>210.8000030517578</ele>
        <time>2012-12-07T09:58:56.000Z</time>
      </trkpt>
      <trkpt lon="35.288891019299626" lat="31.20176162570715">
        <ele>210.8000030517578</ele>
        <time>2012-12-07T09:58:57.000Z</time>
      </trkpt>
      <trkpt lon="35.289029739797115" lat="31.201758943498135">
        <ele>210.60000610351562</ele>
        <time>2012-12-07T09:59:00.000Z</time>
      </trkpt>
      <trkpt lon="35.28910509310663" lat="31.201701192185283">
        <ele>209.60000610351562</ele>
        <time>2012-12-07T09:59:03.000Z</time>
      </trkpt>
      <trkpt lon="35.28934892266989" lat="31.201524082571268">
        <ele>209.0</ele>
        <time>2012-12-07T09:59:17.000Z</time>
      </trkpt>
      <trkpt lon="35.289386389777064" lat="31.201511761173606">
        <ele>209.0</ele>
        <time>2012-12-07T09:59:31.000Z</time>
      </trkpt>
      <trkpt lon="35.2895225957036" lat="31.201441269367933">
        <ele>209.0</ele>
        <time>2012-12-07T09:59:53.000Z</time>
      </trkpt>
      <trkpt lon="35.289941942319274" lat="31.201298525556922">
        <ele>209.0</ele>
        <time>2012-12-07T10:00:10.000Z</time>
      </trkpt>
      <trkpt lon="35.28994604945183" lat="31.201293747872114">
        <ele>209.0</ele>
        <time>2012-12-07T10:00:14.000Z</time>
      </trkpt>
      <trkpt lon="35.289974296465516" lat="31.201290311291814">
        <ele>209.0</ele>
        <time>2012-12-07T10:00:19.000Z</time>
      </trkpt>
      <trkpt lon="35.29016649350524" lat="31.201165253296494">
        <ele>208.1999969482422</ele>
        <time>2012-12-07T10:00:31.000Z</time>
        <extensions>
          <gpxtpx:TrackPointExtension>
            <gpxtpx:cad>0</gpxtpx:cad>
          </gpxtpx:TrackPointExtension>
        </extensions>
      </trkpt>
      <trkpt lon="35.29026506468654" lat="31.201204312965274">
        <ele>208.0</ele>
        <time>2012-12-07T10:00:36.000Z</time>
        <extensions>
          <gpxtpx:TrackPointExtension>
            <gpxtpx:cad>0</gpxtpx:cad>
          </gpxtpx:TrackPointExtension>
        </extensions>
      </trkpt>
      <trkpt lon="35.29038878157735" lat="31.201190315186977">
        <ele>207.60000610351562</ele>
        <time>2012-12-07T10:00:44.000Z</time>
        <extensions>
          <gpxtpx:TrackPointExtension>
            <gpxtpx:cad>0</gpxtpx:cad>
          </gpxtpx:TrackPointExtension>
        </extensions>
      </trkpt>
      <trkpt lon="35.290423231199384" lat="31.201191153377295">
        <ele>207.60000610351562</ele>
        <time>2012-12-07T10:00:46.000Z</time>
        <extensions>
          <gpxtpx:TrackPointExtension>
            <gpxtpx:cad>0</gpxtpx:cad>
          </gpxtpx:TrackPointExtension>
        </extensions>
      </trkpt>
      <trkpt lon="35.2904446888715" lat="31.201245971024036">
        <ele>207.60000610351562</ele>
        <time>2012-12-07T10:00:57.000Z</time>
      </trkpt>
      <trkpt lon="35.290369084104896" lat="31.201368682086468">
        <ele>208.0</ele>
        <time>2012-12-07T10:01:11.000Z</time>
      </trkpt>
      <trkpt lon="35.29035768471658" lat="31.201462894678116">
        <ele>208.1999969482422</ele>
        <time>2012-12-07T10:01:25.000Z</time>
      </trkpt>
      <trkpt lon="35.29035768471658" lat="31.201467756181955">
        <ele>208.1999969482422</ele>
        <time>2012-12-07T10:01:26.000Z</time>
      </trkpt>
      <trkpt lon="35.29039900749922" lat="31.20156129822135">
        <ele>208.1999969482422</ele>
        <time>2012-12-07T10:01:34.000Z</time>
      </trkpt>
      <trkpt lon="35.290628001093864" lat="31.20157454162836">
        <ele>207.60000610351562</ele>
        <time>2012-12-07T10:01:44.000Z</time>
      </trkpt>
      <trkpt lon="35.2908352855593" lat="31.201579989865422">
        <ele>206.8000030517578</ele>
        <time>2012-12-07T10:01:55.000Z</time>
      </trkpt>
      <trkpt lon="35.29096545651555" lat="31.201525842770934">
        <ele>206.39999389648438</ele>
        <time>2012-12-07T10:02:01.000Z</time>
      </trkpt>
      <trkpt lon="35.29137700796127" lat="31.201327610760927">
        <ele>204.60000610351562</ele>
        <time>2012-12-07T10:02:13.000Z</time>
      </trkpt>
      <trkpt lon="35.29173298738897" lat="31.200949419289827">
        <ele>202.39999389648438</ele>
        <time>2012-12-07T10:02:26.000Z</time>
      </trkpt>
      <trkpt lon="35.29215241782367" lat="31.200748421251774">
        <ele>201.8000030517578</ele>
        <time>2012-12-07T10:02:38.000Z</time>
      </trkpt>
      <trkpt lon="35.29233313165605" lat="31.200716150924563">
        <ele>201.8000030517578</ele>
        <time>2012-12-07T10:02:44.000Z</time>
      </trkpt>
      <trkpt lon="35.29240638948977" lat="31.200732747092843">
        <ele>201.60000610351562</ele>
        <time>2012-12-07T10:02:47.000Z</time>
        <extensions>
          <gpxtpx:TrackPointExtension>
            <gpxtpx:cad>21</gpxtpx:cad>
          </gpxtpx:TrackPointExtension>
        </extensions>
      </trkpt>
      <trkpt lon="35.292482413351536" lat="31.200692178681493">
        <ele>201.60000610351562</ele>
        <time>2012-12-07T10:02:51.000Z</time>
        <extensions>
          <gpxtpx:TrackPointExtension>
            <gpxtpx:cad>0</gpxtpx:cad>
          </gpxtpx:TrackPointExtension>
        </extensions>
      </trkpt>
      <trkpt lon="35.29290804639459" lat="31.20051900856197">
        <ele>203.8000030517578</ele>
        <time>2012-12-07T10:03:03.000Z</time>
        <extensions>
          <gpxtpx:TrackPointExtension>
            <gpxtpx:cad>0</gpxtpx:cad>
          </gpxtpx:TrackPointExtension>
        </extensions>
      </trkpt>
      <trkpt lon="35.29319512657821" lat="31.20034608989954">
        <ele>203.39999389648438</ele>
        <time>2012-12-07T10:03:10.000Z</time>
        <extensions>
          <gpxtpx:TrackPointExtension>
            <gpxtpx:cad>0</gpxtpx:cad>
          </gpxtpx:TrackPointExtension>
        </extensions>
      </trkpt>
      <trkpt lon="35.29332060366869" lat="31.20021658949554">
        <ele>202.0</ele>
        <time>2012-12-07T10:03:14.000Z</time>
        <extensions>
          <gpxtpx:TrackPointExtension>
            <gpxtpx:cad>0</gpxtpx:cad>
          </gpxtpx:TrackPointExtension>
        </extensions>
      </trkpt>
      <trkpt lon="35.29338849708438" lat="31.200155736878514">
        <ele>201.60000610351562</ele>
        <time>2012-12-07T10:03:16.000Z</time>
        <extensions>
          <gpxtpx:TrackPointExtension>
            <gpxtpx:cad>0</gpxtpx:cad>
          </gpxtpx:TrackPointExtension>
        </extensions>
      </trkpt>
      <trkpt lon="35.293498216196895" lat="31.200067223981023">
        <ele>201.39999389648438</ele>
        <time>2012-12-07T10:03:19.000Z</time>
        <extensions>
          <gpxtpx:TrackPointExtension>
            <gpxtpx:cad>0</gpxtpx:cad>
          </gpxtpx:TrackPointExtension>
        </extensions>
      </trkpt>
      <trkpt lon="35.29358580708504" lat="31.199967730790377">
        <ele>200.8000030517578</ele>
        <time>2012-12-07T10:03:22.000Z</time>
        <extensions>
          <gpxtpx:TrackPointExtension>
            <gpxtpx:cad>0</gpxtpx:cad>
          </gpxtpx:TrackPointExtension>
        </extensions>
      </trkpt>
      <trkpt lon="35.29366954229772" lat="31.199820712208748">
        <ele>200.0</ele>
        <time>2012-12-07T10:03:26.000Z</time>
        <extensions>
          <gpxtpx:TrackPointExtension>
            <gpxtpx:cad>0</gpxtpx:cad>
          </gpxtpx:TrackPointExtension>
        </extensions>
      </trkpt>
      <trkpt lon="35.29375847429037" lat="31.199591550976038">
        <ele>198.1999969482422</ele>
        <time>2012-12-07T10:03:32.000Z</time>
        <extensions>
          <gpxtpx:TrackPointExtension>
            <gpxtpx:cad>0</gpxtpx:cad>
          </gpxtpx:TrackPointExtension>
        </extensions>
      </trkpt>
      <trkpt lon="35.293773813173175" lat="31.19950806722045">
        <ele>197.60000610351562</ele>
        <time>2012-12-07T10:03:34.000Z</time>
        <extensions>
          <gpxtpx:TrackPointExtension>
            <gpxtpx:cad>0</gpxtpx:cad>
          </gpxtpx:TrackPointExtension>
        </extensions>
      </trkpt>
      <trkpt lon="35.293790912255645" lat="31.199428690597415">
        <ele>196.8000030517578</ele>
        <time>2012-12-07T10:03:36.000Z</time>
        <extensions>
          <gpxtpx:TrackPointExtension>
            <gpxtpx:cad>0</gpxtpx:cad>
          </gpxtpx:TrackPointExtension>
        </extensions>
      </trkpt>
      <trkpt lon="35.293844724074006" lat="31.199313858523965">
        <ele>196.0</ele>
        <time>2012-12-07T10:03:39.000Z</time>
        <extensions>
          <gpxtpx:TrackPointExtension>
            <gpxtpx:cad>0</gpxtpx:cad>
          </gpxtpx:TrackPointExtension>
        </extensions>
      </trkpt>
      <trkpt lon="35.29387900605798" lat="31.19919382967055">
        <ele>194.8000030517578</ele>
        <time>2012-12-07T10:03:42.000Z</time>
        <extensions>
          <gpxtpx:TrackPointExtension>
            <gpxtpx:cad>0</gpxtpx:cad>
          </gpxtpx:TrackPointExtension>
        </extensions>
      </trkpt>
      <trkpt lon="35.29402317479253" lat="31.198801640421152">
        <ele>193.1999969482422</ele>
        <time>2012-12-07T10:03:51.000Z</time>
        <extensions>
          <gpxtpx:TrackPointExtension>
            <gpxtpx:cad>0</gpxtpx:cad>
          </gpxtpx:TrackPointExtension>
        </extensions>
      </trkpt>
      <trkpt lon="35.29411789029837" lat="31.198581280186772">
        <ele>191.8000030517578</ele>
        <time>2012-12-07T10:03:56.000Z</time>
        <extensions>
          <gpxtpx:TrackPointExtension>
            <gpxtpx:cad>0</gpxtpx:cad>
          </gpxtpx:TrackPointExtension>
        </extensions>
      </trkpt>
      <trkpt lon="35.29417220503092" lat="31.198512464761734">
        <ele>191.1999969482422</ele>
        <time>2012-12-07T10:03:58.000Z</time>
        <extensions>
          <gpxtpx:TrackPointExtension>
            <gpxtpx:cad>0</gpxtpx:cad>
          </gpxtpx:TrackPointExtension>
        </extensions>
      </trkpt>
      <trkpt lon="35.29459708370268" lat="31.198345832526684">
        <ele>189.0</ele>
        <time>2012-12-07T10:04:09.000Z</time>
        <extensions>
          <gpxtpx:TrackPointExtension>
            <gpxtpx:cad>0</gpxtpx:cad>
          </gpxtpx:TrackPointExtension>
        </extensions>
      </trkpt>
      <trkpt lon="35.29469959437847" lat="31.19833057746291">
        <ele>188.60000610351562</ele>
        <time>2012-12-07T10:04:11.000Z</time>
        <extensions>
          <gpxtpx:TrackPointExtension>
            <gpxtpx:cad>0</gpxtpx:cad>
          </gpxtpx:TrackPointExtension>
        </extensions>
      </trkpt>
      <trkpt lon="35.29510913416743" lat="31.198241729289293">
        <ele>188.60000610351562</ele>
        <time>2012-12-07T10:04:18.000Z</time>
        <extensions>
          <gpxtpx:TrackPointExtension>
            <gpxtpx:cad>0</gpxtpx:cad>
          </gpxtpx:TrackPointExtension>
        </extensions>
      </trkpt>
      <trkpt lon="35.29540845192969" lat="31.198126394301653">
        <ele>189.0</ele>
        <time>2012-12-07T10:04:23.000Z</time>
        <extensions>
          <gpxtpx:TrackPointExtension>
            <gpxtpx:cad>0</gpxtpx:cad>
          </gpxtpx:TrackPointExtension>
        </extensions>
      </trkpt>
      <trkpt lon="35.295639205724" lat="31.198069816455245">
        <ele>188.60000610351562</ele>
        <time>2012-12-07T10:04:27.000Z</time>
        <extensions>
          <gpxtpx:TrackPointExtension>
            <gpxtpx:cad>0</gpxtpx:cad>
          </gpxtpx:TrackPointExtension>
        </extensions>
      </trkpt>
      <trkpt lon="35.29610976576805" lat="31.197910141199827">
        <ele>188.8000030517578</ele>
        <time>2012-12-07T10:04:40.000Z</time>
        <extensions>
          <gpxtpx:TrackPointExtension>
            <gpxtpx:cad>0</gpxtpx:cad>
          </gpxtpx:TrackPointExtension>
        </extensions>
      </trkpt>
      <trkpt lon="35.29619408771396" lat="31.19786345399916">
        <ele>189.0</ele>
        <time>2012-12-07T10:04:44.000Z</time>
        <extensions>
          <gpxtpx:TrackPointExtension>
            <gpxtpx:cad>0</gpxtpx:cad>
          </gpxtpx:TrackPointExtension>
        </extensions>
      </trkpt>
      <trkpt lon="35.29630322009325" lat="31.19769430719316">
        <ele>188.8000030517578</ele>
        <time>2012-12-07T10:04:58.000Z</time>
      </trkpt>
      <trkpt lon="35.296296179294586" lat="31.197697827592492">
        <ele>188.8000030517578</ele>
        <time>2012-12-07T10:05:20.000Z</time>
      </trkpt>
      <trkpt lon="35.29629643075168" lat="31.197697408497334">
        <ele>188.8000030517578</ele>
        <time>2012-12-07T10:05:54.000Z</time>
      </trkpt>
      <trkpt lon="35.29629668220878" lat="31.197692127898335">
        <ele>188.8000030517578</ele>
        <time>2012-12-07T10:06:32.000Z</time>
      </trkpt>
      <trkpt lon="35.29629349708557" lat="31.19768458418548">
        <ele>188.60000610351562</ele>
        <time>2012-12-07T10:07:14.000Z</time>
      </trkpt>
      <trkpt lon="35.296304477378726" lat="31.197678465396166">
        <ele>188.60000610351562</ele>
        <time>2012-12-07T10:07:41.000Z</time>
      </trkpt>
      <trkpt lon="35.29639206826687" lat="31.19753798469901">
        <ele>188.39999389648438</ele>
        <time>2012-12-07T10:07:51.000Z</time>
      </trkpt>
      <trkpt lon="35.29646968469024" lat="31.197385685518384">
        <ele>187.8000030517578</ele>
        <time>2012-12-07T10:08:01.000Z</time>
      </trkpt>
      <trkpt lon="35.29648938216269" lat="31.197308069095016">
        <ele>187.39999389648438</ele>
        <time>2012-12-07T10:08:06.000Z</time>
      </trkpt>
      <trkpt lon="35.296438839286566" lat="31.197100952267647">
        <ele>185.60000610351562</ele>
        <time>2012-12-07T10:08:16.000Z</time>
      </trkpt>
      <trkpt lon="35.296441186219454" lat="31.196813117712736">
        <ele>183.60000610351562</ele>
        <time>2012-12-07T10:08:27.000Z</time>
      </trkpt>
      <trkpt lon="35.29642601497471" lat="31.196665931493044">
        <ele>182.39999389648438</ele>
        <time>2012-12-07T10:08:39.000Z</time>
      </trkpt>
      <trkpt lon="35.29645174741745" lat="31.19663248769939">
        <ele>182.39999389648438</ele>
        <time>2012-12-07T10:08:50.000Z</time>
      </trkpt>
      <trkpt lon="35.29656087979674" lat="31.196414809674025">
        <ele>182.60000610351562</ele>
        <time>2012-12-07T10:09:00.000Z</time>
        <extensions>
          <gpxtpx:TrackPointExtension>
            <gpxtpx:cad>8</gpxtpx:cad>
          </gpxtpx:TrackPointExtension>
        </extensions>
      </trkpt>
      <trkpt lon="35.29687796719372" lat="31.1963695473969">
        <ele>183.1999969482422</ele>
        <time>2012-12-07T10:09:09.000Z</time>
        <extensions>
          <gpxtpx:TrackPointExtension>
            <gpxtpx:cad>0</gpxtpx:cad>
          </gpxtpx:TrackPointExtension>
        </extensions>
      </trkpt>
      <trkpt lon="35.29691099189222" lat="31.196379270404577">
        <ele>183.1999969482422</ele>
        <time>2012-12-07T10:09:10.000Z</time>
        <extensions>
          <gpxtpx:TrackPointExtension>
            <gpxtpx:cad>0</gpxtpx:cad>
          </gpxtpx:TrackPointExtension>
        </extensions>
      </trkpt>
      <trkpt lon="35.29727770015597" lat="31.196339624002576">
        <ele>184.39999389648438</ele>
        <time>2012-12-07T10:09:20.000Z</time>
        <extensions>
          <gpxtpx:TrackPointExtension>
            <gpxtpx:cad>0</gpxtpx:cad>
          </gpxtpx:TrackPointExtension>
        </extensions>
      </trkpt>
      <trkpt lon="35.29731131158769" lat="31.19633392430842">
        <ele>184.39999389648438</ele>
        <time>2012-12-07T10:09:21.000Z</time>
        <extensions>
          <gpxtpx:TrackPointExtension>
            <gpxtpx:cad>0</gpxtpx:cad>
          </gpxtpx:TrackPointExtension>
        </extensions>
      </trkpt>
      <trkpt lon="35.29754030518234" lat="31.196198808029294">
        <ele>183.39999389648438</ele>
        <time>2012-12-07T10:09:31.000Z</time>
        <extensions>
          <gpxtpx:TrackPointExtension>
            <gpxtpx:cad>0</gpxtpx:cad>
          </gpxtpx:TrackPointExtension>
        </extensions>
      </trkpt>
      <trkpt lon="35.297585651278496" lat="31.196155976504087">
        <ele>183.0</ele>
        <time>2012-12-07T10:09:34.000Z</time>
        <extensions>
          <gpxtpx:TrackPointExtension>
            <gpxtpx:cad>0</gpxtpx:cad>
          </gpxtpx:TrackPointExtension>
        </extensions>
      </trkpt>
      <trkpt lon="35.29770609922707" lat="31.196126136928797">
        <ele>183.0</ele>
        <time>2012-12-07T10:09:38.000Z</time>
        <extensions>
          <gpxtpx:TrackPointExtension>
            <gpxtpx:cad>0</gpxtpx:cad>
          </gpxtpx:TrackPointExtension>
        </extensions>
      </trkpt>
      <trkpt lon="35.29781648889184" lat="31.19606872089207">
        <ele>182.60000610351562</ele>
        <time>2012-12-07T10:09:43.000Z</time>
        <extensions>
          <gpxtpx:TrackPointExtension>
            <gpxtpx:cad>26</gpxtpx:cad>
          </gpxtpx:TrackPointExtension>
        </extensions>
      </trkpt>
      <trkpt lon="35.298141120001674" lat="31.1958652921021">
        <ele>179.39999389648438</ele>
        <time>2012-12-07T10:09:57.000Z</time>
        <extensions>
          <gpxtpx:TrackPointExtension>
            <gpxtpx:cad>0</gpxtpx:cad>
          </gpxtpx:TrackPointExtension>
        </extensions>
      </trkpt>
      <trkpt lon="35.29827539809048" lat="31.195782059803605">
        <ele>178.60000610351562</ele>
        <time>2012-12-07T10:10:04.000Z</time>
        <extensions>
          <gpxtpx:TrackPointExtension>
            <gpxtpx:cad>0</gpxtpx:cad>
          </gpxtpx:TrackPointExtension>
        </extensions>
      </trkpt>
      <trkpt lon="35.29843180440366" lat="31.19568508118391">
        <ele>178.60000610351562</ele>
        <time>2012-12-07T10:10:13.000Z</time>
        <extensions>
          <gpxtpx:TrackPointExtension>
            <gpxtpx:cad>0</gpxtpx:cad>
          </gpxtpx:TrackPointExtension>
        </extensions>
      </trkpt>
      <trkpt lon="35.29861184768379" lat="31.195530937984586">
        <ele>178.1999969482422</ele>
        <time>2012-12-07T10:10:24.000Z</time>
        <extensions>
          <gpxtpx:TrackPointExtension>
            <gpxtpx:cad>0</gpxtpx:cad>
          </gpxtpx:TrackPointExtension>
        </extensions>
      </trkpt>
      <trkpt lon="35.29866909608245" lat="31.19548383168876">
        <ele>178.0</ele>
        <time>2012-12-07T10:10:34.000Z</time>
      </trkpt>
      <trkpt lon="35.298689045012" lat="31.195456506684422">
        <ele>177.8000030517578</ele>
        <time>2012-12-07T10:10:45.000Z</time>
      </trkpt>
      <trkpt lon="35.29873313382268" lat="31.195408646017313">
        <ele>177.1999969482422</ele>
        <time>2012-12-07T10:10:49.000Z</time>
      </trkpt>
      <trkpt lon="35.29893899336457" lat="31.19512701407075">
        <ele>173.8000030517578</ele>
        <time>2012-12-07T10:11:01.000Z</time>
      </trkpt>
      <trkpt lon="35.29905525036156" lat="31.194920064881444">
        <ele>171.8000030517578</ele>
        <time>2012-12-07T10:11:08.000Z</time>
      </trkpt>
      <trkpt lon="35.29938172549009" lat="31.194662069901824">
        <ele>171.1999969482422</ele>
        <time>2012-12-07T10:11:19.000Z</time>
      </trkpt>
      <trkpt lon="35.29971742071211" lat="31.194737758487463">
        <ele>169.39999389648438</ele>
        <time>2012-12-07T10:11:30.000Z</time>
      </trkpt>
      <trkpt lon="35.300128972157836" lat="31.194903971627355">
        <ele>167.1999969482422</ele>
        <time>2012-12-07T10:11:43.000Z</time>
      </trkpt>
      <trkpt lon="35.30023265630007" lat="31.194936828687787">
        <ele>166.8000030517578</ele>
        <time>2012-12-07T10:11:45.000Z</time>
      </trkpt>
      <trkpt lon="35.30041487887502" lat="31.195047302171588">
        <ele>166.60000610351562</ele>
        <time>2012-12-07T10:11:49.000Z</time>
      </trkpt>
      <trkpt lon="35.300550162792206" lat="31.195190381258726">
        <ele>167.60000610351562</ele>
        <time>2012-12-07T10:11:53.000Z</time>
      </trkpt>
      <trkpt lon="35.3006902243942" lat="31.195303704589605">
        <ele>167.8000030517578</ele>
        <time>2012-12-07T10:11:58.000Z</time>
      </trkpt>
      <trkpt lon="35.30079332180321" lat="31.195504115894437">
        <ele>168.39999389648438</ele>
        <time>2012-12-07T10:12:06.000Z</time>
        <extensions>
          <gpxtpx:TrackPointExtension>
            <gpxtpx:cad>0</gpxtpx:cad>
          </gpxtpx:TrackPointExtension>
        </extensions>
      </trkpt>
      <trkpt lon="35.3009267617017" lat="31.195536805316806">
        <ele>167.8000030517578</ele>
        <time>2012-12-07T10:12:11.000Z</time>
        <extensions>
          <gpxtpx:TrackPointExtension>
            <gpxtpx:cad>0</gpxtpx:cad>
          </gpxtpx:TrackPointExtension>
        </extensions>
      </trkpt>
      <trkpt lon="35.30098719522357" lat="31.195615511387587">
        <ele>167.8000030517578</ele>
        <time>2012-12-07T10:12:16.000Z</time>
        <extensions>
          <gpxtpx:TrackPointExtension>
            <gpxtpx:cad>0</gpxtpx:cad>
          </gpxtpx:TrackPointExtension>
        </extensions>
      </trkpt>
      <trkpt lon="35.30121870338917" lat="31.195725984871387">
        <ele>166.39999389648438</ele>
        <time>2012-12-07T10:12:29.000Z</time>
        <extensions>
          <gpxtpx:TrackPointExtension>
            <gpxtpx:cad>58</gpxtpx:cad>
          </gpxtpx:TrackPointExtension>
        </extensions>
      </trkpt>
      <trkpt lon="35.301322136074305" lat="31.195743838325143">
        <ele>165.39999389648438</ele>
        <time>2012-12-07T10:12:41.000Z</time>
        <extensions>
          <gpxtpx:TrackPointExtension>
            <gpxtpx:cad>0</gpxtpx:cad>
          </gpxtpx:TrackPointExtension>
        </extensions>
      </trkpt>
      <trkpt lon="35.30132138170302" lat="31.195731768384576">
        <ele>165.60000610351562</ele>
        <time>2012-12-07T10:13:10.000Z</time>
      </trkpt>
      <trkpt lon="35.301321633160114" lat="31.195729253813624">
        <ele>165.60000610351562</ele>
        <time>2012-12-07T10:13:28.000Z</time>
      </trkpt>
      <trkpt lon="35.30135465785861" lat="31.195751298218966">
        <ele>165.1999969482422</ele>
        <time>2012-12-07T10:13:47.000Z</time>
      </trkpt>
      <trkpt lon="35.3013466950506" lat="31.195782395079732">
        <ele>165.1999969482422</ele>
        <time>2012-12-07T10:14:18.000Z</time>
      </trkpt>
      <trkpt lon="35.301343677565455" lat="31.195778539404273">
        <ele>165.1999969482422</ele>
        <time>2012-12-07T10:14:47.000Z</time>
      </trkpt>
      <trkpt lon="35.301349461078644" lat="31.195798153057694">
        <ele>165.0</ele>
        <time>2012-12-07T10:15:33.000Z</time>
      </trkpt>
      <trkpt lon="35.3013274166733" lat="31.195767894387245">
        <ele>165.39999389648438</ele>
        <time>2012-12-07T10:16:10.000Z</time>
      </trkpt>
      <trkpt lon="35.301346527412534" lat="31.195766972377896">
        <ele>165.1999969482422</ele>
        <time>2012-12-07T10:16:52.000Z</time>
      </trkpt>
      <trkpt lon="35.301327081397176" lat="31.195744508877397">
        <ele>165.39999389648438</ele>
        <time>2012-12-07T10:17:40.000Z</time>
      </trkpt>
      <trkpt lon="35.301315765827894" lat="31.195760015398264">
        <ele>165.39999389648438</ele>
        <time>2012-12-07T10:18:26.000Z</time>
      </trkpt>
      <trkpt lon="35.30135381966829" lat="31.19573931209743">
        <ele>165.1999969482422</ele>
        <time>2012-12-07T10:19:16.000Z</time>
      </trkpt>
      <trkpt lon="35.30135080218315" lat="31.195736210793257">
        <ele>165.1999969482422</ele>
        <time>2012-12-07T10:20:00.000Z</time>
      </trkpt>
      <trkpt lon="35.30132825486362" lat="31.1957305110991">
        <ele>165.39999389648438</ele>
        <time>2012-12-07T10:20:18.000Z</time>
      </trkpt>
      <trkpt lon="35.301670571789145" lat="31.195715507492423">
        <ele>163.0</ele>
        <time>2012-12-07T10:20:33.000Z</time>
        <extensions>
          <gpxtpx:TrackPointExtension>
            <gpxtpx:cad>0</gpxtpx:cad>
          </gpxtpx:TrackPointExtension>
        </extensions>
      </trkpt>
      <trkpt lon="35.30208765529096" lat="31.19564887136221">
        <ele>161.8000030517578</ele>
        <time>2012-12-07T10:20:48.000Z</time>
        <extensions>
          <gpxtpx:TrackPointExtension>
            <gpxtpx:cad>0</gpxtpx:cad>
          </gpxtpx:TrackPointExtension>
        </extensions>
      </trkpt>
      <trkpt lon="35.302451429888606" lat="31.195616852492094">
        <ele>160.8000030517578</ele>
        <time>2012-12-07T10:21:02.000Z</time>
        <extensions>
          <gpxtpx:TrackPointExtension>
            <gpxtpx:cad>0</gpxtpx:cad>
          </gpxtpx:TrackPointExtension>
        </extensions>
      </trkpt>
      <trkpt lon="35.30255578458309" lat="31.195562286302447">
        <ele>160.8000030517578</ele>
        <time>2012-12-07T10:21:05.000Z</time>
        <extensions>
          <gpxtpx:TrackPointExtension>
            <gpxtpx:cad>0</gpxtpx:cad>
          </gpxtpx:TrackPointExtension>
        </extensions>
      </trkpt>
      <trkpt lon="35.302752340212464" lat="31.19540948420763">
        <ele>160.8000030517578</ele>
        <time>2012-12-07T10:21:09.000Z</time>
        <extensions>
          <gpxtpx:TrackPointExtension>
            <gpxtpx:cad>0</gpxtpx:cad>
          </gpxtpx:TrackPointExtension>
        </extensions>
      </trkpt>
      <trkpt lon="35.303202448412776" lat="31.195220639929175">
        <ele>157.39999389648438</ele>
        <time>2012-12-07T10:21:17.000Z</time>
        <extensions>
          <gpxtpx:TrackPointExtension>
            <gpxtpx:cad>0</gpxtpx:cad>
          </gpxtpx:TrackPointExtension>
        </extensions>
      </trkpt>
      <trkpt lon="35.30361341312528" lat="31.194960549473763">
        <ele>154.39999389648438</ele>
        <time>2012-12-07T10:21:26.000Z</time>
        <extensions>
          <gpxtpx:TrackPointExtension>
            <gpxtpx:cad>0</gpxtpx:cad>
          </gpxtpx:TrackPointExtension>
        </extensions>
      </trkpt>
      <trkpt lon="35.30391055159271" lat="31.194737255573273">
        <ele>153.1999969482422</ele>
        <time>2012-12-07T10:21:36.000Z</time>
        <extensions>
          <gpxtpx:TrackPointExtension>
            <gpxtpx:cad>0</gpxtpx:cad>
          </gpxtpx:TrackPointExtension>
        </extensions>
      </trkpt>
      <trkpt lon="35.30392345972359" lat="31.194705236703157">
        <ele>153.1999969482422</ele>
        <time>2012-12-07T10:21:38.000Z</time>
        <extensions>
          <gpxtpx:TrackPointExtension>
            <gpxtpx:cad>0</gpxtpx:cad>
          </gpxtpx:TrackPointExtension>
        </extensions>
      </trkpt>
      <trkpt lon="35.30395455658436" lat="31.194676402956247">
        <ele>153.0</ele>
        <time>2012-12-07T10:21:42.000Z</time>
        <extensions>
          <gpxtpx:TrackPointExtension>
            <gpxtpx:cad>0</gpxtpx:cad>
          </gpxtpx:TrackPointExtension>
        </extensions>
      </trkpt>
      <trkpt lon="35.304051619023085" lat="31.194610940292478">
        <ele>152.60000610351562</ele>
        <time>2012-12-07T10:21:49.000Z</time>
      </trkpt>
      <trkpt lon="35.30413149856031" lat="31.194499963894486">
        <ele>152.39999389648438</ele>
        <time>2012-12-07T10:21:56.000Z</time>
        <extensions>
          <gpxtpx:TrackPointExtension>
            <gpxtpx:cad>0</gpxtpx:cad>
          </gpxtpx:TrackPointExtension>
        </extensions>
      </trkpt>
      <trkpt lon="35.304200649261475" lat="31.194229144603014">
        <ele>152.60000610351562</ele>
        <time>2012-12-07T10:22:12.000Z</time>
        <extensions>
          <gpxtpx:TrackPointExtension>
            <gpxtpx:cad>0</gpxtpx:cad>
          </gpxtpx:TrackPointExtension>
        </extensions>
      </trkpt>
      <trkpt lon="35.3041734918952" lat="31.19418195448816">
        <ele>152.8000030517578</ele>
        <time>2012-12-07T10:22:16.000Z</time>
        <extensions>
          <gpxtpx:TrackPointExtension>
            <gpxtpx:cad>0</gpxtpx:cad>
          </gpxtpx:TrackPointExtension>
        </extensions>
      </trkpt>
      <trkpt lon="35.304155722260475" lat="31.194121353328228">
        <ele>153.8000030517578</ele>
        <time>2012-12-07T10:22:29.000Z</time>
      </trkpt>
      <trkpt lon="35.304182125255466" lat="31.19405396282673">
        <ele>154.60000610351562</ele>
        <time>2012-12-07T10:22:49.000Z</time>
      </trkpt>
      <trkpt lon="35.30419050715864" lat="31.194039210677147">
        <ele>154.8000030517578</ele>
        <time>2012-12-07T10:22:55.000Z</time>
      </trkpt>
      <trkpt lon="35.30442612245679" lat="31.193837206810713">
        <ele>156.0</ele>
        <time>2012-12-07T10:23:07.000Z</time>
      </trkpt>
      <trkpt lon="35.30480976216495" lat="31.193624222651124">
        <ele>154.0</ele>
        <time>2012-12-07T10:23:18.000Z</time>
      </trkpt>
      <trkpt lon="35.30521687120199" lat="31.193426325917244">
        <ele>151.1999969482422</ele>
        <time>2012-12-07T10:23:29.000Z</time>
      </trkpt>
      <trkpt lon="35.305509651079774" lat="31.19335767813027">
        <ele>149.1999969482422</ele>
        <time>2012-12-07T10:23:36.000Z</time>
      </trkpt>
      <trkpt lon="35.305906953290105" lat="31.19334116578102">
        <ele>146.8000030517578</ele>
        <time>2012-12-07T10:23:44.000Z</time>
      </trkpt>
      <trkpt lon="35.306483041495085" lat="31.193225411698222">
        <ele>146.39999389648438</ele>
        <time>2012-12-07T10:23:57.000Z</time>
        <extensions>
          <gpxtpx:TrackPointExtension>
            <gpxtpx:cad>0</gpxtpx:cad>
          </gpxtpx:TrackPointExtension>
        </extensions>
      </trkpt>
      <trkpt lon="35.30689526349306" lat="31.193117033690214">
        <ele>145.39999389648438</ele>
        <time>2012-12-07T10:24:10.000Z</time>
        <extensions>
          <gpxtpx:TrackPointExtension>
            <gpxtpx:cad>0</gpxtpx:cad>
          </gpxtpx:TrackPointExtension>
        </extensions>
      </trkpt>
      <trkpt lon="35.30714060179889" lat="31.192969093099236">
        <ele>144.0</ele>
        <time>2012-12-07T10:24:21.000Z</time>
        <extensions>
          <gpxtpx:TrackPointExtension>
            <gpxtpx:cad>0</gpxtpx:cad>
          </gpxtpx:TrackPointExtension>
        </extensions>
      </trkpt>
      <trkpt lon="35.30744008719921" lat="31.192724173888564">
        <ele>141.0</ele>
        <time>2012-12-07T10:24:35.000Z</time>
        <extensions>
          <gpxtpx:TrackPointExtension>
            <gpxtpx:cad>0</gpxtpx:cad>
          </gpxtpx:TrackPointExtension>
        </extensions>
      </trkpt>
      <trkpt lon="35.30756330117583" lat="31.19265418499708">
        <ele>140.1999969482422</ele>
        <time>2012-12-07T10:24:38.000Z</time>
        <extensions>
          <gpxtpx:TrackPointExtension>
            <gpxtpx:cad>0</gpxtpx:cad>
          </gpxtpx:TrackPointExtension>
        </extensions>
      </trkpt>
      <trkpt lon="35.3076134249568" lat="31.192621663212776">
        <ele>140.1999969482422</ele>
        <time>2012-12-07T10:24:41.000Z</time>
        <extensions>
          <gpxtpx:TrackPointExtension>
            <gpxtpx:cad>37</gpxtpx:cad>
          </gpxtpx:TrackPointExtension>
        </extensions>
      </trkpt>
      <trkpt lon="35.30785088427365" lat="31.192308431491256">
        <ele>139.1999969482422</ele>
        <time>2012-12-07T10:24:56.000Z</time>
        <extensions>
          <gpxtpx:TrackPointExtension>
            <gpxtpx:cad>0</gpxtpx:cad>
          </gpxtpx:TrackPointExtension>
        </extensions>
      </trkpt>
      <trkpt lon="35.30786647461355" lat="31.19229736737907">
        <ele>139.1999969482422</ele>
        <time>2012-12-07T10:25:06.000Z</time>
      </trkpt>
      <trkpt lon="35.30786764807999" lat="31.192303150892258">
        <ele>139.1999969482422</ele>
        <time>2012-12-07T10:25:41.000Z</time>
      </trkpt>
      <trkpt lon="35.30791140161455" lat="31.192297115921974">
        <ele>139.1999969482422</ele>
        <time>2012-12-07T10:25:58.000Z</time>
      </trkpt>
      <trkpt lon="35.30804023146629" lat="31.191985979676247">
        <ele>138.1999969482422</ele>
        <time>2012-12-07T10:26:11.000Z</time>
      </trkpt>
      <trkpt lon="35.30827987007797" lat="31.191558418795466">
        <ele>135.60000610351562</ele>
        <time>2012-12-07T10:26:24.000Z</time>
      </trkpt>
      <trkpt lon="35.30861858278513" lat="31.191272092983127">
        <ele>135.60000610351562</ele>
        <time>2012-12-07T10:26:34.000Z</time>
      </trkpt>
      <trkpt lon="35.30869242735207" lat="31.191211910918355">
        <ele>135.39999389648438</ele>
        <time>2012-12-07T10:26:36.000Z</time>
      </trkpt>
      <trkpt lon="35.308978501707315" lat="31.190901696681976">
        <ele>133.39999389648438</ele>
        <time>2012-12-07T10:26:45.000Z</time>
      </trkpt>
      <trkpt lon="35.30903968960047" lat="31.190713522955775">
        <ele>132.60000610351562</ele>
        <time>2012-12-07T10:26:50.000Z</time>
      </trkpt>
      <trkpt lon="35.309079671278596" lat="31.190566588193178">
        <ele>132.39999389648438</ele>
        <time>2012-12-07T10:26:54.000Z</time>
      </trkpt>
      <trkpt lon="35.3094007819891" lat="31.18991296738386">
        <ele>130.8000030517578</ele>
        <time>2012-12-07T10:27:12.000Z</time>
      </trkpt>
      <trkpt lon="35.30976053327322" lat="31.18954005651176">
        <ele>129.0</ele>
        <time>2012-12-07T10:27:24.000Z</time>
      </trkpt>
      <trkpt lon="35.309858517721295" lat="31.189439725130796">
        <ele>128.60000610351562</ele>
        <time>2012-12-07T10:27:27.000Z</time>
      </trkpt>
      <trkpt lon="35.30998927541077" lat="31.189326653257012">
        <ele>128.0</ele>
        <time>2012-12-07T10:27:30.000Z</time>
      </trkpt>
      <trkpt lon="35.31028473749757" lat="31.189120123162866">
        <ele>127.4000015258789</ele>
        <time>2012-12-07T10:27:39.000Z</time>
      </trkpt>
      <trkpt lon="35.31043133698404" lat="31.18909338489175">
        <ele>127.19999694824219</ele>
        <time>2012-12-07T10:27:48.000Z</time>
      </trkpt>
      <trkpt lon="35.31047408469021" lat="31.189007135108113">
        <ele>127.0</ele>
        <time>2012-12-07T10:27:54.000Z</time>
      </trkpt>
      <trkpt lon="35.31060928478837" lat="31.188781578093767">
        <ele>126.4000015258789</ele>
        <time>2012-12-07T10:28:10.000Z</time>
      </trkpt>
      <trkpt lon="35.31067801639438" lat="31.188735477626324">
        <ele>126.19999694824219</ele>
        <time>2012-12-07T10:28:24.000Z</time>
      </trkpt>
      <trkpt lon="35.310654547065496" lat="31.188765233382583">
        <ele>126.19999694824219</ele>
        <time>2012-12-07T10:28:37.000Z</time>
      </trkpt>
      <trkpt lon="35.3106630127877" lat="31.18878065608442">
        <ele>126.19999694824219</ele>
        <time>2012-12-07T10:28:50.000Z</time>
      </trkpt>
      <trkpt lon="35.310697965323925" lat="31.18877487257123">
        <ele>126.19999694824219</ele>
        <time>2012-12-07T10:29:05.000Z</time>
      </trkpt>
      <trkpt lon="35.31067575328052" lat="31.1887626349926">
        <ele>126.19999694824219</ele>
        <time>2012-12-07T10:29:28.000Z</time>
      </trkpt>
      <trkpt lon="35.31068539246917" lat="31.188760958611965">
        <ele>126.19999694824219</ele>
        <time>2012-12-07T10:29:58.000Z</time>
      </trkpt>
      <trkpt lon="35.31067751348019" lat="31.188746793195605">
        <ele>126.19999694824219</ele>
        <time>2012-12-07T10:30:29.000Z</time>
      </trkpt>
      <trkpt lon="35.31072302721441" lat="31.188762970268726">
        <ele>126.19999694824219</ele>
        <time>2012-12-07T10:30:45.000Z</time>
      </trkpt>
      <trkpt lon="35.31095881015062" lat="31.1885829269886">
        <ele>125.4000015258789</ele>
        <time>2012-12-07T10:30:56.000Z</time>
      </trkpt>
      <trkpt lon="35.31146373599768" lat="31.188439344987273">
        <ele>124.0</ele>
        <time>2012-12-07T10:31:09.000Z</time>
      </trkpt>
      <trkpt lon="35.311856511980295" lat="31.18824907578528">
        <ele>122.4000015258789</ele>
        <time>2012-12-07T10:31:22.000Z</time>
      </trkpt>
      <trkpt lon="35.31223839148879" lat="31.188015639781952">
        <ele>121.5999984741211</ele>
        <time>2012-12-07T10:31:34.000Z</time>
      </trkpt>
      <trkpt lon="35.31249479390681" lat="31.18786551989615">
        <ele>121.0</ele>
        <time>2012-12-07T10:31:41.000Z</time>
      </trkpt>
      <trkpt lon="35.31265631318092" lat="31.187833668664098">
        <ele>120.4000015258789</ele>
        <time>2012-12-07T10:31:44.000Z</time>
      </trkpt>
      <trkpt lon="35.313004832714796" lat="31.187772061675787">
        <ele>119.19999694824219</ele>
        <time>2012-12-07T10:31:50.000Z</time>
      </trkpt>
      <trkpt lon="35.31340029090643" lat="31.187768876552582">
        <ele>118.0</ele>
        <time>2012-12-07T10:32:01.000Z</time>
      </trkpt>
      <trkpt lon="35.31380480155349" lat="31.18771841749549">
        <ele>116.19999694824219</ele>
        <time>2012-12-07T10:32:12.000Z</time>
      </trkpt>
      <trkpt lon="35.31399607658386" lat="31.18770777247846">
        <ele>115.4000015258789</ele>
        <time>2012-12-07T10:32:16.000Z</time>
      </trkpt>
      <trkpt lon="35.31432908959687" lat="31.187680615112185">
        <ele>114.4000015258789</ele>
        <time>2012-12-07T10:32:23.000Z</time>
      </trkpt>
      <trkpt lon="35.314424308016896" lat="31.187633089721203">
        <ele>114.19999694824219</ele>
        <time>2012-12-07T10:32:28.000Z</time>
      </trkpt>
      <trkpt lon="35.31450569629669" lat="31.18767307139933">
        <ele>114.0</ele>
        <time>2012-12-07T10:32:34.000Z</time>
        <extensions>
          <gpxtpx:TrackPointExtension>
            <gpxtpx:cad>0</gpxtpx:cad>
          </gpxtpx:TrackPointExtension>
        </extensions>
      </trkpt>
      <trkpt lon="35.31488883309066" lat="31.18764314800501">
        <ele>113.19999694824219</ele>
        <time>2012-12-07T10:32:48.000Z</time>
        <extensions>
          <gpxtpx:TrackPointExtension>
            <gpxtpx:cad>0</gpxtpx:cad>
          </gpxtpx:TrackPointExtension>
        </extensions>
      </trkpt>
      <trkpt lon="35.3152010589838" lat="31.187692685052752">
        <ele>113.19999694824219</ele>
        <time>2012-12-07T10:33:00.000Z</time>
        <extensions>
          <gpxtpx:TrackPointExtension>
            <gpxtpx:cad>0</gpxtpx:cad>
          </gpxtpx:TrackPointExtension>
        </extensions>
      </trkpt>
      <trkpt lon="35.31534556299448" lat="31.18772001005709">
        <ele>113.4000015258789</ele>
        <time>2012-12-07T10:33:09.000Z</time>
      </trkpt>
      <trkpt lon="35.31536257825792" lat="31.1877179145813">
        <ele>113.4000015258789</ele>
        <time>2012-12-07T10:33:24.000Z</time>
      </trkpt>
      <trkpt lon="35.315369786694646" lat="31.187710957601666">
        <ele>113.4000015258789</ele>
        <time>2012-12-07T10:33:43.000Z</time>
      </trkpt>
      <trkpt lon="35.3157470561564" lat="31.187842302024364">
        <ele>113.4000015258789</ele>
        <time>2012-12-07T10:33:56.000Z</time>
      </trkpt>
      <trkpt lon="35.31585467979312" lat="31.187899885699153">
        <ele>113.4000015258789</ele>
        <time>2012-12-07T10:33:59.000Z</time>
      </trkpt>
      <trkpt lon="35.31599742360413" lat="31.187953110784292">
        <ele>113.19999694824219</ele>
        <time>2012-12-07T10:34:02.000Z</time>
      </trkpt>
      <trkpt lon="35.316151482984424" lat="31.187997115775943">
        <ele>113.0</ele>
        <time>2012-12-07T10:34:05.000Z</time>
      </trkpt>
      <trkpt lon="35.31647024676204" lat="31.188114462420344">
        <ele>111.80000305175781</ele>
        <time>2012-12-07T10:34:11.000Z</time>
      </trkpt>
      <trkpt lon="35.316686164587736" lat="31.18817732669413">
        <ele>111.0</ele>
        <time>2012-12-07T10:34:16.000Z</time>
      </trkpt>
      <trkpt lon="35.31674299389124" lat="31.18823440745473">
        <ele>110.4000015258789</ele>
        <time>2012-12-07T10:34:19.000Z</time>
      </trkpt>
      <trkpt lon="35.31687098555267" lat="31.188263492658734">
        <ele>109.80000305175781</ele>
        <time>2012-12-07T10:34:24.000Z</time>
      </trkpt>
      <trkpt lon="35.31763524748385" lat="31.18825846351683">
        <ele>107.4000015258789</ele>
        <time>2012-12-07T10:34:42.000Z</time>
      </trkpt>
      <trkpt lon="35.31835550442338" lat="31.188225857913494">
        <ele>105.5999984741211</ele>
        <time>2012-12-07T10:34:59.000Z</time>
      </trkpt>
      <trkpt lon="35.31899361871183" lat="31.18824907578528">
        <ele>105.80000305175781</ele>
        <time>2012-12-07T10:35:16.000Z</time>
      </trkpt>
      <trkpt lon="35.319516733288765" lat="31.188186714425683">
        <ele>104.4000015258789</ele>
        <time>2012-12-07T10:35:31.000Z</time>
      </trkpt>
      <trkpt lon="35.3198894765228" lat="31.188089149072766">
        <ele>103.0</ele>
        <time>2012-12-07T10:35:42.000Z</time>
      </trkpt>
      <trkpt lon="35.32049096189439" lat="31.187707353383303">
        <ele>101.80000305175781</ele>
        <time>2012-12-07T10:35:59.000Z</time>
      </trkpt>
      <trkpt lon="35.32097158022225" lat="31.18734265677631">
        <ele>99.4000015258789</ele>
        <time>2012-12-07T10:36:12.000Z</time>
      </trkpt>
      <trkpt lon="35.321209877729416" lat="31.186946695670485">
        <ele>97.80000305175781</ele>
        <time>2012-12-07T10:36:27.000Z</time>
      </trkpt>
      <trkpt lon="35.32131750136614" lat="31.18670496158302">
        <ele>96.80000305175781</ele>
        <time>2012-12-07T10:36:39.000Z</time>
      </trkpt>
      <trkpt lon="35.32140199095011" lat="31.18645342066884">
        <ele>96.4000015258789</ele>
        <time>2012-12-07T10:36:54.000Z</time>
      </trkpt>
      <trkpt lon="35.321575747802854" lat="31.18622769601643">
        <ele>95.80000305175781</ele>
        <time>2012-12-07T10:37:07.000Z</time>
      </trkpt>
      <trkpt lon="35.32166585326195" lat="31.1860722117126">
        <ele>95.19999694824219</ele>
        <time>2012-12-07T10:37:20.000Z</time>
      </trkpt>
      <trkpt lon="35.321779511868954" lat="31.185956792905927">
        <ele>94.5999984741211</ele>
        <time>2012-12-07T10:37:34.000Z</time>
      </trkpt>
      <trkpt lon="35.32175922766328" lat="31.185970958322287">
        <ele>94.80000305175781</ele>
        <time>2012-12-07T10:38:12.000Z</time>
      </trkpt>
      <trkpt lon="35.32178780995309" lat="31.185981100425124">
        <ele>94.5999984741211</ele>
        <time>2012-12-07T10:38:44.000Z</time>
      </trkpt>
      <trkpt lon="35.321783535182476" lat="31.185965510085225">
        <ele>94.5999984741211</ele>
        <time>2012-12-07T10:38:51.000Z</time>
      </trkpt>
      <trkpt lon="35.321737350896" lat="31.185934245586395">
        <ele>94.80000305175781</ele>
        <time>2012-12-07T10:38:55.000Z</time>
      </trkpt>
      <trkpt lon="35.32170248217881" lat="31.18593893945217">
        <ele>95.0</ele>
        <time>2012-12-07T10:38:57.000Z</time>
      </trkpt>
      <trkpt lon="35.32144021242857" lat="31.185938185080886">
        <ele>96.0</ele>
        <time>2012-12-07T10:39:13.000Z</time>
      </trkpt>
      <trkpt lon="35.321368128061295" lat="31.18593198247254">
        <ele>96.4000015258789</ele>
        <time>2012-12-07T10:39:17.000Z</time>
      </trkpt>
      <trkpt lon="35.32121633179486" lat="31.18590214289725">
        <ele>97.0</ele>
        <time>2012-12-07T10:39:27.000Z</time>
      </trkpt>
      <trkpt lon="35.321206944063306" lat="31.185880517587066">
        <ele>97.19999694824219</ele>
        <time>2012-12-07T10:39:29.000Z</time>
      </trkpt>
      <trkpt lon="35.32127668149769" lat="31.18582461029291">
        <ele>96.80000305175781</ele>
        <time>2012-12-07T10:39:35.000Z</time>
      </trkpt>
      <trkpt lon="35.32167264260352" lat="31.18574825115502">
        <ele>95.0</ele>
        <time>2012-12-07T10:39:50.000Z</time>
      </trkpt>
      <trkpt lon="35.32214085571468" lat="31.185595700517297">
        <ele>93.5999984741211</ele>
        <time>2012-12-07T10:40:04.000Z</time>
      </trkpt>
      <trkpt lon="35.32230329699814" lat="31.185522945597768">
        <ele>93.0</ele>
        <time>2012-12-07T10:40:07.000Z</time>
      </trkpt>
      <trkpt lon="35.3225542511791" lat="31.185562256723642">
        <ele>92.19999694824219</ele>
        <time>2012-12-07T10:40:16.000Z</time>
      </trkpt>
      <trkpt lon="35.32257336191833" lat="31.18556116707623">
        <ele>92.19999694824219</ele>
        <time>2012-12-07T10:40:17.000Z</time>
      </trkpt>
      <trkpt lon="35.322662042453885" lat="31.1854936927557">
        <ele>92.19999694824219</ele>
        <time>2012-12-07T10:40:22.000Z</time>
      </trkpt>
      <trkpt lon="35.322965970262885" lat="31.185221951454878">
        <ele>90.80000305175781</ele>
        <time>2012-12-07T10:40:34.000Z</time>
      </trkpt>
      <trkpt lon="35.32322027720511" lat="31.18496839888394">
        <ele>88.80000305175781</ele>
        <time>2012-12-07T10:40:48.000Z</time>
      </trkpt>
      <trkpt lon="35.32325313426554" lat="31.184933027252555">
        <ele>88.5999984741211</ele>
        <time>2012-12-07T10:40:50.000Z</time>
      </trkpt>
      <trkpt lon="35.32325925305486" lat="31.184908552095294">
        <ele>88.80000305175781</ele>
        <time>2012-12-07T10:41:10.000Z</time>
      </trkpt>
      <trkpt lon="35.32325640320778" lat="31.18490980938077">
        <ele>88.80000305175781</ele>
        <time>2012-12-07T10:41:32.000Z</time>
      </trkpt>
      <trkpt lon="35.32328188419342" lat="31.184902349486947">
        <ele>88.5999984741211</ele>
        <time>2012-12-07T10:41:46.000Z</time>
      </trkpt>
      <trkpt lon="35.32327878288925" lat="31.184909055009484">
        <ele>88.5999984741211</ele>
        <time>2012-12-07T10:42:13.000Z</time>
      </trkpt>
      <trkpt lon="35.32328045926988" lat="31.18490545079112">
        <ele>88.5999984741211</ele>
        <time>2012-12-07T10:42:47.000Z</time>
      </trkpt>
      <trkpt lon="35.32329470850527" lat="31.18490637280047">
        <ele>88.4000015258789</ele>
        <time>2012-12-07T10:43:20.000Z</time>
      </trkpt>
      <trkpt lon="35.32327928580344" lat="31.184906288981438">
        <ele>88.5999984741211</ele>
        <time>2012-12-07T10:43:48.000Z</time>
      </trkpt>
      <trkpt lon="35.32327509485185" lat="31.18490586988628">
        <ele>88.5999984741211</ele>
        <time>2012-12-07T10:44:17.000Z</time>
      </trkpt>
      <trkpt lon="35.32328666187823" lat="31.184913497418165">
        <ele>88.5999984741211</ele>
        <time>2012-12-07T10:44:50.000Z</time>
      </trkpt>
      <trkpt lon="35.323283644393086" lat="31.184912659227848">
        <ele>88.5999984741211</ele>
        <time>2012-12-07T10:45:26.000Z</time>
      </trkpt>
      <trkpt lon="35.32328322529793" lat="31.184912659227848">
        <ele>88.5999984741211</ele>
        <time>2012-12-07T10:46:01.000Z</time>
      </trkpt>
      <trkpt lon="35.32328984700143" lat="31.18490939028561">
        <ele>88.5999984741211</ele>
        <time>2012-12-07T10:46:30.000Z</time>
      </trkpt>
      <trkpt lon="35.32329068519175" lat="31.18490545079112">
        <ele>88.5999984741211</ele>
        <time>2012-12-07T10:47:06.000Z</time>
      </trkpt>
      <trkpt lon="35.32328221946955" lat="31.184902684763074">
        <ele>88.5999984741211</ele>
        <time>2012-12-07T10:47:40.000Z</time>
      </trkpt>
      <trkpt lon="35.32328641042113" lat="31.1848874296993">
        <ele>88.5999984741211</ele>
        <time>2012-12-07T10:47:54.000Z</time>
      </trkpt>
      <trkpt lon="35.3233087901026" lat="31.18486236780882">
        <ele>88.5999984741211</ele>
        <time>2012-12-07T10:47:58.000Z</time>
      </trkpt>
      <trkpt lon="35.32336654141545" lat="31.184797156602144">
        <ele>88.5999984741211</ele>
        <time>2012-12-07T10:48:02.000Z</time>
      </trkpt>
      <trkpt lon="35.32353702932596" lat="31.18452625349164">
        <ele>88.4000015258789</ele>
        <time>2012-12-07T10:48:14.000Z</time>
      </trkpt>
      <trkpt lon="35.32352730631828" lat="31.184457605704665">
        <ele>88.4000015258789</ele>
        <time>2012-12-07T10:48:24.000Z</time>
      </trkpt>
      <trkpt lon="35.32352864742279" lat="31.18446372449398">
        <ele>88.4000015258789</ele>
        <time>2012-12-07T10:48:31.000Z</time>
      </trkpt>
      <trkpt lon="35.32379636541009" lat="31.18455215357244">
        <ele>86.80000305175781</ele>
        <time>2012-12-07T10:48:44.000Z</time>
        <extensions>
          <gpxtpx:TrackPointExtension>
            <gpxtpx:cad>0</gpxtpx:cad>
          </gpxtpx:TrackPointExtension>
        </extensions>
      </trkpt>
      <trkpt lon="35.32391203567386" lat="31.184489708393812">
        <ele>86.0</ele>
        <time>2012-12-07T10:48:49.000Z</time>
        <extensions>
          <gpxtpx:TrackPointExtension>
            <gpxtpx:cad>0</gpxtpx:cad>
          </gpxtpx:TrackPointExtension>
        </extensions>
      </trkpt>
      <trkpt lon="35.3241428732872" lat="31.18440597318113">
        <ele>83.80000305175781</ele>
        <time>2012-12-07T10:49:02.000Z</time>
        <extensions>
          <gpxtpx:TrackPointExtension>
            <gpxtpx:cad>0</gpxtpx:cad>
          </gpxtpx:TrackPointExtension>
        </extensions>
      </trkpt>
      <trkpt lon="35.32416441477835" lat="31.184409158304334">
        <ele>83.5999984741211</ele>
        <time>2012-12-07T10:49:16.000Z</time>
      </trkpt>
      <trkpt lon="35.32415611669421" lat="31.184389712288976">
        <ele>83.5999984741211</ele>
        <time>2012-12-07T10:49:41.000Z</time>
      </trkpt>
      <trkpt lon="35.32416885718703" lat="31.18440111167729">
        <ele>83.5999984741211</ele>
        <time>2012-12-07T10:50:12.000Z</time>
      </trkpt>
      <trkpt lon="35.324168773368" lat="31.18439968675375">
        <ele>83.5999984741211</ele>
        <time>2012-12-07T10:50:40.000Z</time>
      </trkpt>
      <trkpt lon="35.324407489970326" lat="31.1842779815197">
        <ele>83.0</ele>
        <time>2012-12-07T10:50:52.000Z</time>
        <extensions>
          <gpxtpx:TrackPointExtension>
            <gpxtpx:cad>0</gpxtpx:cad>
          </gpxtpx:TrackPointExtension>
        </extensions>
      </trkpt>
      <trkpt lon="35.32449709251523" lat="31.184220733121037">
        <ele>82.80000305175781</ele>
        <time>2012-12-07T10:50:56.000Z</time>
        <extensions>
          <gpxtpx:TrackPointExtension>
            <gpxtpx:cad>0</gpxtpx:cad>
          </gpxtpx:TrackPointExtension>
        </extensions>
      </trkpt>
      <trkpt lon="35.32453179359436" lat="31.184077067300677">
        <ele>82.80000305175781</ele>
        <time>2012-12-07T10:51:02.000Z</time>
        <extensions>
          <gpxtpx:TrackPointExtension>
            <gpxtpx:cad>0</gpxtpx:cad>
          </gpxtpx:TrackPointExtension>
        </extensions>
      </trkpt>
      <trkpt lon="35.32485198229551" lat="31.183896185830235">
        <ele>83.4000015258789</ele>
        <time>2012-12-07T10:51:13.000Z</time>
        <extensions>
          <gpxtpx:TrackPointExtension>
            <gpxtpx:cad>0</gpxtpx:cad>
          </gpxtpx:TrackPointExtension>
        </extensions>
      </trkpt>
      <trkpt lon="35.32518449239433" lat="31.18399802595377">
        <ele>82.5999984741211</ele>
        <time>2012-12-07T10:51:25.000Z</time>
        <extensions>
          <gpxtpx:TrackPointExtension>
            <gpxtpx:cad>0</gpxtpx:cad>
          </gpxtpx:TrackPointExtension>
        </extensions>
      </trkpt>
      <trkpt lon="35.32522237859666" lat="31.184041360393167">
        <ele>82.5999984741211</ele>
        <time>2012-12-07T10:51:28.000Z</time>
        <extensions>
          <gpxtpx:TrackPointExtension>
            <gpxtpx:cad>0</gpxtpx:cad>
          </gpxtpx:TrackPointExtension>
        </extensions>
      </trkpt>
      <trkpt lon="35.32527124509215" lat="31.184079749509692">
        <ele>82.4000015258789</ele>
        <time>2012-12-07T10:51:42.000Z</time>
      </trkpt>
      <trkpt lon="35.32536813989282" lat="31.184172872453928">
        <ele>82.0</ele>
        <time>2012-12-07T10:52:04.000Z</time>
        <extensions>
          <gpxtpx:TrackPointExtension>
            <gpxtpx:cad>0</gpxtpx:cad>
          </gpxtpx:TrackPointExtension>
        </extensions>
      </trkpt>
      <trkpt lon="35.32578798942268" lat="31.18444461375475">
        <ele>83.5999984741211</ele>
        <time>2012-12-07T10:52:16.000Z</time>
        <extensions>
          <gpxtpx:TrackPointExtension>
            <gpxtpx:cad>0</gpxtpx:cad>
          </gpxtpx:TrackPointExtension>
        </extensions>
      </trkpt>
      <trkpt lon="35.32596350647509" lat="31.184530528262258">
        <ele>84.19999694824219</ele>
        <time>2012-12-07T10:52:21.000Z</time>
        <extensions>
          <gpxtpx:TrackPointExtension>
            <gpxtpx:cad>0</gpxtpx:cad>
          </gpxtpx:TrackPointExtension>
        </extensions>
      </trkpt>
      <trkpt lon="35.32608546316624" lat="31.184534216299653">
        <ele>83.80000305175781</ele>
        <time>2012-12-07T10:52:25.000Z</time>
        <extensions>
          <gpxtpx:TrackPointExtension>
            <gpxtpx:cad>0</gpxtpx:cad>
          </gpxtpx:TrackPointExtension>
        </extensions>
      </trkpt>
      <trkpt lon="35.32615251839161" lat="31.184506388381124">
        <ele>83.4000015258789</ele>
        <time>2012-12-07T10:52:28.000Z</time>
        <extensions>
          <gpxtpx:TrackPointExtension>
            <gpxtpx:cad>0</gpxtpx:cad>
          </gpxtpx:TrackPointExtension>
        </extensions>
      </trkpt>
      <trkpt lon="35.326350163668394" lat="31.184380492195487">
        <ele>82.0</ele>
        <time>2012-12-07T10:52:37.000Z</time>
        <extensions>
          <gpxtpx:TrackPointExtension>
            <gpxtpx:cad>0</gpxtpx:cad>
          </gpxtpx:TrackPointExtension>
        </extensions>
      </trkpt>
      <trkpt lon="35.32652241177857" lat="31.184271359816194">
        <ele>80.80000305175781</ele>
        <time>2012-12-07T10:52:47.000Z</time>
        <extensions>
          <gpxtpx:TrackPointExtension>
            <gpxtpx:cad>0</gpxtpx:cad>
          </gpxtpx:TrackPointExtension>
        </extensions>
      </trkpt>
      <trkpt lon="35.326864309608936" lat="31.184122245758772">
        <ele>79.19999694824219</ele>
        <time>2012-12-07T10:53:02.000Z</time>
        <extensions>
          <gpxtpx:TrackPointExtension>
            <gpxtpx:cad>0</gpxtpx:cad>
          </gpxtpx:TrackPointExtension>
        </extensions>
      </trkpt>
      <trkpt lon="35.327216098085046" lat="31.1840414442122">
        <ele>78.0</ele>
        <time>2012-12-07T10:53:14.000Z</time>
        <extensions>
          <gpxtpx:TrackPointExtension>
            <gpxtpx:cad>0</gpxtpx:cad>
          </gpxtpx:TrackPointExtension>
        </extensions>
      </trkpt>
      <trkpt lon="35.3276623506099" lat="31.183929545804858">
        <ele>76.4000015258789</ele>
        <time>2012-12-07T10:53:29.000Z</time>
        <extensions>
          <gpxtpx:TrackPointExtension>
            <gpxtpx:cad>0</gpxtpx:cad>
          </gpxtpx:TrackPointExtension>
        </extensions>
      </trkpt>
      <trkpt lon="35.32780760899186" lat="31.183894174173474">
        <ele>75.80000305175781</ele>
        <time>2012-12-07T10:53:35.000Z</time>
        <extensions>
          <gpxtpx:TrackPointExtension>
            <gpxtpx:cad>0</gpxtpx:cad>
          </gpxtpx:TrackPointExtension>
        </extensions>
      </trkpt>
      <trkpt lon="35.32799117267132" lat="31.184019735082984">
        <ele>74.80000305175781</ele>
        <time>2012-12-07T10:53:46.000Z</time>
        <extensions>
          <gpxtpx:TrackPointExtension>
            <gpxtpx:cad>0</gpxtpx:cad>
          </gpxtpx:TrackPointExtension>
        </extensions>
      </trkpt>
      <trkpt lon="35.32821455039084" lat="31.184174045920372">
        <ele>73.5999984741211</ele>
        <time>2012-12-07T10:53:59.000Z</time>
        <extensions>
          <gpxtpx:TrackPointExtension>
            <gpxtpx:cad>0</gpxtpx:cad>
          </gpxtpx:TrackPointExtension>
        </extensions>
      </trkpt>
      <trkpt lon="35.32855091616511" lat="31.1844074819237">
        <ele>74.0</ele>
        <time>2012-12-07T10:54:13.000Z</time>
        <extensions>
          <gpxtpx:TrackPointExtension>
            <gpxtpx:cad>0</gpxtpx:cad>
          </gpxtpx:TrackPointExtension>
        </extensions>
      </trkpt>
      <trkpt lon="35.328756691887975" lat="31.184510495513678">
        <ele>73.5999984741211</ele>
        <time>2012-12-07T10:54:24.000Z</time>
        <extensions>
          <gpxtpx:TrackPointExtension>
            <gpxtpx:cad>0</gpxtpx:cad>
          </gpxtpx:TrackPointExtension>
        </extensions>
      </trkpt>
      <trkpt lon="35.3289644792676" lat="31.184544190764427">
        <ele>72.4000015258789</ele>
        <time>2012-12-07T10:54:37.000Z</time>
        <extensions>
          <gpxtpx:TrackPointExtension>
            <gpxtpx:cad>3</gpxtpx:cad>
          </gpxtpx:TrackPointExtension>
        </extensions>
      </trkpt>
      <trkpt lon="35.328977052122355" lat="31.184540251269937">
        <ele>72.4000015258789</ele>
        <time>2012-12-07T10:54:38.000Z</time>
        <extensions>
          <gpxtpx:TrackPointExtension>
            <gpxtpx:cad>0</gpxtpx:cad>
          </gpxtpx:TrackPointExtension>
        </extensions>
      </trkpt>
      <trkpt lon="35.32905844040215" lat="31.184515357017517">
        <ele>71.5999984741211</ele>
        <time>2012-12-07T10:54:50.000Z</time>
      </trkpt>
      <trkpt lon="35.32908090390265" lat="31.18448761291802">
        <ele>71.4000015258789</ele>
        <time>2012-12-07T10:54:58.000Z</time>
      </trkpt>
      <trkpt lon="35.32913370989263" lat="31.184449139982462">
        <ele>70.80000305175781</ele>
        <time>2012-12-07T10:55:02.000Z</time>
        <extensions>
          <gpxtpx:TrackPointExtension>
            <gpxtpx:cad>0</gpxtpx:cad>
          </gpxtpx:TrackPointExtension>
        </extensions>
      </trkpt>
      <trkpt lon="35.329184755682945" lat="31.1844246648252">
        <ele>70.19999694824219</ele>
        <time>2012-12-07T10:55:14.000Z</time>
      </trkpt>
      <trkpt lon="35.32920244149864" lat="31.1843625549227">
        <ele>69.80000305175781</ele>
        <time>2012-12-07T10:55:28.000Z</time>
      </trkpt>
      <trkpt lon="35.329221887513995" lat="31.184280831366777">
        <ele>69.0</ele>
        <time>2012-12-07T10:55:42.000Z</time>
      </trkpt>
      <trkpt lon="35.329261450096965" lat="31.184195671230555">
        <ele>68.19999694824219</ele>
        <time>2012-12-07T10:56:00.000Z</time>
      </trkpt>
      <trkpt lon="35.32930428162217" lat="31.184126771986485">
        <ele>67.5999984741211</ele>
        <time>2012-12-07T10:56:14.000Z</time>
      </trkpt>
      <trkpt lon="35.32939497381449" lat="31.184086119756103">
        <ele>66.80000305175781</ele>
        <time>2012-12-07T10:56:30.000Z</time>
      </trkpt>
      <trkpt lon="35.3294600173831" lat="31.184068601578474">
        <ele>66.4000015258789</ele>
        <time>2012-12-07T10:56:44.000Z</time>
      </trkpt>
      <trkpt lon="35.329478373751044" lat="31.1840655002743">
        <ele>66.19999694824219</ele>
        <time>2012-12-07T10:57:12.000Z</time>
      </trkpt>
      <trkpt lon="35.32946974039078" lat="31.18405326269567">
        <ele>66.19999694824219</ele>
        <time>2012-12-07T10:57:40.000Z</time>
      </trkpt>
      <trkpt lon="35.329465214163065" lat="31.184069188311696">
        <ele>66.19999694824219</ele>
        <time>2012-12-07T10:58:16.000Z</time>
      </trkpt>
      <trkpt lon="35.329457418993115" lat="31.18404932320118">
        <ele>66.4000015258789</ele>
        <time>2012-12-07T10:58:43.000Z</time>
      </trkpt>
      <trkpt lon="35.32947049476206" lat="31.184046640992165">
        <ele>66.19999694824219</ele>
        <time>2012-12-07T10:59:14.000Z</time>
      </trkpt>
      <trkpt lon="35.3294996637851" lat="31.184049574658275">
        <ele>66.0</ele>
        <time>2012-12-07T10:59:38.000Z</time>
      </trkpt>
      <trkpt lon="35.329641066491604" lat="31.18399073369801">
        <ele>65.0</ele>
        <time>2012-12-07T10:59:54.000Z</time>
      </trkpt>
      <trkpt lon="35.32982815057039" lat="31.183925354853272">
        <ele>64.0</ele>
        <time>2012-12-07T11:00:14.000Z</time>
      </trkpt>
      <trkpt lon="35.32985581085086" lat="31.183917056769133">
        <ele>63.79999923706055</ele>
        <time>2012-12-07T11:00:27.000Z</time>
      </trkpt>
      <trkpt lon="35.33018806949258" lat="31.18399509228766">
        <ele>61.20000076293945</ele>
        <time>2012-12-07T11:00:38.000Z</time>
      </trkpt>
      <trkpt lon="35.33043726347387" lat="31.184051418676972">
        <ele>59.400001525878906</ele>
        <time>2012-12-07T11:00:47.000Z</time>
      </trkpt>
      <trkpt lon="35.33053994178772" lat="31.184122413396835">
        <ele>58.20000076293945</ele>
        <time>2012-12-07T11:00:52.000Z</time>
      </trkpt>
      <trkpt lon="35.330648235976696" lat="31.184234144166112">
        <ele>56.79999923706055</ele>
        <time>2012-12-07T11:00:58.000Z</time>
      </trkpt>
      <trkpt lon="35.33075435087085" lat="31.18429910391569">
        <ele>55.79999923706055</ele>
        <time>2012-12-07T11:01:03.000Z</time>
      </trkpt>
      <trkpt lon="35.3308171313256" lat="31.184363728389144">
        <ele>55.0</ele>
        <time>2012-12-07T11:01:08.000Z</time>
      </trkpt>
      <trkpt lon="35.33082224428654" lat="31.184409074485302">
        <ele>54.79999923706055</ele>
        <time>2012-12-07T11:01:20.000Z</time>
      </trkpt>
      <trkpt lon="35.330847054719925" lat="31.184446206316352">
        <ele>54.599998474121094</ele>
        <time>2012-12-07T11:01:32.000Z</time>
      </trkpt>
      <trkpt lon="35.330850910395384" lat="31.184465065598488">
        <ele>54.400001525878906</ele>
        <time>2012-12-07T11:01:49.000Z</time>
      </trkpt>
      <trkpt lon="35.33086147159338" lat="31.18448761291802">
        <ele>54.400001525878906</ele>
        <time>2012-12-07T11:02:16.000Z</time>
      </trkpt>
      <trkpt lon="35.33082107082009" lat="31.184496162459254">
        <ele>54.400001525878906</ele>
        <time>2012-12-07T11:02:36.000Z</time>
        <extensions>
          <gpxtpx:TrackPointExtension>
            <gpxtpx:cad>2</gpxtpx:cad>
          </gpxtpx:TrackPointExtension>
        </extensions>
      </trkpt>
      <trkpt lon="35.33080103807151" lat="31.184516865760088">
        <ele>54.599998474121094</ele>
        <time>2012-12-07T11:02:47.000Z</time>
        <extensions>
          <gpxtpx:TrackPointExtension>
            <gpxtpx:cad>0</gpxtpx:cad>
          </gpxtpx:TrackPointExtension>
        </extensions>
      </trkpt>
      <trkpt lon="35.33079106360674" lat="31.18457411415875">
        <ele>54.400001525878906</ele>
        <time>2012-12-07T11:02:51.000Z</time>
        <extensions>
          <gpxtpx:TrackPointExtension>
            <gpxtpx:cad>8</gpxtpx:cad>
          </gpxtpx:TrackPointExtension>
        </extensions>
      </trkpt>
      <trkpt lon="35.33074378967285" lat="31.18471434339881">
        <ele>54.20000076293945</ele>
        <time>2012-12-07T11:02:56.000Z</time>
        <extensions>
          <gpxtpx:TrackPointExtension>
            <gpxtpx:cad>0</gpxtpx:cad>
          </gpxtpx:TrackPointExtension>
        </extensions>
      </trkpt>
      <trkpt lon="35.33074722625315" lat="31.184739908203483">
        <ele>54.0</ele>
        <time>2012-12-07T11:02:57.000Z</time>
        <extensions>
          <gpxtpx:TrackPointExtension>
            <gpxtpx:cad>0</gpxtpx:cad>
          </gpxtpx:TrackPointExtension>
        </extensions>
      </trkpt>
      <trkpt lon="35.330768935382366" lat="31.184761868789792">
        <ele>53.79999923706055</ele>
        <time>2012-12-07T11:02:59.000Z</time>
        <extensions>
          <gpxtpx:TrackPointExtension>
            <gpxtpx:cad>0</gpxtpx:cad>
          </gpxtpx:TrackPointExtension>
        </extensions>
      </trkpt>
      <trkpt lon="35.330796260386705" lat="31.184769915416837">
        <ele>53.400001525878906</ele>
        <time>2012-12-07T11:03:01.000Z</time>
        <extensions>
          <gpxtpx:TrackPointExtension>
            <gpxtpx:cad>0</gpxtpx:cad>
          </gpxtpx:TrackPointExtension>
        </extensions>
      </trkpt>
      <trkpt lon="35.33099088817835" lat="31.184730185195804">
        <ele>53.0</ele>
        <time>2012-12-07T11:03:12.000Z</time>
        <extensions>
          <gpxtpx:TrackPointExtension>
            <gpxtpx:cad>0</gpxtpx:cad>
          </gpxtpx:TrackPointExtension>
        </extensions>
      </trkpt>
      <trkpt lon="35.33102969639003" lat="31.18475440889597">
        <ele>52.79999923706055</ele>
        <time>2012-12-07T11:03:21.000Z</time>
      </trkpt>
      <trkpt lon="35.33105157315731" lat="31.184747200459242">
        <ele>52.79999923706055</ele>
        <time>2012-12-07T11:03:56.000Z</time>
      </trkpt>
      <trkpt lon="35.33114863559604" lat="31.184809477999806">
        <ele>52.400001525878906</ele>
        <time>2012-12-07T11:04:20.000Z</time>
      </trkpt>
      <trkpt lon="35.331216445192695" lat="31.184814758598804">
        <ele>52.20000076293945</ele>
        <time>2012-12-07T11:04:33.000Z</time>
      </trkpt>
      <trkpt lon="35.331325493752956" lat="31.184812411665916">
        <ele>52.0</ele>
        <time>2012-12-07T11:04:39.000Z</time>
      </trkpt>
      <trkpt lon="35.33148743212223" lat="31.184796569868922">
        <ele>51.79999923706055</ele>
        <time>2012-12-07T11:04:52.000Z</time>
        <extensions>
          <gpxtpx:TrackPointExtension>
            <gpxtpx:cad>0</gpxtpx:cad>
          </gpxtpx:TrackPointExtension>
        </extensions>
      </trkpt>
      <trkpt lon="35.331607880070806" lat="31.184805370867252">
        <ele>51.599998474121094</ele>
        <time>2012-12-07T11:05:02.000Z</time>
      </trkpt>
      <trkpt lon="35.33175556920469" lat="31.184803107753396">
        <ele>51.20000076293945</ele>
        <time>2012-12-07T11:05:06.000Z</time>
      </trkpt>
      <trkpt lon="35.332003170624375" lat="31.184773771092296">
        <ele>50.20000076293945</ele>
        <time>2012-12-07T11:05:12.000Z</time>
      </trkpt>
      <trkpt lon="35.3321226965636" lat="31.184787768870592">
        <ele>49.599998474121094</ele>
        <time>2012-12-07T11:05:16.000Z</time>
      </trkpt>
      <trkpt lon="35.33219654113054" lat="31.184802018105984">
        <ele>49.0</ele>
        <time>2012-12-07T11:05:27.000Z</time>
        <extensions>
          <gpxtpx:TrackPointExtension>
            <gpxtpx:cad>0</gpxtpx:cad>
          </gpxtpx:TrackPointExtension>
        </extensions>
      </trkpt>
      <trkpt lon="35.33218723721802" lat="31.18479355238378">
        <ele>49.20000076293945</ele>
        <time>2012-12-07T11:05:44.000Z</time>
      </trkpt>
      <trkpt lon="35.33220073208213" lat="31.18477888405323">
        <ele>49.20000076293945</ele>
        <time>2012-12-07T11:06:10.000Z</time>
      </trkpt>
      <trkpt lon="35.332201067358255" lat="31.18479405529797">
        <ele>49.0</ele>
        <time>2012-12-07T11:06:32.000Z</time>
      </trkpt>
      <trkpt lon="35.332167791202664" lat="31.18476270698011">
        <ele>49.599998474121094</ele>
        <time>2012-12-07T11:07:08.000Z</time>
      </trkpt>
      <trkpt lon="35.332192266359925" lat="31.18478860706091">
        <ele>49.20000076293945</ele>
        <time>2012-12-07T11:07:15.000Z</time>
      </trkpt>
      <trkpt lon="35.33225714229047" lat="31.184823224321008">
        <ele>48.400001525878906</ele>
        <time>2012-12-07T11:07:19.000Z</time>
        <extensions>
          <gpxtpx:TrackPointExtension>
            <gpxtpx:cad>1</gpxtpx:cad>
          </gpxtpx:TrackPointExtension>
        </extensions>
      </trkpt>
      <trkpt lon="35.33259820193052" lat="31.18492405861616">
        <ele>45.400001525878906</ele>
        <time>2012-12-07T11:07:31.000Z</time>
        <extensions>
          <gpxtpx:TrackPointExtension>
            <gpxtpx:cad>0</gpxtpx:cad>
          </gpxtpx:TrackPointExtension>
        </extensions>
      </trkpt>
      <trkpt lon="35.332837672904134" lat="31.18496362119913">
        <ele>43.599998474121094</ele>
        <time>2012-12-07T11:07:42.000Z</time>
        <extensions>
          <gpxtpx:TrackPointExtension>
            <gpxtpx:cad>0</gpxtpx:cad>
          </gpxtpx:TrackPointExtension>
        </extensions>
      </trkpt>
      <trkpt lon="35.33303984440863" lat="31.184985162690282">
        <ele>42.400001525878906</ele>
        <time>2012-12-07T11:07:53.000Z</time>
        <extensions>
          <gpxtpx:TrackPointExtension>
            <gpxtpx:cad>1</gpxtpx:cad>
          </gpxtpx:TrackPointExtension>
        </extensions>
      </trkpt>
      <trkpt lon="35.3334129229188" lat="31.18511692620814">
        <ele>41.20000076293945</ele>
        <time>2012-12-07T11:08:07.000Z</time>
        <extensions>
          <gpxtpx:TrackPointExtension>
            <gpxtpx:cad>0</gpxtpx:cad>
          </gpxtpx:TrackPointExtension>
        </extensions>
      </trkpt>
      <trkpt lon="35.33350705169141" lat="31.18515908718109">
        <ele>41.0</ele>
        <time>2012-12-07T11:08:17.000Z</time>
      </trkpt>
      <trkpt lon="35.3335268329829" lat="31.185163697227836">
        <ele>41.0</ele>
        <time>2012-12-07T11:08:20.000Z</time>
      </trkpt>
      <trkpt lon="35.33378197811544" lat="31.18527048267424">
        <ele>40.0</ele>
        <time>2012-12-07T11:08:30.000Z</time>
        <extensions>
          <gpxtpx:TrackPointExtension>
            <gpxtpx:cad>0</gpxtpx:cad>
          </gpxtpx:TrackPointExtension>
        </extensions>
      </trkpt>
      <trkpt lon="35.33417282626033" lat="31.18548246100545">
        <ele>37.599998474121094</ele>
        <time>2012-12-07T11:08:44.000Z</time>
        <extensions>
          <gpxtpx:TrackPointExtension>
            <gpxtpx:cad>0</gpxtpx:cad>
          </gpxtpx:TrackPointExtension>
        </extensions>
      </trkpt>
      <trkpt lon="35.33428866416216" lat="31.1854868195951">
        <ele>36.79999923706055</ele>
        <time>2012-12-07T11:08:54.000Z</time>
        <extensions>
          <gpxtpx:TrackPointExtension>
            <gpxtpx:cad>0</gpxtpx:cad>
          </gpxtpx:TrackPointExtension>
        </extensions>
      </trkpt>
      <trkpt lon="35.33432546071708" lat="31.18552210740745">
        <ele>36.599998474121094</ele>
        <time>2012-12-07T11:09:06.000Z</time>
      </trkpt>
      <trkpt lon="35.33432135358453" lat="31.18552495725453">
        <ele>36.599998474121094</ele>
        <time>2012-12-07T11:09:09.000Z</time>
      </trkpt>
      <trkpt lon="35.334317833185196" lat="31.185519509017467">
        <ele>36.599998474121094</ele>
        <time>2012-12-07T11:09:14.000Z</time>
        <extensions>
          <gpxtpx:TrackPointExtension>
            <gpxtpx:cad>1</gpxtpx:cad>
          </gpxtpx:TrackPointExtension>
        </extensions>
      </trkpt>
      <trkpt lon="35.33438798971474" lat="31.185550605878234">
        <ele>36.0</ele>
        <time>2012-12-07T11:09:19.000Z</time>
        <extensions>
          <gpxtpx:TrackPointExtension>
            <gpxtpx:cad>0</gpxtpx:cad>
          </gpxtpx:TrackPointExtension>
        </extensions>
      </trkpt>
      <trkpt lon="35.33444029279053" lat="31.185630401596427">
        <ele>35.599998474121094</ele>
        <time>2012-12-07T11:09:24.000Z</time>
        <extensions>
          <gpxtpx:TrackPointExtension>
            <gpxtpx:cad>0</gpxtpx:cad>
          </gpxtpx:TrackPointExtension>
        </extensions>
      </trkpt>
      <trkpt lon="35.33465076237917" lat="31.185765517875552">
        <ele>34.0</ele>
        <time>2012-12-07T11:09:35.000Z</time>
        <extensions>
          <gpxtpx:TrackPointExtension>
            <gpxtpx:cad>0</gpxtpx:cad>
          </gpxtpx:TrackPointExtension>
        </extensions>
      </trkpt>
      <trkpt lon="35.334858214482665" lat="31.185997109860182">
        <ele>32.0</ele>
        <time>2012-12-07T11:09:46.000Z</time>
        <extensions>
          <gpxtpx:TrackPointExtension>
            <gpxtpx:cad>0</gpxtpx:cad>
          </gpxtpx:TrackPointExtension>
        </extensions>
      </trkpt>
      <trkpt lon="35.33516524359584" lat="31.18621487170458">
        <ele>29.399999618530273</ele>
        <time>2012-12-07T11:09:58.000Z</time>
        <extensions>
          <gpxtpx:TrackPointExtension>
            <gpxtpx:cad>0</gpxtpx:cad>
          </gpxtpx:TrackPointExtension>
        </extensions>
      </trkpt>
      <trkpt lon="35.33532910980284" lat="31.186372535303235">
        <ele>28.399999618530273</ele>
        <time>2012-12-07T11:10:04.000Z</time>
        <extensions>
          <gpxtpx:TrackPointExtension>
            <gpxtpx:cad>0</gpxtpx:cad>
          </gpxtpx:TrackPointExtension>
        </extensions>
      </trkpt>
      <trkpt lon="35.335964038968086" lat="31.18696790188551">
        <ele>27.0</ele>
        <time>2012-12-07T11:10:23.000Z</time>
        <extensions>
          <gpxtpx:TrackPointExtension>
            <gpxtpx:cad>0</gpxtpx:cad>
          </gpxtpx:TrackPointExtension>
        </extensions>
      </trkpt>
      <trkpt lon="35.33635614439845" lat="31.18728356435895">
        <ele>25.600000381469727</ele>
        <time>2012-12-07T11:10:36.000Z</time>
        <extensions>
          <gpxtpx:TrackPointExtension>
            <gpxtpx:cad>0</gpxtpx:cad>
          </gpxtpx:TrackPointExtension>
        </extensions>
      </trkpt>
      <trkpt lon="35.33693801611662" lat="31.1876314971596">
        <ele>22.600000381469727</ele>
        <time>2012-12-07T11:10:52.000Z</time>
        <extensions>
          <gpxtpx:TrackPointExtension>
            <gpxtpx:cad>0</gpxtpx:cad>
          </gpxtpx:TrackPointExtension>
        </extensions>
      </trkpt>
      <trkpt lon="35.33755048178136" lat="31.187840793281794">
        <ele>19.600000381469727</ele>
        <time>2012-12-07T11:11:06.000Z</time>
        <extensions>
          <gpxtpx:TrackPointExtension>
            <gpxtpx:cad>0</gpxtpx:cad>
          </gpxtpx:TrackPointExtension>
        </extensions>
      </trkpt>
      <trkpt lon="35.337824150919914" lat="31.188107589259744">
        <ele>19.200000762939453</ele>
        <time>2012-12-07T11:11:16.000Z</time>
        <extensions>
          <gpxtpx:TrackPointExtension>
            <gpxtpx:cad>0</gpxtpx:cad>
          </gpxtpx:TrackPointExtension>
        </extensions>
      </trkpt>
      <trkpt lon="35.337972762063146" lat="31.1885847710073">
        <ele>17.799999237060547</ele>
        <time>2012-12-07T11:11:29.000Z</time>
        <extensions>
          <gpxtpx:TrackPointExtension>
            <gpxtpx:cad>0</gpxtpx:cad>
          </gpxtpx:TrackPointExtension>
        </extensions>
      </trkpt>
      <trkpt lon="35.338077787309885" lat="31.188705386593938">
        <ele>17.399999618530273</ele>
        <time>2012-12-07T11:11:35.000Z</time>
        <extensions>
          <gpxtpx:TrackPointExtension>
            <gpxtpx:cad>1</gpxtpx:cad>
          </gpxtpx:TrackPointExtension>
        </extensions>
      </trkpt>
      <trkpt lon="35.338078290224075" lat="31.188828516751528">
        <ele>17.200000762939453</ele>
        <time>2012-12-07T11:11:40.000Z</time>
        <extensions>
          <gpxtpx:TrackPointExtension>
            <gpxtpx:cad>0</gpxtpx:cad>
          </gpxtpx:TrackPointExtension>
        </extensions>
      </trkpt>
      <trkpt lon="35.33808281645179" lat="31.18892784230411">
        <ele>17.0</ele>
        <time>2012-12-07T11:11:43.000Z</time>
        <extensions>
          <gpxtpx:TrackPointExtension>
            <gpxtpx:cad>0</gpxtpx:cad>
          </gpxtpx:TrackPointExtension>
        </extensions>
      </trkpt>
      <trkpt lon="35.33804291859269" lat="31.189099419862032">
        <ele>16.600000381469727</ele>
        <time>2012-12-07T11:11:47.000Z</time>
        <extensions>
          <gpxtpx:TrackPointExtension>
            <gpxtpx:cad>0</gpxtpx:cad>
          </gpxtpx:TrackPointExtension>
        </extensions>
      </trkpt>
      <trkpt lon="35.3379718400538" lat="31.189388427883387">
        <ele>15.800000190734863</ele>
        <time>2012-12-07T11:11:53.000Z</time>
        <extensions>
          <gpxtpx:TrackPointExtension>
            <gpxtpx:cad>0</gpxtpx:cad>
          </gpxtpx:TrackPointExtension>
        </extensions>
      </trkpt>
      <trkpt lon="35.33794074319303" lat="31.18947115726769">
        <ele>15.600000381469727</ele>
        <time>2012-12-07T11:11:55.000Z</time>
        <extensions>
          <gpxtpx:TrackPointExtension>
            <gpxtpx:cad>0</gpxtpx:cad>
          </gpxtpx:TrackPointExtension>
        </extensions>
      </trkpt>
      <trkpt lon="35.3379234764725" lat="31.189602334052324">
        <ele>15.199999809265137</ele>
        <time>2012-12-07T11:11:58.000Z</time>
        <extensions>
          <gpxtpx:TrackPointExtension>
            <gpxtpx:cad>0</gpxtpx:cad>
          </gpxtpx:TrackPointExtension>
        </extensions>
      </trkpt>
      <trkpt lon="35.33791425637901" lat="31.18977013975382">
        <ele>14.600000381469727</ele>
        <time>2012-12-07T11:12:02.000Z</time>
        <extensions>
          <gpxtpx:TrackPointExtension>
            <gpxtpx:cad>0</gpxtpx:cad>
          </gpxtpx:TrackPointExtension>
        </extensions>
      </trkpt>
      <trkpt lon="35.33790562301874" lat="31.189899807795882">
        <ele>14.199999809265137</ele>
        <time>2012-12-07T11:12:05.000Z</time>
        <extensions>
          <gpxtpx:TrackPointExtension>
            <gpxtpx:cad>0</gpxtpx:cad>
          </gpxtpx:TrackPointExtension>
        </extensions>
      </trkpt>
      <trkpt lon="35.337844686582685" lat="31.19011958129704">
        <ele>13.399999618530273</ele>
        <time>2012-12-07T11:12:10.000Z</time>
        <extensions>
          <gpxtpx:TrackPointExtension>
            <gpxtpx:cad>0</gpxtpx:cad>
          </gpxtpx:TrackPointExtension>
        </extensions>
      </trkpt>
      <trkpt lon="35.33783387392759" lat="31.19025201536715">
        <ele>13.0</ele>
        <time>2012-12-07T11:12:13.000Z</time>
        <extensions>
          <gpxtpx:TrackPointExtension>
            <gpxtpx:cad>0</gpxtpx:cad>
          </gpxtpx:TrackPointExtension>
        </extensions>
      </trkpt>
      <trkpt lon="35.33783907070756" lat="31.190433064475656">
        <ele>12.600000381469727</ele>
        <time>2012-12-07T11:12:17.000Z</time>
        <extensions>
          <gpxtpx:TrackPointExtension>
            <gpxtpx:cad>0</gpxtpx:cad>
          </gpxtpx:TrackPointExtension>
        </extensions>
      </trkpt>
      <trkpt lon="35.33787469379604" lat="31.190864564850926">
        <ele>12.199999809265137</ele>
        <time>2012-12-07T11:12:26.000Z</time>
        <extensions>
          <gpxtpx:TrackPointExtension>
            <gpxtpx:cad>0</gpxtpx:cad>
          </gpxtpx:TrackPointExtension>
        </extensions>
      </trkpt>
      <trkpt lon="35.337904784828424" lat="31.191165978088975">
        <ele>12.199999809265137</ele>
        <time>2012-12-07T11:12:32.000Z</time>
        <extensions>
          <gpxtpx:TrackPointExtension>
            <gpxtpx:cad>0</gpxtpx:cad>
          </gpxtpx:TrackPointExtension>
        </extensions>
      </trkpt>
      <trkpt lon="35.337944347411394" lat="31.19125952012837">
        <ele>12.199999809265137</ele>
        <time>2012-12-07T11:12:34.000Z</time>
        <extensions>
          <gpxtpx:TrackPointExtension>
            <gpxtpx:cad>0</gpxtpx:cad>
          </gpxtpx:TrackPointExtension>
        </extensions>
      </trkpt>
      <trkpt lon="35.337975108996034" lat="31.191356414929032">
        <ele>12.399999618530273</ele>
        <time>2012-12-07T11:12:36.000Z</time>
        <extensions>
          <gpxtpx:TrackPointExtension>
            <gpxtpx:cad>0</gpxtpx:cad>
          </gpxtpx:TrackPointExtension>
        </extensions>
      </trkpt>
      <trkpt lon="35.33801341429353" lat="31.19149404577911">
        <ele>12.399999618530273</ele>
        <time>2012-12-07T11:12:39.000Z</time>
        <extensions>
          <gpxtpx:TrackPointExtension>
            <gpxtpx:cad>0</gpxtpx:cad>
          </gpxtpx:TrackPointExtension>
        </extensions>
      </trkpt>
      <trkpt lon="35.338027914986014" lat="31.19161826558411">
        <ele>12.199999809265137</ele>
        <time>2012-12-07T11:12:42.000Z</time>
        <extensions>
          <gpxtpx:TrackPointExtension>
            <gpxtpx:cad>0</gpxtpx:cad>
          </gpxtpx:TrackPointExtension>
        </extensions>
      </trkpt>
      <trkpt lon="35.338125228881836" lat="31.191813563928008">
        <ele>12.0</ele>
        <time>2012-12-07T11:12:49.000Z</time>
        <extensions>
          <gpxtpx:TrackPointExtension>
            <gpxtpx:cad>0</gpxtpx:cad>
          </gpxtpx:TrackPointExtension>
        </extensions>
      </trkpt>
      <trkpt lon="35.338322035968304" lat="31.192103158682585">
        <ele>11.399999618530273</ele>
        <time>2012-12-07T11:13:05.000Z</time>
        <extensions>
          <gpxtpx:TrackPointExtension>
            <gpxtpx:cad>0</gpxtpx:cad>
          </gpxtpx:TrackPointExtension>
        </extensions>
      </trkpt>
      <trkpt lon="35.33837760798633" lat="31.192152444273233">
        <ele>11.199999809265137</ele>
        <time>2012-12-07T11:13:09.000Z</time>
        <extensions>
          <gpxtpx:TrackPointExtension>
            <gpxtpx:cad>2</gpxtpx:cad>
          </gpxtpx:TrackPointExtension>
        </extensions>
      </trkpt>
      <trkpt lon="35.338447680696845" lat="31.19232385419309">
        <ele>11.0</ele>
        <time>2012-12-07T11:13:21.000Z</time>
        <extensions>
          <gpxtpx:TrackPointExtension>
            <gpxtpx:cad>0</gpxtpx:cad>
          </gpxtpx:TrackPointExtension>
        </extensions>
      </trkpt>
      <trkpt lon="35.338465701788664" lat="31.192351430654526">
        <ele>10.800000190734863</ele>
        <time>2012-12-07T11:13:34.000Z</time>
      </trkpt>
      <trkpt lon="35.33846310339868" lat="31.19235008955002">
        <ele>10.800000190734863</ele>
        <time>2012-12-07T11:14:08.000Z</time>
      </trkpt>
      <trkpt lon="35.338509706780314" lat="31.192415468394756">
        <ele>10.800000190734863</ele>
        <time>2012-12-07T11:14:29.000Z</time>
      </trkpt>
      <trkpt lon="35.338577097281814" lat="31.192515129223466">
        <ele>10.800000190734863</ele>
        <time>2012-12-07T11:14:32.000Z</time>
      </trkpt>
      <trkpt lon="35.33886954188347" lat="31.192589811980724">
        <ele>11.399999618530273</ele>
        <time>2012-12-07T11:14:41.000Z</time>
      </trkpt>
      <trkpt lon="35.33906701952219" lat="31.192632475867867">
        <ele>12.0</ele>
        <time>2012-12-07T11:14:50.000Z</time>
      </trkpt>
      <trkpt lon="35.33931604586542" lat="31.192796006798744">
        <ele>12.0</ele>
        <time>2012-12-07T11:15:04.000Z</time>
      </trkpt>
      <trkpt lon="35.33943607471883" lat="31.19286817498505">
        <ele>12.199999809265137</ele>
        <time>2012-12-07T11:15:16.000Z</time>
      </trkpt>
      <trkpt lon="35.33945451490581" lat="31.192880915477872">
        <ele>12.199999809265137</ele>
        <time>2012-12-07T11:15:19.000Z</time>
      </trkpt>
      <trkpt lon="35.33954872749746" lat="31.19293657131493">
        <ele>12.399999618530273</ele>
        <time>2012-12-07T11:15:26.000Z</time>
      </trkpt>
      <trkpt lon="35.33982348628342" lat="31.193100018426776">
        <ele>13.0</ele>
        <time>2012-12-07T11:15:41.000Z</time>
      </trkpt>
      <trkpt lon="35.33997100777924" lat="31.193142598494887">
        <ele>13.399999618530273</ele>
        <time>2012-12-07T11:15:50.000Z</time>
        <extensions>
          <gpxtpx:TrackPointExtension>
            <gpxtpx:cad>70</gpxtpx:cad>
          </gpxtpx:TrackPointExtension>
        </extensions>
      </trkpt>
      <trkpt lon="35.340220369398594" lat="31.193233877420425">
        <ele>14.399999618530273</ele>
        <time>2012-12-07T11:16:08.000Z</time>
        <extensions>
          <gpxtpx:TrackPointExtension>
            <gpxtpx:cad>0</gpxtpx:cad>
          </gpxtpx:TrackPointExtension>
        </extensions>
      </trkpt>
      <trkpt lon="35.34044483676553" lat="31.1933284252882">
        <ele>15.0</ele>
        <time>2012-12-07T11:16:25.000Z</time>
        <extensions>
          <gpxtpx:TrackPointExtension>
            <gpxtpx:cad>0</gpxtpx:cad>
          </gpxtpx:TrackPointExtension>
        </extensions>
      </trkpt>
      <trkpt lon="35.34054894000292" lat="31.19342230260372">
        <ele>14.600000381469727</ele>
        <time>2012-12-07T11:16:40.000Z</time>
        <extensions>
          <gpxtpx:TrackPointExtension>
            <gpxtpx:cad>0</gpxtpx:cad>
          </gpxtpx:TrackPointExtension>
        </extensions>
      </trkpt>
      <trkpt lon="35.3405481018126" lat="31.193402856588364">
        <ele>14.800000190734863</ele>
        <time>2012-12-07T11:17:03.000Z</time>
      </trkpt>
      <trkpt lon="35.34053913317621" lat="31.193400593474507">
        <ele>14.800000190734863</ele>
        <time>2012-12-07T11:17:32.000Z</time>
      </trkpt>
      <trkpt lon="35.340540893375874" lat="31.19339967146516">
        <ele>14.800000190734863</ele>
        <time>2012-12-07T11:17:58.000Z</time>
      </trkpt>
      <trkpt lon="35.34052957780659" lat="31.193392211571336">
        <ele>14.800000190734863</ele>
        <time>2012-12-07T11:18:24.000Z</time>
      </trkpt>
      <trkpt lon="35.340527314692736" lat="31.193403275683522">
        <ele>14.600000381469727</ele>
        <time>2012-12-07T11:18:37.000Z</time>
      </trkpt>
      <trkpt lon="35.34053343348205" lat="31.19343646802008">
        <ele>14.399999618530273</ele>
        <time>2012-12-07T11:18:39.000Z</time>
      </trkpt>
      <trkpt lon="35.34056511707604" lat="31.19362497702241">
        <ele>12.399999618530273</ele>
        <time>2012-12-07T11:18:44.000Z</time>
      </trkpt>
      <trkpt lon="35.34060928970575" lat="31.193889006972313">
        <ele>9.800000190734863</ele>
        <time>2012-12-07T11:18:49.000Z</time>
      </trkpt>
      <trkpt lon="35.34062244929373" lat="31.193951535969973">
        <ele>9.199999809265137</ele>
        <time>2012-12-07T11:18:50.000Z</time>
      </trkpt>
      <trkpt lon="35.34072110429406" lat="31.194295696914196">
        <ele>5.400000095367432</ele>
        <time>2012-12-07T11:18:56.000Z</time>
      </trkpt>
      <trkpt lon="35.34072546288371" lat="31.194461155682802">
        <ele>2.5999999046325684</ele>
        <time>2012-12-07T11:19:04.000Z</time>
        <extensions>
          <gpxtpx:TrackPointExtension>
            <gpxtpx:cad>0</gpxtpx:cad>
          </gpxtpx:TrackPointExtension>
        </extensions>
      </trkpt>
      <trkpt lon="35.340714985504746" lat="31.194465178996325">
        <ele>2.5999999046325684</ele>
        <time>2012-12-07T11:19:05.000Z</time>
        <extensions>
          <gpxtpx:TrackPointExtension>
            <gpxtpx:cad>0</gpxtpx:cad>
          </gpxtpx:TrackPointExtension>
        </extensions>
      </trkpt>
      <trkpt lon="35.34069109708071" lat="31.194466101005673">
        <ele>2.5999999046325684</ele>
        <time>2012-12-07T11:19:20.000Z</time>
      </trkpt>
      <trkpt lon="35.34069947898388" lat="31.19446693919599">
        <ele>2.5999999046325684</ele>
        <time>2012-12-07T11:19:47.000Z</time>
      </trkpt>
      <trkpt lon="35.3406982216984" lat="31.19445906020701">
        <ele>2.799999952316284</ele>
        <time>2012-12-07T11:20:24.000Z</time>
      </trkpt>
      <trkpt lon="35.340693360194564" lat="31.19445813819766">
        <ele>2.799999952316284</ele>
        <time>2012-12-07T11:20:50.000Z</time>
      </trkpt>
      <trkpt lon="35.34069646149874" lat="31.194441374391317">
        <ele>3.0</ele>
        <time>2012-12-07T11:21:30.000Z</time>
      </trkpt>
      <trkpt lon="35.34069361165166" lat="31.19443517178297">
        <ele>3.0</ele>
        <time>2012-12-07T11:22:14.000Z</time>
      </trkpt>
      <trkpt lon="35.34068983979523" lat="31.194444308057427">
        <ele>3.0</ele>
        <time>2012-12-07T11:22:39.000Z</time>
      </trkpt>
      <trkpt lon="35.340669471770525" lat="31.19444883428514">
        <ele>2.799999952316284</ele>
        <time>2012-12-07T11:22:51.000Z</time>
      </trkpt>
      <trkpt lon="35.340576600283384" lat="31.19443072937429">
        <ele>3.200000047683716</ele>
        <time>2012-12-07T11:22:58.000Z</time>
      </trkpt>
      <trkpt lon="35.34051440656185" lat="31.194428130984306">
        <ele>3.200000047683716</ele>
        <time>2012-12-07T11:23:09.000Z</time>
      </trkpt>
      <trkpt lon="35.34050912596285" lat="31.19442201219499">
        <ele>3.200000047683716</ele>
        <time>2012-12-07T11:23:16.000Z</time>
      </trkpt>
      <trkpt lon="35.340349869802594" lat="31.19441455230117">
        <ele>3.4000000953674316</ele>
        <time>2012-12-07T11:23:27.000Z</time>
        <extensions>
          <gpxtpx:TrackPointExtension>
            <gpxtpx:cad>0</gpxtpx:cad>
          </gpxtpx:TrackPointExtension>
        </extensions>
      </trkpt>
      <trkpt lon="35.34032732248306" lat="31.1944249458611">
        <ele>3.200000047683716</ele>
        <time>2012-12-07T11:23:29.000Z</time>
        <extensions>
          <gpxtpx:TrackPointExtension>
            <gpxtpx:cad>0</gpxtpx:cad>
          </gpxtpx:TrackPointExtension>
        </extensions>
      </trkpt>
      <trkpt lon="35.34030460752547" lat="31.194442212581635">
        <ele>3.200000047683716</ele>
        <time>2012-12-07T11:23:43.000Z</time>
        <extensions>
          <gpxtpx:TrackPointExtension>
            <gpxtpx:cad>0</gpxtpx:cad>
          </gpxtpx:TrackPointExtension>
        </extensions>
      </trkpt>
      <trkpt lon="35.34026185981929" lat="31.194441793486476">
        <ele>3.200000047683716</ele>
        <time>2012-12-07T11:23:55.000Z</time>
        <extensions>
          <gpxtpx:TrackPointExtension>
            <gpxtpx:cad>0</gpxtpx:cad>
          </gpxtpx:TrackPointExtension>
        </extensions>
      </trkpt>
      <trkpt lon="35.340215507894754" lat="31.194484373554587">
        <ele>2.799999952316284</ele>
        <time>2012-12-07T11:24:08.000Z</time>
      </trkpt>
      <trkpt lon="35.340200336650014" lat="31.194490240886807">
        <ele>2.799999952316284</ele>
        <time>2012-12-07T11:24:18.000Z</time>
      </trkpt>
      <trkpt lon="35.34012489952147" lat="31.194518990814686">
        <ele>2.799999952316284</ele>
        <time>2012-12-07T11:24:23.000Z</time>
      </trkpt>
      <trkpt lon="35.340051306411624" lat="31.19453734718263">
        <ele>3.0</ele>
        <time>2012-12-07T11:24:27.000Z</time>
      </trkpt>
      <trkpt lon="35.33995524980128" lat="31.194570036605">
        <ele>3.0</ele>
        <time>2012-12-07T11:24:34.000Z</time>
      </trkpt>
      <trkpt lon="35.340006379410625" lat="31.194714875891805">
        <ele>2.5999999046325684</ele>
        <time>2012-12-07T11:24:47.000Z</time>
      </trkpt>
      <trkpt lon="35.33999967388809" lat="31.194714456796646">
        <ele>2.5999999046325684</ele>
        <time>2012-12-07T11:25:04.000Z</time>
      </trkpt>
      <trkpt lon="35.33999254927039" lat="31.19472191669047">
        <ele>2.5999999046325684</ele>
        <time>2012-12-07T11:25:18.000Z</time>
      </trkpt>
      <trkpt lon="35.33999003469944" lat="31.194720743224025">
        <ele>2.5999999046325684</ele>
        <time>2012-12-07T11:25:54.000Z</time>
      </trkpt>
      <trkpt lon="35.34000612795353" lat="31.194722754880786">
        <ele>2.5999999046325684</ele>
        <time>2012-12-07T11:26:25.000Z</time>
      </trkpt>
      <trkpt lon="35.340058682486415" lat="31.194742200896144">
        <ele>2.200000047683716</ele>
        <time>2012-12-07T11:26:36.000Z</time>
      </trkpt>
      <trkpt lon="35.34006706438959" lat="31.19474488310516">
        <ele>2.200000047683716</ele>
        <time>2012-12-07T11:26:38.000Z</time>
      </trkpt>
      <trkpt lon="35.340123726055026" lat="31.194766759872437">
        <ele>1.600000023841858</ele>
        <time>2012-12-07T11:26:42.000Z</time>
      </trkpt>
      <trkpt lon="35.34020829945803" lat="31.194805232807994">
        <ele>0.800000011920929</ele>
        <time>2012-12-07T11:26:47.000Z</time>
      </trkpt>
      <trkpt lon="35.3403805475682" lat="31.19493347592652">
        <ele>-1.600000023841858</ele>
        <time>2012-12-07T11:26:59.000Z</time>
      </trkpt>
      <trkpt lon="35.34041625447571" lat="31.19504252448678">
        <ele>-2.200000047683716</ele>
        <time>2012-12-07T11:27:06.000Z</time>
      </trkpt>
      <trkpt lon="35.34054550342262" lat="31.195345111191273">
        <ele>-1.2000000476837158</ele>
        <time>2012-12-07T11:27:22.000Z</time>
      </trkpt>
      <trkpt lon="35.34058850258589" lat="31.19551895186305">
        <ele>-0.20000000298023224</ele>
        <time>2012-12-07T11:27:29.000Z</time>
        <extensions>
          <gpxtpx:TrackPointExtension>
            <gpxtpx:cad>63</gpxtpx:cad>
          </gpxtpx:TrackPointExtension>
        </extensions>
      </trkpt>
      <trkpt lon="35.34074205905199" lat="31.195696983486414">
        <ele>-0.4000000059604645</ele>
        <time>2012-12-07T11:27:43.000Z</time>
        <extensions>
          <gpxtpx:TrackPointExtension>
            <gpxtpx:cad>0</gpxtpx:cad>
          </gpxtpx:TrackPointExtension>
        </extensions>
      </trkpt>
      <trkpt lon="35.340750608593225" lat="31.19571240618825">
        <ele>-0.4000000059604645</ele>
        <time>2012-12-07T11:27:44.000Z</time>
        <extensions>
          <gpxtpx:TrackPointExtension>
            <gpxtpx:cad>0</gpxtpx:cad>
          </gpxtpx:TrackPointExtension>
        </extensions>
      </trkpt>
      <trkpt lon="35.34084758721292" lat="31.1957564111799">
        <ele>-1.0</ele>
        <time>2012-12-07T11:27:50.000Z</time>
        <extensions>
          <gpxtpx:TrackPointExtension>
            <gpxtpx:cad>0</gpxtpx:cad>
          </gpxtpx:TrackPointExtension>
        </extensions>
      </trkpt>
      <trkpt lon="35.34097222611308" lat="31.19584148749709">
        <ele>-1.600000023841858</ele>
        <time>2012-12-07T11:27:59.000Z</time>
        <extensions>
          <gpxtpx:TrackPointExtension>
            <gpxtpx:cad>79</gpxtpx:cad>
          </gpxtpx:TrackPointExtension>
        </extensions>
      </trkpt>
      <trkpt lon="35.3411456476897" lat="31.195910051465034">
        <ele>-2.799999952316284</ele>
        <time>2012-12-07T11:28:11.000Z</time>
        <extensions>
          <gpxtpx:TrackPointExtension>
            <gpxtpx:cad>92</gpxtpx:cad>
          </gpxtpx:TrackPointExtension>
        </extensions>
      </trkpt>
      <trkpt lon="35.34123541787267" lat="31.195990350097418">
        <ele>-2.5999999046325684</ele>
        <time>2012-12-07T11:28:19.000Z</time>
        <extensions>
          <gpxtpx:TrackPointExtension>
            <gpxtpx:cad>62</gpxtpx:cad>
          </gpxtpx:TrackPointExtension>
        </extensions>
      </trkpt>
      <trkpt lon="35.34134027548134" lat="31.196044916287065">
        <ele>-2.5999999046325684</ele>
        <time>2012-12-07T11:28:32.000Z</time>
      </trkpt>
      <trkpt lon="35.34132267348468" lat="31.196054220199585">
        <ele>-2.4000000953674316</ele>
        <time>2012-12-07T11:28:47.000Z</time>
      </trkpt>
      <trkpt lon="35.34130188636482" lat="31.19611549191177">
        <ele>-1.2000000476837158</ele>
        <time>2012-12-07T11:29:28.000Z</time>
      </trkpt>
      <trkpt lon="35.341311106458306" lat="31.196117168292403">
        <ele>-1.2000000476837158</ele>
        <time>2012-12-07T11:30:15.000Z</time>
      </trkpt>
      <trkpt lon="35.341320829465985" lat="31.196141811087728">
        <ele>-0.800000011920929</ele>
        <time>2012-12-07T11:31:11.000Z</time>
      </trkpt>
      <trkpt lon="35.341318314895034" lat="31.196099817752838">
        <ele>-1.600000023841858</ele>
        <time>2012-12-07T11:31:25.000Z</time>
      </trkpt>
      <trkpt lon="35.34132317639887" lat="31.196066960692406">
        <ele>-2.200000047683716</ele>
        <time>2012-12-07T11:32:05.000Z</time>
      </trkpt>
      <trkpt lon="35.341323511675" lat="31.19606821797788">
        <ele>-2.200000047683716</ele>
        <time>2012-12-07T11:32:36.000Z</time>
      </trkpt>
      <trkpt lon="35.34132627770305" lat="31.19605011306703">
        <ele>-2.4000000953674316</ele>
        <time>2012-12-07T11:33:06.000Z</time>
      </trkpt>
      <trkpt lon="35.34133097156882" lat="31.19606084190309">
        <ele>-2.4000000953674316</ele>
        <time>2012-12-07T11:33:26.000Z</time>
      </trkpt>
      <trkpt lon="35.34133507870138" lat="31.196067882701755">
        <ele>-2.200000047683716</ele>
        <time>2012-12-07T11:33:30.000Z</time>
      </trkpt>
      <trkpt lon="35.34144178032875" lat="31.196307856589556">
        <ele>1.0</ele>
        <time>2012-12-07T11:33:44.000Z</time>
      </trkpt>
      <trkpt lon="35.34158603288233" lat="31.19650399312377">
        <ele>4.0</ele>
        <time>2012-12-07T11:33:55.000Z</time>
      </trkpt>
      <trkpt lon="35.341686364263296" lat="31.1966769117862">
        <ele>6.599999904632568</ele>
        <time>2012-12-07T11:34:01.000Z</time>
      </trkpt>
      <trkpt lon="35.34176339395344" lat="31.196715803816915">
        <ele>5.800000190734863</ele>
        <time>2012-12-07T11:34:04.000Z</time>
      </trkpt>
      <trkpt lon="35.342022981494665" lat="31.19694027118385">
        <ele>3.799999952316284</ele>
        <time>2012-12-07T11:34:13.000Z</time>
      </trkpt>
      <trkpt lon="35.342086432501674" lat="31.197048062458634">
        <ele>3.799999952316284</ele>
        <time>2012-12-07T11:34:15.000Z</time>
      </trkpt>
      <trkpt lon="35.34238985739648" lat="31.19731318205595">
        <ele>3.5999999046325684</ele>
        <time>2012-12-07T11:34:25.000Z</time>
      </trkpt>
      <trkpt lon="35.34267618320882" lat="31.197535218670964">
        <ele>4.599999904632568</ele>
        <time>2012-12-07T11:34:36.000Z</time>
      </trkpt>
      <trkpt lon="35.34293635748327" lat="31.197680979967117">
        <ele>4.400000095367432</ele>
        <time>2012-12-07T11:34:46.000Z</time>
      </trkpt>
      <trkpt lon="35.343125285580754" lat="31.19772565551102">
        <ele>3.799999952316284</ele>
        <time>2012-12-07T11:34:57.000Z</time>
      </trkpt>
      <trkpt lon="35.34315261058509" lat="31.197776198387146">
        <ele>3.799999952316284</ele>
        <time>2012-12-07T11:34:59.000Z</time>
      </trkpt>
      <trkpt lon="35.343246990814805" lat="31.197920702397823">
        <ele>4.0</ele>
        <time>2012-12-07T11:35:02.000Z</time>
      </trkpt>
      <trkpt lon="35.34348386339843" lat="31.19806956499815">
        <ele>2.200000047683716</ele>
        <time>2012-12-07T11:35:06.000Z</time>
      </trkpt>
      <trkpt lon="35.34356961026788" lat="31.198158329352736">
        <ele>2.5999999046325684</ele>
        <time>2012-12-07T11:35:08.000Z</time>
      </trkpt>
      <trkpt lon="35.34366834908724" lat="31.198306437581778">
        <ele>4.400000095367432</ele>
        <time>2012-12-07T11:35:11.000Z</time>
      </trkpt>
      <trkpt lon="35.34373674541712" lat="31.198393274098635">
        <ele>5.599999904632568</ele>
        <time>2012-12-07T11:35:13.000Z</time>
      </trkpt>
      <trkpt lon="35.34384587779641" lat="31.198498215526342">
        <ele>6.800000190734863</ele>
        <time>2012-12-07T11:35:20.000Z</time>
      </trkpt>
      <trkpt lon="35.34389072097838" lat="31.198576418682933">
        <ele>7.800000190734863</ele>
        <time>2012-12-07T11:35:31.000Z</time>
        <extensions>
          <gpxtpx:TrackPointExtension>
            <gpxtpx:cad>0</gpxtpx:cad>
          </gpxtpx:TrackPointExtension>
        </extensions>
      </trkpt>
      <trkpt lon="35.343912513926625" lat="31.1985953617841">
        <ele>8.0</ele>
        <time>2012-12-07T11:35:41.000Z</time>
      </trkpt>
      <trkpt lon="35.34395827911794" lat="31.198634086176753">
        <ele>8.600000381469727</ele>
        <time>2012-12-07T11:35:54.000Z</time>
      </trkpt>
      <trkpt lon="35.34399926662445" lat="31.198667529970407">
        <ele>9.0</ele>
        <time>2012-12-07T11:36:12.000Z</time>
      </trkpt>
      <trkpt lon="35.34400513395667" lat="31.19867406785488">
        <ele>9.0</ele>
        <time>2012-12-07T11:36:31.000Z</time>
      </trkpt>
      <trkpt lon="35.34400622360408" lat="31.19867054745555">
        <ele>9.0</ele>
        <time>2012-12-07T11:36:57.000Z</time>
      </trkpt>
      <trkpt lon="35.34403388388455" lat="31.198660153895617">
        <ele>9.0</ele>
        <time>2012-12-07T11:37:09.000Z</time>
      </trkpt>
      <trkpt lon="35.34407755360007" lat="31.19863827712834">
        <ele>8.800000190734863</ele>
        <time>2012-12-07T11:37:21.000Z</time>
      </trkpt>
      <trkpt lon="35.34414058551192" lat="31.198621094226837">
        <ele>8.600000381469727</ele>
        <time>2012-12-07T11:37:34.000Z</time>
      </trkpt>
      <trkpt lon="35.34415466710925" lat="31.198594188317657">
        <ele>8.399999618530273</ele>
        <time>2012-12-07T11:37:47.000Z</time>
      </trkpt>
      <trkpt lon="35.34415324218571" lat="31.19859485886991">
        <ele>8.399999618530273</ele>
        <time>2012-12-07T11:38:17.000Z</time>
      </trkpt>
      <trkpt lon="35.34414963796735" lat="31.19859527796507">
        <ele>8.399999618530273</ele>
        <time>2012-12-07T11:38:51.000Z</time>
      </trkpt>
      <trkpt lon="35.344141675159335" lat="31.198598043993115">
        <ele>8.399999618530273</ele>
        <time>2012-12-07T11:39:32.000Z</time>
      </trkpt>
      <trkpt lon="35.34413522109389" lat="31.19860466569662">
        <ele>8.399999618530273</ele>
        <time>2012-12-07T11:40:02.000Z</time>
      </trkpt>
      <trkpt lon="35.3441643062979" lat="31.198580861091614">
        <ele>8.199999809265137</ele>
        <time>2012-12-07T11:40:15.000Z</time>
      </trkpt>
      <trkpt lon="35.34419816918671" lat="31.198538029566407">
        <ele>7.400000095367432</ele>
        <time>2012-12-07T11:40:27.000Z</time>
      </trkpt>
      <trkpt lon="35.344266816973686" lat="31.198504753410816">
        <ele>6.400000095367432</ele>
        <time>2012-12-07T11:40:40.000Z</time>
      </trkpt>
      <trkpt lon="35.344326831400394" lat="31.198464017361403">
        <ele>5.0</ele>
        <time>2012-12-07T11:40:52.000Z</time>
      </trkpt>
      <trkpt lon="35.34440151415765" lat="31.198438620194793">
        <ele>3.799999952316284</ele>
        <time>2012-12-07T11:41:04.000Z</time>
      </trkpt>
      <trkpt lon="35.34445281140506" lat="31.198461167514324">
        <ele>3.799999952316284</ele>
        <time>2012-12-07T11:41:21.000Z</time>
      </trkpt>
      <trkpt lon="35.34447519108653" lat="31.198457898572087">
        <ele>3.5999999046325684</ele>
        <time>2012-12-07T11:41:47.000Z</time>
      </trkpt>
      <trkpt lon="35.34453143365681" lat="31.19846686720848">
        <ele>3.200000047683716</ele>
        <time>2012-12-07T11:41:59.000Z</time>
        <extensions>
          <gpxtpx:TrackPointExtension>
            <gpxtpx:cad>1</gpxtpx:cad>
          </gpxtpx:TrackPointExtension>
        </extensions>
      </trkpt>
      <trkpt lon="35.34461684525013" lat="31.1985107883811">
        <ele>3.4000000953674316</ele>
        <time>2012-12-07T11:42:06.000Z</time>
        <extensions>
          <gpxtpx:TrackPointExtension>
            <gpxtpx:cad>0</gpxtpx:cad>
          </gpxtpx:TrackPointExtension>
        </extensions>
      </trkpt>
      <trkpt lon="35.34489721991122" lat="31.198699632659554">
        <ele>7.400000095367432</ele>
        <time>2012-12-07T11:42:22.000Z</time>
        <extensions>
          <gpxtpx:TrackPointExtension>
            <gpxtpx:cad>0</gpxtpx:cad>
          </gpxtpx:TrackPointExtension>
        </extensions>
      </trkpt>
      <trkpt lon="35.345215648412704" lat="31.199008086696267">
        <ele>15.0</ele>
        <time>2012-12-07T11:42:40.000Z</time>
        <extensions>
          <gpxtpx:TrackPointExtension>
            <gpxtpx:cad>0</gpxtpx:cad>
          </gpxtpx:TrackPointExtension>
        </extensions>
      </trkpt>
      <trkpt lon="35.3454799298197" lat="31.19934629648924">
        <ele>20.799999237060547</ele>
        <time>2012-12-07T11:42:55.000Z</time>
        <extensions>
          <gpxtpx:TrackPointExtension>
            <gpxtpx:cad>0</gpxtpx:cad>
          </gpxtpx:TrackPointExtension>
        </extensions>
      </trkpt>
      <trkpt lon="35.345807829871774" lat="31.199771761894226">
        <ele>16.399999618530273</ele>
        <time>2012-12-07T11:43:10.000Z</time>
        <extensions>
          <gpxtpx:TrackPointExtension>
            <gpxtpx:cad>0</gpxtpx:cad>
          </gpxtpx:TrackPointExtension>
        </extensions>
      </trkpt>
      <trkpt lon="35.34607387147844" lat="31.200045682489872">
        <ele>13.600000381469727</ele>
        <time>2012-12-07T11:43:20.000Z</time>
        <extensions>
          <gpxtpx:TrackPointExtension>
            <gpxtpx:cad>0</gpxtpx:cad>
          </gpxtpx:TrackPointExtension>
        </extensions>
      </trkpt>
      <trkpt lon="35.34629272297025" lat="31.200359668582678">
        <ele>13.800000190734863</ele>
        <time>2012-12-07T11:43:32.000Z</time>
        <extensions>
          <gpxtpx:TrackPointExtension>
            <gpxtpx:cad>0</gpxtpx:cad>
          </gpxtpx:TrackPointExtension>
        </extensions>
      </trkpt>
      <trkpt lon="35.34643102437258" lat="31.200703075155616">
        <ele>14.800000190734863</ele>
        <time>2012-12-07T11:43:41.000Z</time>
        <extensions>
          <gpxtpx:TrackPointExtension>
            <gpxtpx:cad>0</gpxtpx:cad>
          </gpxtpx:TrackPointExtension>
        </extensions>
      </trkpt>
      <trkpt lon="35.34660302102566" lat="31.20096517726779">
        <ele>15.0</ele>
        <time>2012-12-07T11:43:52.000Z</time>
        <extensions>
          <gpxtpx:TrackPointExtension>
            <gpxtpx:cad>0</gpxtpx:cad>
          </gpxtpx:TrackPointExtension>
        </extensions>
      </trkpt>
      <trkpt lon="35.34675565548241" lat="31.201146142557263">
        <ele>15.0</ele>
        <time>2012-12-07T11:44:00.000Z</time>
        <extensions>
          <gpxtpx:TrackPointExtension>
            <gpxtpx:cad>0</gpxtpx:cad>
          </gpxtpx:TrackPointExtension>
        </extensions>
      </trkpt>
      <trkpt lon="35.346862860023975" lat="31.2012857850641">
        <ele>15.0</ele>
        <time>2012-12-07T11:44:04.000Z</time>
        <extensions>
          <gpxtpx:TrackPointExtension>
            <gpxtpx:cad>0</gpxtpx:cad>
          </gpxtpx:TrackPointExtension>
        </extensions>
      </trkpt>
      <trkpt lon="35.34698816947639" lat="31.201395839452744">
        <ele>15.199999809265137</ele>
        <time>2012-12-07T11:44:08.000Z</time>
        <extensions>
          <gpxtpx:TrackPointExtension>
            <gpxtpx:cad>0</gpxtpx:cad>
          </gpxtpx:TrackPointExtension>
        </extensions>
      </trkpt>
      <trkpt lon="35.34731011837721" lat="31.20175433345139">
        <ele>17.0</ele>
        <time>2012-12-07T11:44:23.000Z</time>
        <extensions>
          <gpxtpx:TrackPointExtension>
            <gpxtpx:cad>0</gpxtpx:cad>
          </gpxtpx:TrackPointExtension>
        </extensions>
      </trkpt>
      <trkpt lon="35.347574315965176" lat="31.20202641002834">
        <ele>18.600000381469727</ele>
        <time>2012-12-07T11:44:36.000Z</time>
        <extensions>
          <gpxtpx:TrackPointExtension>
            <gpxtpx:cad>0</gpxtpx:cad>
          </gpxtpx:TrackPointExtension>
        </extensions>
      </trkpt>
      <trkpt lon="35.3476074244827" lat="31.20205876417458">
        <ele>18.799999237060547</ele>
        <time>2012-12-07T11:44:38.000Z</time>
        <extensions>
          <gpxtpx:TrackPointExtension>
            <gpxtpx:cad>0</gpxtpx:cad>
          </gpxtpx:TrackPointExtension>
        </extensions>
      </trkpt>
      <trkpt lon="35.34786080941558" lat="31.202339893206954">
        <ele>20.0</ele>
        <time>2012-12-07T11:44:56.000Z</time>
        <extensions>
          <gpxtpx:TrackPointExtension>
            <gpxtpx:cad>0</gpxtpx:cad>
          </gpxtpx:TrackPointExtension>
        </extensions>
      </trkpt>
      <trkpt lon="35.34805971197784" lat="31.202406780794263">
        <ele>20.399999618530273</ele>
        <time>2012-12-07T11:45:11.000Z</time>
        <extensions>
          <gpxtpx:TrackPointExtension>
            <gpxtpx:cad>0</gpxtpx:cad>
          </gpxtpx:TrackPointExtension>
        </extensions>
      </trkpt>
      <trkpt lon="35.348087791353464" lat="31.202410804107785">
        <ele>20.399999618530273</ele>
        <time>2012-12-07T11:45:13.000Z</time>
        <extensions>
          <gpxtpx:TrackPointExtension>
            <gpxtpx:cad>0</gpxtpx:cad>
          </gpxtpx:TrackPointExtension>
        </extensions>
      </trkpt>
      <trkpt lon="35.34810916520655" lat="31.202428322285414">
        <ele>20.399999618530273</ele>
        <time>2012-12-07T11:45:15.000Z</time>
        <extensions>
          <gpxtpx:TrackPointExtension>
            <gpxtpx:cad>0</gpxtpx:cad>
          </gpxtpx:TrackPointExtension>
        </extensions>
      </trkpt>
      <trkpt lon="35.34818468615413" lat="31.20247945189476">
        <ele>20.799999237060547</ele>
        <time>2012-12-07T11:45:22.000Z</time>
        <extensions>
          <gpxtpx:TrackPointExtension>
            <gpxtpx:cad>0</gpxtpx:cad>
          </gpxtpx:TrackPointExtension>
        </extensions>
      </trkpt>
      <trkpt lon="35.34827336668968" lat="31.20263183489442">
        <ele>22.0</ele>
        <time>2012-12-07T11:45:34.000Z</time>
        <extensions>
          <gpxtpx:TrackPointExtension>
            <gpxtpx:cad>0</gpxtpx:cad>
          </gpxtpx:TrackPointExtension>
        </extensions>
      </trkpt>
      <trkpt lon="35.348342349752784" lat="31.202708948403597">
        <ele>22.600000381469727</ele>
        <time>2012-12-07T11:45:48.000Z</time>
      </trkpt>
      <trkpt lon="35.3483344707638" lat="31.202721521258354">
        <ele>22.799999237060547</ele>
        <time>2012-12-07T11:46:21.000Z</time>
      </trkpt>
      <trkpt lon="35.34836070612073" lat="31.20274239219725">
        <ele>23.0</ele>
        <time>2012-12-07T11:46:45.000Z</time>
        <extensions>
          <gpxtpx:TrackPointExtension>
            <gpxtpx:cad>1</gpxtpx:cad>
          </gpxtpx:TrackPointExtension>
        </extensions>
      </trkpt>
      <trkpt lon="35.34836137667298" lat="31.20276041328907">
        <ele>23.200000762939453</ele>
        <time>2012-12-07T11:47:02.000Z</time>
      </trkpt>
      <trkpt lon="35.34835441969335" lat="31.20277843438089">
        <ele>23.200000762939453</ele>
        <time>2012-12-07T11:47:33.000Z</time>
      </trkpt>
      <trkpt lon="35.348511999472976" lat="31.203004913404584">
        <ele>25.399999618530273</ele>
        <time>2012-12-07T11:47:47.000Z</time>
      </trkpt>
      <trkpt lon="35.34868508577347" lat="31.203255113214254">
        <ele>27.799999237060547</ele>
        <time>2012-12-07T11:48:02.000Z</time>
      </trkpt>
      <trkpt lon="35.3488614410162" lat="31.20360421948135">
        <ele>29.200000762939453</ele>
        <time>2012-12-07T11:48:20.000Z</time>
      </trkpt>
      <trkpt lon="35.34903494641185" lat="31.203985763713717">
        <ele>30.799999237060547</ele>
        <time>2012-12-07T11:48:40.000Z</time>
      </trkpt>
      <trkpt lon="35.34916067495942" lat="31.20430838316679">
        <ele>32.20000076293945</ele>
        <time>2012-12-07T11:48:59.000Z</time>
      </trkpt>
      <trkpt lon="35.34931071102619" lat="31.204565288498998">
        <ele>32.79999923706055</ele>
        <time>2012-12-07T11:49:18.000Z</time>
      </trkpt>
      <trkpt lon="35.34943660721183" lat="31.204838789999485">
        <ele>33.20000076293945</ele>
        <time>2012-12-07T11:49:37.000Z</time>
      </trkpt>
      <trkpt lon="35.34956283867359" lat="31.205202816054225">
        <ele>31.799999237060547</ele>
        <time>2012-12-07T11:49:57.000Z</time>
      </trkpt>
      <trkpt lon="35.34964540041983" lat="31.205466762185097">
        <ele>29.799999237060547</ele>
        <time>2012-12-07T11:50:07.000Z</time>
      </trkpt>
      <trkpt lon="35.349629893898964" lat="31.205503474920988">
        <ele>29.600000381469727</ele>
        <time>2012-12-07T11:50:08.000Z</time>
      </trkpt>
      <trkpt lon="35.34965068101883" lat="31.205712603405118">
        <ele>28.0</ele>
        <time>2012-12-07T11:50:14.000Z</time>
      </trkpt>
      <trkpt lon="35.34970851615071" lat="31.205872362479568">
        <ele>26.600000381469727</ele>
        <time>2012-12-07T11:50:18.000Z</time>
      </trkpt>
      <trkpt lon="35.34972603432834" lat="31.205971771851182">
        <ele>26.0</ele>
        <time>2012-12-07T11:50:21.000Z</time>
      </trkpt>
      <trkpt lon="35.34973324276507" lat="31.20608207769692">
        <ele>25.600000381469727</ele>
        <time>2012-12-07T11:50:25.000Z</time>
      </trkpt>
      <trkpt lon="35.34986953251064" lat="31.20616707019508">
        <ele>24.200000762939453</ele>
        <time>2012-12-07T11:50:32.000Z</time>
      </trkpt>
      <trkpt lon="35.34996818751097" lat="31.20631953701377">
        <ele>23.0</ele>
        <time>2012-12-07T11:50:40.000Z</time>
        <extensions>
          <gpxtpx:TrackPointExtension>
            <gpxtpx:cad>0</gpxtpx:cad>
          </gpxtpx:TrackPointExtension>
        </extensions>
      </trkpt>
      <trkpt lon="35.35017656162381" lat="31.206571077927947">
        <ele>20.600000381469727</ele>
        <time>2012-12-07T11:50:55.000Z</time>
        <extensions>
          <gpxtpx:TrackPointExtension>
            <gpxtpx:cad>0</gpxtpx:cad>
          </gpxtpx:TrackPointExtension>
        </extensions>
      </trkpt>
      <trkpt lon="35.35034470260143" lat="31.206921944394708">
        <ele>16.600000381469727</ele>
        <time>2012-12-07T11:51:07.000Z</time>
        <extensions>
          <gpxtpx:TrackPointExtension>
            <gpxtpx:cad>0</gpxtpx:cad>
          </gpxtpx:TrackPointExtension>
        </extensions>
      </trkpt>
      <trkpt lon="35.3505396656692" lat="31.207231152802706">
        <ele>11.800000190734863</ele>
        <time>2012-12-07T11:51:20.000Z</time>
        <extensions>
          <gpxtpx:TrackPointExtension>
            <gpxtpx:cad>0</gpxtpx:cad>
          </gpxtpx:TrackPointExtension>
        </extensions>
      </trkpt>
      <trkpt lon="35.35059029236436" lat="31.207377668470144">
        <ele>9.800000190734863</ele>
        <time>2012-12-07T11:51:24.000Z</time>
        <extensions>
          <gpxtpx:TrackPointExtension>
            <gpxtpx:cad>0</gpxtpx:cad>
          </gpxtpx:TrackPointExtension>
        </extensions>
      </trkpt>
      <trkpt lon="35.350519213825464" lat="31.207634573802352">
        <ele>5.599999904632568</ele>
        <time>2012-12-07T11:51:34.000Z</time>
        <extensions>
          <gpxtpx:TrackPointExtension>
            <gpxtpx:cad>0</gpxtpx:cad>
          </gpxtpx:TrackPointExtension>
        </extensions>
      </trkpt>
      <trkpt lon="35.35045785829425" lat="31.20779676362872">
        <ele>2.4000000953674316</ele>
        <time>2012-12-07T11:51:37.000Z</time>
        <extensions>
          <gpxtpx:TrackPointExtension>
            <gpxtpx:cad>0</gpxtpx:cad>
          </gpxtpx:TrackPointExtension>
        </extensions>
      </trkpt>
      <trkpt lon="35.35037185996771" lat="31.207962222397327">
        <ele>0.4000000059604645</ele>
        <time>2012-12-07T11:51:44.000Z</time>
        <extensions>
          <gpxtpx:TrackPointExtension>
            <gpxtpx:cad>0</gpxtpx:cad>
          </gpxtpx:TrackPointExtension>
        </extensions>
      </trkpt>
      <trkpt lon="35.35035082139075" lat="31.207981584593654">
        <ele>0.4000000059604645</ele>
        <time>2012-12-07T11:51:46.000Z</time>
        <extensions>
          <gpxtpx:TrackPointExtension>
            <gpxtpx:cad>0</gpxtpx:cad>
          </gpxtpx:TrackPointExtension>
        </extensions>
      </trkpt>
      <trkpt lon="35.3503084089607" lat="31.207989463582635">
        <ele>1.399999976158142</ele>
        <time>2012-12-07T11:52:00.000Z</time>
      </trkpt>
      <trkpt lon="35.35030555911362" lat="31.20798879303038">
        <ele>1.399999976158142</ele>
        <time>2012-12-07T11:52:32.000Z</time>
      </trkpt>
      <trkpt lon="35.350267169997096" lat="31.207993067801">
        <ele>2.4000000953674316</ele>
        <time>2012-12-07T11:53:02.000Z</time>
      </trkpt>
      <trkpt lon="35.350186955183744" lat="31.208000108599663">
        <ele>4.199999809265137</ele>
        <time>2012-12-07T11:53:08.000Z</time>
      </trkpt>
      <trkpt lon="35.3500235080719" lat="31.20795249938965">
        <ele>9.0</ele>
        <time>2012-12-07T11:53:21.000Z</time>
      </trkpt>
      <trkpt lon="35.34974640235305" lat="31.207913272082806">
        <ele>11.399999618530273</ele>
        <time>2012-12-07T11:53:38.000Z</time>
      </trkpt>
      <trkpt lon="35.34949813038111" lat="31.207890808582306">
        <ele>12.800000190734863</ele>
        <time>2012-12-07T11:53:56.000Z</time>
      </trkpt>
      <trkpt lon="35.34943560138345" lat="31.207869602367282">
        <ele>13.399999618530273</ele>
        <time>2012-12-07T11:54:01.000Z</time>
      </trkpt>
      <trkpt lon="35.349298138171434" lat="31.207787794992328">
        <ele>14.800000190734863</ele>
        <time>2012-12-07T11:54:12.000Z</time>
      </trkpt>
      <trkpt lon="35.34918640740216" lat="31.207732558250427">
        <ele>15.800000190734863</ele>
        <time>2012-12-07T11:54:21.000Z</time>
      </trkpt>
      <trkpt lon="35.34902773797512" lat="31.207829201593995">
        <ele>15.600000381469727</ele>
        <time>2012-12-07T11:54:29.000Z</time>
      </trkpt>
      <trkpt lon="35.34899345599115" lat="31.207878654822707">
        <ele>15.199999809265137</ele>
        <time>2012-12-07T11:54:30.000Z</time>
      </trkpt>
      <trkpt lon="35.34895246848464" lat="31.20792525820434">
        <ele>15.199999809265137</ele>
        <time>2012-12-07T11:54:31.000Z</time>
      </trkpt>
      <trkpt lon="35.34890930168331" lat="31.207963563501835">
        <ele>15.0</ele>
        <time>2012-12-07T11:54:32.000Z</time>
      </trkpt>
      <trkpt lon="35.34886655397713" lat="31.207994408905506">
        <ele>15.0</ele>
        <time>2012-12-07T11:54:33.000Z</time>
      </trkpt>
      <trkpt lon="35.348687851801515" lat="31.208085855469108">
        <ele>15.399999618530273</ele>
        <time>2012-12-07T11:54:42.000Z</time>
      </trkpt>
      <trkpt lon="35.34847076050937" lat="31.20814360678196">
        <ele>16.399999618530273</ele>
        <time>2012-12-07T11:54:58.000Z</time>
      </trkpt>
      <trkpt lon="35.34845793619752" lat="31.20814218185842">
        <ele>16.399999618530273</ele>
        <time>2012-12-07T11:54:59.000Z</time>
      </trkpt>
      <trkpt lon="35.348247550427914" lat="31.208103457465768">
        <ele>17.600000381469727</ele>
        <time>2012-12-07T11:55:15.000Z</time>
      </trkpt>
      <trkpt lon="35.3482343070209" lat="31.208099015057087">
        <ele>17.799999237060547</ele>
        <time>2012-12-07T11:55:16.000Z</time>
      </trkpt>
      <trkpt lon="35.34805392846465" lat="31.20807185769081">
        <ele>18.799999237060547</ele>
        <time>2012-12-07T11:55:30.000Z</time>
      </trkpt>
      <trkpt lon="35.348039511591196" lat="31.208072612062097">
        <ele>18.799999237060547</ele>
        <time>2012-12-07T11:55:31.000Z</time>
      </trkpt>
      <trkpt lon="35.3480255138129" lat="31.208072025328875">
        <ele>19.0</ele>
        <time>2012-12-07T11:55:32.000Z</time>
      </trkpt>
      <trkpt lon="35.34801235422492" lat="31.208071438595653">
        <ele>19.0</ele>
        <time>2012-12-07T11:55:33.000Z</time>
      </trkpt>
      <trkpt lon="35.34799827262759" lat="31.208071522414684">
        <ele>19.200000762939453</ele>
        <time>2012-12-07T11:55:34.000Z</time>
      </trkpt>
      <trkpt lon="35.34798360429704" lat="31.208071103319526">
        <ele>19.200000762939453</ele>
        <time>2012-12-07T11:55:35.000Z</time>
      </trkpt>
      <trkpt lon="35.34772804006934" lat="31.208077976480126">
        <ele>20.600000381469727</ele>
        <time>2012-12-07T11:55:53.000Z</time>
      </trkpt>
      <trkpt lon="35.34750189632177" lat="31.20809624902904">
        <ele>22.0</ele>
        <time>2012-12-07T11:56:10.000Z</time>
      </trkpt>
      <trkpt lon="35.34733702428639" lat="31.208084682002664">
        <ele>23.799999237060547</ele>
        <time>2012-12-07T11:56:24.000Z</time>
      </trkpt>
      <trkpt lon="35.347160836681724" lat="31.20806540362537">
        <ele>25.399999618530273</ele>
        <time>2012-12-07T11:56:40.000Z</time>
      </trkpt>
      <trkpt lon="35.34692480228841" lat="31.208054088056087">
        <ele>27.799999237060547</ele>
        <time>2012-12-07T11:56:59.000Z</time>
      </trkpt>
      <trkpt lon="35.34691549837589" lat="31.20805911719799">
        <ele>28.0</ele>
        <time>2012-12-07T11:57:00.000Z</time>
      </trkpt>
      <trkpt lon="35.34688163548708" lat="31.20806699618697">
        <ele>28.399999618530273</ele>
        <time>2012-12-07T11:57:03.000Z</time>
      </trkpt>
      <trkpt lon="35.34686763770878" lat="31.208069175481796">
        <ele>28.600000381469727</ele>
        <time>2012-12-07T11:57:04.000Z</time>
      </trkpt>
      <trkpt lon="35.34685431048274" lat="31.20807319879532">
        <ele>28.799999237060547</ele>
        <time>2012-12-07T11:57:05.000Z</time>
      </trkpt>
      <trkpt lon="35.34684299491346" lat="31.208078395575285">
        <ele>29.0</ele>
        <time>2012-12-07T11:57:06.000Z</time>
      </trkpt>
      <trkpt lon="35.346833104267716" lat="31.20808401145041">
        <ele>29.0</ele>
        <time>2012-12-07T11:57:07.000Z</time>
      </trkpt>
      <trkpt lon="35.34663680009544" lat="31.20809474028647">
        <ele>30.799999237060547</ele>
        <time>2012-12-07T11:57:24.000Z</time>
      </trkpt>
      <trkpt lon="35.34661198966205" lat="31.208093902096152">
        <ele>30.799999237060547</ele>
        <time>2012-12-07T11:57:26.000Z</time>
      </trkpt>
      <trkpt lon="35.34659933298826" lat="31.20808987878263">
        <ele>30.799999237060547</ele>
        <time>2012-12-07T11:57:27.000Z</time>
      </trkpt>
      <trkpt lon="35.34658751450479" lat="31.208086861297488">
        <ele>30.799999237060547</ele>
        <time>2012-12-07T11:57:28.000Z</time>
      </trkpt>
      <trkpt lon="35.34657686948776" lat="31.208083676174283">
        <ele>30.799999237060547</ele>
        <time>2012-12-07T11:57:29.000Z</time>
      </trkpt>
      <trkpt lon="35.346565721556544" lat="31.20807965286076">
        <ele>30.799999237060547</ele>
        <time>2012-12-07T11:57:30.000Z</time>
      </trkpt>
      <trkpt lon="35.346424067392945" lat="31.208038330078125">
        <ele>30.399999618530273</ele>
        <time>2012-12-07T11:57:42.000Z</time>
      </trkpt>
      <trkpt lon="35.34639799967408" lat="31.208033049479127">
        <ele>30.399999618530273</ele>
        <time>2012-12-07T11:57:44.000Z</time>
      </trkpt>
      <trkpt lon="35.3463848400861" lat="31.208033049479127">
        <ele>30.399999618530273</ele>
        <time>2012-12-07T11:57:45.000Z</time>
      </trkpt>
      <trkpt lon="35.346370758488774" lat="31.208035312592983">
        <ele>30.399999618530273</ele>
        <time>2012-12-07T11:57:46.000Z</time>
      </trkpt>
      <trkpt lon="35.346355503425" lat="31.20803765952587">
        <ele>30.399999618530273</ele>
        <time>2012-12-07T11:57:47.000Z</time>
        <extensions>
          <gpxtpx:TrackPointExtension>
            <gpxtpx:cad>33</gpxtpx:cad>
          </gpxtpx:TrackPointExtension>
        </extensions>
      </trkpt>
      <trkpt lon="35.34634083509445" lat="31.208039252087474">
        <ele>30.399999618530273</ele>
        <time>2012-12-07T11:57:48.000Z</time>
        <extensions>
          <gpxtpx:TrackPointExtension>
            <gpxtpx:cad>33</gpxtpx:cad>
          </gpxtpx:TrackPointExtension>
        </extensions>
      </trkpt>
      <trkpt lon="35.34620328806341" lat="31.208114018663764">
        <ele>31.0</ele>
        <time>2012-12-07T11:58:01.000Z</time>
        <extensions>
          <gpxtpx:TrackPointExtension>
            <gpxtpx:cad>0</gpxtpx:cad>
          </gpxtpx:TrackPointExtension>
        </extensions>
      </trkpt>
      <trkpt lon="35.345999859273434" lat="31.208220720291138">
        <ele>31.399999618530273</ele>
        <time>2012-12-07T11:58:20.000Z</time>
        <extensions>
          <gpxtpx:TrackPointExtension>
            <gpxtpx:cad>0</gpxtpx:cad>
          </gpxtpx:TrackPointExtension>
        </extensions>
      </trkpt>
      <trkpt lon="35.34575284458697" lat="31.20843001641333">
        <ele>32.400001525878906</ele>
        <time>2012-12-07T11:58:35.000Z</time>
        <extensions>
          <gpxtpx:TrackPointExtension>
            <gpxtpx:cad>0</gpxtpx:cad>
          </gpxtpx:TrackPointExtension>
        </extensions>
      </trkpt>
      <trkpt lon="35.345714539289474" lat="31.208462370559573">
        <ele>32.400001525878906</ele>
        <time>2012-12-07T11:58:36.000Z</time>
        <extensions>
          <gpxtpx:TrackPointExtension>
            <gpxtpx:cad>0</gpxtpx:cad>
          </gpxtpx:TrackPointExtension>
        </extensions>
      </trkpt>
      <trkpt lon="35.34530541859567" lat="31.208931002765894">
        <ele>33.0</ele>
        <time>2012-12-07T11:58:47.000Z</time>
        <extensions>
          <gpxtpx:TrackPointExtension>
            <gpxtpx:cad>0</gpxtpx:cad>
          </gpxtpx:TrackPointExtension>
        </extensions>
      </trkpt>
      <trkpt lon="35.345152197405696" lat="31.209153961390257">
        <ele>32.599998474121094</ele>
        <time>2012-12-07T11:58:57.000Z</time>
        <extensions>
          <gpxtpx:TrackPointExtension>
            <gpxtpx:cad>0</gpxtpx:cad>
          </gpxtpx:TrackPointExtension>
        </extensions>
      </trkpt>
      <trkpt lon="35.34510366618633" lat="31.209329226985574">
        <ele>32.79999923706055</ele>
        <time>2012-12-07T11:59:12.000Z</time>
        <extensions>
          <gpxtpx:TrackPointExtension>
            <gpxtpx:cad>0</gpxtpx:cad>
          </gpxtpx:TrackPointExtension>
        </extensions>
      </trkpt>
      <trkpt lon="35.34510064870119" lat="31.20932704769075">
        <ele>32.79999923706055</ele>
        <time>2012-12-07T11:59:30.000Z</time>
      </trkpt>
      <trkpt lon="35.34509411081672" lat="31.209330148994923">
        <ele>32.79999923706055</ele>
        <time>2012-12-07T12:00:03.000Z</time>
      </trkpt>
      <trkpt lon="35.34504591487348" lat="31.2094091065228">
        <ele>32.79999923706055</ele>
        <time>2012-12-07T12:00:31.000Z</time>
        <extensions>
          <gpxtpx:TrackPointExtension>
            <gpxtpx:cad>64</gpxtpx:cad>
          </gpxtpx:TrackPointExtension>
        </extensions>
      </trkpt>
      <trkpt lon="35.34494088962674" lat="31.209728540852666">
        <ele>33.400001525878906</ele>
        <time>2012-12-07T12:00:45.000Z</time>
        <extensions>
          <gpxtpx:TrackPointExtension>
            <gpxtpx:cad>0</gpxtpx:cad>
          </gpxtpx:TrackPointExtension>
        </extensions>
      </trkpt>
      <trkpt lon="35.344787584617734" lat="31.210244866088033">
        <ele>33.400001525878906</ele>
        <time>2012-12-07T12:01:00.000Z</time>
        <extensions>
          <gpxtpx:TrackPointExtension>
            <gpxtpx:cad>0</gpxtpx:cad>
          </gpxtpx:TrackPointExtension>
        </extensions>
      </trkpt>
      <trkpt lon="35.34460997208953" lat="31.210730681195855">
        <ele>31.0</ele>
        <time>2012-12-07T12:01:12.000Z</time>
        <extensions>
          <gpxtpx:TrackPointExtension>
            <gpxtpx:cad>0</gpxtpx:cad>
          </gpxtpx:TrackPointExtension>
        </extensions>
      </trkpt>
      <trkpt lon="35.34440327435732" lat="31.21120484545827">
        <ele>27.200000762939453</ele>
        <time>2012-12-07T12:01:21.000Z</time>
        <extensions>
          <gpxtpx:TrackPointExtension>
            <gpxtpx:cad>0</gpxtpx:cad>
          </gpxtpx:TrackPointExtension>
        </extensions>
      </trkpt>
      <trkpt lon="35.344351306557655" lat="31.211330071091652">
        <ele>26.200000762939453</ele>
        <time>2012-12-07T12:01:23.000Z</time>
        <extensions>
          <gpxtpx:TrackPointExtension>
            <gpxtpx:cad>0</gpxtpx:cad>
          </gpxtpx:TrackPointExtension>
        </extensions>
      </trkpt>
      <trkpt lon="35.34424435347319" lat="31.211608769372106">
        <ele>23.799999237060547</ele>
        <time>2012-12-07T12:01:29.000Z</time>
        <extensions>
          <gpxtpx:TrackPointExtension>
            <gpxtpx:cad>0</gpxtpx:cad>
          </gpxtpx:TrackPointExtension>
        </extensions>
      </trkpt>
      <trkpt lon="35.34422239288688" lat="31.211647493764758">
        <ele>23.399999618530273</ele>
        <time>2012-12-07T12:01:30.000Z</time>
        <extensions>
          <gpxtpx:TrackPointExtension>
            <gpxtpx:cad>0</gpxtpx:cad>
          </gpxtpx:TrackPointExtension>
        </extensions>
      </trkpt>
      <trkpt lon="35.34419381059706" lat="31.211686385795474">
        <ele>23.0</ele>
        <time>2012-12-07T12:01:31.000Z</time>
        <extensions>
          <gpxtpx:TrackPointExtension>
            <gpxtpx:cad>0</gpxtpx:cad>
          </gpxtpx:TrackPointExtension>
        </extensions>
      </trkpt>
      <trkpt lon="35.344157265499234" lat="31.211726870387793">
        <ele>22.600000381469727</ele>
        <time>2012-12-07T12:01:32.000Z</time>
        <extensions>
          <gpxtpx:TrackPointExtension>
            <gpxtpx:cad>0</gpxtpx:cad>
          </gpxtpx:TrackPointExtension>
        </extensions>
      </trkpt>
      <trkpt lon="35.34411317668855" lat="31.211766935884953">
        <ele>22.200000762939453</ele>
        <time>2012-12-07T12:01:33.000Z</time>
        <extensions>
          <gpxtpx:TrackPointExtension>
            <gpxtpx:cad>0</gpxtpx:cad>
          </gpxtpx:TrackPointExtension>
        </extensions>
      </trkpt>
      <trkpt lon="35.3440638910979" lat="31.211804822087288">
        <ele>22.0</ele>
        <time>2012-12-07T12:01:34.000Z</time>
        <extensions>
          <gpxtpx:TrackPointExtension>
            <gpxtpx:cad>0</gpxtpx:cad>
          </gpxtpx:TrackPointExtension>
        </extensions>
      </trkpt>
      <trkpt lon="35.34401862882078" lat="31.211846228688955">
        <ele>21.600000381469727</ele>
        <time>2012-12-07T12:01:35.000Z</time>
        <extensions>
          <gpxtpx:TrackPointExtension>
            <gpxtpx:cad>0</gpxtpx:cad>
          </gpxtpx:TrackPointExtension>
        </extensions>
      </trkpt>
      <trkpt lon="35.34398501738906" lat="31.211891658604145">
        <ele>21.399999618530273</ele>
        <time>2012-12-07T12:01:36.000Z</time>
        <extensions>
          <gpxtpx:TrackPointExtension>
            <gpxtpx:cad>0</gpxtpx:cad>
          </gpxtpx:TrackPointExtension>
        </extensions>
      </trkpt>
      <trkpt lon="35.34396079368889" lat="31.211938597261906">
        <ele>21.200000762939453</ele>
        <time>2012-12-07T12:01:37.000Z</time>
        <extensions>
          <gpxtpx:TrackPointExtension>
            <gpxtpx:cad>0</gpxtpx:cad>
          </gpxtpx:TrackPointExtension>
        </extensions>
      </trkpt>
      <trkpt lon="35.343942269682884" lat="31.211985033005476">
        <ele>20.799999237060547</ele>
        <time>2012-12-07T12:01:38.000Z</time>
        <extensions>
          <gpxtpx:TrackPointExtension>
            <gpxtpx:cad>0</gpxtpx:cad>
          </gpxtpx:TrackPointExtension>
        </extensions>
      </trkpt>
      <trkpt lon="35.343928690999746" lat="31.21203607879579">
        <ele>20.600000381469727</ele>
        <time>2012-12-07T12:01:39.000Z</time>
        <extensions>
          <gpxtpx:TrackPointExtension>
            <gpxtpx:cad>0</gpxtpx:cad>
          </gpxtpx:TrackPointExtension>
        </extensions>
      </trkpt>
      <trkpt lon="35.34391729161143" lat="31.21209022589028">
        <ele>20.200000762939453</ele>
        <time>2012-12-07T12:01:40.000Z</time>
        <extensions>
          <gpxtpx:TrackPointExtension>
            <gpxtpx:cad>0</gpxtpx:cad>
          </gpxtpx:TrackPointExtension>
        </extensions>
      </trkpt>
      <trkpt lon="35.34390103071928" lat="31.21214311569929">
        <ele>20.0</ele>
        <time>2012-12-07T12:01:41.000Z</time>
        <extensions>
          <gpxtpx:TrackPointExtension>
            <gpxtpx:cad>0</gpxtpx:cad>
          </gpxtpx:TrackPointExtension>
        </extensions>
      </trkpt>
      <trkpt lon="35.3437599632889" lat="31.212376970797777">
        <ele>18.600000381469727</ele>
        <time>2012-12-07T12:01:50.000Z</time>
        <extensions>
          <gpxtpx:TrackPointExtension>
            <gpxtpx:cad>0</gpxtpx:cad>
          </gpxtpx:TrackPointExtension>
        </extensions>
      </trkpt>
      <trkpt lon="35.34366608597338" lat="31.212583081796765">
        <ele>18.0</ele>
        <time>2012-12-07T12:02:02.000Z</time>
        <extensions>
          <gpxtpx:TrackPointExtension>
            <gpxtpx:cad>36</gpxtpx:cad>
          </gpxtpx:TrackPointExtension>
        </extensions>
      </trkpt>
      <trkpt lon="35.34366290085018" lat="31.212599175050855">
        <ele>18.200000762939453</ele>
        <time>2012-12-07T12:02:03.000Z</time>
        <extensions>
          <gpxtpx:TrackPointExtension>
            <gpxtpx:cad>0</gpxtpx:cad>
          </gpxtpx:TrackPointExtension>
        </extensions>
      </trkpt>
      <trkpt lon="35.34365569241345" lat="31.212614681571722">
        <ele>18.200000762939453</ele>
        <time>2012-12-07T12:02:04.000Z</time>
        <extensions>
          <gpxtpx:TrackPointExtension>
            <gpxtpx:cad>0</gpxtpx:cad>
          </gpxtpx:TrackPointExtension>
        </extensions>
      </trkpt>
      <trkpt lon="35.34365242347121" lat="31.212630104273558">
        <ele>18.200000762939453</ele>
        <time>2012-12-07T12:02:05.000Z</time>
        <extensions>
          <gpxtpx:TrackPointExtension>
            <gpxtpx:cad>0</gpxtpx:cad>
          </gpxtpx:TrackPointExtension>
        </extensions>
      </trkpt>
      <trkpt lon="35.343650160357356" lat="31.212646113708615">
        <ele>18.399999618530273</ele>
        <time>2012-12-07T12:02:06.000Z</time>
        <extensions>
          <gpxtpx:TrackPointExtension>
            <gpxtpx:cad>0</gpxtpx:cad>
          </gpxtpx:TrackPointExtension>
        </extensions>
      </trkpt>
      <trkpt lon="35.34358830191195" lat="31.212787264958024">
        <ele>18.799999237060547</ele>
        <time>2012-12-07T12:02:12.000Z</time>
        <extensions>
          <gpxtpx:TrackPointExtension>
            <gpxtpx:cad>0</gpxtpx:cad>
          </gpxtpx:TrackPointExtension>
        </extensions>
      </trkpt>
      <trkpt lon="35.34339090809226" lat="31.213039895519614">
        <ele>19.600000381469727</ele>
        <time>2012-12-07T12:02:23.000Z</time>
        <extensions>
          <gpxtpx:TrackPointExtension>
            <gpxtpx:cad>0</gpxtpx:cad>
          </gpxtpx:TrackPointExtension>
        </extensions>
      </trkpt>
      <trkpt lon="35.343330474570394" lat="31.21322480030358">
        <ele>20.399999618530273</ele>
        <time>2012-12-07T12:02:35.000Z</time>
        <extensions>
          <gpxtpx:TrackPointExtension>
            <gpxtpx:cad>0</gpxtpx:cad>
          </gpxtpx:TrackPointExtension>
        </extensions>
      </trkpt>
      <trkpt lon="35.34335670992732" lat="31.213296968489885">
        <ele>20.799999237060547</ele>
        <time>2012-12-07T12:02:40.000Z</time>
        <extensions>
          <gpxtpx:TrackPointExtension>
            <gpxtpx:cad>0</gpxtpx:cad>
          </gpxtpx:TrackPointExtension>
        </extensions>
      </trkpt>
      <trkpt lon="35.343385208398104" lat="31.21336997486651">
        <ele>21.200000762939453</ele>
        <time>2012-12-07T12:02:45.000Z</time>
        <extensions>
          <gpxtpx:TrackPointExtension>
            <gpxtpx:cad>0</gpxtpx:cad>
          </gpxtpx:TrackPointExtension>
        </extensions>
      </trkpt>
      <trkpt lon="35.34344564191997" lat="31.213685385882854">
        <ele>22.600000381469727</ele>
        <time>2012-12-07T12:03:04.000Z</time>
        <extensions>
          <gpxtpx:TrackPointExtension>
            <gpxtpx:cad>0</gpxtpx:cad>
          </gpxtpx:TrackPointExtension>
        </extensions>
      </trkpt>
      <trkpt lon="35.343473218381405" lat="31.213937010616064">
        <ele>23.600000381469727</ele>
        <time>2012-12-07T12:03:20.000Z</time>
        <extensions>
          <gpxtpx:TrackPointExtension>
            <gpxtpx:cad>0</gpxtpx:cad>
          </gpxtpx:TrackPointExtension>
        </extensions>
      </trkpt>
      <trkpt lon="35.343512278050184" lat="31.21415628120303">
        <ele>24.200000762939453</ele>
        <time>2012-12-07T12:03:37.000Z</time>
        <extensions>
          <gpxtpx:TrackPointExtension>
            <gpxtpx:cad>0</gpxtpx:cad>
          </gpxtpx:TrackPointExtension>
        </extensions>
      </trkpt>
      <trkpt lon="35.34347296692431" lat="31.21429114602506">
        <ele>24.799999237060547</ele>
        <time>2012-12-07T12:03:51.000Z</time>
      </trkpt>
      <trkpt lon="35.343482941389084" lat="31.214289302006364">
        <ele>24.799999237060547</ele>
        <time>2012-12-07T12:04:11.000Z</time>
      </trkpt>
      <trkpt lon="35.34347380511463" lat="31.214291313663125">
        <ele>24.799999237060547</ele>
        <time>2012-12-07T12:04:43.000Z</time>
      </trkpt>
      <trkpt lon="35.34349392168224" lat="31.214330624789">
        <ele>24.799999237060547</ele>
        <time>2012-12-07T12:04:57.000Z</time>
        <extensions>
          <gpxtpx:TrackPointExtension>
            <gpxtpx:cad>1</gpxtpx:cad>
          </gpxtpx:TrackPointExtension>
        </extensions>
      </trkpt>
      <trkpt lon="35.343524012714624" lat="31.214505052194">
        <ele>25.399999618530273</ele>
        <time>2012-12-07T12:05:08.000Z</time>
        <extensions>
          <gpxtpx:TrackPointExtension>
            <gpxtpx:cad>0</gpxtpx:cad>
          </gpxtpx:TrackPointExtension>
        </extensions>
      </trkpt>
      <trkpt lon="35.34356793388724" lat="31.21500209905207">
        <ele>26.799999237060547</ele>
        <time>2012-12-07T12:05:30.000Z</time>
        <extensions>
          <gpxtpx:TrackPointExtension>
            <gpxtpx:cad>0</gpxtpx:cad>
          </gpxtpx:TrackPointExtension>
        </extensions>
      </trkpt>
      <trkpt lon="35.34348855726421" lat="31.21536604128778">
        <ele>28.399999618530273</ele>
        <time>2012-12-07T12:05:45.000Z</time>
        <extensions>
          <gpxtpx:TrackPointExtension>
            <gpxtpx:cad>0</gpxtpx:cad>
          </gpxtpx:TrackPointExtension>
        </extensions>
      </trkpt>
      <trkpt lon="35.34338998608291" lat="31.215770971029997">
        <ele>30.399999618530273</ele>
        <time>2012-12-07T12:06:03.000Z</time>
        <extensions>
          <gpxtpx:TrackPointExtension>
            <gpxtpx:cad>0</gpxtpx:cad>
          </gpxtpx:TrackPointExtension>
        </extensions>
      </trkpt>
      <trkpt lon="35.34350775182247" lat="31.216124016791582">
        <ele>31.399999618530273</ele>
        <time>2012-12-07T12:06:21.000Z</time>
        <extensions>
          <gpxtpx:TrackPointExtension>
            <gpxtpx:cad>0</gpxtpx:cad>
          </gpxtpx:TrackPointExtension>
        </extensions>
      </trkpt>
      <trkpt lon="35.34340985119343" lat="31.216400703415275">
        <ele>33.400001525878906</ele>
        <time>2012-12-07T12:06:35.000Z</time>
        <extensions>
          <gpxtpx:TrackPointExtension>
            <gpxtpx:cad>0</gpxtpx:cad>
          </gpxtpx:TrackPointExtension>
        </extensions>
      </trkpt>
      <trkpt lon="35.343389147892594" lat="31.21682952158153">
        <ele>35.0</ele>
        <time>2012-12-07T12:06:56.000Z</time>
        <extensions>
          <gpxtpx:TrackPointExtension>
            <gpxtpx:cad>0</gpxtpx:cad>
          </gpxtpx:TrackPointExtension>
        </extensions>
      </trkpt>
      <trkpt lon="35.34332695417106" lat="31.217168318107724">
        <ele>35.599998474121094</ele>
        <time>2012-12-07T12:07:15.000Z</time>
        <extensions>
          <gpxtpx:TrackPointExtension>
            <gpxtpx:cad>0</gpxtpx:cad>
          </gpxtpx:TrackPointExtension>
        </extensions>
      </trkpt>
      <trkpt lon="35.34315881319344" lat="31.217434192076325">
        <ele>36.0</ele>
        <time>2012-12-07T12:07:30.000Z</time>
        <extensions>
          <gpxtpx:TrackPointExtension>
            <gpxtpx:cad>0</gpxtpx:cad>
          </gpxtpx:TrackPointExtension>
        </extensions>
      </trkpt>
      <trkpt lon="35.34278581850231" lat="31.21787508018315">
        <ele>35.79999923706055</ele>
        <time>2012-12-07T12:07:49.000Z</time>
        <extensions>
          <gpxtpx:TrackPointExtension>
            <gpxtpx:cad>0</gpxtpx:cad>
          </gpxtpx:TrackPointExtension>
        </extensions>
      </trkpt>
      <trkpt lon="35.34235515631735" lat="31.218310855329037">
        <ele>36.20000076293945</ele>
        <time>2012-12-07T12:08:07.000Z</time>
        <extensions>
          <gpxtpx:TrackPointExtension>
            <gpxtpx:cad>0</gpxtpx:cad>
          </gpxtpx:TrackPointExtension>
        </extensions>
      </trkpt>
      <trkpt lon="35.34204225987196" lat="31.218785857781768">
        <ele>36.79999923706055</ele>
        <time>2012-12-07T12:08:26.000Z</time>
        <extensions>
          <gpxtpx:TrackPointExtension>
            <gpxtpx:cad>0</gpxtpx:cad>
          </gpxtpx:TrackPointExtension>
        </extensions>
      </trkpt>
      <trkpt lon="35.341796753928065" lat="31.219266392290592">
        <ele>38.20000076293945</ele>
        <time>2012-12-07T12:08:42.000Z</time>
        <extensions>
          <gpxtpx:TrackPointExtension>
            <gpxtpx:cad>0</gpxtpx:cad>
          </gpxtpx:TrackPointExtension>
        </extensions>
      </trkpt>
      <trkpt lon="35.3413718752563" lat="31.219827057793736">
        <ele>39.0</ele>
        <time>2012-12-07T12:09:01.000Z</time>
        <extensions>
          <gpxtpx:TrackPointExtension>
            <gpxtpx:cad>0</gpxtpx:cad>
          </gpxtpx:TrackPointExtension>
        </extensions>
      </trkpt>
      <trkpt lon="35.34087625332177" lat="31.22043709270656">
        <ele>38.400001525878906</ele>
        <time>2012-12-07T12:09:22.000Z</time>
        <extensions>
          <gpxtpx:TrackPointExtension>
            <gpxtpx:cad>0</gpxtpx:cad>
          </gpxtpx:TrackPointExtension>
        </extensions>
      </trkpt>
      <trkpt lon="35.34054231829941" lat="31.220907820388675">
        <ele>38.79999923706055</ele>
        <time>2012-12-07T12:09:40.000Z</time>
        <extensions>
          <gpxtpx:TrackPointExtension>
            <gpxtpx:cad>0</gpxtpx:cad>
          </gpxtpx:TrackPointExtension>
        </extensions>
      </trkpt>
      <trkpt lon="35.34032036550343" lat="31.22141383588314">
        <ele>39.599998474121094</ele>
        <time>2012-12-07T12:09:58.000Z</time>
        <extensions>
          <gpxtpx:TrackPointExtension>
            <gpxtpx:cad>0</gpxtpx:cad>
          </gpxtpx:TrackPointExtension>
        </extensions>
      </trkpt>
      <trkpt lon="35.34009623341262" lat="31.22207785025239">
        <ele>38.400001525878906</ele>
        <time>2012-12-07T12:10:16.000Z</time>
      </trkpt>
      <trkpt lon="35.340001098811626" lat="31.22253566980362">
        <ele>37.79999923706055</ele>
        <time>2012-12-07T12:10:27.000Z</time>
      </trkpt>
      <trkpt lon="35.339759113267064" lat="31.222853595390916">
        <ele>37.79999923706055</ele>
        <time>2012-12-07T12:10:39.000Z</time>
      </trkpt>
      <trkpt lon="35.33979414962232" lat="31.223142771050334">
        <ele>37.20000076293945</ele>
        <time>2012-12-07T12:10:50.000Z</time>
      </trkpt>
      <trkpt lon="35.33971284516156" lat="31.223625484853983">
        <ele>38.0</ele>
        <time>2012-12-07T12:11:09.000Z</time>
      </trkpt>
      <trkpt lon="35.3395932354033" lat="31.22399135492742">
        <ele>39.400001525878906</ele>
        <time>2012-12-07T12:11:26.000Z</time>
      </trkpt>
      <trkpt lon="35.33961519598961" lat="31.224376503378153">
        <ele>40.0</ele>
        <time>2012-12-07T12:11:45.000Z</time>
        <extensions>
          <gpxtpx:TrackPointExtension>
            <gpxtpx:cad>0</gpxtpx:cad>
          </gpxtpx:TrackPointExtension>
        </extensions>
      </trkpt>
      <trkpt lon="35.339579237625" lat="31.224804650992155">
        <ele>40.599998474121094</ele>
        <time>2012-12-07T12:12:04.000Z</time>
        <extensions>
          <gpxtpx:TrackPointExtension>
            <gpxtpx:cad>0</gpxtpx:cad>
          </gpxtpx:TrackPointExtension>
        </extensions>
      </trkpt>
      <trkpt lon="35.33954210579395" lat="31.225179070606828">
        <ele>41.599998474121094</ele>
        <time>2012-12-07T12:12:21.000Z</time>
        <extensions>
          <gpxtpx:TrackPointExtension>
            <gpxtpx:cad>0</gpxtpx:cad>
          </gpxtpx:TrackPointExtension>
        </extensions>
      </trkpt>
      <trkpt lon="35.33946021459997" lat="31.225513676181436">
        <ele>43.0</ele>
        <time>2012-12-07T12:12:37.000Z</time>
        <extensions>
          <gpxtpx:TrackPointExtension>
            <gpxtpx:cad>0</gpxtpx:cad>
          </gpxtpx:TrackPointExtension>
        </extensions>
      </trkpt>
      <trkpt lon="35.33943640999496" lat="31.225827829912305">
        <ele>44.20000076293945</ele>
        <time>2012-12-07T12:12:51.000Z</time>
        <extensions>
          <gpxtpx:TrackPointExtension>
            <gpxtpx:cad>3</gpxtpx:cad>
          </gpxtpx:TrackPointExtension>
        </extensions>
      </trkpt>
      <trkpt lon="35.33942459151149" lat="31.226255474612117">
        <ele>44.400001525878906</ele>
        <time>2012-12-07T12:13:11.000Z</time>
        <extensions>
          <gpxtpx:TrackPointExtension>
            <gpxtpx:cad>0</gpxtpx:cad>
          </gpxtpx:TrackPointExtension>
        </extensions>
      </trkpt>
      <trkpt lon="35.339301796630025" lat="31.22670415788889">
        <ele>44.599998474121094</ele>
        <time>2012-12-07T12:13:32.000Z</time>
        <extensions>
          <gpxtpx:TrackPointExtension>
            <gpxtpx:cad>0</gpxtpx:cad>
          </gpxtpx:TrackPointExtension>
        </extensions>
      </trkpt>
      <trkpt lon="35.3391529340297" lat="31.22719131410122">
        <ele>44.400001525878906</ele>
        <time>2012-12-07T12:13:53.000Z</time>
        <extensions>
          <gpxtpx:TrackPointExtension>
            <gpxtpx:cad>0</gpxtpx:cad>
          </gpxtpx:TrackPointExtension>
        </extensions>
      </trkpt>
      <trkpt lon="35.338973477482796" lat="31.227639075368643">
        <ele>45.400001525878906</ele>
        <time>2012-12-07T12:14:12.000Z</time>
        <extensions>
          <gpxtpx:TrackPointExtension>
            <gpxtpx:cad>0</gpxtpx:cad>
          </gpxtpx:TrackPointExtension>
        </extensions>
      </trkpt>
      <trkpt lon="35.33875185996294" lat="31.228037802502513">
        <ele>47.400001525878906</ele>
        <time>2012-12-07T12:14:32.000Z</time>
        <extensions>
          <gpxtpx:TrackPointExtension>
            <gpxtpx:cad>0</gpxtpx:cad>
          </gpxtpx:TrackPointExtension>
        </extensions>
      </trkpt>
      <trkpt lon="35.33848171122372" lat="31.228481959551573">
        <ele>48.20000076293945</ele>
        <time>2012-12-07T12:14:54.000Z</time>
        <extensions>
          <gpxtpx:TrackPointExtension>
            <gpxtpx:cad>0</gpxtpx:cad>
          </gpxtpx:TrackPointExtension>
        </extensions>
      </trkpt>
      <trkpt lon="35.33830753527582" lat="31.22889267280698">
        <ele>47.599998474121094</ele>
        <time>2012-12-07T12:15:14.000Z</time>
        <extensions>
          <gpxtpx:TrackPointExtension>
            <gpxtpx:cad>0</gpxtpx:cad>
          </gpxtpx:TrackPointExtension>
        </extensions>
      </trkpt>
      <trkpt lon="35.33840979449451" lat="31.229041451588273">
        <ele>47.0</ele>
        <time>2012-12-07T12:15:25.000Z</time>
        <extensions>
          <gpxtpx:TrackPointExtension>
            <gpxtpx:cad>0</gpxtpx:cad>
          </gpxtpx:TrackPointExtension>
        </extensions>
      </trkpt>
      <trkpt lon="35.33853644505143" lat="31.229009432718158">
        <ele>46.599998474121094</ele>
        <time>2012-12-07T12:15:32.000Z</time>
        <extensions>
          <gpxtpx:TrackPointExtension>
            <gpxtpx:cad>0</gpxtpx:cad>
          </gpxtpx:TrackPointExtension>
        </extensions>
      </trkpt>
      <trkpt lon="35.33858682028949" lat="31.22899920679629">
        <ele>46.400001525878906</ele>
        <time>2012-12-07T12:15:48.000Z</time>
      </trkpt>
      <trkpt lon="35.33858036622405" lat="31.228992165997624">
        <ele>46.400001525878906</ele>
        <time>2012-12-07T12:16:25.000Z</time>
      </trkpt>
      <trkpt lon="35.33871715888381" lat="31.228970708325505">
        <ele>46.0</ele>
        <time>2012-12-07T12:16:40.000Z</time>
      </trkpt>
      <trkpt lon="35.33876501955092" lat="31.22897146269679">
        <ele>46.0</ele>
        <time>2012-12-07T12:16:41.000Z</time>
      </trkpt>
      <trkpt lon="35.33882947638631" lat="31.22897833585739">
        <ele>45.79999923706055</ele>
        <time>2012-12-07T12:16:42.000Z</time>
      </trkpt>
      <trkpt lon="35.33922325819731" lat="31.22902468778193">
        <ele>44.400001525878906</ele>
        <time>2012-12-07T12:16:47.000Z</time>
      </trkpt>
      <trkpt lon="35.33992541022599" lat="31.229035751894116">
        <ele>44.0</ele>
        <time>2012-12-07T12:16:58.000Z</time>
      </trkpt>
      <trkpt lon="35.3400750271976" lat="31.229072799906135">
        <ele>43.79999923706055</ele>
        <time>2012-12-07T12:17:01.000Z</time>
      </trkpt>
      <trkpt lon="35.34041281789541" lat="31.229178411886096">
        <ele>43.79999923706055</ele>
        <time>2012-12-07T12:17:07.000Z</time>
      </trkpt>
      <trkpt lon="35.3404704015702" lat="31.229189056903124">
        <ele>43.79999923706055</ele>
        <time>2012-12-07T12:17:08.000Z</time>
      </trkpt>
      <trkpt lon="35.340531254187226" lat="31.22919467277825">
        <ele>43.79999923706055</ele>
        <time>2012-12-07T12:17:09.000Z</time>
      </trkpt>
      <trkpt lon="35.340973399579525" lat="31.229203222319484">
        <ele>44.0</ele>
        <time>2012-12-07T12:17:15.000Z</time>
      </trkpt>
      <trkpt lon="35.34131621941924" lat="31.229259883984923">
        <ele>44.599998474121094</ele>
        <time>2012-12-07T12:17:19.000Z</time>
      </trkpt>
      <trkpt lon="35.34139668568969" lat="31.22928461059928">
        <ele>44.599998474121094</ele>
        <time>2012-12-07T12:17:20.000Z</time>
      </trkpt>
      <trkpt lon="35.34211467951536" lat="31.229415955021977">
        <ele>45.20000076293945</ele>
        <time>2012-12-07T12:17:31.000Z</time>
      </trkpt>
      <trkpt lon="35.342668471857905" lat="31.22957831248641">
        <ele>44.599998474121094</ele>
        <time>2012-12-07T12:17:45.000Z</time>
      </trkpt>
      <trkpt lon="35.343402810394764" lat="31.2300019338727">
        <ele>41.79999923706055</ele>
        <time>2012-12-07T12:18:01.000Z</time>
      </trkpt>
      <trkpt lon="35.34349098801613" lat="31.230075107887387">
        <ele>41.79999923706055</ele>
        <time>2012-12-07T12:18:03.000Z</time>
      </trkpt>
      <trkpt lon="35.343674970790744" lat="31.230200165882707">
        <ele>41.79999923706055</ele>
        <time>2012-12-07T12:18:07.000Z</time>
      </trkpt>
      <trkpt lon="35.343723837286234" lat="31.23022430576384">
        <ele>41.79999923706055</ele>
        <time>2012-12-07T12:18:08.000Z</time>
      </trkpt>
      <trkpt lon="35.34429053775966" lat="31.23048087581992">
        <ele>41.400001525878906</ele>
        <time>2012-12-07T12:18:18.000Z</time>
      </trkpt>
      <trkpt lon="35.344415763393044" lat="31.230545165017247">
        <ele>41.20000076293945</ele>
        <time>2012-12-07T12:18:20.000Z</time>
      </trkpt>
      <trkpt lon="35.34513937309384" lat="31.231197863817215">
        <ele>38.599998474121094</ele>
        <time>2012-12-07T12:18:36.000Z</time>
      </trkpt>
      <trkpt lon="35.345181031152606" lat="31.231236839666963">
        <ele>38.599998474121094</ele>
        <time>2012-12-07T12:18:37.000Z</time>
      </trkpt>
      <trkpt lon="35.34541865810752" lat="31.231444962322712">
        <ele>38.400001525878906</ele>
        <time>2012-12-07T12:18:43.000Z</time>
      </trkpt>
      <trkpt lon="35.34545595757663" lat="31.231496008113027">
        <ele>38.20000076293945</ele>
        <time>2012-12-07T12:18:44.000Z</time>
      </trkpt>
      <trkpt lon="35.345486886799335" lat="31.23154655098915">
        <ele>38.20000076293945</ele>
        <time>2012-12-07T12:18:45.000Z</time>
      </trkpt>
      <trkpt lon="35.34550725482404" lat="31.231588125228882">
        <ele>38.0</ele>
        <time>2012-12-07T12:18:46.000Z</time>
      </trkpt>
      <trkpt lon="35.345519157126546" lat="31.231625843793154">
        <ele>38.0</ele>
        <time>2012-12-07T12:18:47.000Z</time>
      </trkpt>
      <trkpt lon="35.34552460536361" lat="31.231664987280965">
        <ele>37.79999923706055</ele>
        <time>2012-12-07T12:18:48.000Z</time>
      </trkpt>
      <trkpt lon="35.345521587878466" lat="31.23170379549265">
        <ele>37.79999923706055</ele>
        <time>2012-12-07T12:18:49.000Z</time>
      </trkpt>
      <trkpt lon="35.345513205975294" lat="31.23174444772303">
        <ele>37.79999923706055</ele>
        <time>2012-12-07T12:18:50.000Z</time>
      </trkpt>
      <trkpt lon="35.345499208197" lat="31.23178442940116">
        <ele>37.599998474121094</ele>
        <time>2012-12-07T12:18:51.000Z</time>
      </trkpt>
      <trkpt lon="35.34548127092421" lat="31.23182399198413">
        <ele>37.599998474121094</ele>
        <time>2012-12-07T12:18:52.000Z</time>
      </trkpt>
      <trkpt lon="35.34546266309917" lat="31.23186464421451">
        <ele>37.400001525878906</ele>
        <time>2012-12-07T12:18:53.000Z</time>
      </trkpt>
      <trkpt lon="35.34539736807346" lat="31.231991965323687">
        <ele>37.20000076293945</ele>
        <time>2012-12-07T12:18:56.000Z</time>
      </trkpt>
      <trkpt lon="35.345350010320544" lat="31.23207377269864">
        <ele>36.79999923706055</ele>
        <time>2012-12-07T12:18:58.000Z</time>
      </trkpt>
      <trkpt lon="35.34507826901972" lat="31.232678778469563">
        <ele>35.20000076293945</ele>
        <time>2012-12-07T12:19:15.000Z</time>
      </trkpt>
      <trkpt lon="35.34496637061238" lat="31.2328770942986">
        <ele>35.20000076293945</ele>
        <time>2012-12-07T12:19:21.000Z</time>
      </trkpt>
      <trkpt lon="35.34489621408284" lat="31.23312679119408">
        <ele>35.20000076293945</ele>
        <time>2012-12-07T12:19:29.000Z</time>
      </trkpt>
      <trkpt lon="35.3448963817209" lat="31.23315361328423">
        <ele>35.20000076293945</ele>
        <time>2012-12-07T12:19:30.000Z</time>
      </trkpt>
      <trkpt lon="35.34488967619836" lat="31.233178339898586">
        <ele>35.20000076293945</ele>
        <time>2012-12-07T12:19:31.000Z</time>
      </trkpt>
      <trkpt lon="35.34490317106247" lat="31.233464162796736">
        <ele>35.20000076293945</ele>
        <time>2012-12-07T12:19:43.000Z</time>
      </trkpt>
      <trkpt lon="35.34484357573092" lat="31.23379901982844">
        <ele>35.20000076293945</ele>
        <time>2012-12-07T12:19:58.000Z</time>
      </trkpt>
      <trkpt lon="35.34460477530956" lat="31.234010746702552">
        <ele>35.400001525878906</ele>
        <time>2012-12-07T12:20:12.000Z</time>
      </trkpt>
      <trkpt lon="35.34436287358403" lat="31.2342188693583">
        <ele>36.79999923706055</ele>
        <time>2012-12-07T12:20:27.000Z</time>
      </trkpt>
      <trkpt lon="35.34421225078404" lat="31.234459346160293">
        <ele>39.400001525878906</ele>
        <time>2012-12-07T12:20:44.000Z</time>
      </trkpt>
      <trkpt lon="35.34413547255099" lat="31.23465363867581">
        <ele>41.20000076293945</ele>
        <time>2012-12-07T12:20:59.000Z</time>
        <extensions>
          <gpxtpx:TrackPointExtension>
            <gpxtpx:cad>0</gpxtpx:cad>
          </gpxtpx:TrackPointExtension>
        </extensions>
      </trkpt>
      <trkpt lon="35.344063974916935" lat="31.234860168769956">
        <ele>42.0</ele>
        <time>2012-12-07T12:21:16.000Z</time>
        <extensions>
          <gpxtpx:TrackPointExtension>
            <gpxtpx:cad>0</gpxtpx:cad>
          </gpxtpx:TrackPointExtension>
        </extensions>
      </trkpt>
      <trkpt lon="35.34394847229123" lat="31.235095532611012">
        <ele>41.400001525878906</ele>
        <time>2012-12-07T12:21:34.000Z</time>
        <extensions>
          <gpxtpx:TrackPointExtension>
            <gpxtpx:cad>0</gpxtpx:cad>
          </gpxtpx:TrackPointExtension>
        </extensions>
      </trkpt>
      <trkpt lon="35.3439708519727" lat="31.235385797917843">
        <ele>42.400001525878906</ele>
        <time>2012-12-07T12:21:53.000Z</time>
        <extensions>
          <gpxtpx:TrackPointExtension>
            <gpxtpx:cad>0</gpxtpx:cad>
          </gpxtpx:TrackPointExtension>
        </extensions>
      </trkpt>
      <trkpt lon="35.34402214922011" lat="31.235687378793955">
        <ele>43.400001525878906</ele>
        <time>2012-12-07T12:22:04.000Z</time>
        <extensions>
          <gpxtpx:TrackPointExtension>
            <gpxtpx:cad>0</gpxtpx:cad>
          </gpxtpx:TrackPointExtension>
        </extensions>
      </trkpt>
      <trkpt lon="35.34397194162011" lat="31.235904805362225">
        <ele>42.599998474121094</ele>
        <time>2012-12-07T12:22:09.000Z</time>
        <extensions>
          <gpxtpx:TrackPointExtension>
            <gpxtpx:cad>0</gpxtpx:cad>
          </gpxtpx:TrackPointExtension>
        </extensions>
      </trkpt>
      <trkpt lon="35.34399298019707" lat="31.236417442560196">
        <ele>37.20000076293945</ele>
        <time>2012-12-07T12:22:19.000Z</time>
        <extensions>
          <gpxtpx:TrackPointExtension>
            <gpxtpx:cad>0</gpxtpx:cad>
          </gpxtpx:TrackPointExtension>
        </extensions>
      </trkpt>
      <trkpt lon="35.34402214922011" lat="31.237045163288713">
        <ele>28.600000381469727</ele>
        <time>2012-12-07T12:22:32.000Z</time>
        <extensions>
          <gpxtpx:TrackPointExtension>
            <gpxtpx:cad>0</gpxtpx:cad>
          </gpxtpx:TrackPointExtension>
        </extensions>
      </trkpt>
      <trkpt lon="35.34406565129757" lat="31.237133676186204">
        <ele>27.200000762939453</ele>
        <time>2012-12-07T12:22:36.000Z</time>
        <extensions>
          <gpxtpx:TrackPointExtension>
            <gpxtpx:cad>0</gpxtpx:cad>
          </gpxtpx:TrackPointExtension>
        </extensions>
      </trkpt>
      <trkpt lon="35.34407654777169" lat="31.23714331537485">
        <ele>27.0</ele>
        <time>2012-12-07T12:22:37.000Z</time>
        <extensions>
          <gpxtpx:TrackPointExtension>
            <gpxtpx:cad>0</gpxtpx:cad>
          </gpxtpx:TrackPointExtension>
        </extensions>
      </trkpt>
      <trkpt lon="35.344085516408086" lat="31.237157313153148">
        <ele>26.799999237060547</ele>
        <time>2012-12-07T12:22:49.000Z</time>
      </trkpt>
      <trkpt lon="35.344086019322276" lat="31.23715261928737">
        <ele>26.799999237060547</ele>
        <time>2012-12-07T12:23:19.000Z</time>
      </trkpt>
      <trkpt lon="35.34412197768688" lat="31.237124372273684">
        <ele>27.200000762939453</ele>
        <time>2012-12-07T12:23:36.000Z</time>
      </trkpt>
      <trkpt lon="35.34413463436067" lat="31.23711531981826">
        <ele>27.399999618530273</ele>
        <time>2012-12-07T12:23:37.000Z</time>
      </trkpt>
      <trkpt lon="35.344147961586714" lat="31.237106854096055">
        <ele>27.600000381469727</ele>
        <time>2012-12-07T12:23:38.000Z</time>
      </trkpt>
      <trkpt lon="35.344299506396055" lat="31.237026806920767">
        <ele>25.399999618530273</ele>
        <time>2012-12-07T12:23:46.000Z</time>
      </trkpt>
      <trkpt lon="35.344371758401394" lat="31.236976934596896">
        <ele>24.399999618530273</ele>
        <time>2012-12-07T12:23:50.000Z</time>
      </trkpt>
      <trkpt lon="35.34438441507518" lat="31.236954890191555">
        <ele>24.399999618530273</ele>
        <time>2012-12-07T12:23:51.000Z</time>
      </trkpt>
      <trkpt lon="35.34450410865247" lat="31.236845087260008">
        <ele>23.399999618530273</ele>
        <time>2012-12-07T12:23:57.000Z</time>
      </trkpt>
      <trkpt lon="35.344616174697876" lat="31.2367953825742">
        <ele>21.600000381469727</ele>
        <time>2012-12-07T12:24:01.000Z</time>
      </trkpt>
      <trkpt lon="35.34471357241273" lat="31.236727321520448">
        <ele>20.600000381469727</ele>
        <time>2012-12-07T12:24:06.000Z</time>
      </trkpt>
      <trkpt lon="35.3447201102972" lat="31.23671919107437">
        <ele>20.600000381469727</ele>
        <time>2012-12-07T12:24:07.000Z</time>
      </trkpt>
      <trkpt lon="35.344727989286184" lat="31.236708210781217">
        <ele>20.600000381469727</ele>
        <time>2012-12-07T12:24:09.000Z</time>
      </trkpt>
      <trkpt lon="35.34474492073059" lat="31.236691614612937">
        <ele>20.399999618530273</ele>
        <time>2012-12-07T12:24:10.000Z</time>
      </trkpt>
      <trkpt lon="35.34476621076465" lat="31.236671078950167">
        <ele>20.399999618530273</ele>
        <time>2012-12-07T12:24:11.000Z</time>
      </trkpt>
      <trkpt lon="35.34478875808418" lat="31.23664970509708">
        <ele>20.200000762939453</ele>
        <time>2012-12-07T12:24:12.000Z</time>
      </trkpt>
      <trkpt lon="35.34480828791857" lat="31.236627660691738">
        <ele>19.799999237060547</ele>
        <time>2012-12-07T12:24:13.000Z</time>
      </trkpt>
      <trkpt lon="35.34482806921005" lat="31.23660779558122">
        <ele>19.600000381469727</ele>
        <time>2012-12-07T12:24:14.000Z</time>
      </trkpt>
      <trkpt lon="35.34485086798668" lat="31.236587427556515">
        <ele>19.200000762939453</ele>
        <time>2012-12-07T12:24:15.000Z</time>
      </trkpt>
      <trkpt lon="35.34487425349653" lat="31.23656806536019">
        <ele>18.799999237060547</ele>
        <time>2012-12-07T12:24:16.000Z</time>
      </trkpt>
      <trkpt lon="35.344893196597695" lat="31.236553145572543">
        <ele>18.399999618530273</ele>
        <time>2012-12-07T12:24:17.000Z</time>
      </trkpt>
      <trkpt lon="35.34491105005145" lat="31.236537219956517">
        <ele>18.200000762939453</ele>
        <time>2012-12-07T12:24:18.000Z</time>
      </trkpt>
      <trkpt lon="35.345034431666136" lat="31.236381316557527">
        <ele>16.799999237060547</ele>
        <time>2012-12-07T12:24:23.000Z</time>
      </trkpt>
      <trkpt lon="35.345094865188" lat="31.236302694305778">
        <ele>16.799999237060547</ele>
        <time>2012-12-07T12:24:25.000Z</time>
      </trkpt>
      <trkpt lon="35.34513836726546" lat="31.23622415587306">
        <ele>16.600000381469727</ele>
        <time>2012-12-07T12:24:27.000Z</time>
      </trkpt>
      <trkpt lon="35.34519645385444" lat="31.236150646582246">
        <ele>16.200000762939453</ele>
        <time>2012-12-07T12:24:29.000Z</time>
      </trkpt>
      <trkpt lon="35.34531505778432" lat="31.236039251089096">
        <ele>14.800000190734863</ele>
        <time>2012-12-07T12:24:32.000Z</time>
      </trkpt>
      <trkpt lon="35.34536451101303" lat="31.236005639657378">
        <ele>14.0</ele>
        <time>2012-12-07T12:24:33.000Z</time>
      </trkpt>
      <trkpt lon="35.34541664645076" lat="31.235975800082088">
        <ele>13.199999809265137</ele>
        <time>2012-12-07T12:24:34.000Z</time>
      </trkpt>
      <trkpt lon="35.34560917876661" lat="31.235883682966232">
        <ele>9.600000381469727</ele>
        <time>2012-12-07T12:24:38.000Z</time>
      </trkpt>
      <trkpt lon="35.34581805579364" lat="31.23578385449946">
        <ele>4.599999904632568</ele>
        <time>2012-12-07T12:24:44.000Z</time>
        <extensions>
          <gpxtpx:TrackPointExtension>
            <gpxtpx:cad>0</gpxtpx:cad>
          </gpxtpx:TrackPointExtension>
        </extensions>
      </trkpt>
      <trkpt lon="35.34598192200065" lat="31.235726857557893">
        <ele>1.399999976158142</ele>
        <time>2012-12-07T12:24:48.000Z</time>
        <extensions>
          <gpxtpx:TrackPointExtension>
            <gpxtpx:cad>0</gpxtpx:cad>
          </gpxtpx:TrackPointExtension>
        </extensions>
      </trkpt>
      <trkpt lon="35.34605769440532" lat="31.235719984397292">
        <ele>0.20000000298023224</ele>
        <time>2012-12-07T12:24:51.000Z</time>
        <extensions>
          <gpxtpx:TrackPointExtension>
            <gpxtpx:cad>0</gpxtpx:cad>
          </gpxtpx:TrackPointExtension>
        </extensions>
      </trkpt>
      <trkpt lon="35.34607345238328" lat="31.235709842294455">
        <ele>-0.20000000298023224</ele>
        <time>2012-12-07T12:24:52.000Z</time>
        <extensions>
          <gpxtpx:TrackPointExtension>
            <gpxtpx:cad>0</gpxtpx:cad>
          </gpxtpx:TrackPointExtension>
        </extensions>
      </trkpt>
      <trkpt lon="35.34608510322869" lat="31.235697772353888">
        <ele>-0.6000000238418579</ele>
        <time>2012-12-07T12:24:53.000Z</time>
        <extensions>
          <gpxtpx:TrackPointExtension>
            <gpxtpx:cad>0</gpxtpx:cad>
          </gpxtpx:TrackPointExtension>
        </extensions>
      </trkpt>
      <trkpt lon="35.34609499387443" lat="31.2356832716614">
        <ele>-1.0</ele>
        <time>2012-12-07T12:24:54.000Z</time>
        <extensions>
          <gpxtpx:TrackPointExtension>
            <gpxtpx:cad>0</gpxtpx:cad>
          </gpxtpx:TrackPointExtension>
        </extensions>
      </trkpt>
      <trkpt lon="35.34610605798662" lat="31.235663406550884">
        <ele>-1.399999976158142</ele>
        <time>2012-12-07T12:24:55.000Z</time>
        <extensions>
          <gpxtpx:TrackPointExtension>
            <gpxtpx:cad>0</gpxtpx:cad>
          </gpxtpx:TrackPointExtension>
        </extensions>
      </trkpt>
      <trkpt lon="35.34612131305039" lat="31.23564463108778">
        <ele>-2.0</ele>
        <time>2012-12-07T12:24:56.000Z</time>
        <extensions>
          <gpxtpx:TrackPointExtension>
            <gpxtpx:cad>0</gpxtpx:cad>
          </gpxtpx:TrackPointExtension>
        </extensions>
      </trkpt>
      <trkpt lon="35.346138244494796" lat="31.235626190900803">
        <ele>-2.5999999046325684</ele>
        <time>2012-12-07T12:24:57.000Z</time>
        <extensions>
          <gpxtpx:TrackPointExtension>
            <gpxtpx:cad>0</gpxtpx:cad>
          </gpxtpx:TrackPointExtension>
        </extensions>
      </trkpt>
      <trkpt lon="35.3461570199579" lat="31.235607666894794">
        <ele>-3.200000047683716</ele>
        <time>2012-12-07T12:24:58.000Z</time>
        <extensions>
          <gpxtpx:TrackPointExtension>
            <gpxtpx:cad>0</gpxtpx:cad>
          </gpxtpx:TrackPointExtension>
        </extensions>
      </trkpt>
      <trkpt lon="35.346174370497465" lat="31.235586628317833">
        <ele>-3.799999952316284</ele>
        <time>2012-12-07T12:24:59.000Z</time>
        <extensions>
          <gpxtpx:TrackPointExtension>
            <gpxtpx:cad>0</gpxtpx:cad>
          </gpxtpx:TrackPointExtension>
        </extensions>
      </trkpt>
      <trkpt lon="35.34618535079062" lat="31.235569780692458">
        <ele>-4.400000095367432</ele>
        <time>2012-12-07T12:25:00.000Z</time>
        <extensions>
          <gpxtpx:TrackPointExtension>
            <gpxtpx:cad>0</gpxtpx:cad>
          </gpxtpx:TrackPointExtension>
        </extensions>
      </trkpt>
      <trkpt lon="35.346186356619" lat="31.235556537285447">
        <ele>-4.599999904632568</ele>
        <time>2012-12-07T12:25:03.000Z</time>
      </trkpt>
      <trkpt lon="35.346187110990286" lat="31.23554647900164">
        <ele>-4.800000190734863</ele>
        <time>2012-12-07T12:25:04.000Z</time>
      </trkpt>
      <trkpt lon="35.346188032999635" lat="31.235533570870757">
        <ele>-5.0</ele>
        <time>2012-12-07T12:25:05.000Z</time>
      </trkpt>
      <trkpt lon="35.34619272686541" lat="31.23551865108311">
        <ele>-5.400000095367432</ele>
        <time>2012-12-07T12:25:06.000Z</time>
      </trkpt>
      <trkpt lon="35.34619993530214" lat="31.235505072399974">
        <ele>-5.800000190734863</ele>
        <time>2012-12-07T12:25:07.000Z</time>
      </trkpt>
      <trkpt lon="35.34621175378561" lat="31.235489565879107">
        <ele>-6.199999809265137</ele>
        <time>2012-12-07T12:25:08.000Z</time>
      </trkpt>
      <trkpt lon="35.34628660418093" lat="31.23539795167744">
        <ele>-9.399999618530273</ele>
        <time>2012-12-07T12:25:13.000Z</time>
      </trkpt>
      <trkpt lon="35.34634963609278" lat="31.235294938087463">
        <ele>-13.0</ele>
        <time>2012-12-07T12:25:17.000Z</time>
        <extensions>
          <gpxtpx:TrackPointExtension>
            <gpxtpx:cad>3</gpxtpx:cad>
          </gpxtpx:TrackPointExtension>
        </extensions>
      </trkpt>
      <trkpt lon="35.34637344069779" lat="31.235205000266433">
        <ele>-15.399999618530273</ele>
        <time>2012-12-07T12:25:27.000Z</time>
        <extensions>
          <gpxtpx:TrackPointExtension>
            <gpxtpx:cad>0</gpxtpx:cad>
          </gpxtpx:TrackPointExtension>
        </extensions>
      </trkpt>
      <trkpt lon="35.34637897275388" lat="31.23517750762403">
        <ele>-16.0</ele>
        <time>2012-12-07T12:25:33.000Z</time>
      </trkpt>
      <trkpt lon="35.346405040472746" lat="31.235059909522533">
        <ele>-19.200000762939453</ele>
        <time>2012-12-07T12:25:38.000Z</time>
      </trkpt>
      <trkpt lon="35.34642565995455" lat="31.234905933961272">
        <ele>-22.200000762939453</ele>
        <time>2012-12-07T12:25:43.000Z</time>
      </trkpt>
      <trkpt lon="35.34640512429178" lat="31.23478070832789">
        <ele>-23.0</ele>
        <time>2012-12-07T12:25:47.000Z</time>
      </trkpt>
      <trkpt lon="35.34639850258827" lat="31.23465372249484">
        <ele>-24.200000762939453</ele>
        <time>2012-12-07T12:25:51.000Z</time>
      </trkpt>
      <trkpt lon="35.34642389975488" lat="31.234545512124896">
        <ele>-26.399999618530273</ele>
        <time>2012-12-07T12:25:55.000Z</time>
      </trkpt>
      <trkpt lon="35.34645005129278" lat="31.234406204894185">
        <ele>-29.399999618530273</ele>
        <time>2012-12-07T12:26:01.000Z</time>
      </trkpt>
      <trkpt lon="35.34649891778827" lat="31.23426270671189">
        <ele>-33.599998474121094</ele>
        <time>2012-12-07T12:26:06.000Z</time>
      </trkpt>
      <trkpt lon="35.34658248536289" lat="31.234151562675834">
        <ele>-39.20000076293945</ele>
        <time>2012-12-07T12:26:10.000Z</time>
      </trkpt>
      <trkpt lon="35.34671349450946" lat="31.234026085585356">
        <ele>-42.20000076293945</ele>
        <time>2012-12-07T12:26:15.000Z</time>
      </trkpt>
      <trkpt lon="35.346751883625984" lat="31.23388367705047">
        <ele>-40.400001525878906</ele>
        <time>2012-12-07T12:26:19.000Z</time>
      </trkpt>
      <trkpt lon="35.34682455472648" lat="31.233663987368345">
        <ele>-38.79999923706055</ele>
        <time>2012-12-07T12:26:23.000Z</time>
      </trkpt>
      <trkpt lon="35.34684810787439" lat="31.23360757716">
        <ele>-38.79999923706055</ele>
        <time>2012-12-07T12:26:24.000Z</time>
      </trkpt>
      <trkpt lon="35.34709512256086" lat="31.23334907926619">
        <ele>-44.599998474121094</ele>
        <time>2012-12-07T12:26:35.000Z</time>
        <extensions>
          <gpxtpx:TrackPointExtension>
            <gpxtpx:cad>0</gpxtpx:cad>
          </gpxtpx:TrackPointExtension>
        </extensions>
      </trkpt>
      <trkpt lon="35.34710149280727" lat="31.23334421776235">
        <ele>-44.79999923706055</ele>
        <time>2012-12-07T12:26:47.000Z</time>
      </trkpt>
      <trkpt lon="35.34710057079792" lat="31.233340948820114">
        <ele>-44.79999923706055</ele>
        <time>2012-12-07T12:26:53.000Z</time>
      </trkpt>
      <trkpt lon="35.347276758402586" lat="31.2331413757056">
        <ele>-47.599998474121094</ele>
        <time>2012-12-07T12:27:02.000Z</time>
      </trkpt>
      <trkpt lon="35.34729695878923" lat="31.23310432769358">
        <ele>-47.79999923706055</ele>
        <time>2012-12-07T12:27:03.000Z</time>
      </trkpt>
      <trkpt lon="35.34749778918922" lat="31.232952950522304">
        <ele>-56.79999923706055</ele>
        <time>2012-12-07T12:27:08.000Z</time>
      </trkpt>
      <trkpt lon="35.34777346998453" lat="31.23284474015236">
        <ele>-60.599998474121094</ele>
        <time>2012-12-07T12:27:15.000Z</time>
      </trkpt>
      <trkpt lon="35.3477942571044" lat="31.232795538380742">
        <ele>-60.79999923706055</ele>
        <time>2012-12-07T12:27:16.000Z</time>
      </trkpt>
      <trkpt lon="35.34782283939421" lat="31.23269034549594">
        <ele>-61.0</ele>
        <time>2012-12-07T12:27:18.000Z</time>
      </trkpt>
      <trkpt lon="35.34791621379554" lat="31.232426147907972">
        <ele>-61.599998474121094</ele>
        <time>2012-12-07T12:27:23.000Z</time>
      </trkpt>
      <trkpt lon="35.34807790070772" lat="31.232297904789448">
        <ele>-64.19999694824219</ele>
        <time>2012-12-07T12:27:27.000Z</time>
      </trkpt>
      <trkpt lon="35.34833237528801" lat="31.232183072715998">
        <ele>-70.5999984741211</ele>
        <time>2012-12-07T12:27:40.000Z</time>
      </trkpt>
      <trkpt lon="35.3483344707638" lat="31.232097996398807">
        <ele>-70.19999694824219</ele>
        <time>2012-12-07T12:27:44.000Z</time>
      </trkpt>
      <trkpt lon="35.34831393510103" lat="31.232035886496305">
        <ele>-69.19999694824219</ele>
        <time>2012-12-07T12:27:46.000Z</time>
      </trkpt>
      <trkpt lon="35.34840311855078" lat="31.231814855709672">
        <ele>-70.0</ele>
        <time>2012-12-07T12:27:54.000Z</time>
      </trkpt>
      <trkpt lon="35.348430862650275" lat="31.231807814911008">
        <ele>-70.4000015258789</ele>
        <time>2012-12-07T12:27:55.000Z</time>
      </trkpt>
      <trkpt lon="35.34866354428232" lat="31.23158460482955">
        <ele>-73.19999694824219</ele>
        <time>2012-12-07T12:28:09.000Z</time>
        <extensions>
          <gpxtpx:TrackPointExtension>
            <gpxtpx:cad>0</gpxtpx:cad>
          </gpxtpx:TrackPointExtension>
        </extensions>
      </trkpt>
      <trkpt lon="35.34889446571469" lat="31.231479747220874">
        <ele>-77.5999984741211</ele>
        <time>2012-12-07T12:28:23.000Z</time>
      </trkpt>
      <trkpt lon="35.34889287315309" lat="31.231477316468954">
        <ele>-77.5999984741211</ele>
        <time>2012-12-07T12:29:02.000Z</time>
      </trkpt>
      <trkpt lon="35.348897986114025" lat="31.231473376974463">
        <ele>-77.5999984741211</ele>
        <time>2012-12-07T12:29:44.000Z</time>
      </trkpt>
      <trkpt lon="35.34890050068498" lat="31.231473041698337">
        <ele>-77.5999984741211</ele>
        <time>2012-12-07T12:30:16.000Z</time>
      </trkpt>
      <trkpt lon="35.34890066832304" lat="31.2314697727561">
        <ele>-77.5999984741211</ele>
        <time>2012-12-07T12:30:40.000Z</time>
      </trkpt>
      <trkpt lon="35.34890402108431" lat="31.231469018384814">
        <ele>-77.80000305175781</ele>
        <time>2012-12-07T12:30:45.000Z</time>
      </trkpt>
      <trkpt lon="35.34900711849332" lat="31.231433227658272">
        <ele>-80.19999694824219</ele>
        <time>2012-12-07T12:30:52.000Z</time>
      </trkpt>
      <trkpt lon="35.349105186760426" lat="31.231304481625557">
        <ele>-82.80000305175781</ele>
        <time>2012-12-07T12:31:00.000Z</time>
      </trkpt>
      <trkpt lon="35.349114406853914" lat="31.231255447492003">
        <ele>-83.0</ele>
        <time>2012-12-07T12:31:02.000Z</time>
      </trkpt>
      <trkpt lon="35.34915556199849" lat="31.231089234352112">
        <ele>-84.80000305175781</ele>
        <time>2012-12-07T12:31:08.000Z</time>
      </trkpt>
      <trkpt lon="35.3491878323257" lat="31.230950681492686">
        <ele>-86.5999984741211</ele>
        <time>2012-12-07T12:31:11.000Z</time>
      </trkpt>
      <trkpt lon="35.34922613762319" lat="31.230838196352124">
        <ele>-88.80000305175781</ele>
        <time>2012-12-07T12:31:14.000Z</time>
      </trkpt>
      <trkpt lon="35.3492393810302" lat="31.2306288164109">
        <ele>-90.5999984741211</ele>
        <time>2012-12-07T12:31:24.000Z</time>
      </trkpt>
      <trkpt lon="35.34922328777611" lat="31.230489257723093">
        <ele>-90.5999984741211</ele>
        <time>2012-12-07T12:31:32.000Z</time>
      </trkpt>
      <trkpt lon="35.349224377423525" lat="31.230452209711075">
        <ele>-90.80000305175781</ele>
        <time>2012-12-07T12:31:34.000Z</time>
      </trkpt>
      <trkpt lon="35.34923535771668" lat="31.230401918292046">
        <ele>-91.5999984741211</ele>
        <time>2012-12-07T12:31:37.000Z</time>
      </trkpt>
      <trkpt lon="35.34927609376609" lat="31.230289600789547">
        <ele>-94.4000015258789</ele>
        <time>2012-12-07T12:31:45.000Z</time>
        <extensions>
          <gpxtpx:TrackPointExtension>
            <gpxtpx:cad>0</gpxtpx:cad>
          </gpxtpx:TrackPointExtension>
        </extensions>
      </trkpt>
      <trkpt lon="35.34929679706693" lat="31.23025607317686">
        <ele>-95.80000305175781</ele>
        <time>2012-12-07T12:31:55.000Z</time>
      </trkpt>
      <trkpt lon="35.34937709569931" lat="31.23021500185132">
        <ele>-100.19999694824219</ele>
        <time>2012-12-07T12:32:09.000Z</time>
        <extensions>
          <gpxtpx:TrackPointExtension>
            <gpxtpx:cad>0</gpxtpx:cad>
          </gpxtpx:TrackPointExtension>
        </extensions>
      </trkpt>
      <trkpt lon="35.349404755979776" lat="31.23019455000758">
        <ele>-101.80000305175781</ele>
        <time>2012-12-07T12:32:20.000Z</time>
      </trkpt>
      <trkpt lon="35.34948103129864" lat="31.23008935712278">
        <ele>-106.80000305175781</ele>
        <time>2012-12-07T12:32:30.000Z</time>
        <extensions>
          <gpxtpx:TrackPointExtension>
            <gpxtpx:cad>0</gpxtpx:cad>
          </gpxtpx:TrackPointExtension>
        </extensions>
      </trkpt>
      <trkpt lon="35.34950517117977" lat="31.230032360181212">
        <ele>-108.5999984741211</ele>
        <time>2012-12-07T12:32:40.000Z</time>
      </trkpt>
      <trkpt lon="35.34954749979079" lat="31.22997988946736">
        <ele>-111.19999694824219</ele>
        <time>2012-12-07T12:32:43.000Z</time>
      </trkpt>
      <trkpt lon="35.34960072487593" lat="31.229849299415946">
        <ele>-115.19999694824219</ele>
        <time>2012-12-07T12:32:48.000Z</time>
      </trkpt>
      <trkpt lon="35.349620673805475" lat="31.229689372703433">
        <ele>-117.5999984741211</ele>
        <time>2012-12-07T12:32:54.000Z</time>
      </trkpt>
      <trkpt lon="35.349610950797796" lat="31.229644361883402">
        <ele>-117.4000015258789</ele>
        <time>2012-12-07T12:32:56.000Z</time>
      </trkpt>
      <trkpt lon="35.349580524489284" lat="31.22956029139459">
        <ele>-116.4000015258789</ele>
        <time>2012-12-07T12:33:00.000Z</time>
      </trkpt>
      <trkpt lon="35.34960533492267" lat="31.229503881186247">
        <ele>-118.19999694824219</ele>
        <time>2012-12-07T12:33:03.000Z</time>
      </trkpt>
      <trkpt lon="35.34962737932801" lat="31.229458702728152">
        <ele>-119.5999984741211</ele>
        <time>2012-12-07T12:33:06.000Z</time>
      </trkpt>
      <trkpt lon="35.34969510510564" lat="31.229340182617307">
        <ele>-123.80000305175781</ele>
        <time>2012-12-07T12:33:12.000Z</time>
      </trkpt>
      <trkpt lon="35.34976735711098" lat="31.22921529226005">
        <ele>-128.39999389648438</ele>
        <time>2012-12-07T12:33:17.000Z</time>
      </trkpt>
      <trkpt lon="35.349824354052544" lat="31.229082439094782">
        <ele>-131.1999969482422</ele>
        <time>2012-12-07T12:33:23.000Z</time>
      </trkpt>
      <trkpt lon="35.34984966740012" lat="31.2289968598634">
        <ele>-132.1999969482422</ele>
        <time>2012-12-07T12:33:26.000Z</time>
      </trkpt>
      <trkpt lon="35.349920243024826" lat="31.228699386119843">
        <ele>-134.60000610351562</ele>
        <time>2012-12-07T12:33:38.000Z</time>
      </trkpt>
      <trkpt lon="35.34996290691197" lat="31.228532334789634">
        <ele>-136.0</ele>
        <time>2012-12-07T12:33:44.000Z</time>
      </trkpt>
      <trkpt lon="35.350048653781414" lat="31.228304095566273">
        <ele>-139.60000610351562</ele>
        <time>2012-12-07T12:33:49.000Z</time>
      </trkpt>
      <trkpt lon="35.35010062158108" lat="31.228189850226045">
        <ele>-142.60000610351562</ele>
        <time>2012-12-07T12:33:52.000Z</time>
      </trkpt>
      <trkpt lon="35.35008653998375" lat="31.22802103869617">
        <ele>-142.39999389648438</ele>
        <time>2012-12-07T12:33:56.000Z</time>
      </trkpt>
      <trkpt lon="35.35011034458876" lat="31.227810652926564">
        <ele>-144.39999389648438</ele>
        <time>2012-12-07T12:34:01.000Z</time>
      </trkpt>
      <trkpt lon="35.35027027130127" lat="31.227554585784674">
        <ele>-154.39999389648438</ele>
        <time>2012-12-07T12:34:08.000Z</time>
      </trkpt>
      <trkpt lon="35.350324334576726" lat="31.22715124860406">
        <ele>-157.0</ele>
        <time>2012-12-07T12:34:19.000Z</time>
        <extensions>
          <gpxtpx:TrackPointExtension>
            <gpxtpx:cad>0</gpxtpx:cad>
          </gpxtpx:TrackPointExtension>
        </extensions>
      </trkpt>
      <trkpt lon="35.350299859419465" lat="31.22707011178136">
        <ele>-155.60000610351562</ele>
        <time>2012-12-07T12:34:22.000Z</time>
        <extensions>
          <gpxtpx:TrackPointExtension>
            <gpxtpx:cad>0</gpxtpx:cad>
          </gpxtpx:TrackPointExtension>
        </extensions>
      </trkpt>
      <trkpt lon="35.35026230849326" lat="31.226915968582034">
        <ele>-153.60000610351562</ele>
        <time>2012-12-07T12:34:29.000Z</time>
        <extensions>
          <gpxtpx:TrackPointExtension>
            <gpxtpx:cad>0</gpxtpx:cad>
          </gpxtpx:TrackPointExtension>
        </extensions>
      </trkpt>
      <trkpt lon="35.35038124769926" lat="31.226353207603097">
        <ele>-157.39999389648438</ele>
        <time>2012-12-07T12:34:45.000Z</time>
        <extensions>
          <gpxtpx:TrackPointExtension>
            <gpxtpx:cad>0</gpxtpx:cad>
          </gpxtpx:TrackPointExtension>
        </extensions>
      </trkpt>
      <trkpt lon="35.35040312446654" lat="31.22620426118374">
        <ele>-157.8000030517578</ele>
        <time>2012-12-07T12:34:49.000Z</time>
        <extensions>
          <gpxtpx:TrackPointExtension>
            <gpxtpx:cad>0</gpxtpx:cad>
          </gpxtpx:TrackPointExtension>
        </extensions>
      </trkpt>
      <trkpt lon="35.35048384219408" lat="31.22592682018876">
        <ele>-160.39999389648438</ele>
        <time>2012-12-07T12:34:55.000Z</time>
        <extensions>
          <gpxtpx:TrackPointExtension>
            <gpxtpx:cad>0</gpxtpx:cad>
          </gpxtpx:TrackPointExtension>
        </extensions>
      </trkpt>
      <trkpt lon="35.350516280159354" lat="31.225785920396447">
        <ele>-160.8000030517578</ele>
        <time>2012-12-07T12:34:58.000Z</time>
        <extensions>
          <gpxtpx:TrackPointExtension>
            <gpxtpx:cad>0</gpxtpx:cad>
          </gpxtpx:TrackPointExtension>
        </extensions>
      </trkpt>
      <trkpt lon="35.35051301121712" lat="31.225696485489607">
        <ele>-159.39999389648438</ele>
        <time>2012-12-07T12:35:00.000Z</time>
        <extensions>
          <gpxtpx:TrackPointExtension>
            <gpxtpx:cad>0</gpxtpx:cad>
          </gpxtpx:TrackPointExtension>
        </extensions>
      </trkpt>
      <trkpt lon="35.350663885474205" lat="31.225389121100307">
        <ele>-161.60000610351562</ele>
        <time>2012-12-07T12:35:09.000Z</time>
        <extensions>
          <gpxtpx:TrackPointExtension>
            <gpxtpx:cad>0</gpxtpx:cad>
          </gpxtpx:TrackPointExtension>
        </extensions>
      </trkpt>
      <trkpt lon="35.35086873918772" lat="31.22508737258613">
        <ele>-167.0</ele>
        <time>2012-12-07T12:35:23.000Z</time>
        <extensions>
          <gpxtpx:TrackPointExtension>
            <gpxtpx:cad>0</gpxtpx:cad>
          </gpxtpx:TrackPointExtension>
        </extensions>
      </trkpt>
      <trkpt lon="35.35100921988487" lat="31.22476735152304">
        <ele>-174.8000030517578</ele>
        <time>2012-12-07T12:35:35.000Z</time>
        <extensions>
          <gpxtpx:TrackPointExtension>
            <gpxtpx:cad>0</gpxtpx:cad>
          </gpxtpx:TrackPointExtension>
        </extensions>
      </trkpt>
      <trkpt lon="35.3512117266655" lat="31.224574316293">
        <ele>-188.8000030517578</ele>
        <time>2012-12-07T12:35:44.000Z</time>
        <extensions>
          <gpxtpx:TrackPointExtension>
            <gpxtpx:cad>0</gpxtpx:cad>
          </gpxtpx:TrackPointExtension>
        </extensions>
      </trkpt>
      <trkpt lon="35.35127643495798" lat="31.224343981593847">
        <ele>-192.1999969482422</ele>
        <time>2012-12-07T12:35:55.000Z</time>
      </trkpt>
      <trkpt lon="35.351263443008065" lat="31.22433635406196">
        <ele>-191.1999969482422</ele>
        <time>2012-12-07T12:36:11.000Z</time>
      </trkpt>
      <trkpt lon="35.35127484239638" lat="31.224313722923398">
        <ele>-192.0</ele>
        <time>2012-12-07T12:36:35.000Z</time>
      </trkpt>
      <trkpt lon="35.35126998089254" lat="31.224219677969813">
        <ele>-191.0</ele>
        <time>2012-12-07T12:36:42.000Z</time>
      </trkpt>
      <trkpt lon="35.35124475136399" lat="31.22415211983025">
        <ele>-188.60000610351562</ele>
        <time>2012-12-07T12:36:47.000Z</time>
      </trkpt>
      <trkpt lon="35.351170571520925" lat="31.224067294970155">
        <ele>-182.0</ele>
        <time>2012-12-07T12:36:51.000Z</time>
      </trkpt>
      <trkpt lon="35.35107652656734" lat="31.22392195276916">
        <ele>-173.8000030517578</ele>
        <time>2012-12-07T12:36:55.000Z</time>
      </trkpt>
      <trkpt lon="35.3510769456625" lat="31.223657922819257">
        <ele>-171.60000610351562</ele>
        <time>2012-12-07T12:37:01.000Z</time>
      </trkpt>
      <trkpt lon="35.35133795812726" lat="31.223493050783873">
        <ele>-186.0</ele>
        <time>2012-12-07T12:37:10.000Z</time>
      </trkpt>
      <trkpt lon="35.35141129978001" lat="31.223412919789553">
        <ele>-189.0</ele>
        <time>2012-12-07T12:37:15.000Z</time>
      </trkpt>
      <trkpt lon="35.35144088789821" lat="31.223305463790894">
        <ele>-189.1999969482422</ele>
        <time>2012-12-07T12:37:21.000Z</time>
      </trkpt>
      <trkpt lon="35.35147776827216" lat="31.22319239191711">
        <ele>-190.1999969482422</ele>
        <time>2012-12-07T12:37:27.000Z</time>
      </trkpt>
      <trkpt lon="35.351512636989355" lat="31.223087115213275">
        <ele>-191.1999969482422</ele>
        <time>2012-12-07T12:37:32.000Z</time>
      </trkpt>
      <trkpt lon="35.35157206468284" lat="31.2230115942657">
        <ele>-193.8000030517578</ele>
        <time>2012-12-07T12:37:36.000Z</time>
      </trkpt>
      <trkpt lon="35.351592265069485" lat="31.222953591495752">
        <ele>-194.1999969482422</ele>
        <time>2012-12-07T12:37:48.000Z</time>
      </trkpt>
      <trkpt lon="35.35161162726581" lat="31.222956106066704">
        <ele>-195.39999389648438</ele>
        <time>2012-12-07T12:38:19.000Z</time>
      </trkpt>
      <trkpt lon="35.35159628838301" lat="31.222940180450678">
        <ele>-194.39999389648438</ele>
        <time>2012-12-07T12:38:54.000Z</time>
      </trkpt>
      <trkpt lon="35.35161657258868" lat="31.22288167476654">
        <ele>-195.0</ele>
        <time>2012-12-07T12:39:07.000Z</time>
      </trkpt>
      <trkpt lon="35.35161850042641" lat="31.222872706130147">
        <ele>-195.0</ele>
        <time>2012-12-07T12:39:17.000Z</time>
      </trkpt>
      <trkpt lon="35.3516900818795" lat="31.22276340611279">
        <ele>-197.60000610351562</ele>
        <time>2012-12-07T12:39:24.000Z</time>
      </trkpt>
      <trkpt lon="35.351807344704866" lat="31.222691824659705">
        <ele>-202.1999969482422</ele>
        <time>2012-12-07T12:39:30.000Z</time>
      </trkpt>
      <trkpt lon="35.35193458199501" lat="31.222599120810628">
        <ele>-206.39999389648438</ele>
        <time>2012-12-07T12:39:36.000Z</time>
      </trkpt>
      <trkpt lon="35.351958805695176" lat="31.222574980929494">
        <ele>-207.0</ele>
        <time>2012-12-07T12:39:38.000Z</time>
      </trkpt>
      <trkpt lon="35.35208738408983" lat="31.22244330123067">
        <ele>-210.60000610351562</ele>
        <time>2012-12-07T12:39:44.000Z</time>
      </trkpt>
      <trkpt lon="35.35220322199166" lat="31.22230600565672">
        <ele>-213.8000030517578</ele>
        <time>2012-12-07T12:39:49.000Z</time>
      </trkpt>
      <trkpt lon="35.35222199745476" lat="31.22227666899562">
        <ele>-214.1999969482422</ele>
        <time>2012-12-07T12:39:50.000Z</time>
      </trkpt>
      <trkpt lon="35.35239349119365" lat="31.222152281552553">
        <ele>-219.8000030517578</ele>
        <time>2012-12-07T12:39:56.000Z</time>
      </trkpt>
      <trkpt lon="35.35255174152553" lat="31.222000401467085">
        <ele>-224.39999389648438</ele>
        <time>2012-12-07T12:40:03.000Z</time>
      </trkpt>
      <trkpt lon="35.352579820901155" lat="31.221973914653063">
        <ele>-225.0</ele>
        <time>2012-12-07T12:40:04.000Z</time>
      </trkpt>
      <trkpt lon="35.352698508650064" lat="31.221863944083452">
        <ele>-227.60000610351562</ele>
        <time>2012-12-07T12:40:08.000Z</time>
      </trkpt>
      <trkpt lon="35.35281443037093" lat="31.22172606177628">
        <ele>-229.39999389648438</ele>
        <time>2012-12-07T12:40:12.000Z</time>
      </trkpt>
      <trkpt lon="35.35297687165439" lat="31.221482902765274">
        <ele>-232.1999969482422</ele>
        <time>2012-12-07T12:40:21.000Z</time>
      </trkpt>
      <trkpt lon="35.3529834933579" lat="31.22145004570484">
        <ele>-232.1999969482422</ele>
        <time>2012-12-07T12:40:22.000Z</time>
      </trkpt>
      <trkpt lon="35.353075694292784" lat="31.22113681398332">
        <ele>-233.0</ele>
        <time>2012-12-07T12:40:31.000Z</time>
      </trkpt>
      <trkpt lon="35.35318122245371" lat="31.22115584090352">
        <ele>-236.60000610351562</ele>
        <time>2012-12-07T12:40:38.000Z</time>
      </trkpt>
      <trkpt lon="35.35326504148543" lat="31.221348624676466">
        <ele>-240.39999389648438</ele>
        <time>2012-12-07T12:40:46.000Z</time>
      </trkpt>
      <trkpt lon="35.35327820107341" lat="31.221444848924875">
        <ele>-241.39999389648438</ele>
        <time>2012-12-07T12:40:50.000Z</time>
      </trkpt>
      <trkpt lon="35.3532839845866" lat="31.22146320529282">
        <ele>-241.60000610351562</ele>
        <time>2012-12-07T12:40:51.000Z</time>
      </trkpt>
      <trkpt lon="35.353365456685424" lat="31.221490111202">
        <ele>-244.8000030517578</ele>
        <time>2012-12-07T12:40:56.000Z</time>
      </trkpt>
      <trkpt lon="35.35339848138392" lat="31.221474604681134">
        <ele>-246.39999389648438</ele>
        <time>2012-12-07T12:40:58.000Z</time>
      </trkpt>
      <trkpt lon="35.3533944580704" lat="31.221451302990317">
        <ele>-246.0</ele>
        <time>2012-12-07T12:41:12.000Z</time>
      </trkpt>
      <trkpt lon="35.35339571535587" lat="31.221446860581636">
        <ele>-246.1999969482422</ele>
        <time>2012-12-07T12:41:40.000Z</time>
      </trkpt>
      <trkpt lon="35.35340677946806" lat="31.221435545012355">
        <ele>-246.60000610351562</ele>
        <time>2012-12-07T12:42:11.000Z</time>
      </trkpt>
      <trkpt lon="35.35344692878425" lat="31.22140252031386">
        <ele>-248.39999389648438</ele>
        <time>2012-12-07T12:42:23.000Z</time>
      </trkpt>
      <trkpt lon="35.35345715470612" lat="31.221390450373292">
        <ele>-248.8000030517578</ele>
        <time>2012-12-07T12:42:26.000Z</time>
      </trkpt>
      <trkpt lon="35.35351934842765" lat="31.221325658261776">
        <ele>-251.1999969482422</ele>
        <time>2012-12-07T12:42:30.000Z</time>
      </trkpt>
      <trkpt lon="35.353583972901106" lat="31.221228931099176">
        <ele>-253.39999389648438</ele>
        <time>2012-12-07T12:42:34.000Z</time>
      </trkpt>
      <trkpt lon="35.35362236201763" lat="31.221017874777317">
        <ele>-253.0</ele>
        <time>2012-12-07T12:42:39.000Z</time>
      </trkpt>
      <trkpt lon="35.3536931052804" lat="31.220597187057137">
        <ele>-250.0</ele>
        <time>2012-12-07T12:42:49.000Z</time>
      </trkpt>
      <trkpt lon="35.3537742421031" lat="31.22055578045547">
        <ele>-252.1999969482422</ele>
        <time>2012-12-07T12:42:53.000Z</time>
      </trkpt>
      <trkpt lon="35.35395168699324" lat="31.220514122396708">
        <ele>-257.79998779296875</ele>
        <time>2012-12-07T12:42:58.000Z</time>
      </trkpt>
      <trkpt lon="35.35398387350142" lat="31.22049953788519">
        <ele>-258.79998779296875</ele>
        <time>2012-12-07T12:42:59.000Z</time>
      </trkpt>
      <trkpt lon="35.35418026149273" lat="31.22029242105782">
        <ele>-261.6000061035156</ele>
        <time>2012-12-07T12:43:07.000Z</time>
      </trkpt>
      <trkpt lon="35.354258213192225" lat="31.220209021121264">
        <ele>-263.20001220703125</ele>
        <time>2012-12-07T12:43:10.000Z</time>
      </trkpt>
      <trkpt lon="35.35444311797619" lat="31.219962676987052">
        <ele>-265.0</ele>
        <time>2012-12-07T12:43:22.000Z</time>
      </trkpt>
      <trkpt lon="35.35461083985865" lat="31.219735024496913">
        <ele>-266.79998779296875</ele>
        <time>2012-12-07T12:43:32.000Z</time>
      </trkpt>
      <trkpt lon="35.354611510410905" lat="31.219643829390407">
        <ele>-265.0</ele>
        <time>2012-12-07T12:43:42.000Z</time>
      </trkpt>
      <trkpt lon="35.35461746156216" lat="31.219589179381728">
        <ele>-264.20001220703125</ele>
        <time>2012-12-07T12:43:46.000Z</time>
      </trkpt>
      <trkpt lon="35.354628609493375" lat="31.219573337584734">
        <ele>-264.3999938964844</ele>
        <time>2012-12-07T12:43:47.000Z</time>
      </trkpt>
      <trkpt lon="35.354674123227596" lat="31.219523884356022">
        <ele>-265.20001220703125</ele>
        <time>2012-12-07T12:43:57.000Z</time>
      </trkpt>
      <trkpt lon="35.35472575575113" lat="31.21950821019709">
        <ele>-267.20001220703125</ele>
        <time>2012-12-07T12:44:09.000Z</time>
      </trkpt>
      <trkpt lon="35.354758612811565" lat="31.21948759071529">
        <ele>-268.20001220703125</ele>
        <time>2012-12-07T12:44:23.000Z</time>
      </trkpt>
      <trkpt lon="35.35489230416715" lat="31.21940611861646">
        <ele>-272.3999938964844</ele>
        <time>2012-12-07T12:44:33.000Z</time>
      </trkpt>
      <trkpt lon="35.35500562749803" lat="31.219280138611794">
        <ele>-275.20001220703125</ele>
        <time>2012-12-07T12:44:40.000Z</time>
      </trkpt>
      <trkpt lon="35.35512859001756" lat="31.219126330688596">
        <ele>-277.79998779296875</ele>
        <time>2012-12-07T12:44:46.000Z</time>
      </trkpt>
      <trkpt lon="35.35520922392607" lat="31.21904779225588">
        <ele>-279.3999938964844</ele>
        <time>2012-12-07T12:44:49.000Z</time>
      </trkpt>
      <trkpt lon="35.35527368076146" lat="31.218997333198786">
        <ele>-281.0</ele>
        <time>2012-12-07T12:44:51.000Z</time>
      </trkpt>
      <trkpt lon="35.355364959686995" lat="31.218942515552044">
        <ele>-283.20001220703125</ele>
        <time>2012-12-07T12:44:53.000Z</time>
      </trkpt>
      <trkpt lon="35.35541608929634" lat="31.218917621299624">
        <ele>-284.79998779296875</ele>
        <time>2012-12-07T12:44:54.000Z</time>
      </trkpt>
      <trkpt lon="35.35546135157347" lat="31.218886021524668">
        <ele>-285.6000061035156</ele>
        <time>2012-12-07T12:44:55.000Z</time>
      </trkpt>
      <trkpt lon="35.35574189387262" lat="31.21858997270465">
        <ele>-287.3999938964844</ele>
        <time>2012-12-07T12:45:06.000Z</time>
      </trkpt>
      <trkpt lon="35.35589888691902" lat="31.2183974403888">
        <ele>-286.20001220703125</ele>
        <time>2012-12-07T12:45:18.000Z</time>
      </trkpt>
      <trkpt lon="35.35594289191067" lat="31.21834765188396">
        <ele>-285.79998779296875</ele>
        <time>2012-12-07T12:45:20.000Z</time>
      </trkpt>
      <trkpt lon="35.35597742535174" lat="31.218315800651908">
        <ele>-286.3999938964844</ele>
        <time>2012-12-07T12:45:21.000Z</time>
      </trkpt>
      <trkpt lon="35.35601916722953" lat="31.218284284695983">
        <ele>-287.3999938964844</ele>
        <time>2012-12-07T12:45:22.000Z</time>
      </trkpt>
      <trkpt lon="35.35628688521683" lat="31.218077167868614">
        <ele>-294.6000061035156</ele>
        <time>2012-12-07T12:45:33.000Z</time>
      </trkpt>
      <trkpt lon="35.356337344273925" lat="31.21781607158482">
        <ele>-294.79998779296875</ele>
        <time>2012-12-07T12:45:47.000Z</time>
      </trkpt>
      <trkpt lon="35.35640347748995" lat="31.217692606151104">
        <ele>-296.3999938964844</ele>
        <time>2012-12-07T12:45:51.000Z</time>
      </trkpt>
      <trkpt lon="35.35648260265589" lat="31.217639045789838">
        <ele>-298.79998779296875</ele>
        <time>2012-12-07T12:45:55.000Z</time>
      </trkpt>
      <trkpt lon="35.35650221630931" lat="31.21764206327498">
        <ele>-299.3999938964844</ele>
        <time>2012-12-07T12:45:56.000Z</time>
      </trkpt>
      <trkpt lon="35.356517722830176" lat="31.217652205377817">
        <ele>-299.79998779296875</ele>
        <time>2012-12-07T12:45:57.000Z</time>
      </trkpt>
      <trkpt lon="35.35653591156006" lat="31.21766595169902">
        <ele>-300.6000061035156</ele>
        <time>2012-12-07T12:45:58.000Z</time>
      </trkpt>
      <trkpt lon="35.35655066370964" lat="31.217682380229235">
        <ele>-301.0</ele>
        <time>2012-12-07T12:45:59.000Z</time>
      </trkpt>
      <trkpt lon="35.35656566731632" lat="31.217702832072973">
        <ele>-301.6000061035156</ele>
        <time>2012-12-07T12:46:00.000Z</time>
      </trkpt>
      <trkpt lon="35.35658092238009" lat="31.217730743810534">
        <ele>-302.20001220703125</ele>
        <time>2012-12-07T12:46:01.000Z</time>
      </trkpt>
      <trkpt lon="35.35659299232066" lat="31.217763517051935">
        <ele>-302.79998779296875</ele>
        <time>2012-12-07T12:46:02.000Z</time>
      </trkpt>
      <trkpt lon="35.35660489462316" lat="31.217796290293336">
        <ele>-303.20001220703125</ele>
        <time>2012-12-07T12:46:03.000Z</time>
      </trkpt>
      <trkpt lon="35.356658874079585" lat="31.217868039384484">
        <ele>-305.20001220703125</ele>
        <time>2012-12-07T12:46:06.000Z</time>
      </trkpt>
      <trkpt lon="35.35668259486556" lat="31.21786979958415">
        <ele>-306.20001220703125</ele>
        <time>2012-12-07T12:46:07.000Z</time>
      </trkpt>
      <trkpt lon="35.3567030467093" lat="31.217859154567122">
        <ele>-307.0</ele>
        <time>2012-12-07T12:46:08.000Z</time>
      </trkpt>
      <trkpt lon="35.35671779885888" lat="31.21784146875143">
        <ele>-307.6000061035156</ele>
        <time>2012-12-07T12:46:09.000Z</time>
      </trkpt>
      <trkpt lon="35.356723833829165" lat="31.21782135218382">
        <ele>-307.79998779296875</ele>
        <time>2012-12-07T12:46:10.000Z</time>
      </trkpt>
      <trkpt lon="35.3567167930305" lat="31.217803331092">
        <ele>-307.3999938964844</ele>
        <time>2012-12-07T12:46:11.000Z</time>
      </trkpt>
      <trkpt lon="35.35670958459377" lat="31.2177861481905">
        <ele>-307.0</ele>
        <time>2012-12-07T12:46:12.000Z</time>
      </trkpt>
      <trkpt lon="35.35670438781381" lat="31.217764606699347">
        <ele>-306.6000061035156</ele>
        <time>2012-12-07T12:46:13.000Z</time>
      </trkpt>
      <trkpt lon="35.35670178942382" lat="31.2177393771708">
        <ele>-306.3999938964844</ele>
        <time>2012-12-07T12:46:14.000Z</time>
      </trkpt>
      <trkpt lon="35.356723330914974" lat="31.217614402994514">
        <ele>-306.6000061035156</ele>
        <time>2012-12-07T12:46:18.000Z</time>
      </trkpt>
      <trkpt lon="35.356720983982086" lat="31.217454057186842">
        <ele>-307.20001220703125</ele>
        <time>2012-12-07T12:46:22.000Z</time>
      </trkpt>
      <trkpt lon="35.35670170560479" lat="31.217282731086016">
        <ele>-310.3999938964844</ele>
        <time>2012-12-07T12:46:26.000Z</time>
      </trkpt>
      <trkpt lon="35.35675006918609" lat="31.217113500460982">
        <ele>-315.79998779296875</ele>
        <time>2012-12-07T12:46:33.000Z</time>
      </trkpt>
      <trkpt lon="35.35677052102983" lat="31.217080056667328">
        <ele>-317.20001220703125</ele>
        <time>2012-12-07T12:46:35.000Z</time>
      </trkpt>
      <trkpt lon="35.356854759156704" lat="31.216992046684027">
        <ele>-321.6000061035156</ele>
        <time>2012-12-07T12:46:40.000Z</time>
      </trkpt>
      <trkpt lon="35.356953581795096" lat="31.216870425269008">
        <ele>-326.6000061035156</ele>
        <time>2012-12-07T12:46:45.000Z</time>
      </trkpt>
      <trkpt lon="35.357060534879565" lat="31.21680756099522">
        <ele>-330.6000061035156</ele>
        <time>2012-12-07T12:46:49.000Z</time>
      </trkpt>
      <trkpt lon="35.35717419348657" lat="31.216764394193888">
        <ele>-334.20001220703125</ele>
        <time>2012-12-07T12:46:53.000Z</time>
      </trkpt>
      <trkpt lon="35.35729791037738" lat="31.216720305383205">
        <ele>-337.79998779296875</ele>
        <time>2012-12-07T12:46:57.000Z</time>
      </trkpt>
      <trkpt lon="35.35746152512729" lat="31.216643191874027">
        <ele>-342.6000061035156</ele>
        <time>2012-12-07T12:47:04.000Z</time>
      </trkpt>
      <trkpt lon="35.357490526512265" lat="31.216639755293727">
        <ele>-343.3999938964844</ele>
        <time>2012-12-07T12:47:06.000Z</time>
      </trkpt>
      <trkpt lon="35.357494885101914" lat="31.216640761122108">
        <ele>-343.3999938964844</ele>
        <time>2012-12-07T12:47:16.000Z</time>
        <extensions>
          <gpxtpx:TrackPointExtension>
            <gpxtpx:cad>0</gpxtpx:cad>
          </gpxtpx:TrackPointExtension>
        </extensions>
      </trkpt>
      <trkpt lon="35.357497818768024" lat="31.21665014885366">
        <ele>-343.3999938964844</ele>
        <time>2012-12-07T12:47:36.000Z</time>
      </trkpt>
      <trkpt lon="35.35750628449023" lat="31.216644113883376">
        <ele>-343.79998779296875</ele>
        <time>2012-12-07T12:47:59.000Z</time>
      </trkpt>
      <trkpt lon="35.357508044689894" lat="31.216647634282708">
        <ele>-343.79998779296875</ele>
        <time>2012-12-07T12:48:08.000Z</time>
      </trkpt>
      <trkpt lon="35.35751366056502" lat="31.216657189652324">
        <ele>-343.79998779296875</ele>
        <time>2012-12-07T12:48:09.000Z</time>
      </trkpt>
      <trkpt lon="35.357582308351994" lat="31.21687637642026">
        <ele>-344.0</ele>
        <time>2012-12-07T12:48:20.000Z</time>
      </trkpt>
      <trkpt lon="35.35760862752795" lat="31.216883836314082">
        <ele>-344.79998779296875</ele>
        <time>2012-12-07T12:48:21.000Z</time>
      </trkpt>
      <trkpt lon="35.35763402469456" lat="31.21688023209572">
        <ele>-345.79998779296875</ele>
        <time>2012-12-07T12:48:22.000Z</time>
      </trkpt>
      <trkpt lon="35.357654225081205" lat="31.216868329793215">
        <ele>-346.6000061035156</ele>
        <time>2012-12-07T12:48:23.000Z</time>
      </trkpt>
      <trkpt lon="35.35766604356468" lat="31.216854667291045">
        <ele>-347.20001220703125</ele>
        <time>2012-12-07T12:48:24.000Z</time>
      </trkpt>
      <trkpt lon="35.357740642502904" lat="31.21672826819122">
        <ele>-351.0</ele>
        <time>2012-12-07T12:48:32.000Z</time>
      </trkpt>
      <trkpt lon="35.357786659151316" lat="31.216619135811925">
        <ele>-353.6000061035156</ele>
        <time>2012-12-07T12:48:38.000Z</time>
      </trkpt>
      <trkpt lon="35.35779462195933" lat="31.216596504673362">
        <ele>-354.20001220703125</ele>
        <time>2012-12-07T12:48:39.000Z</time>
      </trkpt>
      <trkpt lon="35.35781440325081" lat="31.216523749753833">
        <ele>-355.6000061035156</ele>
        <time>2012-12-07T12:48:42.000Z</time>
      </trkpt>
      <trkpt lon="35.35783410072327" lat="31.216475637629628">
        <ele>-356.6000061035156</ele>
        <time>2012-12-07T12:48:44.000Z</time>
      </trkpt>
      <trkpt lon="35.35785170271993" lat="31.216457867994905">
        <ele>-357.20001220703125</ele>
        <time>2012-12-07T12:48:45.000Z</time>
      </trkpt>
      <trkpt lon="35.35786829888821" lat="31.21644931845367">
        <ele>-357.79998779296875</ele>
        <time>2012-12-07T12:48:46.000Z</time>
      </trkpt>
      <trkpt lon="35.35788849927485" lat="31.21644588187337">
        <ele>-358.3999938964844</ele>
        <time>2012-12-07T12:48:47.000Z</time>
      </trkpt>
      <trkpt lon="35.357910208404064" lat="31.216446133330464">
        <ele>-359.20001220703125</ele>
        <time>2012-12-07T12:48:48.000Z</time>
      </trkpt>
      <trkpt lon="35.35793049260974" lat="31.21644931845367">
        <ele>-359.79998779296875</ele>
        <time>2012-12-07T12:48:49.000Z</time>
      </trkpt>
      <trkpt lon="35.35794666968286" lat="31.216454599052668">
        <ele>-360.20001220703125</ele>
        <time>2012-12-07T12:48:50.000Z</time>
      </trkpt>
      <trkpt lon="35.357959577813745" lat="31.21645870618522">
        <ele>-360.3999938964844</ele>
        <time>2012-12-07T12:48:51.000Z</time>
      </trkpt>
      <trkpt lon="35.35801012068987" lat="31.216470105573535">
        <ele>-362.0</ele>
        <time>2012-12-07T12:48:54.000Z</time>
      </trkpt>
      <trkpt lon="35.358030907809734" lat="31.21646692045033">
        <ele>-362.6000061035156</ele>
        <time>2012-12-07T12:48:55.000Z</time>
      </trkpt>
      <trkpt lon="35.358093939721584" lat="31.21645082719624">
        <ele>-364.6000061035156</ele>
        <time>2012-12-07T12:48:59.000Z</time>
      </trkpt>
      <trkpt lon="35.35810776986182" lat="31.21643716469407">
        <ele>-365.0</ele>
        <time>2012-12-07T12:49:16.000Z</time>
      </trkpt>
      <trkpt lon="35.35813534632325" lat="31.21642936952412">
        <ele>-365.79998779296875</ele>
        <time>2012-12-07T12:49:28.000Z</time>
      </trkpt>
      <trkpt lon="35.35814372822642" lat="31.216426603496075">
        <ele>-366.0</ele>
        <time>2012-12-07T12:49:29.000Z</time>
      </trkpt>
      <trkpt lon="35.35819234326482" lat="31.216413779184222">
        <ele>-367.3999938964844</ele>
        <time>2012-12-07T12:49:36.000Z</time>
      </trkpt>
      <trkpt lon="35.35820860415697" lat="31.216407911852002">
        <ele>-368.0</ele>
        <time>2012-12-07T12:49:37.000Z</time>
      </trkpt>
      <trkpt lon="35.35832050256431" lat="31.216327864676714">
        <ele>-371.0</ele>
        <time>2012-12-07T12:49:44.000Z</time>
      </trkpt>
      <trkpt lon="35.35832720808685" lat="31.216326104477048">
        <ele>-371.20001220703125</ele>
        <time>2012-12-07T12:49:45.000Z</time>
      </trkpt>
      <trkpt lon="35.35837179981172" lat="31.216276483610272">
        <ele>-371.79998779296875</ele>
        <time>2012-12-07T12:50:00.000Z</time>
      </trkpt>
      <trkpt lon="35.35844220779836" lat="31.216245889663696">
        <ele>-372.79998779296875</ele>
        <time>2012-12-07T12:50:13.000Z</time>
      </trkpt>
      <trkpt lon="35.35849140956998" lat="31.216210266575217">
        <ele>-373.3999938964844</ele>
        <time>2012-12-07T12:50:24.000Z</time>
      </trkpt>
      <trkpt lon="35.35853826440871" lat="31.21610683389008">
        <ele>-373.79998779296875</ele>
        <time>2012-12-07T12:50:36.000Z</time>
      </trkpt>
      <trkpt lon="35.35854572430253" lat="31.216087471693754">
        <ele>-373.79998779296875</ele>
        <time>2012-12-07T12:50:37.000Z</time>
      </trkpt>
      <trkpt lon="35.35855930298567" lat="31.216054363176227">
        <ele>-373.79998779296875</ele>
        <time>2012-12-07T12:50:39.000Z</time>
        <extensions>
          <gpxtpx:TrackPointExtension>
            <gpxtpx:cad>3</gpxtpx:cad>
          </gpxtpx:TrackPointExtension>
        </extensions>
      </trkpt>
      <trkpt lon="35.358566008508205" lat="31.21604665182531">
        <ele>-373.79998779296875</ele>
        <time>2012-12-07T12:50:40.000Z</time>
        <extensions>
          <gpxtpx:TrackPointExtension>
            <gpxtpx:cad>3</gpxtpx:cad>
          </gpxtpx:TrackPointExtension>
        </extensions>
      </trkpt>
      <trkpt lon="35.35857195965946" lat="31.21602762490511">
        <ele>-374.0</ele>
        <time>2012-12-07T12:50:43.000Z</time>
        <extensions>
          <gpxtpx:TrackPointExtension>
            <gpxtpx:cad>0</gpxtpx:cad>
          </gpxtpx:TrackPointExtension>
        </extensions>
      </trkpt>
      <trkpt lon="35.358580173924565" lat="31.216011699289083">
        <ele>-374.0</ele>
        <time>2012-12-07T12:50:44.000Z</time>
        <extensions>
          <gpxtpx:TrackPointExtension>
            <gpxtpx:cad>0</gpxtpx:cad>
          </gpxtpx:TrackPointExtension>
        </extensions>
      </trkpt>
      <trkpt lon="35.358592411503196" lat="31.21598613448441">
        <ele>-374.0</ele>
        <time>2012-12-07T12:50:45.000Z</time>
        <extensions>
          <gpxtpx:TrackPointExtension>
            <gpxtpx:cad>0</gpxtpx:cad>
          </gpxtpx:TrackPointExtension>
        </extensions>
      </trkpt>
      <trkpt lon="35.35861319862306" lat="31.21595478616655">
        <ele>-374.20001220703125</ele>
        <time>2012-12-07T12:50:46.000Z</time>
        <extensions>
          <gpxtpx:TrackPointExtension>
            <gpxtpx:cad>0</gpxtpx:cad>
          </gpxtpx:TrackPointExtension>
        </extensions>
      </trkpt>
      <trkpt lon="35.35863951779902" lat="31.2159245274961">
        <ele>-374.3999938964844</ele>
        <time>2012-12-07T12:50:47.000Z</time>
        <extensions>
          <gpxtpx:TrackPointExtension>
            <gpxtpx:cad>0</gpxtpx:cad>
          </gpxtpx:TrackPointExtension>
        </extensions>
      </trkpt>
      <trkpt lon="35.3586698602885" lat="31.215896867215633">
        <ele>-374.79998779296875</ele>
        <time>2012-12-07T12:50:48.000Z</time>
        <extensions>
          <gpxtpx:TrackPointExtension>
            <gpxtpx:cad>0</gpxtpx:cad>
          </gpxtpx:TrackPointExtension>
        </extensions>
      </trkpt>
      <trkpt lon="35.35870011895895" lat="31.21587281115353">
        <ele>-375.0</ele>
        <time>2012-12-07T12:50:49.000Z</time>
        <extensions>
          <gpxtpx:TrackPointExtension>
            <gpxtpx:cad>0</gpxtpx:cad>
          </gpxtpx:TrackPointExtension>
        </extensions>
      </trkpt>
      <trkpt lon="35.35883590579033" lat="31.215786561369896">
        <ele>-375.3999938964844</ele>
        <time>2012-12-07T12:50:54.000Z</time>
        <extensions>
          <gpxtpx:TrackPointExtension>
            <gpxtpx:cad>0</gpxtpx:cad>
          </gpxtpx:TrackPointExtension>
        </extensions>
      </trkpt>
      <trkpt lon="35.35891955718398" lat="31.215724032372236">
        <ele>-375.0</ele>
        <time>2012-12-07T12:50:57.000Z</time>
        <extensions>
          <gpxtpx:TrackPointExtension>
            <gpxtpx:cad>0</gpxtpx:cad>
          </gpxtpx:TrackPointExtension>
        </extensions>
      </trkpt>
      <trkpt lon="35.358970519155264" lat="31.215663347393274">
        <ele>-374.0</ele>
        <time>2012-12-07T12:50:59.000Z</time>
        <extensions>
          <gpxtpx:TrackPointExtension>
            <gpxtpx:cad>0</gpxtpx:cad>
          </gpxtpx:TrackPointExtension>
        </extensions>
      </trkpt>
      <trkpt lon="35.35903103649616" lat="31.215630155056715">
        <ele>-374.0</ele>
        <time>2012-12-07T12:51:02.000Z</time>
        <extensions>
          <gpxtpx:TrackPointExtension>
            <gpxtpx:cad>0</gpxtpx:cad>
          </gpxtpx:TrackPointExtension>
        </extensions>
      </trkpt>
      <trkpt lon="35.35905249416828" lat="31.215628813952208">
        <ele>-374.20001220703125</ele>
        <time>2012-12-07T12:51:03.000Z</time>
        <extensions>
          <gpxtpx:TrackPointExtension>
            <gpxtpx:cad>0</gpxtpx:cad>
          </gpxtpx:TrackPointExtension>
        </extensions>
      </trkpt>
      <trkpt lon="35.359412832185626" lat="31.215605679899454">
        <ele>-376.3999938964844</ele>
        <time>2012-12-07T12:51:16.000Z</time>
        <extensions>
          <gpxtpx:TrackPointExtension>
            <gpxtpx:cad>0</gpxtpx:cad>
          </gpxtpx:TrackPointExtension>
        </extensions>
      </trkpt>
      <trkpt lon="35.35972421988845" lat="31.215785052627325">
        <ele>-381.3999938964844</ele>
        <time>2012-12-07T12:51:25.000Z</time>
        <extensions>
          <gpxtpx:TrackPointExtension>
            <gpxtpx:cad>0</gpxtpx:cad>
          </gpxtpx:TrackPointExtension>
        </extensions>
      </trkpt>
      <trkpt lon="35.36006041802466" lat="31.21601304039359">
        <ele>-385.0</ele>
        <time>2012-12-07T12:51:32.000Z</time>
        <extensions>
          <gpxtpx:TrackPointExtension>
            <gpxtpx:cad>0</gpxtpx:cad>
          </gpxtpx:TrackPointExtension>
        </extensions>
      </trkpt>
      <trkpt lon="35.36011163145304" lat="31.216042125597596">
        <ele>-385.3999938964844</ele>
        <time>2012-12-07T12:51:33.000Z</time>
        <extensions>
          <gpxtpx:TrackPointExtension>
            <gpxtpx:cad>0</gpxtpx:cad>
          </gpxtpx:TrackPointExtension>
        </extensions>
      </trkpt>
      <trkpt lon="35.360167706385255" lat="31.216072384268045">
        <ele>-385.79998779296875</ele>
        <time>2012-12-07T12:51:34.000Z</time>
        <extensions>
          <gpxtpx:TrackPointExtension>
            <gpxtpx:cad>0</gpxtpx:cad>
          </gpxtpx:TrackPointExtension>
        </extensions>
      </trkpt>
      <trkpt lon="35.36022319458425" lat="31.216104570776224">
        <ele>-386.3999938964844</ele>
        <time>2012-12-07T12:51:35.000Z</time>
        <extensions>
          <gpxtpx:TrackPointExtension>
            <gpxtpx:cad>0</gpxtpx:cad>
          </gpxtpx:TrackPointExtension>
        </extensions>
      </trkpt>
      <trkpt lon="35.36035353317857" lat="31.21615712530911">
        <ele>-387.20001220703125</ele>
        <time>2012-12-07T12:51:39.000Z</time>
        <extensions>
          <gpxtpx:TrackPointExtension>
            <gpxtpx:cad>0</gpxtpx:cad>
          </gpxtpx:TrackPointExtension>
        </extensions>
      </trkpt>
      <trkpt lon="35.36036593839526" lat="31.21615176089108">
        <ele>-387.20001220703125</ele>
        <time>2012-12-07T12:51:40.000Z</time>
        <extensions>
          <gpxtpx:TrackPointExtension>
            <gpxtpx:cad>0</gpxtpx:cad>
          </gpxtpx:TrackPointExtension>
        </extensions>
      </trkpt>
      <trkpt lon="35.360377337783575" lat="31.216143798083067">
        <ele>-387.20001220703125</ele>
        <time>2012-12-07T12:51:41.000Z</time>
        <extensions>
          <gpxtpx:TrackPointExtension>
            <gpxtpx:cad>0</gpxtpx:cad>
          </gpxtpx:TrackPointExtension>
        </extensions>
      </trkpt>
      <trkpt lon="35.36038940772414" lat="31.216131979599595">
        <ele>-387.20001220703125</ele>
        <time>2012-12-07T12:51:51.000Z</time>
        <extensions>
          <gpxtpx:TrackPointExtension>
            <gpxtpx:cad>0</gpxtpx:cad>
          </gpxtpx:TrackPointExtension>
        </extensions>
      </trkpt>
      <trkpt lon="35.36045788787305" lat="31.216061068698764">
        <ele>-387.20001220703125</ele>
        <time>2012-12-07T12:52:01.000Z</time>
        <extensions>
          <gpxtpx:TrackPointExtension>
            <gpxtpx:cad>0</gpxtpx:cad>
          </gpxtpx:TrackPointExtension>
        </extensions>
      </trkpt>
      <trkpt lon="35.360733987763524" lat="31.21569930575788">
        <ele>-386.20001220703125</ele>
        <time>2012-12-07T12:52:17.000Z</time>
        <extensions>
          <gpxtpx:TrackPointExtension>
            <gpxtpx:cad>0</gpxtpx:cad>
          </gpxtpx:TrackPointExtension>
        </extensions>
      </trkpt>
      <trkpt lon="35.36107236519456" lat="31.2151647079736">
        <ele>-385.0</ele>
        <time>2012-12-07T12:52:36.000Z</time>
        <extensions>
          <gpxtpx:TrackPointExtension>
            <gpxtpx:cad>0</gpxtpx:cad>
          </gpxtpx:TrackPointExtension>
        </extensions>
      </trkpt>
      <trkpt lon="35.361465560272336" lat="31.21442592702806">
        <ele>-387.20001220703125</ele>
        <time>2012-12-07T12:53:00.000Z</time>
        <extensions>
          <gpxtpx:TrackPointExtension>
            <gpxtpx:cad>0</gpxtpx:cad>
          </gpxtpx:TrackPointExtension>
        </extensions>
      </trkpt>
      <trkpt lon="35.36181609146297" lat="31.213529147207737">
        <ele>-387.6000061035156</ele>
        <time>2012-12-07T12:53:26.000Z</time>
        <extensions>
          <gpxtpx:TrackPointExtension>
            <gpxtpx:cad>0</gpxtpx:cad>
          </gpxtpx:TrackPointExtension>
        </extensions>
      </trkpt>
      <trkpt lon="35.361995631828904" lat="31.212808722630143">
        <ele>-385.3999938964844</ele>
        <time>2012-12-07T12:53:45.000Z</time>
        <extensions>
          <gpxtpx:TrackPointExtension>
            <gpxtpx:cad>0</gpxtpx:cad>
          </gpxtpx:TrackPointExtension>
        </extensions>
      </trkpt>
      <trkpt lon="35.362123204395175" lat="31.211796440184116">
        <ele>-384.6000061035156</ele>
        <time>2012-12-07T12:54:10.000Z</time>
        <extensions>
          <gpxtpx:TrackPointExtension>
            <gpxtpx:cad>0</gpxtpx:cad>
          </gpxtpx:TrackPointExtension>
        </extensions>
      </trkpt>
      <trkpt lon="35.36208825185895" lat="31.210819529369473">
        <ele>-385.6000061035156</ele>
        <time>2012-12-07T12:54:35.000Z</time>
        <extensions>
          <gpxtpx:TrackPointExtension>
            <gpxtpx:cad>0</gpxtpx:cad>
          </gpxtpx:TrackPointExtension>
        </extensions>
      </trkpt>
      <trkpt lon="35.361986327916384" lat="31.21006046421826">
        <ele>-387.3999938964844</ele>
        <time>2012-12-07T12:54:57.000Z</time>
        <extensions>
          <gpxtpx:TrackPointExtension>
            <gpxtpx:cad>0</gpxtpx:cad>
          </gpxtpx:TrackPointExtension>
        </extensions>
      </trkpt>
      <trkpt lon="35.3618180193007" lat="31.20940675958991">
        <ele>-385.3999938964844</ele>
        <time>2012-12-07T12:55:18.000Z</time>
        <extensions>
          <gpxtpx:TrackPointExtension>
            <gpxtpx:cad>0</gpxtpx:cad>
          </gpxtpx:TrackPointExtension>
        </extensions>
      </trkpt>
      <trkpt lon="35.3616435918957" lat="31.208787504583597">
        <ele>-382.79998779296875</ele>
        <time>2012-12-07T12:55:39.000Z</time>
        <extensions>
          <gpxtpx:TrackPointExtension>
            <gpxtpx:cad>0</gpxtpx:cad>
          </gpxtpx:TrackPointExtension>
        </extensions>
      </trkpt>
      <trkpt lon="35.36144242621958" lat="31.20803078636527">
        <ele>-379.6000061035156</ele>
        <time>2012-12-07T12:56:01.000Z</time>
        <extensions>
          <gpxtpx:TrackPointExtension>
            <gpxtpx:cad>0</gpxtpx:cad>
          </gpxtpx:TrackPointExtension>
        </extensions>
      </trkpt>
      <trkpt lon="35.36121720448136" lat="31.20727088302374">
        <ele>-379.79998779296875</ele>
        <time>2012-12-07T12:56:23.000Z</time>
        <extensions>
          <gpxtpx:TrackPointExtension>
            <gpxtpx:cad>0</gpxtpx:cad>
          </gpxtpx:TrackPointExtension>
        </extensions>
      </trkpt>
      <trkpt lon="35.3609046433121" lat="31.206445936113596">
        <ele>-381.3999938964844</ele>
        <time>2012-12-07T12:56:48.000Z</time>
        <extensions>
          <gpxtpx:TrackPointExtension>
            <gpxtpx:cad>0</gpxtpx:cad>
          </gpxtpx:TrackPointExtension>
        </extensions>
      </trkpt>
      <trkpt lon="35.36084630526602" lat="31.20622373186052">
        <ele>-381.3999938964844</ele>
        <time>2012-12-07T12:56:55.000Z</time>
        <extensions>
          <gpxtpx:TrackPointExtension>
            <gpxtpx:cad>0</gpxtpx:cad>
          </gpxtpx:TrackPointExtension>
        </extensions>
      </trkpt>
      <trkpt lon="35.36086441017687" lat="31.2061935570091">
        <ele>-381.6000061035156</ele>
        <time>2012-12-07T12:56:56.000Z</time>
        <extensions>
          <gpxtpx:TrackPointExtension>
            <gpxtpx:cad>0</gpxtpx:cad>
          </gpxtpx:TrackPointExtension>
        </extensions>
      </trkpt>
      <trkpt lon="35.36083406768739" lat="31.205842439085245">
        <ele>-382.0</ele>
        <time>2012-12-07T12:57:07.000Z</time>
      </trkpt>
      <trkpt lon="35.36067028529942" lat="31.20519384741783">
        <ele>-382.3999938964844</ele>
        <time>2012-12-07T12:57:28.000Z</time>
      </trkpt>
      <trkpt lon="35.36086675710976" lat="31.205122349783778">
        <ele>-384.79998779296875</ele>
        <time>2012-12-07T12:57:34.000Z</time>
      </trkpt>
      <trkpt lon="35.360884023830295" lat="31.20513073168695">
        <ele>-385.0</ele>
        <time>2012-12-07T12:57:35.000Z</time>
      </trkpt>
      <trkpt lon="35.36089978180826" lat="31.20513458736241">
        <ele>-385.0</ele>
        <time>2012-12-07T12:57:36.000Z</time>
      </trkpt>
      <trkpt lon="35.360918221995234" lat="31.20513073168695">
        <ele>-385.20001220703125</ele>
        <time>2012-12-07T12:57:37.000Z</time>
      </trkpt>
      <trkpt lon="35.36093817092478" lat="31.205126205459237">
        <ele>-385.20001220703125</ele>
        <time>2012-12-07T12:57:38.000Z</time>
      </trkpt>
      <trkpt lon="35.360959712415934" lat="31.205121595412493">
        <ele>-385.3999938964844</ele>
        <time>2012-12-07T12:57:39.000Z</time>
      </trkpt>
      <trkpt lon="35.36098217591643" lat="31.205114889889956">
        <ele>-385.6000061035156</ele>
        <time>2012-12-07T12:57:40.000Z</time>
      </trkpt>
      <trkpt lon="35.3614932205528" lat="31.204925877973437">
        <ele>-387.6000061035156</ele>
        <time>2012-12-07T12:57:53.000Z</time>
      </trkpt>
      <trkpt lon="35.36153353750706" lat="31.20489721186459">
        <ele>-387.6000061035156</ele>
        <time>2012-12-07T12:57:54.000Z</time>
      </trkpt>
      <trkpt lon="35.36175205372274" lat="31.20470761321485">
        <ele>-386.3999938964844</ele>
        <time>2012-12-07T12:58:00.000Z</time>
      </trkpt>
      <trkpt lon="35.361779630184174" lat="31.204671822488308">
        <ele>-386.0</ele>
        <time>2012-12-07T12:58:01.000Z</time>
      </trkpt>
      <trkpt lon="35.36197727546096" lat="31.20405960828066">
        <ele>-382.79998779296875</ele>
        <time>2012-12-07T12:58:16.000Z</time>
      </trkpt>
      <trkpt lon="35.362030332908034" lat="31.20338981039822">
        <ele>-383.20001220703125</ele>
        <time>2012-12-07T12:58:32.000Z</time>
      </trkpt>
      <trkpt lon="35.36247725598514" lat="31.202784636989236">
        <ele>-384.20001220703125</ele>
        <time>2012-12-07T12:58:48.000Z</time>
      </trkpt>
      <trkpt lon="35.363018391653895" lat="31.202225731685758">
        <ele>-383.79998779296875</ele>
        <time>2012-12-07T12:59:07.000Z</time>
      </trkpt>
      <trkpt lon="35.363260796293616" lat="31.202018279582262">
        <ele>-383.79998779296875</ele>
        <time>2012-12-07T12:59:14.000Z</time>
      </trkpt>
      <trkpt lon="35.363752814009786" lat="31.201775036752224">
        <ele>-383.0</ele>
        <time>2012-12-07T12:59:28.000Z</time>
      </trkpt>
      <trkpt lon="35.36427936516702" lat="31.201546294614673">
        <ele>-382.6000061035156</ele>
        <time>2012-12-07T12:59:44.000Z</time>
      </trkpt>
      <trkpt lon="35.3646741528064" lat="31.201279750093818">
        <ele>-383.3999938964844</ele>
        <time>2012-12-07T12:59:59.000Z</time>
      </trkpt>
      <trkpt lon="35.36469024606049" lat="31.201264495030046">
        <ele>-383.3999938964844</ele>
        <time>2012-12-07T13:00:00.000Z</time>
      </trkpt>
      <trkpt lon="35.36483818665147" lat="31.201049918308854">
        <ele>-383.0</ele>
        <time>2012-12-07T13:00:12.000Z</time>
      </trkpt>
      <trkpt lon="35.364836007356644" lat="31.201035920530558">
        <ele>-382.79998779296875</ele>
        <time>2012-12-07T13:00:13.000Z</time>
      </trkpt>
      <trkpt lon="35.36483273841441" lat="31.201017228886485">
        <ele>-382.79998779296875</ele>
        <time>2012-12-07T13:00:14.000Z</time>
      </trkpt>
      <trkpt lon="35.36483516916633" lat="31.200992418453097">
        <ele>-382.79998779296875</ele>
        <time>2012-12-07T13:00:15.000Z</time>
      </trkpt>
      <trkpt lon="35.364845311269164" lat="31.200961656868458">
        <ele>-382.6000061035156</ele>
        <time>2012-12-07T13:00:16.000Z</time>
      </trkpt>
      <trkpt lon="35.36485813558102" lat="31.20092754252255">
        <ele>-382.3999938964844</ele>
        <time>2012-12-07T13:00:17.000Z</time>
      </trkpt>
      <trkpt lon="35.364948911592364" lat="31.200557984411716">
        <ele>-381.79998779296875</ele>
        <time>2012-12-07T13:00:29.000Z</time>
      </trkpt>
      <trkpt lon="35.364798456430435" lat="31.20017987675965">
        <ele>-381.6000061035156</ele>
        <time>2012-12-07T13:00:43.000Z</time>
      </trkpt>
      <trkpt lon="35.36473089829087" lat="31.200075019150972">
        <ele>-381.79998779296875</ele>
        <time>2012-12-07T13:00:48.000Z</time>
      </trkpt>
      <trkpt lon="35.36471187137067" lat="31.200066721066833">
        <ele>-381.79998779296875</ele>
        <time>2012-12-07T13:00:49.000Z</time>
      </trkpt>
      <trkpt lon="35.3646881505847" lat="31.200057081878185">
        <ele>-381.79998779296875</ele>
        <time>2012-12-07T13:00:50.000Z</time>
      </trkpt>
      <trkpt lon="35.36466736346483" lat="31.20004115626216">
        <ele>-382.0</ele>
        <time>2012-12-07T13:00:51.000Z</time>
      </trkpt>
      <trkpt lon="35.36465026438236" lat="31.200023302808404">
        <ele>-382.0</ele>
        <time>2012-12-07T13:00:52.000Z</time>
      </trkpt>
      <trkpt lon="35.36458874121308" lat="31.199954403564334">
        <ele>-382.0</ele>
        <time>2012-12-07T13:00:57.000Z</time>
      </trkpt>
      <trkpt lon="35.364584969356656" lat="31.199940405786037">
        <ele>-382.0</ele>
        <time>2012-12-07T13:00:58.000Z</time>
      </trkpt>
      <trkpt lon="35.364575581625104" lat="31.199929425492883">
        <ele>-382.0</ele>
        <time>2012-12-07T13:00:59.000Z</time>
      </trkpt>
      <trkpt lon="35.36455990746617" lat="31.199919367209077">
        <ele>-382.0</ele>
        <time>2012-12-07T13:01:00.000Z</time>
      </trkpt>
      <trkpt lon="35.36454549059272" lat="31.19990821927786">
        <ele>-382.0</ele>
        <time>2012-12-07T13:01:01.000Z</time>
      </trkpt>
      <trkpt lon="35.364531660452485" lat="31.199894724413753">
        <ele>-382.0</ele>
        <time>2012-12-07T13:01:02.000Z</time>
      </trkpt>
      <trkpt lon="35.36451523192227" lat="31.19988181628287">
        <ele>-382.0</ele>
        <time>2012-12-07T13:01:03.000Z</time>
      </trkpt>
      <trkpt lon="35.36449612118304" lat="31.199868908151984">
        <ele>-382.0</ele>
        <time>2012-12-07T13:01:04.000Z</time>
      </trkpt>
      <trkpt lon="35.36447684280574" lat="31.199855413287878">
        <ele>-382.0</ele>
        <time>2012-12-07T13:01:05.000Z</time>
      </trkpt>
      <trkpt lon="35.36445379257202" lat="31.199841666966677">
        <ele>-382.0</ele>
        <time>2012-12-07T13:01:06.000Z</time>
      </trkpt>
      <trkpt lon="35.36443124525249" lat="31.199825070798397">
        <ele>-382.0</ele>
        <time>2012-12-07T13:01:07.000Z</time>
      </trkpt>
      <trkpt lon="35.36440928466618" lat="31.199808893725276">
        <ele>-382.0</ele>
        <time>2012-12-07T13:01:08.000Z</time>
      </trkpt>
      <trkpt lon="35.36438514478505" lat="31.199793219566345">
        <ele>-382.0</ele>
        <time>2012-12-07T13:01:09.000Z</time>
      </trkpt>
      <trkpt lon="35.36395004019141" lat="31.199503540992737">
        <ele>-381.20001220703125</ele>
        <time>2012-12-07T13:01:25.000Z</time>
      </trkpt>
      <trkpt lon="35.36383856087923" lat="31.19941234588623">
        <ele>-381.0</ele>
        <time>2012-12-07T13:01:30.000Z</time>
      </trkpt>
      <trkpt lon="35.363831017166376" lat="31.199387283995748">
        <ele>-380.79998779296875</ele>
        <time>2012-12-07T13:01:31.000Z</time>
      </trkpt>
      <trkpt lon="35.36382774822414" lat="31.199356941506267">
        <ele>-380.79998779296875</ele>
        <time>2012-12-07T13:01:32.000Z</time>
      </trkpt>
      <trkpt lon="35.36382012069225" lat="31.19932089932263">
        <ele>-380.79998779296875</ele>
        <time>2012-12-07T13:01:33.000Z</time>
      </trkpt>
      <trkpt lon="35.36380293779075" lat="31.199280247092247">
        <ele>-380.79998779296875</ele>
        <time>2012-12-07T13:01:34.000Z</time>
      </trkpt>
      <trkpt lon="35.363778714090586" lat="31.199235739186406">
        <ele>-380.6000061035156</ele>
        <time>2012-12-07T13:01:35.000Z</time>
      </trkpt>
      <trkpt lon="35.363750802353024" lat="31.19919441640377">
        <ele>-380.6000061035156</ele>
        <time>2012-12-07T13:01:36.000Z</time>
      </trkpt>
      <trkpt lon="35.36371987313032" lat="31.199155608192086">
        <ele>-380.6000061035156</ele>
        <time>2012-12-07T13:01:37.000Z</time>
      </trkpt>
      <trkpt lon="35.36348761059344" lat="31.198837598785758">
        <ele>-382.0</ele>
        <time>2012-12-07T13:01:50.000Z</time>
      </trkpt>
      <trkpt lon="35.363293988630176" lat="31.198438704013824">
        <ele>-383.6000061035156</ele>
        <time>2012-12-07T13:02:10.000Z</time>
      </trkpt>
      <trkpt lon="35.36324009299278" lat="31.198316160589457">
        <ele>-383.6000061035156</ele>
        <time>2012-12-07T13:02:17.000Z</time>
      </trkpt>
      <trkpt lon="35.363278817385435" lat="31.198299480602145">
        <ele>-384.0</ele>
        <time>2012-12-07T13:02:26.000Z</time>
      </trkpt>
      <trkpt lon="35.36326205357909" lat="31.198307694867253">
        <ele>-383.79998779296875</ele>
        <time>2012-12-07T13:02:52.000Z</time>
      </trkpt>
      <trkpt lon="35.36326104775071" lat="31.19830660521984">
        <ele>-383.79998779296875</ele>
        <time>2012-12-07T13:03:02.000Z</time>
      </trkpt>
    </trkseg>
  </trk>
</gpx>
